<?xml version="1.0" encoding="UTF-8"?>
<gpx version="1.1" creator="2bulu-scraper" xmlns="http://www.topografix.com/GPX/1/1">
  <metadata><name>峨眉山徒步穷人省钱路线</name><desc>source: 2bulu.com trackId=87663739; exported 2026-09-01T16:04:50.144Z</desc>
    <bounds minlat="29.562721" minlon="103.381599" maxlat="29.588011" maxlon="103.449486"/>
    <link href="https://www.2bulu.com/track/t-gX7TgEFRPJTp%252FR2KBg5Tzw%253D%253D.htm"><text>2bulu 源页面</text></link>
  </metadata>
  <wpt lat="29.565859" lon="103.435486"><ele>571</ele><name></name></wpt>
  <wpt lat="29.564231" lon="103.434964"><ele>595</ele><name></name></wpt>
  <wpt lat="29.564003" lon="103.434631"><ele>605</ele><name></name></wpt>
  <wpt lat="29.563365" lon="103.43391"><ele>619</ele><name></name></wpt>
  <wpt lat="29.563058" lon="103.434249"><ele>624</ele><name></name></wpt>
  <wpt lat="29.563058" lon="103.434249"><ele>624</ele><name></name></wpt>
  <wpt lat="29.563089" lon="103.434606"><ele>625</ele><name></name></wpt>
  <wpt lat="29.563415" lon="103.434811"><ele>620</ele><name></name></wpt>
  <wpt lat="29.56554" lon="103.430993"><ele>621</ele><name></name></wpt>
  <wpt lat="29.565233" lon="103.425798"><ele>695</ele><name></name></wpt>
  <wpt lat="29.565344" lon="103.421264"><ele>833</ele><name></name></wpt>
  <wpt lat="29.568874" lon="103.419959"><ele>930</ele><name></name></wpt>
  <wpt lat="29.570584" lon="103.415809"><ele>921</ele><name></name></wpt>
  <wpt lat="29.568443" lon="103.409963"><ele>870</ele><name></name></wpt>
  <wpt lat="29.568443" lon="103.409963"><ele>870</ele><name></name></wpt>
  <wpt lat="29.567671" lon="103.408431"><ele>824</ele><name></name></wpt>
  <wpt lat="29.566687" lon="103.407937"><ele>813</ele><name></name></wpt>
  <wpt lat="29.570178" lon="103.402817"><ele>779</ele><name>左上
</name></wpt>
  <wpt lat="29.570218" lon="103.402783"><ele>783</ele><name>左上绕过检票口</name></wpt>
  <wpt lat="29.569951" lon="103.402328"><ele>797</ele><name></name></wpt>
  <wpt lat="29.569951" lon="103.402328"><ele>797</ele><name></name></wpt>
  <wpt lat="29.569428" lon="103.40188"><ele>833</ele><name></name></wpt>
  <wpt lat="29.569261" lon="103.401836"><ele>836</ele><name></name></wpt>
  <wpt lat="29.569134" lon="103.401814"><ele>839</ele><name></name></wpt>
  <wpt lat="29.570617" lon="103.399746"><ele>855</ele><name></name></wpt>
  <wpt lat="29.571332" lon="103.39942"><ele>853</ele><name></name></wpt>
  <wpt lat="29.571721" lon="103.399099"><ele>849</ele><name></name></wpt>
  <wpt lat="29.57415" lon="103.392828"><ele>712</ele><name></name></wpt>
  <wpt lat="29.574204" lon="103.392174"><ele>698</ele><name></name></wpt>
  <wpt lat="29.570577" lon="103.39141"><ele>728</ele><name></name></wpt>
  <wpt lat="29.566072" lon="103.389669"><ele>747</ele><name></name></wpt>
  <wpt lat="29.564946" lon="103.388976"><ele>764</ele><name>封路了</name></wpt>
  <wpt lat="29.564992" lon="103.388994"><ele>762</ele><name>封路了</name></wpt>
  <wpt lat="29.573526" lon="103.391869"><ele>719</ele><name></name></wpt>
  <wpt lat="29.574142" lon="103.39198"><ele>700</ele><name></name></wpt>
  <wpt lat="29.578422" lon="103.389073"><ele>812</ele><name></name></wpt>
  <wpt lat="29.581319" lon="103.384312"><ele>977</ele><name></name></wpt>
  <wpt lat="29.581515" lon="103.384352"><ele>978</ele><name></name></wpt>
  <wpt lat="29.581459" lon="103.383719"><ele>978</ele><name></name></wpt>
  <wpt lat="29.581351" lon="103.382896"><ele>1003</ele><name></name></wpt>
  <wpt lat="29.581308" lon="103.382533"><ele>1010</ele><name></name></wpt>
  <wpt lat="29.581612" lon="103.384176"><ele>972</ele><name></name></wpt>
  <wpt lat="29.574611" lon="103.394107"><ele>698</ele><name>民宿环境很好</name></wpt>
  <wpt lat="29.574561" lon="103.394102"><ele>694</ele><name>山上民宿坐车到酒店，120元包车</name></wpt>
  <wpt lat="29.582131" lon="103.413795"><ele>583</ele><name>民宿老板</name></wpt>
  <trk><name>峨眉山徒步穷人省钱路线</name>
      <trkseg>
        <trkpt lat="29.566001" lon="103.435627"><ele>567.7452</ele><time>2026-07-27T20:25:46.000Z</time></trkpt>
        <trkpt lat="29.565961" lon="103.435594"><ele>566.91473</ele><time>2026-07-27T20:25:53.000Z</time></trkpt>
        <trkpt lat="29.565918" lon="103.43557"><ele>568.6491</ele><time>2026-07-27T20:25:59.000Z</time></trkpt>
        <trkpt lat="29.565888" lon="103.435527"><ele>571.1858</ele><time>2026-07-27T20:26:05.000Z</time></trkpt>
        <trkpt lat="29.565859" lon="103.435486"><ele>571.18146</ele><time>2026-07-27T20:26:10.000Z</time></trkpt>
        <trkpt lat="29.565825" lon="103.435441"><ele>572.32935</ele><time>2026-07-27T20:26:18.000Z</time></trkpt>
        <trkpt lat="29.565817" lon="103.435388"><ele>572.70557</ele><time>2026-07-27T20:26:27.000Z</time></trkpt>
        <trkpt lat="29.5658" lon="103.435336"><ele>573.96075</ele><time>2026-07-27T20:26:32.000Z</time></trkpt>
        <trkpt lat="29.565787" lon="103.435284"><ele>574.6261</ele><time>2026-07-27T20:26:43.000Z</time></trkpt>
        <trkpt lat="29.565779" lon="103.435229"><ele>576.46985</ele><time>2026-07-27T20:26:51.000Z</time></trkpt>
        <trkpt lat="29.565764" lon="103.435179"><ele>577.80023</ele><time>2026-07-27T20:26:56.000Z</time></trkpt>
        <trkpt lat="29.565746" lon="103.435127"><ele>578.8732</ele><time>2026-07-27T20:27:02.000Z</time></trkpt>
        <trkpt lat="29.565708" lon="103.435092"><ele>579.5073</ele><time>2026-07-27T20:27:07.000Z</time></trkpt>
        <trkpt lat="29.565667" lon="103.435069"><ele>578.0278</ele><time>2026-07-27T20:27:13.000Z</time></trkpt>
        <trkpt lat="29.565621" lon="103.435083"><ele>577.9415</ele><time>2026-07-27T20:27:42.000Z</time></trkpt>
        <trkpt lat="29.565571" lon="103.435088"><ele>577.2111</ele><time>2026-07-27T20:27:51.000Z</time></trkpt>
        <trkpt lat="29.565514" lon="103.435083"><ele>575.8358</ele><time>2026-07-27T20:28:00.000Z</time></trkpt>
        <trkpt lat="29.565469" lon="103.435086"><ele>574.9435</ele><time>2026-07-27T20:28:30.000Z</time></trkpt>
        <trkpt lat="29.565465" lon="103.435019"><ele>575.7158</ele><time>2026-07-27T20:29:00.000Z</time></trkpt>
        <trkpt lat="29.565437" lon="103.434971"><ele>574.5189</ele><time>2026-07-27T20:29:05.000Z</time></trkpt>
        <trkpt lat="29.565404" lon="103.434935"><ele>574.75024</ele><time>2026-07-27T20:29:10.000Z</time></trkpt>
        <trkpt lat="29.565398" lon="103.434872"><ele>572.4112</ele><time>2026-07-27T20:29:16.000Z</time></trkpt>
        <trkpt lat="29.565371" lon="103.434827"><ele>573.6438</ele><time>2026-07-27T20:29:21.000Z</time></trkpt>
        <trkpt lat="29.565343" lon="103.434782"><ele>574.0042</ele><time>2026-07-27T20:29:28.000Z</time></trkpt>
        <trkpt lat="29.565296" lon="103.434775"><ele>574.6197</ele><time>2026-07-27T20:29:37.000Z</time></trkpt>
        <trkpt lat="29.565291" lon="103.43485"><ele>577.05493</ele><time>2026-07-27T20:30:05.000Z</time></trkpt>
        <trkpt lat="29.565241" lon="103.434851"><ele>575.5812</ele><time>2026-07-27T20:30:13.000Z</time></trkpt>
        <trkpt lat="29.565205" lon="103.434915"><ele>572.95355</ele><time>2026-07-27T20:30:18.000Z</time></trkpt>
        <trkpt lat="29.56517" lon="103.434971"><ele>573.6283</ele><time>2026-07-27T20:30:24.000Z</time></trkpt>
        <trkpt lat="29.565165" lon="103.435027"><ele>574.3193</ele><time>2026-07-27T20:30:30.000Z</time></trkpt>
        <trkpt lat="29.565135" lon="103.435074"><ele>574.1084</ele><time>2026-07-27T20:30:37.000Z</time></trkpt>
        <trkpt lat="29.565149" lon="103.435126"><ele>576.9795</ele><time>2026-07-27T20:30:45.000Z</time></trkpt>
        <trkpt lat="29.565149" lon="103.435184"><ele>577.91614</ele><time>2026-07-27T20:30:52.000Z</time></trkpt>
        <trkpt lat="29.565107" lon="103.435213"><ele>576.3791</ele><time>2026-07-27T20:31:09.000Z</time></trkpt>
        <trkpt lat="29.565069" lon="103.435254"><ele>575.0173</ele><time>2026-07-27T20:31:15.000Z</time></trkpt>
        <trkpt lat="29.565026" lon="103.435279"><ele>575.258</ele><time>2026-07-27T20:31:22.000Z</time></trkpt>
        <trkpt lat="29.565005" lon="103.435335"><ele>575.11993</ele><time>2026-07-27T20:31:29.000Z</time></trkpt>
        <trkpt lat="29.56498" lon="103.435388"><ele>576.2266</ele><time>2026-07-27T20:31:36.000Z</time></trkpt>
        <trkpt lat="29.564948" lon="103.435432"><ele>577.41</ele><time>2026-07-27T20:31:40.000Z</time></trkpt>
        <trkpt lat="29.564903" lon="103.435441"><ele>579.7191</ele><time>2026-07-27T20:31:54.000Z</time></trkpt>
        <trkpt lat="29.564883" lon="103.435394"><ele>578.962</ele><time>2026-07-27T20:32:16.000Z</time></trkpt>
        <trkpt lat="29.564863" lon="103.435347"><ele>579.28906</ele><time>2026-07-27T20:32:22.000Z</time></trkpt>
        <trkpt lat="29.56483" lon="103.435301"><ele>582.2049</ele><time>2026-07-27T20:32:29.000Z</time></trkpt>
        <trkpt lat="29.564783" lon="103.435273"><ele>582.1996</ele><time>2026-07-27T20:32:34.000Z</time></trkpt>
        <trkpt lat="29.564731" lon="103.435249"><ele>581.376</ele><time>2026-07-27T20:32:40.000Z</time></trkpt>
        <trkpt lat="29.564688" lon="103.435226"><ele>582.4451</ele><time>2026-07-27T20:32:48.000Z</time></trkpt>
        <trkpt lat="29.56465" lon="103.435195"><ele>582.22253</ele><time>2026-07-27T20:33:00.000Z</time></trkpt>
        <trkpt lat="29.564614" lon="103.435149"><ele>582.29346</ele><time>2026-07-27T20:33:07.000Z</time></trkpt>
        <trkpt lat="29.564576" lon="103.435107"><ele>582.66205</ele><time>2026-07-27T20:33:11.000Z</time></trkpt>
        <trkpt lat="29.564528" lon="103.435087"><ele>583.1115</ele><time>2026-07-27T20:33:18.000Z</time></trkpt>
        <trkpt lat="29.564488" lon="103.43505"><ele>585.3082</ele><time>2026-07-27T20:33:24.000Z</time></trkpt>
        <trkpt lat="29.564451" lon="103.435013"><ele>585.4092</ele><time>2026-07-27T20:33:31.000Z</time></trkpt>
        <trkpt lat="29.564408" lon="103.435031"><ele>584.15375</ele><time>2026-07-27T20:33:36.000Z</time></trkpt>
        <trkpt lat="29.564364" lon="103.43505"><ele>582.85754</ele><time>2026-07-27T20:33:41.000Z</time></trkpt>
        <trkpt lat="29.564325" lon="103.435081"><ele>582.83936</ele><time>2026-07-27T20:33:47.000Z</time></trkpt>
        <trkpt lat="29.564298" lon="103.435035"><ele>587.6337</ele><time>2026-07-27T20:34:11.000Z</time></trkpt>
        <trkpt lat="29.564257" lon="103.435008"><ele>591.07623</ele><time>2026-07-27T20:34:27.000Z</time></trkpt>
        <trkpt lat="29.564231" lon="103.434964"><ele>594.5167</ele><time>2026-07-27T20:34:39.000Z</time></trkpt>
        <trkpt lat="29.564254" lon="103.434917"><ele>596.43823</ele><time>2026-07-27T20:34:57.000Z</time></trkpt>
        <trkpt lat="29.564209" lon="103.43489"><ele>595.5567</ele><time>2026-07-27T20:35:01.000Z</time></trkpt>
        <trkpt lat="29.564199" lon="103.434835"><ele>599.085</ele><time>2026-07-27T20:35:14.000Z</time></trkpt>
        <trkpt lat="29.564153" lon="103.434827"><ele>603.76373</ele><time>2026-07-27T20:35:24.000Z</time></trkpt>
        <trkpt lat="29.564194" lon="103.434853"><ele>605.62714</ele><time>2026-07-27T20:35:37.000Z</time></trkpt>
        <trkpt lat="29.564148" lon="103.434846"><ele>607.8042</ele><time>2026-07-27T20:35:49.000Z</time></trkpt>
        <trkpt lat="29.564108" lon="103.434806"><ele>604.91406</ele><time>2026-07-27T20:35:55.000Z</time></trkpt>
        <trkpt lat="29.56408" lon="103.434765"><ele>604.2922</ele><time>2026-07-27T20:36:00.000Z</time></trkpt>
        <trkpt lat="29.564038" lon="103.434743"><ele>606.5287</ele><time>2026-07-27T20:36:06.000Z</time></trkpt>
        <trkpt lat="29.564067" lon="103.434702"><ele>603.109</ele><time>2026-07-27T20:36:26.000Z</time></trkpt>
        <trkpt lat="29.564024" lon="103.434676"><ele>602.4198</ele><time>2026-07-27T20:36:33.000Z</time></trkpt>
        <trkpt lat="29.564003" lon="103.434631"><ele>604.5372</ele><time>2026-07-27T20:36:46.000Z</time></trkpt>
        <trkpt lat="29.563974" lon="103.43459"><ele>607.0449</ele><time>2026-07-27T20:37:09.000Z</time></trkpt>
        <trkpt lat="29.563925" lon="103.434571"><ele>609.1931</ele><time>2026-07-27T20:37:18.000Z</time></trkpt>
        <trkpt lat="29.563958" lon="103.434536"><ele>612.532</ele><time>2026-07-27T20:37:33.000Z</time></trkpt>
        <trkpt lat="29.563902" lon="103.434514"><ele>613.72266</ele><time>2026-07-27T20:37:42.000Z</time></trkpt>
        <trkpt lat="29.563854" lon="103.434466"><ele>613.67</ele><time>2026-07-27T20:37:46.000Z</time></trkpt>
        <trkpt lat="29.563823" lon="103.434424"><ele>613.8386</ele><time>2026-07-27T20:37:49.000Z</time></trkpt>
        <trkpt lat="29.563794" lon="103.434372"><ele>613.6837</ele><time>2026-07-27T20:37:55.000Z</time></trkpt>
        <trkpt lat="29.563744" lon="103.434371"><ele>612.764</ele><time>2026-07-27T20:38:12.000Z</time></trkpt>
        <trkpt lat="29.563735" lon="103.434319"><ele>613.76</ele><time>2026-07-27T20:38:33.000Z</time></trkpt>
        <trkpt lat="29.563703" lon="103.434283"><ele>613.7762</ele><time>2026-07-27T20:38:40.000Z</time></trkpt>
        <trkpt lat="29.56366" lon="103.434251"><ele>616.1531</ele><time>2026-07-27T20:38:51.000Z</time></trkpt>
        <trkpt lat="29.563605" lon="103.434221"><ele>617.52545</ele><time>2026-07-27T20:38:59.000Z</time></trkpt>
        <trkpt lat="29.563575" lon="103.434175"><ele>617.17096</ele><time>2026-07-27T20:39:02.000Z</time></trkpt>
        <trkpt lat="29.563543" lon="103.434127"><ele>617.5645</ele><time>2026-07-27T20:39:06.000Z</time></trkpt>
        <trkpt lat="29.563532" lon="103.43407"><ele>616.1322</ele><time>2026-07-27T20:39:18.000Z</time></trkpt>
        <trkpt lat="29.563501" lon="103.434031"><ele>617.0155</ele><time>2026-07-27T20:39:24.000Z</time></trkpt>
        <trkpt lat="29.563467" lon="103.433995"><ele>618.23193</ele><time>2026-07-27T20:39:30.000Z</time></trkpt>
        <trkpt lat="29.563422" lon="103.433994"><ele>617.62646</ele><time>2026-07-27T20:39:35.000Z</time></trkpt>
        <trkpt lat="29.563386" lon="103.433959"><ele>617.4087</ele><time>2026-07-27T20:39:41.000Z</time></trkpt>
        <trkpt lat="29.563365" lon="103.43391"><ele>618.68945</ele><time>2026-07-27T20:39:58.000Z</time></trkpt>
        <trkpt lat="29.563313" lon="103.433912"><ele>619.1816</ele><time>2026-07-27T20:40:52.000Z</time></trkpt>
        <trkpt lat="29.563316" lon="103.433965"><ele>620.5521</ele><time>2026-07-27T20:41:12.000Z</time></trkpt>
        <trkpt lat="29.563271" lon="103.433973"><ele>621.7919</ele><time>2026-07-27T20:41:25.000Z</time></trkpt>
        <trkpt lat="29.563191" lon="103.43414"><ele>623.348</ele><time>2026-07-27T20:41:43.000Z</time></trkpt>
        <trkpt lat="29.563145" lon="103.43416"><ele>625.60034</ele><time>2026-07-27T20:41:49.000Z</time></trkpt>
        <trkpt lat="29.563097" lon="103.434168"><ele>625.7449</ele><time>2026-07-27T20:41:56.000Z</time></trkpt>
        <trkpt lat="29.563058" lon="103.434195"><ele>625.3378</ele><time>2026-07-27T20:42:06.000Z</time></trkpt>
        <trkpt lat="29.563058" lon="103.434249"><ele>623.8113</ele><time>2026-07-27T20:42:17.000Z</time></trkpt>
        <trkpt lat="29.563024" lon="103.434282"><ele>625.947</ele><time>2026-07-27T20:42:50.000Z</time></trkpt>
        <trkpt lat="29.563027" lon="103.43434"><ele>626.06647</ele><time>2026-07-27T20:43:04.000Z</time></trkpt>
        <trkpt lat="29.56304" lon="103.434392"><ele>626.4232</ele><time>2026-07-27T20:43:10.000Z</time></trkpt>
        <trkpt lat="29.563033" lon="103.43445"><ele>627.53033</ele><time>2026-07-27T20:43:16.000Z</time></trkpt>
        <trkpt lat="29.563016" lon="103.434497"><ele>628.0821</ele><time>2026-07-27T20:43:25.000Z</time></trkpt>
        <trkpt lat="29.562962" lon="103.43449"><ele>628.9618</ele><time>2026-07-27T20:43:35.000Z</time></trkpt>
        <trkpt lat="29.562938" lon="103.434434"><ele>627.9155</ele><time>2026-07-27T20:43:42.000Z</time></trkpt>
        <trkpt lat="29.562907" lon="103.434391"><ele>628.13654</ele><time>2026-07-27T20:43:47.000Z</time></trkpt>
        <trkpt lat="29.562862" lon="103.434379"><ele>628.32794</ele><time>2026-07-27T20:43:52.000Z</time></trkpt>
        <trkpt lat="29.562829" lon="103.434422"><ele>631.3096</ele><time>2026-07-27T20:44:01.000Z</time></trkpt>
        <trkpt lat="29.562781" lon="103.434455"><ele>635.30145</ele><time>2026-07-27T20:44:41.000Z</time></trkpt>
        <trkpt lat="29.562753" lon="103.434503"><ele>635.5199</ele><time>2026-07-27T20:44:43.000Z</time></trkpt>
        <trkpt lat="29.562729" lon="103.434555"><ele>635.74384</ele><time>2026-07-27T20:44:46.000Z</time></trkpt>
        <trkpt lat="29.562721" lon="103.434611"><ele>635.7126</ele><time>2026-07-27T20:44:52.000Z</time></trkpt>
        <trkpt lat="29.56284" lon="103.434435"><ele>633.94635</ele><time>2026-07-27T20:49:06.000Z</time></trkpt>
        <trkpt lat="29.562829" lon="103.43449"><ele>631.2953</ele><time>2026-07-27T20:49:17.000Z</time></trkpt>
        <trkpt lat="29.562837" lon="103.434554"><ele>631.39716</ele><time>2026-07-27T20:49:23.000Z</time></trkpt>
        <trkpt lat="29.562884" lon="103.43455"><ele>630.6044</ele><time>2026-07-27T20:49:27.000Z</time></trkpt>
        <trkpt lat="29.562937" lon="103.434541"><ele>630.5556</ele><time>2026-07-27T20:49:33.000Z</time></trkpt>
        <trkpt lat="29.562981" lon="103.434521"><ele>631.72217</ele><time>2026-07-27T20:49:39.000Z</time></trkpt>
        <trkpt lat="29.563016" lon="103.434558"><ele>629.6953</ele><time>2026-07-27T20:49:47.000Z</time></trkpt>
        <trkpt lat="29.562993" lon="103.434605"><ele>627.6062</ele><time>2026-07-27T20:49:56.000Z</time></trkpt>
        <trkpt lat="29.563038" lon="103.434599"><ele>625.7385</ele><time>2026-07-27T20:50:03.000Z</time></trkpt>
        <trkpt lat="29.563089" lon="103.434606"><ele>625.3474</ele><time>2026-07-27T20:50:12.000Z</time></trkpt>
        <trkpt lat="29.563116" lon="103.434652"><ele>623.9339</ele><time>2026-07-27T20:50:33.000Z</time></trkpt>
        <trkpt lat="29.563148" lon="103.43469"><ele>623.6751</ele><time>2026-07-27T20:50:41.000Z</time></trkpt>
        <trkpt lat="29.563182" lon="103.434726"><ele>624.2043</ele><time>2026-07-27T20:50:46.000Z</time></trkpt>
        <trkpt lat="29.563215" lon="103.434768"><ele>621.79224</ele><time>2026-07-27T20:50:55.000Z</time></trkpt>
        <trkpt lat="29.563248" lon="103.434814"><ele>620.19135</ele><time>2026-07-27T20:51:01.000Z</time></trkpt>
        <trkpt lat="29.563284" lon="103.434853"><ele>620.89624</ele><time>2026-07-27T20:51:08.000Z</time></trkpt>
        <trkpt lat="29.563327" lon="103.434878"><ele>621.2503</ele><time>2026-07-27T20:51:14.000Z</time></trkpt>
        <trkpt lat="29.563361" lon="103.434843"><ele>619.3295</ele><time>2026-07-27T20:51:21.000Z</time></trkpt>
        <trkpt lat="29.56339" lon="103.434801"><ele>618.7062</ele><time>2026-07-27T20:51:25.000Z</time></trkpt>
        <trkpt lat="29.563431" lon="103.434778"><ele>620.48914</ele><time>2026-07-27T20:51:33.000Z</time></trkpt>
        <trkpt lat="29.563478" lon="103.434756"><ele>619.2311</ele><time>2026-07-27T20:51:39.000Z</time></trkpt>
        <trkpt lat="29.563492" lon="103.434704"><ele>618.32416</ele><time>2026-07-27T20:51:50.000Z</time></trkpt>
        <trkpt lat="29.563453" lon="103.434677"><ele>619.5374</ele><time>2026-07-27T20:53:44.000Z</time></trkpt>
        <trkpt lat="29.563426" lon="103.434697"><ele>622.65607</ele><time>2026-07-27T20:54:04.000Z</time></trkpt>
        <trkpt lat="29.563389" lon="103.434608"><ele>618.1584</ele><time>2026-07-27T20:55:53.000Z</time></trkpt>
        <trkpt lat="29.563381" lon="103.434653"><ele>618.0486</ele><time>2026-07-27T20:56:08.000Z</time></trkpt>
        <trkpt lat="29.563456" lon="103.434861"><ele>619.17114</ele><time>2026-07-27T20:56:23.000Z</time></trkpt>
        <trkpt lat="29.563477" lon="103.434912"><ele>617.6383</ele><time>2026-07-27T20:56:29.000Z</time></trkpt>
        <trkpt lat="29.56352" lon="103.434936"><ele>617.96594</ele><time>2026-07-27T20:56:37.000Z</time></trkpt>
        <trkpt lat="29.563563" lon="103.434906"><ele>618.26636</ele><time>2026-07-27T20:56:42.000Z</time></trkpt>
        <trkpt lat="29.563605" lon="103.434991"><ele>622.1072</ele><time>2026-07-27T20:57:17.000Z</time></trkpt>
        <trkpt lat="29.563495" lon="103.434939"><ele>620.9683</ele><time>2026-07-27T20:57:19.000Z</time></trkpt>
        <trkpt lat="29.563536" lon="103.434914"><ele>621.1992</ele><time>2026-07-27T20:57:23.000Z</time></trkpt>
        <trkpt lat="29.563607" lon="103.434924"><ele>620.76764</ele><time>2026-07-27T20:57:25.000Z</time></trkpt>
        <trkpt lat="29.563557" lon="103.434895"><ele>622.58716</ele><time>2026-07-27T20:57:34.000Z</time></trkpt>
        <trkpt lat="29.563511" lon="103.43491"><ele>622.1576</ele><time>2026-07-27T20:57:38.000Z</time></trkpt>
        <trkpt lat="29.563497" lon="103.434855"><ele>619.7688</ele><time>2026-07-27T20:57:52.000Z</time></trkpt>
        <trkpt lat="29.563459" lon="103.434825"><ele>620.0268</ele><time>2026-07-27T20:57:56.000Z</time></trkpt>
        <trkpt lat="29.563415" lon="103.434811"><ele>619.91394</ele><time>2026-07-27T20:58:01.000Z</time></trkpt>
        <trkpt lat="29.563383" lon="103.434853"><ele>620.71674</ele><time>2026-07-27T20:58:05.000Z</time></trkpt>
        <trkpt lat="29.563382" lon="103.4348"><ele>620.25275</ele><time>2026-07-27T20:58:19.000Z</time></trkpt>
        <trkpt lat="29.563419" lon="103.434758"><ele>618.73016</ele><time>2026-07-27T20:58:32.000Z</time></trkpt>
        <trkpt lat="29.563439" lon="103.434712"><ele>618.0608</ele><time>2026-07-27T20:58:43.000Z</time></trkpt>
        <trkpt lat="29.563391" lon="103.434705"><ele>622.2806</ele><time>2026-07-27T20:59:53.000Z</time></trkpt>
        <trkpt lat="29.563426" lon="103.434671"><ele>616.52716</ele><time>2026-07-27T21:01:19.000Z</time></trkpt>
        <trkpt lat="29.563432" lon="103.434723"><ele>616.2684</ele><time>2026-07-27T21:01:56.000Z</time></trkpt>
        <trkpt lat="29.563479" lon="103.434712"><ele>620.73346</ele><time>2026-07-27T21:08:22.000Z</time></trkpt>
        <trkpt lat="29.563426" lon="103.434703"><ele>620.55646</ele><time>2026-07-27T21:08:39.000Z</time></trkpt>
        <trkpt lat="29.563438" lon="103.434639"><ele>618.23303</ele><time>2026-07-27T21:08:55.000Z</time></trkpt>
        <trkpt lat="29.5636" lon="103.434477"><ele>615.1292</ele><time>2026-07-27T21:09:21.000Z</time></trkpt>
        <trkpt lat="29.563634" lon="103.434439"><ele>614.4624</ele><time>2026-07-27T21:09:26.000Z</time></trkpt>
        <trkpt lat="29.563655" lon="103.434393"><ele>613.3218</ele><time>2026-07-27T21:09:31.000Z</time></trkpt>
        <trkpt lat="29.563693" lon="103.434348"><ele>615.36444</ele><time>2026-07-27T21:09:37.000Z</time></trkpt>
        <trkpt lat="29.563732" lon="103.434314"><ele>617.0973</ele><time>2026-07-27T21:09:42.000Z</time></trkpt>
        <trkpt lat="29.563767" lon="103.434274"><ele>617.0638</ele><time>2026-07-27T21:09:49.000Z</time></trkpt>
        <trkpt lat="29.563815" lon="103.434243"><ele>617.423</ele><time>2026-07-27T21:09:55.000Z</time></trkpt>
        <trkpt lat="29.563842" lon="103.434201"><ele>616.658</ele><time>2026-07-27T21:10:00.000Z</time></trkpt>
        <trkpt lat="29.563888" lon="103.434166"><ele>616.78235</ele><time>2026-07-27T21:10:06.000Z</time></trkpt>
        <trkpt lat="29.563936" lon="103.434152"><ele>616.6146</ele><time>2026-07-27T21:10:13.000Z</time></trkpt>
        <trkpt lat="29.563973" lon="103.434121"><ele>617.34784</ele><time>2026-07-27T21:10:17.000Z</time></trkpt>
        <trkpt lat="29.564026" lon="103.43412"><ele>621.99866</ele><time>2026-07-27T21:10:23.000Z</time></trkpt>
        <trkpt lat="29.564071" lon="103.434087"><ele>622.2871</ele><time>2026-07-27T21:10:28.000Z</time></trkpt>
        <trkpt lat="29.564114" lon="103.434069"><ele>621.6421</ele><time>2026-07-27T21:10:35.000Z</time></trkpt>
        <trkpt lat="29.564161" lon="103.434078"><ele>622.0823</ele><time>2026-07-27T21:10:40.000Z</time></trkpt>
        <trkpt lat="29.564209" lon="103.434073"><ele>623.3698</ele><time>2026-07-27T21:10:44.000Z</time></trkpt>
        <trkpt lat="29.56421" lon="103.433979"><ele>620.9627</ele><time>2026-07-27T21:10:47.000Z</time></trkpt>
        <trkpt lat="29.564212" lon="103.433923"><ele>620.2748</ele><time>2026-07-27T21:10:48.000Z</time></trkpt>
        <trkpt lat="29.56419" lon="103.433854"><ele>617.3116</ele><time>2026-07-27T21:10:50.000Z</time></trkpt>
        <trkpt lat="29.564152" lon="103.433823"><ele>617.3146</ele><time>2026-07-27T21:10:55.000Z</time></trkpt>
        <trkpt lat="29.564168" lon="103.433772"><ele>616.7599</ele><time>2026-07-27T21:11:00.000Z</time></trkpt>
        <trkpt lat="29.564202" lon="103.433727"><ele>617.76465</ele><time>2026-07-27T21:11:08.000Z</time></trkpt>
        <trkpt lat="29.564219" lon="103.433679"><ele>617.8907</ele><time>2026-07-27T21:11:13.000Z</time></trkpt>
        <trkpt lat="29.56424" lon="103.433624"><ele>616.95215</ele><time>2026-07-27T21:11:19.000Z</time></trkpt>
        <trkpt lat="29.564274" lon="103.433588"><ele>616.76215</ele><time>2026-07-27T21:11:24.000Z</time></trkpt>
        <trkpt lat="29.564322" lon="103.433576"><ele>616.9833</ele><time>2026-07-27T21:11:28.000Z</time></trkpt>
        <trkpt lat="29.564367" lon="103.433595"><ele>616.46466</ele><time>2026-07-27T21:11:35.000Z</time></trkpt>
        <trkpt lat="29.564398" lon="103.433636"><ele>614.2487</ele><time>2026-07-27T21:11:40.000Z</time></trkpt>
        <trkpt lat="29.564428" lon="103.433694"><ele>612.39404</ele><time>2026-07-27T21:11:45.000Z</time></trkpt>
        <trkpt lat="29.56447" lon="103.433728"><ele>610.28876</ele><time>2026-07-27T21:11:49.000Z</time></trkpt>
        <trkpt lat="29.564502" lon="103.433769"><ele>608.80786</ele><time>2026-07-27T21:11:54.000Z</time></trkpt>
        <trkpt lat="29.564536" lon="103.433816"><ele>608.50793</ele><time>2026-07-27T21:11:58.000Z</time></trkpt>
        <trkpt lat="29.564548" lon="103.433879"><ele>607.0021</ele><time>2026-07-27T21:12:04.000Z</time></trkpt>
        <trkpt lat="29.564562" lon="103.433929"><ele>607.3593</ele><time>2026-07-27T21:12:07.000Z</time></trkpt>
        <trkpt lat="29.56458" lon="103.433981"><ele>607.5978</ele><time>2026-07-27T21:12:11.000Z</time></trkpt>
        <trkpt lat="29.564581" lon="103.434034"><ele>607.61566</ele><time>2026-07-27T21:12:15.000Z</time></trkpt>
        <trkpt lat="29.564599" lon="103.434082"><ele>608.078</ele><time>2026-07-27T21:12:20.000Z</time></trkpt>
        <trkpt lat="29.564606" lon="103.434143"><ele>607.1494</ele><time>2026-07-27T21:12:25.000Z</time></trkpt>
        <trkpt lat="29.564612" lon="103.434202"><ele>604.4231</ele><time>2026-07-27T21:12:30.000Z</time></trkpt>
        <trkpt lat="29.564598" lon="103.43426"><ele>605.9047</ele><time>2026-07-27T21:12:35.000Z</time></trkpt>
        <trkpt lat="29.564579" lon="103.43432"><ele>603.1413</ele><time>2026-07-27T21:12:39.000Z</time></trkpt>
        <trkpt lat="29.564546" lon="103.434362"><ele>602.47675</ele><time>2026-07-27T21:12:43.000Z</time></trkpt>
        <trkpt lat="29.564513" lon="103.434398"><ele>601.35254</ele><time>2026-07-27T21:12:48.000Z</time></trkpt>
        <trkpt lat="29.564478" lon="103.434434"><ele>602.5668</ele><time>2026-07-27T21:12:53.000Z</time></trkpt>
        <trkpt lat="29.564433" lon="103.434455"><ele>603.4358</ele><time>2026-07-27T21:12:57.000Z</time></trkpt>
        <trkpt lat="29.564379" lon="103.434479"><ele>604.7605</ele><time>2026-07-27T21:13:02.000Z</time></trkpt>
        <trkpt lat="29.564351" lon="103.434527"><ele>603.60126</ele><time>2026-07-27T21:13:07.000Z</time></trkpt>
        <trkpt lat="29.564312" lon="103.434557"><ele>603.3943</ele><time>2026-07-27T21:13:11.000Z</time></trkpt>
        <trkpt lat="29.56428" lon="103.434595"><ele>601.4293</ele><time>2026-07-27T21:13:16.000Z</time></trkpt>
        <trkpt lat="29.564267" lon="103.434653"><ele>600.9059</ele><time>2026-07-27T21:13:20.000Z</time></trkpt>
        <trkpt lat="29.564269" lon="103.434715"><ele>600.73413</ele><time>2026-07-27T21:13:23.000Z</time></trkpt>
        <trkpt lat="29.564284" lon="103.434777"><ele>601.57025</ele><time>2026-07-27T21:13:27.000Z</time></trkpt>
        <trkpt lat="29.564332" lon="103.434804"><ele>601.5669</ele><time>2026-07-27T21:13:31.000Z</time></trkpt>
        <trkpt lat="29.564384" lon="103.43479"><ele>601.27057</ele><time>2026-07-27T21:13:36.000Z</time></trkpt>
        <trkpt lat="29.564432" lon="103.434771"><ele>599.8047</ele><time>2026-07-27T21:13:40.000Z</time></trkpt>
        <trkpt lat="29.564482" lon="103.43475"><ele>598.199</ele><time>2026-07-27T21:13:44.000Z</time></trkpt>
        <trkpt lat="29.564536" lon="103.434732"><ele>598.27386</ele><time>2026-07-27T21:13:48.000Z</time></trkpt>
        <trkpt lat="29.564579" lon="103.434702"><ele>598.1867</ele><time>2026-07-27T21:13:53.000Z</time></trkpt>
        <trkpt lat="29.564615" lon="103.434665"><ele>595.86957</ele><time>2026-07-27T21:13:57.000Z</time></trkpt>
        <trkpt lat="29.564651" lon="103.434619"><ele>595.64154</ele><time>2026-07-27T21:14:02.000Z</time></trkpt>
        <trkpt lat="29.564693" lon="103.434576"><ele>593.6188</ele><time>2026-07-27T21:14:07.000Z</time></trkpt>
        <trkpt lat="29.564721" lon="103.434523"><ele>593.7689</ele><time>2026-07-27T21:14:11.000Z</time></trkpt>
        <trkpt lat="29.564752" lon="103.434473"><ele>593.73395</ele><time>2026-07-27T21:14:15.000Z</time></trkpt>
        <trkpt lat="29.564762" lon="103.434419"><ele>592.9909</ele><time>2026-07-27T21:14:19.000Z</time></trkpt>
        <trkpt lat="29.564778" lon="103.434358"><ele>593.77985</ele><time>2026-07-27T21:14:27.000Z</time></trkpt>
        <trkpt lat="29.564789" lon="103.434301"><ele>592.34045</ele><time>2026-07-27T21:14:32.000Z</time></trkpt>
        <trkpt lat="29.564808" lon="103.434252"><ele>590.27844</ele><time>2026-07-27T21:14:36.000Z</time></trkpt>
        <trkpt lat="29.564828" lon="103.434203"><ele>590.55365</ele><time>2026-07-27T21:14:40.000Z</time></trkpt>
        <trkpt lat="29.564845" lon="103.434151"><ele>589.7411</ele><time>2026-07-27T21:14:44.000Z</time></trkpt>
        <trkpt lat="29.564872" lon="103.4341"><ele>589.7528</ele><time>2026-07-27T21:14:49.000Z</time></trkpt>
        <trkpt lat="29.564873" lon="103.434046"><ele>589.2631</ele><time>2026-07-27T21:14:53.000Z</time></trkpt>
        <trkpt lat="29.564885" lon="103.433996"><ele>589.34</ele><time>2026-07-27T21:14:56.000Z</time></trkpt>
        <trkpt lat="29.564897" lon="103.433935"><ele>590.2418</ele><time>2026-07-27T21:15:02.000Z</time></trkpt>
        <trkpt lat="29.564903" lon="103.433872"><ele>589.3659</ele><time>2026-07-27T21:15:07.000Z</time></trkpt>
        <trkpt lat="29.56492" lon="103.433819"><ele>587.6355</ele><time>2026-07-27T21:15:11.000Z</time></trkpt>
        <trkpt lat="29.564927" lon="103.433762"><ele>587.1027</ele><time>2026-07-27T21:15:15.000Z</time></trkpt>
        <trkpt lat="29.564933" lon="103.433708"><ele>587.7327</ele><time>2026-07-27T21:15:20.000Z</time></trkpt>
        <trkpt lat="29.564934" lon="103.433653"><ele>587.3669</ele><time>2026-07-27T21:15:24.000Z</time></trkpt>
        <trkpt lat="29.564958" lon="103.433591"><ele>587.665</ele><time>2026-07-27T21:15:29.000Z</time></trkpt>
        <trkpt lat="29.564952" lon="103.43354"><ele>585.79895</ele><time>2026-07-27T21:15:34.000Z</time></trkpt>
        <trkpt lat="29.564945" lon="103.433481"><ele>585.55084</ele><time>2026-07-27T21:15:39.000Z</time></trkpt>
        <trkpt lat="29.564967" lon="103.433422"><ele>584.6915</ele><time>2026-07-27T21:15:45.000Z</time></trkpt>
        <trkpt lat="29.564994" lon="103.433362"><ele>583.67896</ele><time>2026-07-27T21:15:50.000Z</time></trkpt>
        <trkpt lat="29.565023" lon="103.433307"><ele>582.5198</ele><time>2026-07-27T21:15:55.000Z</time></trkpt>
        <trkpt lat="29.565056" lon="103.433254"><ele>582.3161</ele><time>2026-07-27T21:16:01.000Z</time></trkpt>
        <trkpt lat="29.565077" lon="103.433199"><ele>581.8703</ele><time>2026-07-27T21:16:06.000Z</time></trkpt>
        <trkpt lat="29.565107" lon="103.433156"><ele>581.23627</ele><time>2026-07-27T21:16:11.000Z</time></trkpt>
        <trkpt lat="29.56516" lon="103.433148"><ele>581.15063</ele><time>2026-07-27T21:16:15.000Z</time></trkpt>
        <trkpt lat="29.565203" lon="103.433121"><ele>581.9027</ele><time>2026-07-27T21:16:19.000Z</time></trkpt>
        <trkpt lat="29.56525" lon="103.433106"><ele>582.5525</ele><time>2026-07-27T21:16:24.000Z</time></trkpt>
        <trkpt lat="29.565291" lon="103.433132"><ele>583.94464</ele><time>2026-07-27T21:16:28.000Z</time></trkpt>
        <trkpt lat="29.565322" lon="103.43317"><ele>585.49786</ele><time>2026-07-27T21:16:33.000Z</time></trkpt>
        <trkpt lat="29.565359" lon="103.433211"><ele>586.141</ele><time>2026-07-27T21:16:39.000Z</time></trkpt>
        <trkpt lat="29.56539" lon="103.433258"><ele>586.18164</ele><time>2026-07-27T21:16:46.000Z</time></trkpt>
        <trkpt lat="29.565415" lon="103.433304"><ele>585.51746</ele><time>2026-07-27T21:16:51.000Z</time></trkpt>
        <trkpt lat="29.565432" lon="103.433356"><ele>586.9378</ele><time>2026-07-27T21:16:55.000Z</time></trkpt>
        <trkpt lat="29.565455" lon="103.433404"><ele>586.9914</ele><time>2026-07-27T21:17:01.000Z</time></trkpt>
        <trkpt lat="29.565472" lon="103.433455"><ele>588.4616</ele><time>2026-07-27T21:17:07.000Z</time></trkpt>
        <trkpt lat="29.565494" lon="103.433507"><ele>588.5575</ele><time>2026-07-27T21:17:11.000Z</time></trkpt>
        <trkpt lat="29.565542" lon="103.433528"><ele>589.20917</ele><time>2026-07-27T21:17:17.000Z</time></trkpt>
        <trkpt lat="29.565589" lon="103.433526"><ele>585.78687</ele><time>2026-07-27T21:17:26.000Z</time></trkpt>
        <trkpt lat="29.565631" lon="103.433501"><ele>588.83185</ele><time>2026-07-27T21:17:39.000Z</time></trkpt>
        <trkpt lat="29.565683" lon="103.433486"><ele>592.09155</ele><time>2026-07-27T21:17:50.000Z</time></trkpt>
        <trkpt lat="29.56572" lon="103.433437"><ele>597.6781</ele><time>2026-07-27T21:18:09.000Z</time></trkpt>
        <trkpt lat="29.56571" lon="103.43338"><ele>598.44885</ele><time>2026-07-27T21:18:15.000Z</time></trkpt>
        <trkpt lat="29.565734" lon="103.433336"><ele>597.0473</ele><time>2026-07-27T21:18:22.000Z</time></trkpt>
        <trkpt lat="29.565738" lon="103.433273"><ele>597.30133</ele><time>2026-07-27T21:18:27.000Z</time></trkpt>
        <trkpt lat="29.565749" lon="103.43322"><ele>596.6499</ele><time>2026-07-27T21:18:33.000Z</time></trkpt>
        <trkpt lat="29.565746" lon="103.433168"><ele>595.1746</ele><time>2026-07-27T21:18:38.000Z</time></trkpt>
        <trkpt lat="29.565743" lon="103.433114"><ele>597.2503</ele><time>2026-07-27T21:18:43.000Z</time></trkpt>
        <trkpt lat="29.565722" lon="103.433059"><ele>597.5934</ele><time>2026-07-27T21:18:48.000Z</time></trkpt>
        <trkpt lat="29.565687" lon="103.433024"><ele>596.6066</ele><time>2026-07-27T21:18:53.000Z</time></trkpt>
        <trkpt lat="29.565661" lon="103.432973"><ele>596.9071</ele><time>2026-07-27T21:18:57.000Z</time></trkpt>
        <trkpt lat="29.56564" lon="103.432917"><ele>596.54736</ele><time>2026-07-27T21:19:02.000Z</time></trkpt>
        <trkpt lat="29.565597" lon="103.432883"><ele>596.9119</ele><time>2026-07-27T21:19:06.000Z</time></trkpt>
        <trkpt lat="29.565585" lon="103.43283"><ele>597.05786</ele><time>2026-07-27T21:19:11.000Z</time></trkpt>
        <trkpt lat="29.565551" lon="103.432794"><ele>596.8032</ele><time>2026-07-27T21:19:15.000Z</time></trkpt>
        <trkpt lat="29.565579" lon="103.43273"><ele>596.60596</ele><time>2026-07-27T21:19:20.000Z</time></trkpt>
        <trkpt lat="29.565561" lon="103.432675"><ele>596.5819</ele><time>2026-07-27T21:19:26.000Z</time></trkpt>
        <trkpt lat="29.565546" lon="103.432615"><ele>596.59973</ele><time>2026-07-27T21:19:32.000Z</time></trkpt>
        <trkpt lat="29.565525" lon="103.432567"><ele>599.83984</ele><time>2026-07-27T21:19:42.000Z</time></trkpt>
        <trkpt lat="29.565493" lon="103.43252"><ele>598.7549</ele><time>2026-07-27T21:19:46.000Z</time></trkpt>
        <trkpt lat="29.565479" lon="103.432455"><ele>597.99426</ele><time>2026-07-27T21:19:51.000Z</time></trkpt>
        <trkpt lat="29.565462" lon="103.432392"><ele>597.8726</ele><time>2026-07-27T21:19:57.000Z</time></trkpt>
        <trkpt lat="29.565453" lon="103.43234"><ele>598.7528</ele><time>2026-07-27T21:20:02.000Z</time></trkpt>
        <trkpt lat="29.56545" lon="103.432278"><ele>600.2567</ele><time>2026-07-27T21:20:10.000Z</time></trkpt>
        <trkpt lat="29.565442" lon="103.432226"><ele>601.991</ele><time>2026-07-27T21:20:14.000Z</time></trkpt>
        <trkpt lat="29.565419" lon="103.432175"><ele>602.8846</ele><time>2026-07-27T21:20:23.000Z</time></trkpt>
        <trkpt lat="29.565388" lon="103.432121"><ele>602.8586</ele><time>2026-07-27T21:20:29.000Z</time></trkpt>
        <trkpt lat="29.565357" lon="103.432068"><ele>602.8473</ele><time>2026-07-27T21:20:35.000Z</time></trkpt>
        <trkpt lat="29.56533" lon="103.432015"><ele>602.94073</ele><time>2026-07-27T21:20:42.000Z</time></trkpt>
        <trkpt lat="29.565324" lon="103.431963"><ele>603.3727</ele><time>2026-07-27T21:20:48.000Z</time></trkpt>
        <trkpt lat="29.565347" lon="103.431918"><ele>605.517</ele><time>2026-07-27T21:20:53.000Z</time></trkpt>
        <trkpt lat="29.565354" lon="103.431861"><ele>606.7738</ele><time>2026-07-27T21:20:59.000Z</time></trkpt>
        <trkpt lat="29.565368" lon="103.43181"><ele>608.5674</ele><time>2026-07-27T21:21:05.000Z</time></trkpt>
        <trkpt lat="29.565404" lon="103.431774"><ele>608.67993</ele><time>2026-07-27T21:21:13.000Z</time></trkpt>
        <trkpt lat="29.565417" lon="103.431724"><ele>610.2365</ele><time>2026-07-27T21:21:20.000Z</time></trkpt>
        <trkpt lat="29.565433" lon="103.431675"><ele>611.1165</ele><time>2026-07-27T21:21:32.000Z</time></trkpt>
        <trkpt lat="29.565454" lon="103.431628"><ele>612.6232</ele><time>2026-07-27T21:21:40.000Z</time></trkpt>
        <trkpt lat="29.565467" lon="103.431576"><ele>612.15717</ele><time>2026-07-27T21:21:48.000Z</time></trkpt>
        <trkpt lat="29.56548" lon="103.431522"><ele>612.68445</ele><time>2026-07-27T21:21:55.000Z</time></trkpt>
        <trkpt lat="29.565485" lon="103.431466"><ele>612.9034</ele><time>2026-07-27T21:22:00.000Z</time></trkpt>
        <trkpt lat="29.565508" lon="103.431416"><ele>613.2249</ele><time>2026-07-27T21:22:06.000Z</time></trkpt>
        <trkpt lat="29.565513" lon="103.43136"><ele>617.542</ele><time>2026-07-27T21:22:13.000Z</time></trkpt>
        <trkpt lat="29.565517" lon="103.431308"><ele>620.3942</ele><time>2026-07-27T21:22:20.000Z</time></trkpt>
        <trkpt lat="29.565526" lon="103.431256"><ele>619.81415</ele><time>2026-07-27T21:22:25.000Z</time></trkpt>
        <trkpt lat="29.565539" lon="103.4312"><ele>620.039</ele><time>2026-07-27T21:22:32.000Z</time></trkpt>
        <trkpt lat="29.565561" lon="103.431153"><ele>621.01556</ele><time>2026-07-27T21:22:40.000Z</time></trkpt>
        <trkpt lat="29.565567" lon="103.431099"><ele>622.71515</ele><time>2026-07-27T21:22:46.000Z</time></trkpt>
        <trkpt lat="29.565562" lon="103.431043"><ele>620.8154</ele><time>2026-07-27T21:22:50.000Z</time></trkpt>
        <trkpt lat="29.56554" lon="103.430993"><ele>620.87946</ele><time>2026-07-27T21:22:55.000Z</time></trkpt>
        <trkpt lat="29.565499" lon="103.430969"><ele>622.3047</ele><time>2026-07-27T21:23:03.000Z</time></trkpt>
        <trkpt lat="29.565459" lon="103.430937"><ele>622.9788</ele><time>2026-07-27T21:23:09.000Z</time></trkpt>
        <trkpt lat="29.565414" lon="103.430903"><ele>623.22284</ele><time>2026-07-27T21:23:15.000Z</time></trkpt>
        <trkpt lat="29.565379" lon="103.430864"><ele>624.1418</ele><time>2026-07-27T21:23:38.000Z</time></trkpt>
        <trkpt lat="29.56537" lon="103.430812"><ele>623.7442</ele><time>2026-07-27T21:23:45.000Z</time></trkpt>
        <trkpt lat="29.565366" lon="103.430753"><ele>623.71234</ele><time>2026-07-27T21:23:51.000Z</time></trkpt>
        <trkpt lat="29.565372" lon="103.430701"><ele>623.8849</ele><time>2026-07-27T21:23:57.000Z</time></trkpt>
        <trkpt lat="29.565353" lon="103.430637"><ele>625.455</ele><time>2026-07-27T21:24:03.000Z</time></trkpt>
        <trkpt lat="29.565342" lon="103.430585"><ele>626.2144</ele><time>2026-07-27T21:24:09.000Z</time></trkpt>
        <trkpt lat="29.56533" lon="103.430536"><ele>626.08484</ele><time>2026-07-27T21:24:17.000Z</time></trkpt>
        <trkpt lat="29.565311" lon="103.430485"><ele>626.8724</ele><time>2026-07-27T21:24:24.000Z</time></trkpt>
        <trkpt lat="29.565311" lon="103.430426"><ele>627.03143</ele><time>2026-07-27T21:24:30.000Z</time></trkpt>
        <trkpt lat="29.565306" lon="103.430369"><ele>625.7959</ele><time>2026-07-27T21:24:35.000Z</time></trkpt>
        <trkpt lat="29.565308" lon="103.430314"><ele>625.8057</ele><time>2026-07-27T21:24:40.000Z</time></trkpt>
        <trkpt lat="29.565297" lon="103.430257"><ele>627.0706</ele><time>2026-07-27T21:24:45.000Z</time></trkpt>
        <trkpt lat="29.565291" lon="103.4302"><ele>629.18146</ele><time>2026-07-27T21:24:53.000Z</time></trkpt>
        <trkpt lat="29.565286" lon="103.430147"><ele>629.2086</ele><time>2026-07-27T21:24:59.000Z</time></trkpt>
        <trkpt lat="29.565284" lon="103.430094"><ele>631.2691</ele><time>2026-07-27T21:25:04.000Z</time></trkpt>
        <trkpt lat="29.565265" lon="103.430035"><ele>632.1268</ele><time>2026-07-27T21:25:10.000Z</time></trkpt>
        <trkpt lat="29.565246" lon="103.429981"><ele>632.25507</ele><time>2026-07-27T21:25:15.000Z</time></trkpt>
        <trkpt lat="29.565256" lon="103.429928"><ele>632.1938</ele><time>2026-07-27T21:25:19.000Z</time></trkpt>
        <trkpt lat="29.565238" lon="103.429881"><ele>631.33594</ele><time>2026-07-27T21:25:24.000Z</time></trkpt>
        <trkpt lat="29.565226" lon="103.429821"><ele>631.3305</ele><time>2026-07-27T21:25:29.000Z</time></trkpt>
        <trkpt lat="29.565193" lon="103.429785"><ele>631.98846</ele><time>2026-07-27T21:25:33.000Z</time></trkpt>
        <trkpt lat="29.565172" lon="103.429726"><ele>634.1016</ele><time>2026-07-27T21:25:39.000Z</time></trkpt>
        <trkpt lat="29.565157" lon="103.429675"><ele>633.4059</ele><time>2026-07-27T21:25:43.000Z</time></trkpt>
        <trkpt lat="29.565146" lon="103.42962"><ele>632.7558</ele><time>2026-07-27T21:25:47.000Z</time></trkpt>
        <trkpt lat="29.565116" lon="103.429575"><ele>634.69196</ele><time>2026-07-27T21:25:52.000Z</time></trkpt>
        <trkpt lat="29.565098" lon="103.429523"><ele>635.0615</ele><time>2026-07-27T21:25:58.000Z</time></trkpt>
        <trkpt lat="29.565072" lon="103.429465"><ele>636.14166</ele><time>2026-07-27T21:26:03.000Z</time></trkpt>
        <trkpt lat="29.565032" lon="103.429433"><ele>636.1143</ele><time>2026-07-27T21:26:08.000Z</time></trkpt>
        <trkpt lat="29.564994" lon="103.429392"><ele>634.3556</ele><time>2026-07-27T21:26:13.000Z</time></trkpt>
        <trkpt lat="29.564971" lon="103.429342"><ele>633.9931</ele><time>2026-07-27T21:26:17.000Z</time></trkpt>
        <trkpt lat="29.564963" lon="103.42929"><ele>634.0939</ele><time>2026-07-27T21:26:21.000Z</time></trkpt>
        <trkpt lat="29.564969" lon="103.429232"><ele>632.83307</ele><time>2026-07-27T21:26:25.000Z</time></trkpt>
        <trkpt lat="29.564957" lon="103.429169"><ele>632.5999</ele><time>2026-07-27T21:26:29.000Z</time></trkpt>
        <trkpt lat="29.564939" lon="103.429117"><ele>634.9139</ele><time>2026-07-27T21:26:34.000Z</time></trkpt>
        <trkpt lat="29.564916" lon="103.429066"><ele>637.0351</ele><time>2026-07-27T21:26:39.000Z</time></trkpt>
        <trkpt lat="29.564922" lon="103.429014"><ele>635.5342</ele><time>2026-07-27T21:26:42.000Z</time></trkpt>
        <trkpt lat="29.564912" lon="103.428947"><ele>638.4436</ele><time>2026-07-27T21:26:50.000Z</time></trkpt>
        <trkpt lat="29.564907" lon="103.428895"><ele>638.5198</ele><time>2026-07-27T21:26:55.000Z</time></trkpt>
        <trkpt lat="29.564878" lon="103.428848"><ele>638.08575</ele><time>2026-07-27T21:26:58.000Z</time></trkpt>
        <trkpt lat="29.564891" lon="103.428797"><ele>637.89954</ele><time>2026-07-27T21:27:05.000Z</time></trkpt>
        <trkpt lat="29.564914" lon="103.428752"><ele>639.41986</ele><time>2026-07-27T21:27:09.000Z</time></trkpt>
        <trkpt lat="29.564909" lon="103.428698"><ele>638.2802</ele><time>2026-07-27T21:27:16.000Z</time></trkpt>
        <trkpt lat="29.564901" lon="103.428643"><ele>638.8468</ele><time>2026-07-27T21:27:21.000Z</time></trkpt>
        <trkpt lat="29.564881" lon="103.428593"><ele>638.572</ele><time>2026-07-27T21:27:24.000Z</time></trkpt>
        <trkpt lat="29.564878" lon="103.428533"><ele>641.3077</ele><time>2026-07-27T21:27:30.000Z</time></trkpt>
        <trkpt lat="29.564921" lon="103.4285"><ele>641.46826</ele><time>2026-07-27T21:27:37.000Z</time></trkpt>
        <trkpt lat="29.564964" lon="103.428479"><ele>642.70703</ele><time>2026-07-27T21:27:43.000Z</time></trkpt>
        <trkpt lat="29.565018" lon="103.428492"><ele>644.66254</ele><time>2026-07-27T21:27:46.000Z</time></trkpt>
        <trkpt lat="29.565061" lon="103.428506"><ele>646.8548</ele><time>2026-07-27T21:27:49.000Z</time></trkpt>
        <trkpt lat="29.565079" lon="103.428453"><ele>647.5449</ele><time>2026-07-27T21:27:53.000Z</time></trkpt>
        <trkpt lat="29.565115" lon="103.428421"><ele>648.9844</ele><time>2026-07-27T21:27:59.000Z</time></trkpt>
        <trkpt lat="29.565162" lon="103.4284"><ele>651.4754</ele><time>2026-07-27T21:28:03.000Z</time></trkpt>
        <trkpt lat="29.565208" lon="103.428372"><ele>653.67957</ele><time>2026-07-27T21:28:08.000Z</time></trkpt>
        <trkpt lat="29.565253" lon="103.428349"><ele>652.75555</ele><time>2026-07-27T21:28:13.000Z</time></trkpt>
        <trkpt lat="29.565298" lon="103.428331"><ele>652.41833</ele><time>2026-07-27T21:28:18.000Z</time></trkpt>
        <trkpt lat="29.565344" lon="103.42831"><ele>652.49133</ele><time>2026-07-27T21:28:23.000Z</time></trkpt>
        <trkpt lat="29.56534" lon="103.428241"><ele>651.8715</ele><time>2026-07-27T21:28:27.000Z</time></trkpt>
        <trkpt lat="29.565349" lon="103.428184"><ele>649.81433</ele><time>2026-07-27T21:28:31.000Z</time></trkpt>
        <trkpt lat="29.565358" lon="103.428123"><ele>649.2844</ele><time>2026-07-27T21:28:35.000Z</time></trkpt>
        <trkpt lat="29.565401" lon="103.428082"><ele>649.04517</ele><time>2026-07-27T21:28:40.000Z</time></trkpt>
        <trkpt lat="29.565448" lon="103.428061"><ele>650.38214</ele><time>2026-07-27T21:28:45.000Z</time></trkpt>
        <trkpt lat="29.565495" lon="103.428047"><ele>652.16895</ele><time>2026-07-27T21:28:51.000Z</time></trkpt>
        <trkpt lat="29.565492" lon="103.427991"><ele>652.108</ele><time>2026-07-27T21:28:57.000Z</time></trkpt>
        <trkpt lat="29.565461" lon="103.427932"><ele>654.9432</ele><time>2026-07-27T21:29:01.000Z</time></trkpt>
        <trkpt lat="29.565429" lon="103.427886"><ele>657.21106</ele><time>2026-07-27T21:29:05.000Z</time></trkpt>
        <trkpt lat="29.5654" lon="103.427839"><ele>659.0391</ele><time>2026-07-27T21:29:08.000Z</time></trkpt>
        <trkpt lat="29.565362" lon="103.427803"><ele>659.79364</ele><time>2026-07-27T21:29:10.000Z</time></trkpt>
        <trkpt lat="29.565388" lon="103.427745"><ele>663.9182</ele><time>2026-07-27T21:29:15.000Z</time></trkpt>
        <trkpt lat="29.565371" lon="103.427697"><ele>667.0096</ele><time>2026-07-27T21:29:20.000Z</time></trkpt>
        <trkpt lat="29.565387" lon="103.427647"><ele>668.34564</ele><time>2026-07-27T21:29:26.000Z</time></trkpt>
        <trkpt lat="29.565452" lon="103.427624"><ele>670.6291</ele><time>2026-07-27T21:29:31.000Z</time></trkpt>
        <trkpt lat="29.56549" lon="103.427575"><ele>672.4297</ele><time>2026-07-27T21:29:36.000Z</time></trkpt>
        <trkpt lat="29.565483" lon="103.427521"><ele>674.92163</ele><time>2026-07-27T21:29:41.000Z</time></trkpt>
        <trkpt lat="29.565497" lon="103.427457"><ele>677.4873</ele><time>2026-07-27T21:29:46.000Z</time></trkpt>
        <trkpt lat="29.565518" lon="103.427399"><ele>680.281</ele><time>2026-07-27T21:29:51.000Z</time></trkpt>
        <trkpt lat="29.565527" lon="103.42734"><ele>683.4629</ele><time>2026-07-27T21:29:57.000Z</time></trkpt>
        <trkpt lat="29.565499" lon="103.427294"><ele>685.3751</ele><time>2026-07-27T21:30:01.000Z</time></trkpt>
        <trkpt lat="29.565469" lon="103.427254"><ele>685.2825</ele><time>2026-07-27T21:30:06.000Z</time></trkpt>
        <trkpt lat="29.565422" lon="103.427212"><ele>683.7446</ele><time>2026-07-27T21:30:11.000Z</time></trkpt>
        <trkpt lat="29.565378" lon="103.427183"><ele>681.3441</ele><time>2026-07-27T21:30:22.000Z</time></trkpt>
        <trkpt lat="29.565328" lon="103.427146"><ele>680.8347</ele><time>2026-07-27T21:30:24.000Z</time></trkpt>
        <trkpt lat="29.565294" lon="103.427109"><ele>678.4394</ele><time>2026-07-27T21:30:26.000Z</time></trkpt>
        <trkpt lat="29.565259" lon="103.427074"><ele>675.275</ele><time>2026-07-27T21:30:29.000Z</time></trkpt>
        <trkpt lat="29.565211" lon="103.427032"><ele>674.01575</ele><time>2026-07-27T21:30:31.000Z</time></trkpt>
        <trkpt lat="29.565169" lon="103.427013"><ele>671.8542</ele><time>2026-07-27T21:30:34.000Z</time></trkpt>
        <trkpt lat="29.565133" lon="103.426981"><ele>666.9572</ele><time>2026-07-27T21:30:40.000Z</time></trkpt>
        <trkpt lat="29.565091" lon="103.426953"><ele>664.2347</ele><time>2026-07-27T21:30:46.000Z</time></trkpt>
        <trkpt lat="29.565044" lon="103.426946"><ele>662.98413</ele><time>2026-07-27T21:30:51.000Z</time></trkpt>
        <trkpt lat="29.564994" lon="103.426946"><ele>661.30914</ele><time>2026-07-27T21:30:56.000Z</time></trkpt>
        <trkpt lat="29.564966" lon="103.426889"><ele>659.74744</ele><time>2026-07-27T21:31:00.000Z</time></trkpt>
        <trkpt lat="29.564949" lon="103.42683"><ele>658.39923</ele><time>2026-07-27T21:31:05.000Z</time></trkpt>
        <trkpt lat="29.56497" lon="103.426783"><ele>657.8063</ele><time>2026-07-27T21:31:10.000Z</time></trkpt>
        <trkpt lat="29.564986" lon="103.426733"><ele>658.57855</ele><time>2026-07-27T21:31:18.000Z</time></trkpt>
        <trkpt lat="29.565024" lon="103.426699"><ele>663.164</ele><time>2026-07-27T21:31:33.000Z</time></trkpt>
        <trkpt lat="29.565051" lon="103.426648"><ele>664.78687</ele><time>2026-07-27T21:31:45.000Z</time></trkpt>
        <trkpt lat="29.565056" lon="103.426594"><ele>665.10254</ele><time>2026-07-27T21:32:03.000Z</time></trkpt>
        <trkpt lat="29.565064" lon="103.426542"><ele>668.3221</ele><time>2026-07-27T21:32:15.000Z</time></trkpt>
        <trkpt lat="29.565093" lon="103.426502"><ele>672.5922</ele><time>2026-07-27T21:32:23.000Z</time></trkpt>
        <trkpt lat="29.565108" lon="103.426453"><ele>677.317</ele><time>2026-07-27T21:32:35.000Z</time></trkpt>
        <trkpt lat="29.565123" lon="103.426391"><ele>678.4604</ele><time>2026-07-27T21:32:45.000Z</time></trkpt>
        <trkpt lat="29.565107" lon="103.42634"><ele>676.00684</ele><time>2026-07-27T21:32:54.000Z</time></trkpt>
        <trkpt lat="29.565142" lon="103.426303"><ele>675.9714</ele><time>2026-07-27T21:33:05.000Z</time></trkpt>
        <trkpt lat="29.565143" lon="103.426251"><ele>677.19214</ele><time>2026-07-27T21:33:12.000Z</time></trkpt>
        <trkpt lat="29.56517" lon="103.42621"><ele>681.83905</ele><time>2026-07-27T21:33:23.000Z</time></trkpt>
        <trkpt lat="29.56517" lon="103.426158"><ele>684.964</ele><time>2026-07-27T21:33:36.000Z</time></trkpt>
        <trkpt lat="29.565184" lon="103.426108"><ele>684.4069</ele><time>2026-07-27T21:33:48.000Z</time></trkpt>
        <trkpt lat="29.565176" lon="103.426052"><ele>686.93463</ele><time>2026-07-27T21:34:02.000Z</time></trkpt>
        <trkpt lat="29.565192" lon="103.426001"><ele>687.19556</ele><time>2026-07-27T21:34:12.000Z</time></trkpt>
        <trkpt lat="29.565186" lon="103.425949"><ele>688.1032</ele><time>2026-07-27T21:34:21.000Z</time></trkpt>
        <trkpt lat="29.565188" lon="103.425894"><ele>690.82184</ele><time>2026-07-27T21:34:34.000Z</time></trkpt>
        <trkpt lat="29.565218" lon="103.425848"><ele>693.85175</ele><time>2026-07-27T21:34:44.000Z</time></trkpt>
        <trkpt lat="29.565233" lon="103.425798"><ele>695.20264</ele><time>2026-07-27T21:34:53.000Z</time></trkpt>
        <trkpt lat="29.565221" lon="103.425748"><ele>694.5136</ele><time>2026-07-27T21:37:02.000Z</time></trkpt>
        <trkpt lat="29.565176" lon="103.425748"><ele>694.84784</ele><time>2026-07-27T21:37:50.000Z</time></trkpt>
        <trkpt lat="29.565199" lon="103.425754"><ele>695.2007</ele><time>2026-07-27T21:38:12.000Z</time></trkpt>
        <trkpt lat="29.565186" lon="103.425695"><ele>696.5587</ele><time>2026-07-27T21:38:26.000Z</time></trkpt>
        <trkpt lat="29.565075" lon="103.425569"><ele>696.24066</ele><time>2026-07-27T21:38:39.000Z</time></trkpt>
        <trkpt lat="29.565044" lon="103.425531"><ele>695.90466</ele><time>2026-07-27T21:38:44.000Z</time></trkpt>
        <trkpt lat="29.565015" lon="103.425489"><ele>695.73114</ele><time>2026-07-27T21:38:48.000Z</time></trkpt>
        <trkpt lat="29.564991" lon="103.425445"><ele>695.73425</ele><time>2026-07-27T21:38:53.000Z</time></trkpt>
        <trkpt lat="29.564983" lon="103.425392"><ele>695.5625</ele><time>2026-07-27T21:38:58.000Z</time></trkpt>
        <trkpt lat="29.564965" lon="103.425334"><ele>695.89484</ele><time>2026-07-27T21:39:03.000Z</time></trkpt>
        <trkpt lat="29.564928" lon="103.425296"><ele>698.9072</ele><time>2026-07-27T21:39:10.000Z</time></trkpt>
        <trkpt lat="29.564906" lon="103.425244"><ele>699.7212</ele><time>2026-07-27T21:39:15.000Z</time></trkpt>
        <trkpt lat="29.564869" lon="103.425206"><ele>704.40234</ele><time>2026-07-27T21:39:22.000Z</time></trkpt>
        <trkpt lat="29.56484" lon="103.425164"><ele>705.2588</ele><time>2026-07-27T21:39:29.000Z</time></trkpt>
        <trkpt lat="29.564825" lon="103.425107"><ele>709.0662</ele><time>2026-07-27T21:39:41.000Z</time></trkpt>
        <trkpt lat="29.564834" lon="103.425052"><ele>710.4715</ele><time>2026-07-27T21:39:50.000Z</time></trkpt>
        <trkpt lat="29.564834" lon="103.424995"><ele>711.38446</ele><time>2026-07-27T21:39:59.000Z</time></trkpt>
        <trkpt lat="29.564808" lon="103.424946"><ele>712.7393</ele><time>2026-07-27T21:40:03.000Z</time></trkpt>
        <trkpt lat="29.564776" lon="103.424903"><ele>716.9948</ele><time>2026-07-27T21:40:18.000Z</time></trkpt>
        <trkpt lat="29.564789" lon="103.424848"><ele>716.2477</ele><time>2026-07-27T21:40:23.000Z</time></trkpt>
        <trkpt lat="29.564773" lon="103.424799"><ele>716.11115</ele><time>2026-07-27T21:40:27.000Z</time></trkpt>
        <trkpt lat="29.564754" lon="103.424747"><ele>715.9014</ele><time>2026-07-27T21:40:34.000Z</time></trkpt>
        <trkpt lat="29.564752" lon="103.424685"><ele>714.82263</ele><time>2026-07-27T21:40:40.000Z</time></trkpt>
        <trkpt lat="29.564732" lon="103.424638"><ele>716.384</ele><time>2026-07-27T21:40:48.000Z</time></trkpt>
        <trkpt lat="29.56474" lon="103.42458"><ele>718.4913</ele><time>2026-07-27T21:40:55.000Z</time></trkpt>
        <trkpt lat="29.564742" lon="103.424528"><ele>719.6756</ele><time>2026-07-27T21:41:03.000Z</time></trkpt>
        <trkpt lat="29.564727" lon="103.424477"><ele>720.2953</ele><time>2026-07-27T21:41:06.000Z</time></trkpt>
        <trkpt lat="29.564735" lon="103.424424"><ele>718.68915</ele><time>2026-07-27T21:41:10.000Z</time></trkpt>
        <trkpt lat="29.564714" lon="103.42436"><ele>718.35925</ele><time>2026-07-27T21:41:15.000Z</time></trkpt>
        <trkpt lat="29.564694" lon="103.424312"><ele>719.762</ele><time>2026-07-27T21:41:34.000Z</time></trkpt>
        <trkpt lat="29.564654" lon="103.424281"><ele>721.15436</ele><time>2026-07-27T21:41:40.000Z</time></trkpt>
        <trkpt lat="29.564642" lon="103.42423"><ele>730.69025</ele><time>2026-07-27T21:41:58.000Z</time></trkpt>
        <trkpt lat="29.564614" lon="103.42418"><ele>736.25494</ele><time>2026-07-27T21:42:12.000Z</time></trkpt>
        <trkpt lat="29.56458" lon="103.424143"><ele>735.42786</ele><time>2026-07-27T21:42:20.000Z</time></trkpt>
        <trkpt lat="29.564579" lon="103.424085"><ele>734.6614</ele><time>2026-07-27T21:42:26.000Z</time></trkpt>
        <trkpt lat="29.564541" lon="103.424057"><ele>735.3599</ele><time>2026-07-27T21:42:31.000Z</time></trkpt>
        <trkpt lat="29.564503" lon="103.424026"><ele>737.69556</ele><time>2026-07-27T21:42:41.000Z</time></trkpt>
        <trkpt lat="29.564479" lon="103.423975"><ele>735.57654</ele><time>2026-07-27T21:42:46.000Z</time></trkpt>
        <trkpt lat="29.564452" lon="103.423919"><ele>736.16724</ele><time>2026-07-27T21:42:54.000Z</time></trkpt>
        <trkpt lat="29.564432" lon="103.423869"><ele>735.2022</ele><time>2026-07-27T21:43:00.000Z</time></trkpt>
        <trkpt lat="29.56443" lon="103.423813"><ele>734.2682</ele><time>2026-07-27T21:43:08.000Z</time></trkpt>
        <trkpt lat="29.564433" lon="103.423756"><ele>739.9656</ele><time>2026-07-27T21:43:20.000Z</time></trkpt>
        <trkpt lat="29.564408" lon="103.423711"><ele>741.74695</ele><time>2026-07-27T21:43:27.000Z</time></trkpt>
        <trkpt lat="29.564444" lon="103.423677"><ele>740.65594</ele><time>2026-07-27T21:43:31.000Z</time></trkpt>
        <trkpt lat="29.564444" lon="103.423621"><ele>740.9959</ele><time>2026-07-27T21:43:38.000Z</time></trkpt>
        <trkpt lat="29.564459" lon="103.42357"><ele>741.8327</ele><time>2026-07-27T21:43:43.000Z</time></trkpt>
        <trkpt lat="29.564482" lon="103.423518"><ele>739.7575</ele><time>2026-07-27T21:43:48.000Z</time></trkpt>
        <trkpt lat="29.564517" lon="103.423474"><ele>741.7592</ele><time>2026-07-27T21:43:53.000Z</time></trkpt>
        <trkpt lat="29.564518" lon="103.423419"><ele>743.4229</ele><time>2026-07-27T21:44:00.000Z</time></trkpt>
        <trkpt lat="29.564519" lon="103.423361"><ele>745.86224</ele><time>2026-07-27T21:44:10.000Z</time></trkpt>
        <trkpt lat="29.564534" lon="103.423306"><ele>749.7684</ele><time>2026-07-27T21:44:26.000Z</time></trkpt>
        <trkpt lat="29.564499" lon="103.423252"><ele>750.60986</ele><time>2026-07-27T21:44:34.000Z</time></trkpt>
        <trkpt lat="29.56452" lon="103.423205"><ele>755.67474</ele><time>2026-07-27T21:44:46.000Z</time></trkpt>
        <trkpt lat="29.564542" lon="103.423157"><ele>758.6972</ele><time>2026-07-27T21:44:55.000Z</time></trkpt>
        <trkpt lat="29.564535" lon="103.423097"><ele>759.4536</ele><time>2026-07-27T21:45:00.000Z</time></trkpt>
        <trkpt lat="29.564541" lon="103.423041"><ele>763.2894</ele><time>2026-07-27T21:45:08.000Z</time></trkpt>
        <trkpt lat="29.564566" lon="103.422986"><ele>765.4856</ele><time>2026-07-27T21:45:18.000Z</time></trkpt>
        <trkpt lat="29.564583" lon="103.422934"><ele>766.97974</ele><time>2026-07-27T21:45:29.000Z</time></trkpt>
        <trkpt lat="29.564569" lon="103.42288"><ele>768.3569</ele><time>2026-07-27T21:45:36.000Z</time></trkpt>
        <trkpt lat="29.564588" lon="103.422812"><ele>770.12024</ele><time>2026-07-27T21:45:46.000Z</time></trkpt>
        <trkpt lat="29.564552" lon="103.422766"><ele>770.3459</ele><time>2026-07-27T21:45:55.000Z</time></trkpt>
        <trkpt lat="29.564518" lon="103.422725"><ele>768.64557</ele><time>2026-07-27T21:45:59.000Z</time></trkpt>
        <trkpt lat="29.564489" lon="103.422676"><ele>767.6029</ele><time>2026-07-27T21:46:03.000Z</time></trkpt>
        <trkpt lat="29.564545" lon="103.422651"><ele>768.3204</ele><time>2026-07-27T21:46:11.000Z</time></trkpt>
        <trkpt lat="29.564537" lon="103.422592"><ele>767.3679</ele><time>2026-07-27T21:46:20.000Z</time></trkpt>
        <trkpt lat="29.564502" lon="103.422545"><ele>768.3168</ele><time>2026-07-27T21:46:30.000Z</time></trkpt>
        <trkpt lat="29.564499" lon="103.422488"><ele>767.5224</ele><time>2026-07-27T21:46:45.000Z</time></trkpt>
        <trkpt lat="29.5645" lon="103.422434"><ele>764.9316</ele><time>2026-07-27T21:46:54.000Z</time></trkpt>
        <trkpt lat="29.564483" lon="103.422381"><ele>764.4189</ele><time>2026-07-27T21:47:05.000Z</time></trkpt>
        <trkpt lat="29.564457" lon="103.422332"><ele>769.30035</ele><time>2026-07-27T21:47:16.000Z</time></trkpt>
        <trkpt lat="29.564461" lon="103.422271"><ele>771.5863</ele><time>2026-07-27T21:47:24.000Z</time></trkpt>
        <trkpt lat="29.564483" lon="103.422218"><ele>774.1042</ele><time>2026-07-27T21:47:31.000Z</time></trkpt>
        <trkpt lat="29.564481" lon="103.422164"><ele>776.03064</ele><time>2026-07-27T21:47:41.000Z</time></trkpt>
        <trkpt lat="29.564451" lon="103.422115"><ele>777.035</ele><time>2026-07-27T21:47:50.000Z</time></trkpt>
        <trkpt lat="29.564428" lon="103.422059"><ele>774.12177</ele><time>2026-07-27T21:47:57.000Z</time></trkpt>
        <trkpt lat="29.564411" lon="103.422007"><ele>780.9468</ele><time>2026-07-27T21:48:16.000Z</time></trkpt>
        <trkpt lat="29.564394" lon="103.421946"><ele>781.28687</ele><time>2026-07-27T21:48:25.000Z</time></trkpt>
        <trkpt lat="29.564416" lon="103.4219"><ele>784.58417</ele><time>2026-07-27T21:48:34.000Z</time></trkpt>
        <trkpt lat="29.564438" lon="103.421851"><ele>785.8499</ele><time>2026-07-27T21:48:45.000Z</time></trkpt>
        <trkpt lat="29.564438" lon="103.421794"><ele>789.9945</ele><time>2026-07-27T21:49:00.000Z</time></trkpt>
        <trkpt lat="29.564428" lon="103.421736"><ele>790.5141</ele><time>2026-07-27T21:49:08.000Z</time></trkpt>
        <trkpt lat="29.564417" lon="103.421679"><ele>794.20624</ele><time>2026-07-27T21:49:19.000Z</time></trkpt>
        <trkpt lat="29.564396" lon="103.421632"><ele>796.51654</ele><time>2026-07-27T21:49:36.000Z</time></trkpt>
        <trkpt lat="29.564389" lon="103.42158"><ele>800.9961</ele><time>2026-07-27T21:49:48.000Z</time></trkpt>
        <trkpt lat="29.564356" lon="103.421542"><ele>803.2178</ele><time>2026-07-27T21:49:59.000Z</time></trkpt>
        <trkpt lat="29.564343" lon="103.421485"><ele>805.112</ele><time>2026-07-27T21:50:09.000Z</time></trkpt>
        <trkpt lat="29.564341" lon="103.42142"><ele>806.0389</ele><time>2026-07-27T21:50:17.000Z</time></trkpt>
        <trkpt lat="29.564385" lon="103.421404"><ele>806.20715</ele><time>2026-07-27T21:50:26.000Z</time></trkpt>
        <trkpt lat="29.564432" lon="103.421401"><ele>805.1365</ele><time>2026-07-27T21:50:34.000Z</time></trkpt>
        <trkpt lat="29.56448" lon="103.421389"><ele>805.0734</ele><time>2026-07-27T21:50:48.000Z</time></trkpt>
        <trkpt lat="29.564469" lon="103.421331"><ele>803.175</ele><time>2026-07-27T21:52:40.000Z</time></trkpt>
        <trkpt lat="29.564514" lon="103.421318"><ele>804.1189</ele><time>2026-07-27T21:52:46.000Z</time></trkpt>
        <trkpt lat="29.564546" lon="103.421279"><ele>804.3668</ele><time>2026-07-27T21:52:53.000Z</time></trkpt>
        <trkpt lat="29.564586" lon="103.421242"><ele>804.7108</ele><time>2026-07-27T21:53:01.000Z</time></trkpt>
        <trkpt lat="29.564633" lon="103.421219"><ele>805.7713</ele><time>2026-07-27T21:53:07.000Z</time></trkpt>
        <trkpt lat="29.564674" lon="103.421192"><ele>806.8712</ele><time>2026-07-27T21:53:14.000Z</time></trkpt>
        <trkpt lat="29.564697" lon="103.421144"><ele>805.791</ele><time>2026-07-27T21:53:20.000Z</time></trkpt>
        <trkpt lat="29.564748" lon="103.421177"><ele>808.3709</ele><time>2026-07-27T21:53:38.000Z</time></trkpt>
        <trkpt lat="29.564772" lon="103.421223"><ele>808.4688</ele><time>2026-07-27T21:53:43.000Z</time></trkpt>
        <trkpt lat="29.564806" lon="103.421259"><ele>809.7194</ele><time>2026-07-27T21:53:49.000Z</time></trkpt>
        <trkpt lat="29.564834" lon="103.421301"><ele>809.7839</ele><time>2026-07-27T21:53:57.000Z</time></trkpt>
        <trkpt lat="29.564866" lon="103.421342"><ele>812.5314</ele><time>2026-07-27T21:54:05.000Z</time></trkpt>
        <trkpt lat="29.5649" lon="103.421377"><ele>814.76465</ele><time>2026-07-27T21:54:13.000Z</time></trkpt>
        <trkpt lat="29.564936" lon="103.421414"><ele>815.11725</ele><time>2026-07-27T21:54:26.000Z</time></trkpt>
        <trkpt lat="29.564984" lon="103.421402"><ele>817.557</ele><time>2026-07-27T21:54:38.000Z</time></trkpt>
        <trkpt lat="29.565031" lon="103.421399"><ele>817.6587</ele><time>2026-07-27T21:54:47.000Z</time></trkpt>
        <trkpt lat="29.565076" lon="103.421382"><ele>819.05365</ele><time>2026-07-27T21:55:00.000Z</time></trkpt>
        <trkpt lat="29.565128" lon="103.421383"><ele>819.99524</ele><time>2026-07-27T21:55:07.000Z</time></trkpt>
        <trkpt lat="29.565165" lon="103.421352"><ele>820.83093</ele><time>2026-07-27T21:55:14.000Z</time></trkpt>
        <trkpt lat="29.565209" lon="103.42133"><ele>824.1213</ele><time>2026-07-27T21:55:27.000Z</time></trkpt>
        <trkpt lat="29.56525" lon="103.421302"><ele>825.88684</ele><time>2026-07-27T21:55:35.000Z</time></trkpt>
        <trkpt lat="29.565295" lon="103.421282"><ele>828.6444</ele><time>2026-07-27T21:55:46.000Z</time></trkpt>
        <trkpt lat="29.565344" lon="103.421264"><ele>832.71515</ele><time>2026-07-27T21:56:00.000Z</time></trkpt>
        <trkpt lat="29.565377" lon="103.421225"><ele>833.49243</ele><time>2026-07-27T21:57:04.000Z</time></trkpt>
        <trkpt lat="29.565422" lon="103.421195"><ele>833.22</ele><time>2026-07-27T21:57:17.000Z</time></trkpt>
        <trkpt lat="29.565468" lon="103.421196"><ele>832.6727</ele><time>2026-07-27T21:57:24.000Z</time></trkpt>
        <trkpt lat="29.565514" lon="103.421189"><ele>831.7465</ele><time>2026-07-27T21:57:29.000Z</time></trkpt>
        <trkpt lat="29.565559" lon="103.421165"><ele>833.0852</ele><time>2026-07-27T21:57:34.000Z</time></trkpt>
        <trkpt lat="29.565604" lon="103.42113"><ele>833.7226</ele><time>2026-07-27T21:57:39.000Z</time></trkpt>
        <trkpt lat="29.565652" lon="103.421144"><ele>837.31616</ele><time>2026-07-27T21:57:44.000Z</time></trkpt>
        <trkpt lat="29.5657" lon="103.421145"><ele>837.84937</ele><time>2026-07-27T21:57:49.000Z</time></trkpt>
        <trkpt lat="29.565748" lon="103.421132"><ele>837.2657</ele><time>2026-07-27T21:57:54.000Z</time></trkpt>
        <trkpt lat="29.565803" lon="103.421157"><ele>838.7999</ele><time>2026-07-27T21:58:00.000Z</time></trkpt>
        <trkpt lat="29.56585" lon="103.421163"><ele>839.9531</ele><time>2026-07-27T21:58:04.000Z</time></trkpt>
        <trkpt lat="29.5659" lon="103.421154"><ele>840.4397</ele><time>2026-07-27T21:58:10.000Z</time></trkpt>
        <trkpt lat="29.565952" lon="103.421169"><ele>839.7781</ele><time>2026-07-27T21:58:19.000Z</time></trkpt>
        <trkpt lat="29.566001" lon="103.421179"><ele>840.7767</ele><time>2026-07-27T21:58:26.000Z</time></trkpt>
        <trkpt lat="29.566055" lon="103.421174"><ele>840.5253</ele><time>2026-07-27T21:58:35.000Z</time></trkpt>
        <trkpt lat="29.566112" lon="103.42117"><ele>842.26483</ele><time>2026-07-27T21:58:48.000Z</time></trkpt>
        <trkpt lat="29.56617" lon="103.421165"><ele>842.64154</ele><time>2026-07-27T21:58:55.000Z</time></trkpt>
        <trkpt lat="29.566207" lon="103.421134"><ele>842.2305</ele><time>2026-07-27T21:59:02.000Z</time></trkpt>
        <trkpt lat="29.566227" lon="103.421075"><ele>843.28064</ele><time>2026-07-27T21:59:08.000Z</time></trkpt>
        <trkpt lat="29.56626" lon="103.421029"><ele>842.77277</ele><time>2026-07-27T21:59:15.000Z</time></trkpt>
        <trkpt lat="29.566274" lon="103.420978"><ele>842.39307</ele><time>2026-07-27T21:59:19.000Z</time></trkpt>
        <trkpt lat="29.566289" lon="103.420913"><ele>843.83386</ele><time>2026-07-27T21:59:24.000Z</time></trkpt>
        <trkpt lat="29.566304" lon="103.420861"><ele>844.65454</ele><time>2026-07-27T21:59:29.000Z</time></trkpt>
        <trkpt lat="29.566313" lon="103.420799"><ele>843.18195</ele><time>2026-07-27T21:59:35.000Z</time></trkpt>
        <trkpt lat="29.566336" lon="103.420755"><ele>843.87897</ele><time>2026-07-27T21:59:40.000Z</time></trkpt>
        <trkpt lat="29.566351" lon="103.42069"><ele>842.93524</ele><time>2026-07-27T21:59:46.000Z</time></trkpt>
        <trkpt lat="29.56637" lon="103.420641"><ele>841.0624</ele><time>2026-07-27T21:59:51.000Z</time></trkpt>
        <trkpt lat="29.56637" lon="103.420589"><ele>841.23065</ele><time>2026-07-27T21:59:56.000Z</time></trkpt>
        <trkpt lat="29.566388" lon="103.420532"><ele>840.7212</ele><time>2026-07-27T22:00:04.000Z</time></trkpt>
        <trkpt lat="29.566413" lon="103.420479"><ele>839.14</ele><time>2026-07-27T22:00:09.000Z</time></trkpt>
        <trkpt lat="29.566453" lon="103.420439"><ele>839.4738</ele><time>2026-07-27T22:00:14.000Z</time></trkpt>
        <trkpt lat="29.566476" lon="103.420394"><ele>840.1303</ele><time>2026-07-27T22:00:18.000Z</time></trkpt>
        <trkpt lat="29.566511" lon="103.420352"><ele>841.4855</ele><time>2026-07-27T22:00:23.000Z</time></trkpt>
        <trkpt lat="29.566545" lon="103.4203"><ele>841.2252</ele><time>2026-07-27T22:00:29.000Z</time></trkpt>
        <trkpt lat="29.566585" lon="103.420267"><ele>841.7193</ele><time>2026-07-27T22:00:34.000Z</time></trkpt>
        <trkpt lat="29.566625" lon="103.420231"><ele>841.60596</ele><time>2026-07-27T22:00:38.000Z</time></trkpt>
        <trkpt lat="29.566659" lon="103.420194"><ele>842.4375</ele><time>2026-07-27T22:00:42.000Z</time></trkpt>
        <trkpt lat="29.566674" lon="103.420136"><ele>841.27246</ele><time>2026-07-27T22:00:47.000Z</time></trkpt>
        <trkpt lat="29.566695" lon="103.420086"><ele>842.09937</ele><time>2026-07-27T22:00:51.000Z</time></trkpt>
        <trkpt lat="29.566695" lon="103.42003"><ele>843.1523</ele><time>2026-07-27T22:00:56.000Z</time></trkpt>
        <trkpt lat="29.566725" lon="103.41998"><ele>847.3996</ele><time>2026-07-27T22:01:03.000Z</time></trkpt>
        <trkpt lat="29.566734" lon="103.419925"><ele>849.1894</ele><time>2026-07-27T22:01:11.000Z</time></trkpt>
        <trkpt lat="29.56678" lon="103.419899"><ele>851.18066</ele><time>2026-07-27T22:01:23.000Z</time></trkpt>
        <trkpt lat="29.566826" lon="103.419908"><ele>850.9793</ele><time>2026-07-27T22:01:37.000Z</time></trkpt>
        <trkpt lat="29.56687" lon="103.419936"><ele>851.4127</ele><time>2026-07-27T22:01:47.000Z</time></trkpt>
        <trkpt lat="29.566898" lon="103.419979"><ele>852.1877</ele><time>2026-07-27T22:01:59.000Z</time></trkpt>
        <trkpt lat="29.56693" lon="103.420015"><ele>854.0344</ele><time>2026-07-27T22:02:08.000Z</time></trkpt>
        <trkpt lat="29.566979" lon="103.420043"><ele>854.18024</ele><time>2026-07-27T22:02:22.000Z</time></trkpt>
        <trkpt lat="29.566991" lon="103.420103"><ele>857.2657</ele><time>2026-07-27T22:02:35.000Z</time></trkpt>
        <trkpt lat="29.566992" lon="103.420168"><ele>859.85565</ele><time>2026-07-27T22:02:40.000Z</time></trkpt>
        <trkpt lat="29.56701" lon="103.420219"><ele>857.41284</ele><time>2026-07-27T22:02:46.000Z</time></trkpt>
        <trkpt lat="29.567025" lon="103.420273"><ele>858.4885</ele><time>2026-07-27T22:02:50.000Z</time></trkpt>
        <trkpt lat="29.567038" lon="103.420327"><ele>860.4512</ele><time>2026-07-27T22:02:58.000Z</time></trkpt>
        <trkpt lat="29.567075" lon="103.420363"><ele>861.8161</ele><time>2026-07-27T22:03:08.000Z</time></trkpt>
        <trkpt lat="29.567107" lon="103.420407"><ele>863.10944</ele><time>2026-07-27T22:03:16.000Z</time></trkpt>
        <trkpt lat="29.567135" lon="103.420447"><ele>866.174</ele><time>2026-07-27T22:03:25.000Z</time></trkpt>
        <trkpt lat="29.567181" lon="103.420479"><ele>867.5834</ele><time>2026-07-27T22:03:32.000Z</time></trkpt>
        <trkpt lat="29.567227" lon="103.420498"><ele>868.46216</ele><time>2026-07-27T22:03:43.000Z</time></trkpt>
        <trkpt lat="29.567272" lon="103.420474"><ele>871.16187</ele><time>2026-07-27T22:03:55.000Z</time></trkpt>
        <trkpt lat="29.567318" lon="103.420487"><ele>872.5091</ele><time>2026-07-27T22:04:05.000Z</time></trkpt>
        <trkpt lat="29.567365" lon="103.420479"><ele>875.13245</ele><time>2026-07-27T22:04:14.000Z</time></trkpt>
        <trkpt lat="29.56741" lon="103.420457"><ele>876.26215</ele><time>2026-07-27T22:04:28.000Z</time></trkpt>
        <trkpt lat="29.567453" lon="103.420438"><ele>877.0717</ele><time>2026-07-27T22:04:41.000Z</time></trkpt>
        <trkpt lat="29.567492" lon="103.420412"><ele>878.5466</ele><time>2026-07-27T22:04:51.000Z</time></trkpt>
        <trkpt lat="29.567535" lon="103.420387"><ele>881.43005</ele><time>2026-07-27T22:05:03.000Z</time></trkpt>
        <trkpt lat="29.567581" lon="103.420361"><ele>882.05176</ele><time>2026-07-27T22:05:15.000Z</time></trkpt>
        <trkpt lat="29.567624" lon="103.420347"><ele>884.885</ele><time>2026-07-27T22:05:26.000Z</time></trkpt>
        <trkpt lat="29.567669" lon="103.420315"><ele>886.5956</ele><time>2026-07-27T22:05:34.000Z</time></trkpt>
        <trkpt lat="29.567708" lon="103.420289"><ele>887.23755</ele><time>2026-07-27T22:05:44.000Z</time></trkpt>
        <trkpt lat="29.567753" lon="103.420267"><ele>885.68567</ele><time>2026-07-27T22:05:51.000Z</time></trkpt>
        <trkpt lat="29.567795" lon="103.420243"><ele>887.05145</ele><time>2026-07-27T22:06:06.000Z</time></trkpt>
        <trkpt lat="29.567839" lon="103.42021"><ele>891.12616</ele><time>2026-07-27T22:06:16.000Z</time></trkpt>
        <trkpt lat="29.567884" lon="103.4202"><ele>891.59863</ele><time>2026-07-27T22:06:25.000Z</time></trkpt>
        <trkpt lat="29.567928" lon="103.42018"><ele>894.56525</ele><time>2026-07-27T22:06:37.000Z</time></trkpt>
        <trkpt lat="29.567969" lon="103.42016"><ele>894.9361</ele><time>2026-07-27T22:06:47.000Z</time></trkpt>
        <trkpt lat="29.568009" lon="103.420131"><ele>898.9179</ele><time>2026-07-27T22:07:00.000Z</time></trkpt>
        <trkpt lat="29.568048" lon="103.420098"><ele>902.16565</ele><time>2026-07-27T22:07:10.000Z</time></trkpt>
        <trkpt lat="29.568091" lon="103.420114"><ele>902.5282</ele><time>2026-07-27T22:07:24.000Z</time></trkpt>
        <trkpt lat="29.56814" lon="103.420106"><ele>903.63654</ele><time>2026-07-27T22:07:34.000Z</time></trkpt>
        <trkpt lat="29.568188" lon="103.420095"><ele>905.8425</ele><time>2026-07-27T22:07:44.000Z</time></trkpt>
        <trkpt lat="29.568238" lon="103.420096"><ele>908.2784</ele><time>2026-07-27T22:07:56.000Z</time></trkpt>
        <trkpt lat="29.568283" lon="103.420081"><ele>909.12573</ele><time>2026-07-27T22:08:05.000Z</time></trkpt>
        <trkpt lat="29.568333" lon="103.420079"><ele>910.23987</ele><time>2026-07-27T22:08:22.000Z</time></trkpt>
        <trkpt lat="29.568382" lon="103.420091"><ele>913.9683</ele><time>2026-07-27T22:08:32.000Z</time></trkpt>
        <trkpt lat="29.568427" lon="103.420077"><ele>916.4205</ele><time>2026-07-27T22:08:44.000Z</time></trkpt>
        <trkpt lat="29.568475" lon="103.420068"><ele>918.6713</ele><time>2026-07-27T22:08:57.000Z</time></trkpt>
        <trkpt lat="29.568524" lon="103.420076"><ele>923.3454</ele><time>2026-07-27T22:09:12.000Z</time></trkpt>
        <trkpt lat="29.568574" lon="103.420092"><ele>923.2572</ele><time>2026-07-27T22:09:21.000Z</time></trkpt>
        <trkpt lat="29.56862" lon="103.420076"><ele>923.6228</ele><time>2026-07-27T22:09:29.000Z</time></trkpt>
        <trkpt lat="29.568667" lon="103.420059"><ele>926.0371</ele><time>2026-07-27T22:09:40.000Z</time></trkpt>
        <trkpt lat="29.568713" lon="103.420056"><ele>928.9979</ele><time>2026-07-27T22:09:49.000Z</time></trkpt>
        <trkpt lat="29.568756" lon="103.420038"><ele>929.0155</ele><time>2026-07-27T22:09:57.000Z</time></trkpt>
        <trkpt lat="29.568794" lon="103.42001"><ele>927.50916</ele><time>2026-07-27T22:10:03.000Z</time></trkpt>
        <trkpt lat="29.568827" lon="103.419969"><ele>928.75336</ele><time>2026-07-27T22:10:10.000Z</time></trkpt>
        <trkpt lat="29.568874" lon="103.419959"><ele>930.15936</ele><time>2026-07-27T22:10:21.000Z</time></trkpt>
        <trkpt lat="29.568914" lon="103.419928"><ele>929.98145</ele><time>2026-07-27T22:10:37.000Z</time></trkpt>
        <trkpt lat="29.568959" lon="103.419897"><ele>931.07983</ele><time>2026-07-27T22:10:45.000Z</time></trkpt>
        <trkpt lat="29.569008" lon="103.419874"><ele>931.8463</ele><time>2026-07-27T22:10:51.000Z</time></trkpt>
        <trkpt lat="29.569055" lon="103.419864"><ele>934.2638</ele><time>2026-07-27T22:10:57.000Z</time></trkpt>
        <trkpt lat="29.569105" lon="103.41984"><ele>934.353</ele><time>2026-07-27T22:11:02.000Z</time></trkpt>
        <trkpt lat="29.569157" lon="103.419828"><ele>933.9319</ele><time>2026-07-27T22:11:08.000Z</time></trkpt>
        <trkpt lat="29.5692" lon="103.419807"><ele>930.0332</ele><time>2026-07-27T22:11:14.000Z</time></trkpt>
        <trkpt lat="29.569244" lon="103.41978"><ele>927.99176</ele><time>2026-07-27T22:11:22.000Z</time></trkpt>
        <trkpt lat="29.569291" lon="103.419766"><ele>928.069</ele><time>2026-07-27T22:11:27.000Z</time></trkpt>
        <trkpt lat="29.569334" lon="103.419741"><ele>926.55853</ele><time>2026-07-27T22:11:31.000Z</time></trkpt>
        <trkpt lat="29.56938" lon="103.419713"><ele>926.44104</ele><time>2026-07-27T22:11:36.000Z</time></trkpt>
        <trkpt lat="29.569422" lon="103.419682"><ele>925.5645</ele><time>2026-07-27T22:11:39.000Z</time></trkpt>
        <trkpt lat="29.569466" lon="103.419665"><ele>924.568</ele><time>2026-07-27T22:11:43.000Z</time></trkpt>
        <trkpt lat="29.569496" lon="103.419623"><ele>924.48834</ele><time>2026-07-27T22:11:48.000Z</time></trkpt>
        <trkpt lat="29.569532" lon="103.419582"><ele>925.3825</ele><time>2026-07-27T22:11:53.000Z</time></trkpt>
        <trkpt lat="29.569572" lon="103.419544"><ele>925.6222</ele><time>2026-07-27T22:11:58.000Z</time></trkpt>
        <trkpt lat="29.569594" lon="103.41949"><ele>925.94775</ele><time>2026-07-27T22:12:04.000Z</time></trkpt>
        <trkpt lat="29.569612" lon="103.419439"><ele>924.0166</ele><time>2026-07-27T22:12:10.000Z</time></trkpt>
        <trkpt lat="29.569643" lon="103.419388"><ele>925.32965</ele><time>2026-07-27T22:12:16.000Z</time></trkpt>
        <trkpt lat="29.569676" lon="103.419344"><ele>926.5044</ele><time>2026-07-27T22:12:20.000Z</time></trkpt>
        <trkpt lat="29.569695" lon="103.419296"><ele>926.8363</ele><time>2026-07-27T22:12:27.000Z</time></trkpt>
        <trkpt lat="29.569726" lon="103.419257"><ele>927.6506</ele><time>2026-07-27T22:12:32.000Z</time></trkpt>
        <trkpt lat="29.569736" lon="103.419204"><ele>925.92377</ele><time>2026-07-27T22:12:40.000Z</time></trkpt>
        <trkpt lat="29.569734" lon="103.419145"><ele>926.94354</ele><time>2026-07-27T22:14:51.000Z</time></trkpt>
        <trkpt lat="29.569718" lon="103.419093"><ele>927.22327</ele><time>2026-07-27T22:14:58.000Z</time></trkpt>
        <trkpt lat="29.56972" lon="103.419037"><ele>926.7122</ele><time>2026-07-27T22:15:27.000Z</time></trkpt>
        <trkpt lat="29.569717" lon="103.418983"><ele>926.18274</ele><time>2026-07-27T22:15:46.000Z</time></trkpt>
        <trkpt lat="29.569738" lon="103.418934"><ele>927.8467</ele><time>2026-07-27T22:15:52.000Z</time></trkpt>
        <trkpt lat="29.569759" lon="103.418884"><ele>929.15405</ele><time>2026-07-27T22:15:59.000Z</time></trkpt>
        <trkpt lat="29.56975" lon="103.418833"><ele>930.0208</ele><time>2026-07-27T22:16:07.000Z</time></trkpt>
        <trkpt lat="29.569746" lon="103.418776"><ele>930.0448</ele><time>2026-07-27T22:16:21.000Z</time></trkpt>
        <trkpt lat="29.569762" lon="103.418723"><ele>927.84534</ele><time>2026-07-27T22:16:26.000Z</time></trkpt>
        <trkpt lat="29.569779" lon="103.418667"><ele>927.22205</ele><time>2026-07-27T22:16:32.000Z</time></trkpt>
        <trkpt lat="29.569807" lon="103.418624"><ele>926.9354</ele><time>2026-07-27T22:16:36.000Z</time></trkpt>
        <trkpt lat="29.569828" lon="103.418569"><ele>926.5565</ele><time>2026-07-27T22:16:40.000Z</time></trkpt>
        <trkpt lat="29.569827" lon="103.418513"><ele>926.14</ele><time>2026-07-27T22:16:44.000Z</time></trkpt>
        <trkpt lat="29.569828" lon="103.418458"><ele>925.54333</ele><time>2026-07-27T22:16:48.000Z</time></trkpt>
        <trkpt lat="29.569829" lon="103.418402"><ele>925.516</ele><time>2026-07-27T22:16:53.000Z</time></trkpt>
        <trkpt lat="29.569835" lon="103.418337"><ele>926.2034</ele><time>2026-07-27T22:16:57.000Z</time></trkpt>
        <trkpt lat="29.569834" lon="103.418273"><ele>925.1875</ele><time>2026-07-27T22:17:02.000Z</time></trkpt>
        <trkpt lat="29.569834" lon="103.418209"><ele>925.01447</ele><time>2026-07-27T22:17:06.000Z</time></trkpt>
        <trkpt lat="29.569869" lon="103.418151"><ele>925.4309</ele><time>2026-07-27T22:17:11.000Z</time></trkpt>
        <trkpt lat="29.569898" lon="103.418105"><ele>925.1838</ele><time>2026-07-27T22:17:15.000Z</time></trkpt>
        <trkpt lat="29.56992" lon="103.418059"><ele>924.79803</ele><time>2026-07-27T22:17:20.000Z</time></trkpt>
        <trkpt lat="29.56995" lon="103.41801"><ele>924.3744</ele><time>2026-07-27T22:17:24.000Z</time></trkpt>
        <trkpt lat="29.569962" lon="103.417943"><ele>921.8936</ele><time>2026-07-27T22:17:29.000Z</time></trkpt>
        <trkpt lat="29.569986" lon="103.417892"><ele>922.23364</ele><time>2026-07-27T22:17:33.000Z</time></trkpt>
        <trkpt lat="29.570008" lon="103.417834"><ele>922.2955</ele><time>2026-07-27T22:17:38.000Z</time></trkpt>
        <trkpt lat="29.570026" lon="103.41778"><ele>922.29803</ele><time>2026-07-27T22:17:43.000Z</time></trkpt>
        <trkpt lat="29.570031" lon="103.417724"><ele>922.2829</ele><time>2026-07-27T22:17:48.000Z</time></trkpt>
        <trkpt lat="29.570038" lon="103.417671"><ele>922.0254</ele><time>2026-07-27T22:17:51.000Z</time></trkpt>
        <trkpt lat="29.57005" lon="103.417614"><ele>921.99335</ele><time>2026-07-27T22:17:55.000Z</time></trkpt>
        <trkpt lat="29.570034" lon="103.417561"><ele>920.23706</ele><time>2026-07-27T22:17:59.000Z</time></trkpt>
        <trkpt lat="29.570035" lon="103.4175"><ele>922.30634</ele><time>2026-07-27T22:18:04.000Z</time></trkpt>
        <trkpt lat="29.57005" lon="103.417437"><ele>921.20746</ele><time>2026-07-27T22:18:08.000Z</time></trkpt>
        <trkpt lat="29.570063" lon="103.417372"><ele>921.2931</ele><time>2026-07-27T22:18:13.000Z</time></trkpt>
        <trkpt lat="29.570087" lon="103.417306"><ele>921.4151</ele><time>2026-07-27T22:18:18.000Z</time></trkpt>
        <trkpt lat="29.57011" lon="103.417261"><ele>922.8281</ele><time>2026-07-27T22:18:22.000Z</time></trkpt>
        <trkpt lat="29.570085" lon="103.417212"><ele>922.63556</ele><time>2026-07-27T22:18:26.000Z</time></trkpt>
        <trkpt lat="29.570108" lon="103.41715"><ele>921.71027</ele><time>2026-07-27T22:18:30.000Z</time></trkpt>
        <trkpt lat="29.570148" lon="103.417119"><ele>921.6199</ele><time>2026-07-27T22:18:33.000Z</time></trkpt>
        <trkpt lat="29.570197" lon="103.417107"><ele>921.49677</ele><time>2026-07-27T22:18:37.000Z</time></trkpt>
        <trkpt lat="29.570254" lon="103.417093"><ele>919.2647</ele><time>2026-07-27T22:18:46.000Z</time></trkpt>
        <trkpt lat="29.570304" lon="103.417097"><ele>918.54614</ele><time>2026-07-27T22:18:51.000Z</time></trkpt>
        <trkpt lat="29.570334" lon="103.417044"><ele>915.57544</ele><time>2026-07-27T22:18:57.000Z</time></trkpt>
        <trkpt lat="29.570358" lon="103.416989"><ele>916.0801</ele><time>2026-07-27T22:19:03.000Z</time></trkpt>
        <trkpt lat="29.570355" lon="103.416937"><ele>916.58844</ele><time>2026-07-27T22:19:07.000Z</time></trkpt>
        <trkpt lat="29.570355" lon="103.416885"><ele>916.6318</ele><time>2026-07-27T22:19:11.000Z</time></trkpt>
        <trkpt lat="29.570339" lon="103.416825"><ele>916.5445</ele><time>2026-07-27T22:19:15.000Z</time></trkpt>
        <trkpt lat="29.570334" lon="103.416767"><ele>915.61816</ele><time>2026-07-27T22:19:20.000Z</time></trkpt>
        <trkpt lat="29.570353" lon="103.41672"><ele>915.9048</ele><time>2026-07-27T22:19:24.000Z</time></trkpt>
        <trkpt lat="29.570379" lon="103.416674"><ele>916.7338</ele><time>2026-07-27T22:19:27.000Z</time></trkpt>
        <trkpt lat="29.570379" lon="103.416613"><ele>917.07263</ele><time>2026-07-27T22:19:32.000Z</time></trkpt>
        <trkpt lat="29.570362" lon="103.416564"><ele>915.9464</ele><time>2026-07-27T22:19:36.000Z</time></trkpt>
        <trkpt lat="29.570357" lon="103.41651"><ele>916.0462</ele><time>2026-07-27T22:19:40.000Z</time></trkpt>
        <trkpt lat="29.570378" lon="103.416451"><ele>917.065</ele><time>2026-07-27T22:19:45.000Z</time></trkpt>
        <trkpt lat="29.570398" lon="103.416398"><ele>918.67725</ele><time>2026-07-27T22:19:54.000Z</time></trkpt>
        <trkpt lat="29.570368" lon="103.416348"><ele>914.5523</ele><time>2026-07-27T22:20:00.000Z</time></trkpt>
        <trkpt lat="29.570395" lon="103.416282"><ele>914.44196</ele><time>2026-07-27T22:20:04.000Z</time></trkpt>
        <trkpt lat="29.57042" lon="103.416227"><ele>915.6243</ele><time>2026-07-27T22:20:09.000Z</time></trkpt>
        <trkpt lat="29.570452" lon="103.416191"><ele>915.1947</ele><time>2026-07-27T22:20:16.000Z</time></trkpt>
        <trkpt lat="29.570497" lon="103.416176"><ele>916.29504</ele><time>2026-07-27T22:20:20.000Z</time></trkpt>
        <trkpt lat="29.570541" lon="103.416163"><ele>917.1743</ele><time>2026-07-27T22:20:25.000Z</time></trkpt>
        <trkpt lat="29.570586" lon="103.41615"><ele>916.26917</ele><time>2026-07-27T22:20:32.000Z</time></trkpt>
        <trkpt lat="29.570633" lon="103.416128"><ele>918.72534</ele><time>2026-07-27T22:20:45.000Z</time></trkpt>
        <trkpt lat="29.570678" lon="103.416105"><ele>919.54047</ele><time>2026-07-27T22:20:55.000Z</time></trkpt>
        <trkpt lat="29.570704" lon="103.416054"><ele>920.207</ele><time>2026-07-27T22:21:07.000Z</time></trkpt>
        <trkpt lat="29.570735" lon="103.416011"><ele>921.4791</ele><time>2026-07-27T22:21:14.000Z</time></trkpt>
        <trkpt lat="29.570719" lon="103.41596"><ele>923.8157</ele><time>2026-07-27T22:21:22.000Z</time></trkpt>
        <trkpt lat="29.570686" lon="103.415922"><ele>922.0549</ele><time>2026-07-27T22:21:28.000Z</time></trkpt>
        <trkpt lat="29.570639" lon="103.4159"><ele>919.5171</ele><time>2026-07-27T22:21:33.000Z</time></trkpt>
        <trkpt lat="29.5706" lon="103.415859"><ele>919.28644</ele><time>2026-07-27T22:21:37.000Z</time></trkpt>
        <trkpt lat="29.570584" lon="103.415809"><ele>920.9586</ele><time>2026-07-27T22:21:42.000Z</time></trkpt>
        <trkpt lat="29.570535" lon="103.4158"><ele>923.07306</ele><time>2026-07-27T22:21:55.000Z</time></trkpt>
        <trkpt lat="29.570483" lon="103.415795"><ele>922.4947</ele><time>2026-07-27T22:22:01.000Z</time></trkpt>
        <trkpt lat="29.570445" lon="103.415765"><ele>921.75806</ele><time>2026-07-27T22:22:06.000Z</time></trkpt>
        <trkpt lat="29.570425" lon="103.415715"><ele>921.9044</ele><time>2026-07-27T22:22:25.000Z</time></trkpt>
        <trkpt lat="29.570403" lon="103.41567"><ele>922.5407</ele><time>2026-07-27T22:22:28.000Z</time></trkpt>
        <trkpt lat="29.570369" lon="103.415623"><ele>922.61285</ele><time>2026-07-27T22:22:33.000Z</time></trkpt>
        <trkpt lat="29.570327" lon="103.4156"><ele>922.2645</ele><time>2026-07-27T22:22:38.000Z</time></trkpt>
        <trkpt lat="29.570291" lon="103.415569"><ele>923.11566</ele><time>2026-07-27T22:22:43.000Z</time></trkpt>
        <trkpt lat="29.570238" lon="103.41554"><ele>924.56165</ele><time>2026-07-27T22:22:49.000Z</time></trkpt>
        <trkpt lat="29.570192" lon="103.415531"><ele>924.72186</ele><time>2026-07-27T22:22:55.000Z</time></trkpt>
        <trkpt lat="29.570147" lon="103.415526"><ele>925.3504</ele><time>2026-07-27T22:23:02.000Z</time></trkpt>
        <trkpt lat="29.570102" lon="103.41552"><ele>927.60864</ele><time>2026-07-27T22:23:08.000Z</time></trkpt>
        <trkpt lat="29.570061" lon="103.415496"><ele>929.20105</ele><time>2026-07-27T22:23:16.000Z</time></trkpt>
        <trkpt lat="29.570019" lon="103.415457"><ele>929.89124</ele><time>2026-07-27T22:23:22.000Z</time></trkpt>
        <trkpt lat="29.569971" lon="103.415421"><ele>929.1315</ele><time>2026-07-27T22:23:28.000Z</time></trkpt>
        <trkpt lat="29.56993" lon="103.415376"><ele>928.78357</ele><time>2026-07-27T22:23:35.000Z</time></trkpt>
        <trkpt lat="29.569901" lon="103.415326"><ele>929.1573</ele><time>2026-07-27T22:23:41.000Z</time></trkpt>
        <trkpt lat="29.569886" lon="103.415266"><ele>928.7675</ele><time>2026-07-27T22:23:47.000Z</time></trkpt>
        <trkpt lat="29.569881" lon="103.415212"><ele>927.949</ele><time>2026-07-27T22:23:53.000Z</time></trkpt>
        <trkpt lat="29.569894" lon="103.415155"><ele>928.77026</ele><time>2026-07-27T22:23:58.000Z</time></trkpt>
        <trkpt lat="29.569882" lon="103.415099"><ele>926.817</ele><time>2026-07-27T22:24:04.000Z</time></trkpt>
        <trkpt lat="29.569872" lon="103.415046"><ele>926.4315</ele><time>2026-07-27T22:24:08.000Z</time></trkpt>
        <trkpt lat="29.569857" lon="103.414992"><ele>925.46826</ele><time>2026-07-27T22:24:12.000Z</time></trkpt>
        <trkpt lat="29.569838" lon="103.414939"><ele>925.7145</ele><time>2026-07-27T22:24:16.000Z</time></trkpt>
        <trkpt lat="29.569805" lon="103.414885"><ele>925.49976</ele><time>2026-07-27T22:24:21.000Z</time></trkpt>
        <trkpt lat="29.569766" lon="103.41485"><ele>926.6551</ele><time>2026-07-27T22:24:26.000Z</time></trkpt>
        <trkpt lat="29.569724" lon="103.414812"><ele>925.95667</ele><time>2026-07-27T22:24:30.000Z</time></trkpt>
        <trkpt lat="29.569689" lon="103.414775"><ele>926.33954</ele><time>2026-07-27T22:24:35.000Z</time></trkpt>
        <trkpt lat="29.569638" lon="103.414744"><ele>925.8249</ele><time>2026-07-27T22:24:38.000Z</time></trkpt>
        <trkpt lat="29.569584" lon="103.414732"><ele>925.5136</ele><time>2026-07-27T22:24:43.000Z</time></trkpt>
        <trkpt lat="29.569534" lon="103.414746"><ele>925.2766</ele><time>2026-07-27T22:24:47.000Z</time></trkpt>
        <trkpt lat="29.569483" lon="103.414763"><ele>925.8849</ele><time>2026-07-27T22:24:52.000Z</time></trkpt>
        <trkpt lat="29.569423" lon="103.414774"><ele>924.7541</ele><time>2026-07-27T22:24:57.000Z</time></trkpt>
        <trkpt lat="29.569373" lon="103.4148"><ele>924.9033</ele><time>2026-07-27T22:25:02.000Z</time></trkpt>
        <trkpt lat="29.569323" lon="103.414815"><ele>925.59784</ele><time>2026-07-27T22:25:07.000Z</time></trkpt>
        <trkpt lat="29.569277" lon="103.414828"><ele>924.2962</ele><time>2026-07-27T22:25:11.000Z</time></trkpt>
        <trkpt lat="29.569231" lon="103.414813"><ele>926.3265</ele><time>2026-07-27T22:25:15.000Z</time></trkpt>
        <trkpt lat="29.569196" lon="103.41478"><ele>924.70526</ele><time>2026-07-27T22:25:48.000Z</time></trkpt>
        <trkpt lat="29.569176" lon="103.414729"><ele>923.47845</ele><time>2026-07-27T22:25:55.000Z</time></trkpt>
        <trkpt lat="29.569144" lon="103.414675"><ele>923.9185</ele><time>2026-07-27T22:26:00.000Z</time></trkpt>
        <trkpt lat="29.569129" lon="103.414626"><ele>922.3866</ele><time>2026-07-27T22:26:05.000Z</time></trkpt>
        <trkpt lat="29.569116" lon="103.414574"><ele>921.16223</ele><time>2026-07-27T22:26:10.000Z</time></trkpt>
        <trkpt lat="29.569086" lon="103.414531"><ele>920.154</ele><time>2026-07-27T22:26:14.000Z</time></trkpt>
        <trkpt lat="29.569075" lon="103.414481"><ele>920.80646</ele><time>2026-07-27T22:26:19.000Z</time></trkpt>
        <trkpt lat="29.569067" lon="103.414426"><ele>921.7946</ele><time>2026-07-27T22:27:01.000Z</time></trkpt>
        <trkpt lat="29.569095" lon="103.414376"><ele>922.6862</ele><time>2026-07-27T22:27:07.000Z</time></trkpt>
        <trkpt lat="29.569055" lon="103.414404"><ele>924.58295</ele><time>2026-07-27T22:27:15.000Z</time></trkpt>
        <trkpt lat="29.569054" lon="103.414465"><ele>924.7073</ele><time>2026-07-27T22:27:21.000Z</time></trkpt>
        <trkpt lat="29.569055" lon="103.41452"><ele>923.6337</ele><time>2026-07-27T22:27:25.000Z</time></trkpt>
        <trkpt lat="29.569099" lon="103.414535"><ele>922.7969</ele><time>2026-07-27T22:28:16.000Z</time></trkpt>
        <trkpt lat="29.569063" lon="103.414495"><ele>924.7369</ele><time>2026-07-27T22:34:42.000Z</time></trkpt>
        <trkpt lat="29.569057" lon="103.414387"><ele>924.7283</ele><time>2026-07-27T22:34:54.000Z</time></trkpt>
        <trkpt lat="29.569105" lon="103.414373"><ele>924.06323</ele><time>2026-07-27T22:34:58.000Z</time></trkpt>
        <trkpt lat="29.569111" lon="103.414318"><ele>923.6671</ele><time>2026-07-27T22:35:02.000Z</time></trkpt>
        <trkpt lat="29.569121" lon="103.414254"><ele>924.6875</ele><time>2026-07-27T22:35:08.000Z</time></trkpt>
        <trkpt lat="29.569118" lon="103.414195"><ele>924.2293</ele><time>2026-07-27T22:35:13.000Z</time></trkpt>
        <trkpt lat="29.569107" lon="103.414144"><ele>923.1776</ele><time>2026-07-27T22:35:17.000Z</time></trkpt>
        <trkpt lat="29.569094" lon="103.414091"><ele>922.42993</ele><time>2026-07-27T22:35:21.000Z</time></trkpt>
        <trkpt lat="29.569114" lon="103.414032"><ele>921.97363</ele><time>2026-07-27T22:35:26.000Z</time></trkpt>
        <trkpt lat="29.569131" lon="103.413977"><ele>922.18396</ele><time>2026-07-27T22:35:33.000Z</time></trkpt>
        <trkpt lat="29.569141" lon="103.413917"><ele>922.5023</ele><time>2026-07-27T22:35:40.000Z</time></trkpt>
        <trkpt lat="29.569128" lon="103.413862"><ele>923.13745</ele><time>2026-07-27T22:35:45.000Z</time></trkpt>
        <trkpt lat="29.569098" lon="103.413814"><ele>922.70123</ele><time>2026-07-27T22:35:53.000Z</time></trkpt>
        <trkpt lat="29.569075" lon="103.413769"><ele>922.03534</ele><time>2026-07-27T22:35:57.000Z</time></trkpt>
        <trkpt lat="29.569053" lon="103.413713"><ele>921.33203</ele><time>2026-07-27T22:36:02.000Z</time></trkpt>
        <trkpt lat="29.569033" lon="103.413663"><ele>921.3883</ele><time>2026-07-27T22:36:10.000Z</time></trkpt>
        <trkpt lat="29.569008" lon="103.413618"><ele>921.0009</ele><time>2026-07-27T22:36:16.000Z</time></trkpt>
        <trkpt lat="29.568996" lon="103.413568"><ele>919.56525</ele><time>2026-07-27T22:36:23.000Z</time></trkpt>
        <trkpt lat="29.568994" lon="103.413515"><ele>918.59735</ele><time>2026-07-27T22:36:28.000Z</time></trkpt>
        <trkpt lat="29.568991" lon="103.413455"><ele>919.13184</ele><time>2026-07-27T22:36:34.000Z</time></trkpt>
        <trkpt lat="29.569002" lon="103.413401"><ele>918.7454</ele><time>2026-07-27T22:36:39.000Z</time></trkpt>
        <trkpt lat="29.568984" lon="103.413337"><ele>917.6666</ele><time>2026-07-27T22:36:45.000Z</time></trkpt>
        <trkpt lat="29.568965" lon="103.413288"><ele>916.27814</ele><time>2026-07-27T22:36:49.000Z</time></trkpt>
        <trkpt lat="29.568971" lon="103.413231"><ele>916.7256</ele><time>2026-07-27T22:36:54.000Z</time></trkpt>
        <trkpt lat="29.568996" lon="103.413186"><ele>918.04266</ele><time>2026-07-27T22:36:59.000Z</time></trkpt>
        <trkpt lat="29.569035" lon="103.413156"><ele>918.22955</ele><time>2026-07-27T22:37:03.000Z</time></trkpt>
        <trkpt lat="29.569071" lon="103.413122"><ele>917.4398</ele><time>2026-07-27T22:37:07.000Z</time></trkpt>
        <trkpt lat="29.569075" lon="103.413068"><ele>915.3028</ele><time>2026-07-27T22:37:11.000Z</time></trkpt>
        <trkpt lat="29.569095" lon="103.41302"><ele>914.7121</ele><time>2026-07-27T22:37:15.000Z</time></trkpt>
        <trkpt lat="29.569126" lon="103.412968"><ele>914.8293</ele><time>2026-07-27T22:37:20.000Z</time></trkpt>
        <trkpt lat="29.569166" lon="103.412925"><ele>914.03253</ele><time>2026-07-27T22:37:25.000Z</time></trkpt>
        <trkpt lat="29.569208" lon="103.412889"><ele>913.46326</ele><time>2026-07-27T22:37:28.000Z</time></trkpt>
        <trkpt lat="29.56925" lon="103.412861"><ele>914.1782</ele><time>2026-07-27T22:37:31.000Z</time></trkpt>
        <trkpt lat="29.569287" lon="103.41283"><ele>912.9673</ele><time>2026-07-27T22:37:37.000Z</time></trkpt>
        <trkpt lat="29.569323" lon="103.412789"><ele>912.6103</ele><time>2026-07-27T22:37:42.000Z</time></trkpt>
        <trkpt lat="29.56937" lon="103.412747"><ele>912.41003</ele><time>2026-07-27T22:37:47.000Z</time></trkpt>
        <trkpt lat="29.56938" lon="103.412683"><ele>912.6531</ele><time>2026-07-27T22:37:53.000Z</time></trkpt>
        <trkpt lat="29.569366" lon="103.412627"><ele>912.1475</ele><time>2026-07-27T22:37:59.000Z</time></trkpt>
        <trkpt lat="29.569348" lon="103.412572"><ele>911.8183</ele><time>2026-07-27T22:38:04.000Z</time></trkpt>
        <trkpt lat="29.569337" lon="103.412522"><ele>912.23816</ele><time>2026-07-27T22:38:09.000Z</time></trkpt>
        <trkpt lat="29.569354" lon="103.412474"><ele>912.92377</ele><time>2026-07-27T22:38:18.000Z</time></trkpt>
        <trkpt lat="29.569342" lon="103.412414"><ele>909.921</ele><time>2026-07-27T22:38:26.000Z</time></trkpt>
        <trkpt lat="29.56932" lon="103.412364"><ele>908.1039</ele><time>2026-07-27T22:38:33.000Z</time></trkpt>
        <trkpt lat="29.569332" lon="103.412314"><ele>907.2185</ele><time>2026-07-27T22:38:39.000Z</time></trkpt>
        <trkpt lat="29.569351" lon="103.412268"><ele>905.9581</ele><time>2026-07-27T22:38:45.000Z</time></trkpt>
        <trkpt lat="29.56933" lon="103.412218"><ele>901.4234</ele><time>2026-07-27T22:38:54.000Z</time></trkpt>
        <trkpt lat="29.569278" lon="103.412196"><ele>900.48627</ele><time>2026-07-27T22:39:00.000Z</time></trkpt>
        <trkpt lat="29.569227" lon="103.412197"><ele>900.4796</ele><time>2026-07-27T22:39:06.000Z</time></trkpt>
        <trkpt lat="29.569179" lon="103.412176"><ele>900.54517</ele><time>2026-07-27T22:39:10.000Z</time></trkpt>
        <trkpt lat="29.569129" lon="103.412171"><ele>898.1822</ele><time>2026-07-27T22:39:16.000Z</time></trkpt>
        <trkpt lat="29.569083" lon="103.412171"><ele>897.041</ele><time>2026-07-27T22:39:20.000Z</time></trkpt>
        <trkpt lat="29.56904" lon="103.412151"><ele>895.7614</ele><time>2026-07-27T22:39:25.000Z</time></trkpt>
        <trkpt lat="29.569016" lon="103.412103"><ele>895.0138</ele><time>2026-07-27T22:39:31.000Z</time></trkpt>
        <trkpt lat="29.568971" lon="103.412092"><ele>894.7074</ele><time>2026-07-27T22:39:36.000Z</time></trkpt>
        <trkpt lat="29.568943" lon="103.412039"><ele>894.2109</ele><time>2026-07-27T22:39:41.000Z</time></trkpt>
        <trkpt lat="29.568915" lon="103.411991"><ele>892.7248</ele><time>2026-07-27T22:39:45.000Z</time></trkpt>
        <trkpt lat="29.568889" lon="103.411946"><ele>890.7818</ele><time>2026-07-27T22:39:49.000Z</time></trkpt>
        <trkpt lat="29.568857" lon="103.411897"><ele>889.61395</ele><time>2026-07-27T22:39:53.000Z</time></trkpt>
        <trkpt lat="29.568815" lon="103.411861"><ele>889.6533</ele><time>2026-07-27T22:39:57.000Z</time></trkpt>
        <trkpt lat="29.568758" lon="103.411862"><ele>888.09515</ele><time>2026-07-27T22:40:02.000Z</time></trkpt>
        <trkpt lat="29.56872" lon="103.411832"><ele>889.81604</ele><time>2026-07-27T22:40:06.000Z</time></trkpt>
        <trkpt lat="29.568673" lon="103.41182"><ele>889.0642</ele><time>2026-07-27T22:40:13.000Z</time></trkpt>
        <trkpt lat="29.568631" lon="103.411838"><ele>887.0597</ele><time>2026-07-27T22:40:19.000Z</time></trkpt>
        <trkpt lat="29.5686" lon="103.411795"><ele>886.24585</ele><time>2026-07-27T22:40:26.000Z</time></trkpt>
        <trkpt lat="29.568555" lon="103.411751"><ele>886.1268</ele><time>2026-07-27T22:40:33.000Z</time></trkpt>
        <trkpt lat="29.568506" lon="103.411727"><ele>884.88916</ele><time>2026-07-27T22:40:36.000Z</time></trkpt>
        <trkpt lat="29.568463" lon="103.411686"><ele>882.7945</ele><time>2026-07-27T22:40:40.000Z</time></trkpt>
        <trkpt lat="29.568436" lon="103.411645"><ele>882.1281</ele><time>2026-07-27T22:40:44.000Z</time></trkpt>
        <trkpt lat="29.568413" lon="103.411593"><ele>883.55457</ele><time>2026-07-27T22:40:48.000Z</time></trkpt>
        <trkpt lat="29.568365" lon="103.411569"><ele>883.6119</ele><time>2026-07-27T22:40:53.000Z</time></trkpt>
        <trkpt lat="29.568349" lon="103.411516"><ele>882.2959</ele><time>2026-07-27T22:40:59.000Z</time></trkpt>
        <trkpt lat="29.568372" lon="103.411462"><ele>880.30414</ele><time>2026-07-27T22:41:04.000Z</time></trkpt>
        <trkpt lat="29.568395" lon="103.411407"><ele>879.1783</ele><time>2026-07-27T22:41:09.000Z</time></trkpt>
        <trkpt lat="29.568408" lon="103.41135"><ele>877.47473</ele><time>2026-07-27T22:41:14.000Z</time></trkpt>
        <trkpt lat="29.568428" lon="103.411299"><ele>877.1328</ele><time>2026-07-27T22:41:18.000Z</time></trkpt>
        <trkpt lat="29.568461" lon="103.411258"><ele>877.87897</ele><time>2026-07-27T22:41:22.000Z</time></trkpt>
        <trkpt lat="29.568483" lon="103.411197"><ele>878.1408</ele><time>2026-07-27T22:41:27.000Z</time></trkpt>
        <trkpt lat="29.568498" lon="103.411147"><ele>878.3063</ele><time>2026-07-27T22:41:31.000Z</time></trkpt>
        <trkpt lat="29.568497" lon="103.411085"><ele>877.90485</ele><time>2026-07-27T22:41:35.000Z</time></trkpt>
        <trkpt lat="29.568495" lon="103.411029"><ele>877.84784</ele><time>2026-07-27T22:41:39.000Z</time></trkpt>
        <trkpt lat="29.568511" lon="103.410969"><ele>877.253</ele><time>2026-07-27T22:41:43.000Z</time></trkpt>
        <trkpt lat="29.568522" lon="103.410913"><ele>876.4633</ele><time>2026-07-27T22:41:48.000Z</time></trkpt>
        <trkpt lat="29.568532" lon="103.410859"><ele>876.41113</ele><time>2026-07-27T22:41:52.000Z</time></trkpt>
        <trkpt lat="29.568556" lon="103.410803"><ele>874.3843</ele><time>2026-07-27T22:41:57.000Z</time></trkpt>
        <trkpt lat="29.568572" lon="103.410746"><ele>873.54724</ele><time>2026-07-27T22:42:01.000Z</time></trkpt>
        <trkpt lat="29.568598" lon="103.410695"><ele>872.2234</ele><time>2026-07-27T22:42:04.000Z</time></trkpt>
        <trkpt lat="29.568614" lon="103.41063"><ele>871.2274</ele><time>2026-07-27T22:42:08.000Z</time></trkpt>
        <trkpt lat="29.568636" lon="103.410577"><ele>872.12823</ele><time>2026-07-27T22:42:12.000Z</time></trkpt>
        <trkpt lat="29.568639" lon="103.410517"><ele>872.71313</ele><time>2026-07-27T22:42:16.000Z</time></trkpt>
        <trkpt lat="29.568638" lon="103.410463"><ele>871.4888</ele><time>2026-07-27T22:42:21.000Z</time></trkpt>
        <trkpt lat="29.568637" lon="103.410407"><ele>870.6401</ele><time>2026-07-27T22:42:26.000Z</time></trkpt>
        <trkpt lat="29.568631" lon="103.410351"><ele>870.51697</ele><time>2026-07-27T22:42:30.000Z</time></trkpt>
        <trkpt lat="29.568621" lon="103.410296"><ele>870.41986</ele><time>2026-07-27T22:42:35.000Z</time></trkpt>
        <trkpt lat="29.56861" lon="103.410239"><ele>870.64124</ele><time>2026-07-27T22:42:40.000Z</time></trkpt>
        <trkpt lat="29.568617" lon="103.410184"><ele>870.94507</ele><time>2026-07-27T22:42:44.000Z</time></trkpt>
        <trkpt lat="29.568626" lon="103.410126"><ele>871.32434</ele><time>2026-07-27T22:42:49.000Z</time></trkpt>
        <trkpt lat="29.568614" lon="103.410067"><ele>872.1424</ele><time>2026-07-27T22:42:54.000Z</time></trkpt>
        <trkpt lat="29.568573" lon="103.410035"><ele>872.11896</ele><time>2026-07-27T22:42:58.000Z</time></trkpt>
        <trkpt lat="29.568536" lon="103.410002"><ele>871.06</ele><time>2026-07-27T22:43:02.000Z</time></trkpt>
        <trkpt lat="29.568496" lon="103.409963"><ele>869.9188</ele><time>2026-07-27T22:43:07.000Z</time></trkpt>
        <trkpt lat="29.568443" lon="103.409963"><ele>869.572</ele><time>2026-07-27T22:43:13.000Z</time></trkpt>
        <trkpt lat="29.568402" lon="103.40994"><ele>869.4826</ele><time>2026-07-27T22:43:52.000Z</time></trkpt>
        <trkpt lat="29.568371" lon="103.409899"><ele>868.73035</ele><time>2026-07-27T22:43:58.000Z</time></trkpt>
        <trkpt lat="29.568353" lon="103.409851"><ele>866.96826</ele><time>2026-07-27T22:44:02.000Z</time></trkpt>
        <trkpt lat="29.56832" lon="103.409808"><ele>865.9727</ele><time>2026-07-27T22:44:11.000Z</time></trkpt>
        <trkpt lat="29.568288" lon="103.409756"><ele>863.38135</ele><time>2026-07-27T22:44:15.000Z</time></trkpt>
        <trkpt lat="29.568271" lon="103.409704"><ele>862.87946</ele><time>2026-07-27T22:44:20.000Z</time></trkpt>
        <trkpt lat="29.568256" lon="103.409653"><ele>861.39996</ele><time>2026-07-27T22:44:28.000Z</time></trkpt>
        <trkpt lat="29.568246" lon="103.409599"><ele>860.84863</ele><time>2026-07-27T22:44:35.000Z</time></trkpt>
        <trkpt lat="29.568232" lon="103.409541"><ele>858.0384</ele><time>2026-07-27T22:44:43.000Z</time></trkpt>
        <trkpt lat="29.568204" lon="103.409498"><ele>857.35406</ele><time>2026-07-27T22:44:48.000Z</time></trkpt>
        <trkpt lat="29.568179" lon="103.409446"><ele>855.8177</ele><time>2026-07-27T22:44:53.000Z</time></trkpt>
        <trkpt lat="29.568158" lon="103.4094"><ele>853.98535</ele><time>2026-07-27T22:44:59.000Z</time></trkpt>
        <trkpt lat="29.568135" lon="103.409347"><ele>852.6611</ele><time>2026-07-27T22:45:05.000Z</time></trkpt>
        <trkpt lat="29.568108" lon="103.40929"><ele>849.8005</ele><time>2026-07-27T22:45:12.000Z</time></trkpt>
        <trkpt lat="29.568085" lon="103.409237"><ele>849.04535</ele><time>2026-07-27T22:45:16.000Z</time></trkpt>
        <trkpt lat="29.568059" lon="103.409181"><ele>847.98663</ele><time>2026-07-27T22:45:21.000Z</time></trkpt>
        <trkpt lat="29.568049" lon="103.409127"><ele>846.5707</ele><time>2026-07-27T22:45:26.000Z</time></trkpt>
        <trkpt lat="29.568022" lon="103.409077"><ele>845.6629</ele><time>2026-07-27T22:45:31.000Z</time></trkpt>
        <trkpt lat="29.56799" lon="103.409037"><ele>843.5739</ele><time>2026-07-27T22:45:37.000Z</time></trkpt>
        <trkpt lat="29.567958" lon="103.408988"><ele>840.89294</ele><time>2026-07-27T22:45:43.000Z</time></trkpt>
        <trkpt lat="29.567929" lon="103.408943"><ele>838.9159</ele><time>2026-07-27T22:45:48.000Z</time></trkpt>
        <trkpt lat="29.567912" lon="103.408889"><ele>836.37256</ele><time>2026-07-27T22:45:55.000Z</time></trkpt>
        <trkpt lat="29.567906" lon="103.408831"><ele>833.89215</ele><time>2026-07-27T22:46:04.000Z</time></trkpt>
        <trkpt lat="29.567905" lon="103.408778"><ele>832.2274</ele><time>2026-07-27T22:46:09.000Z</time></trkpt>
        <trkpt lat="29.567898" lon="103.408724"><ele>829.9239</ele><time>2026-07-27T22:46:15.000Z</time></trkpt>
        <trkpt lat="29.567866" lon="103.408674"><ele>829.5733</ele><time>2026-07-27T22:46:19.000Z</time></trkpt>
        <trkpt lat="29.567833" lon="103.408631"><ele>828.62384</ele><time>2026-07-27T22:46:23.000Z</time></trkpt>
        <trkpt lat="29.567804" lon="103.408588"><ele>828.0146</ele><time>2026-07-27T22:46:29.000Z</time></trkpt>
        <trkpt lat="29.567779" lon="103.408537"><ele>825.2036</ele><time>2026-07-27T22:46:37.000Z</time></trkpt>
        <trkpt lat="29.567753" lon="103.408495"><ele>825.0091</ele><time>2026-07-27T22:46:43.000Z</time></trkpt>
        <trkpt lat="29.567713" lon="103.408465"><ele>824.5386</ele><time>2026-07-27T22:46:49.000Z</time></trkpt>
        <trkpt lat="29.567671" lon="103.408431"><ele>824.23663</ele><time>2026-07-27T22:46:54.000Z</time></trkpt>
        <trkpt lat="29.56763" lon="103.408391"><ele>823.4086</ele><time>2026-07-27T22:47:05.000Z</time></trkpt>
        <trkpt lat="29.567599" lon="103.408432"><ele>821.2021</ele><time>2026-07-27T22:47:11.000Z</time></trkpt>
        <trkpt lat="29.567603" lon="103.408493"><ele>820.8921</ele><time>2026-07-27T22:47:16.000Z</time></trkpt>
        <trkpt lat="29.567602" lon="103.408545"><ele>820.85864</ele><time>2026-07-27T22:47:21.000Z</time></trkpt>
        <trkpt lat="29.567572" lon="103.408588"><ele>820.19006</ele><time>2026-07-27T22:47:25.000Z</time></trkpt>
        <trkpt lat="29.567538" lon="103.408632"><ele>819.3039</ele><time>2026-07-27T22:47:29.000Z</time></trkpt>
        <trkpt lat="29.56749" lon="103.408643"><ele>819.66705</ele><time>2026-07-27T22:47:33.000Z</time></trkpt>
        <trkpt lat="29.567437" lon="103.408623"><ele>819.1506</ele><time>2026-07-27T22:47:38.000Z</time></trkpt>
        <trkpt lat="29.567396" lon="103.408589"><ele>819.11615</ele><time>2026-07-27T22:47:42.000Z</time></trkpt>
        <trkpt lat="29.567352" lon="103.408567"><ele>817.6978</ele><time>2026-07-27T22:47:46.000Z</time></trkpt>
        <trkpt lat="29.567298" lon="103.408543"><ele>816.92395</ele><time>2026-07-27T22:47:51.000Z</time></trkpt>
        <trkpt lat="29.567251" lon="103.408515"><ele>816.6786</ele><time>2026-07-27T22:47:56.000Z</time></trkpt>
        <trkpt lat="29.56721" lon="103.40848"><ele>816.3372</ele><time>2026-07-27T22:48:00.000Z</time></trkpt>
        <trkpt lat="29.567154" lon="103.408452"><ele>816.2966</ele><time>2026-07-27T22:48:05.000Z</time></trkpt>
        <trkpt lat="29.567103" lon="103.408443"><ele>815.27606</ele><time>2026-07-27T22:48:09.000Z</time></trkpt>
        <trkpt lat="29.567059" lon="103.408432"><ele>815.58405</ele><time>2026-07-27T22:48:13.000Z</time></trkpt>
        <trkpt lat="29.567004" lon="103.408432"><ele>813.95465</ele><time>2026-07-27T22:48:18.000Z</time></trkpt>
        <trkpt lat="29.566949" lon="103.408434"><ele>813.726</ele><time>2026-07-27T22:48:23.000Z</time></trkpt>
        <trkpt lat="29.566901" lon="103.408434"><ele>813.3112</ele><time>2026-07-27T22:48:27.000Z</time></trkpt>
        <trkpt lat="29.566851" lon="103.408444"><ele>812.8046</ele><time>2026-07-27T22:48:31.000Z</time></trkpt>
        <trkpt lat="29.566799" lon="103.408441"><ele>812.73785</ele><time>2026-07-27T22:48:36.000Z</time></trkpt>
        <trkpt lat="29.566751" lon="103.408431"><ele>813.01337</ele><time>2026-07-27T22:48:41.000Z</time></trkpt>
        <trkpt lat="29.566703" lon="103.408399"><ele>812.29016</ele><time>2026-07-27T22:48:45.000Z</time></trkpt>
        <trkpt lat="29.56668" lon="103.408337"><ele>812.46875</ele><time>2026-07-27T22:48:49.000Z</time></trkpt>
        <trkpt lat="29.566682" lon="103.408281"><ele>813.255</ele><time>2026-07-27T22:48:54.000Z</time></trkpt>
        <trkpt lat="29.566693" lon="103.408224"><ele>813.7965</ele><time>2026-07-27T22:48:59.000Z</time></trkpt>
        <trkpt lat="29.566705" lon="103.40816"><ele>810.24365</ele><time>2026-07-27T22:49:05.000Z</time></trkpt>
        <trkpt lat="29.56672" lon="103.408096"><ele>810.20355</ele><time>2026-07-27T22:49:10.000Z</time></trkpt>
        <trkpt lat="29.566712" lon="103.408038"><ele>811.5457</ele><time>2026-07-27T22:49:15.000Z</time></trkpt>
        <trkpt lat="29.566701" lon="103.407988"><ele>812.23816</ele><time>2026-07-27T22:49:20.000Z</time></trkpt>
        <trkpt lat="29.566687" lon="103.407937"><ele>812.5581</ele><time>2026-07-27T22:49:25.000Z</time></trkpt>
        <trkpt lat="29.566656" lon="103.407886"><ele>812.893</ele><time>2026-07-27T22:49:38.000Z</time></trkpt>
        <trkpt lat="29.566644" lon="103.40783"><ele>814.11884</ele><time>2026-07-27T22:49:43.000Z</time></trkpt>
        <trkpt lat="29.566613" lon="103.407781"><ele>814.8769</ele><time>2026-07-27T22:49:48.000Z</time></trkpt>
        <trkpt lat="29.566624" lon="103.407722"><ele>815.30646</ele><time>2026-07-27T22:49:54.000Z</time></trkpt>
        <trkpt lat="29.5666" lon="103.407663"><ele>815.52985</ele><time>2026-07-27T22:50:00.000Z</time></trkpt>
        <trkpt lat="29.56658" lon="103.407614"><ele>816.20874</ele><time>2026-07-27T22:50:05.000Z</time></trkpt>
        <trkpt lat="29.566558" lon="103.407561"><ele>815.4561</ele><time>2026-07-27T22:50:10.000Z</time></trkpt>
        <trkpt lat="29.566539" lon="103.407514"><ele>815.3435</ele><time>2026-07-27T22:50:14.000Z</time></trkpt>
        <trkpt lat="29.566506" lon="103.407478"><ele>814.4622</ele><time>2026-07-27T22:50:18.000Z</time></trkpt>
        <trkpt lat="29.566496" lon="103.407424"><ele>814.6949</ele><time>2026-07-27T22:50:23.000Z</time></trkpt>
        <trkpt lat="29.566481" lon="103.407367"><ele>814.9006</ele><time>2026-07-27T22:50:28.000Z</time></trkpt>
        <trkpt lat="29.566462" lon="103.407318"><ele>814.05493</ele><time>2026-07-27T22:50:32.000Z</time></trkpt>
        <trkpt lat="29.566459" lon="103.407258"><ele>814.393</ele><time>2026-07-27T22:50:38.000Z</time></trkpt>
        <trkpt lat="29.566456" lon="103.407202"><ele>814.0134</ele><time>2026-07-27T22:50:42.000Z</time></trkpt>
        <trkpt lat="29.566458" lon="103.40715"><ele>813.26117</ele><time>2026-07-27T22:50:46.000Z</time></trkpt>
        <trkpt lat="29.566436" lon="103.407093"><ele>812.7262</ele><time>2026-07-27T22:50:51.000Z</time></trkpt>
        <trkpt lat="29.56643" lon="103.407033"><ele>812.6935</ele><time>2026-07-27T22:50:55.000Z</time></trkpt>
        <trkpt lat="29.566438" lon="103.406981"><ele>812.78784</ele><time>2026-07-27T22:50:59.000Z</time></trkpt>
        <trkpt lat="29.566446" lon="103.406926"><ele>812.5333</ele><time>2026-07-27T22:51:04.000Z</time></trkpt>
        <trkpt lat="29.566462" lon="103.406875"><ele>812.1422</ele><time>2026-07-27T22:51:08.000Z</time></trkpt>
        <trkpt lat="29.566487" lon="103.40683"><ele>812.9069</ele><time>2026-07-27T22:51:13.000Z</time></trkpt>
        <trkpt lat="29.566535" lon="103.406805"><ele>813.1882</ele><time>2026-07-27T22:51:17.000Z</time></trkpt>
        <trkpt lat="29.566571" lon="103.40677"><ele>812.49725</ele><time>2026-07-27T22:51:23.000Z</time></trkpt>
        <trkpt lat="29.566578" lon="103.406716"><ele>812.3812</ele><time>2026-07-27T22:51:29.000Z</time></trkpt>
        <trkpt lat="29.566627" lon="103.406687"><ele>813.77386</ele><time>2026-07-27T22:52:00.000Z</time></trkpt>
        <trkpt lat="29.566665" lon="103.406641"><ele>811.8198</ele><time>2026-07-27T22:52:05.000Z</time></trkpt>
        <trkpt lat="29.566703" lon="103.4066"><ele>811.0184</ele><time>2026-07-27T22:52:10.000Z</time></trkpt>
        <trkpt lat="29.566725" lon="103.40655"><ele>810.10315</ele><time>2026-07-27T22:52:15.000Z</time></trkpt>
        <trkpt lat="29.566777" lon="103.406521"><ele>809.0299</ele><time>2026-07-27T22:52:20.000Z</time></trkpt>
        <trkpt lat="29.566814" lon="103.406482"><ele>808.9647</ele><time>2026-07-27T22:52:24.000Z</time></trkpt>
        <trkpt lat="29.566857" lon="103.406436"><ele>808.0518</ele><time>2026-07-27T22:52:29.000Z</time></trkpt>
        <trkpt lat="29.566886" lon="103.406383"><ele>806.9939</ele><time>2026-07-27T22:52:34.000Z</time></trkpt>
        <trkpt lat="29.566916" lon="103.40633"><ele>806.7048</ele><time>2026-07-27T22:52:39.000Z</time></trkpt>
        <trkpt lat="29.56694" lon="103.406285"><ele>806.7003</ele><time>2026-07-27T22:52:43.000Z</time></trkpt>
        <trkpt lat="29.566963" lon="103.40624"><ele>806.5884</ele><time>2026-07-27T22:52:47.000Z</time></trkpt>
        <trkpt lat="29.566991" lon="103.406196"><ele>805.8757</ele><time>2026-07-27T22:52:51.000Z</time></trkpt>
        <trkpt lat="29.567021" lon="103.406152"><ele>805.12244</ele><time>2026-07-27T22:52:55.000Z</time></trkpt>
        <trkpt lat="29.567052" lon="103.406107"><ele>803.6278</ele><time>2026-07-27T22:52:59.000Z</time></trkpt>
        <trkpt lat="29.567077" lon="103.406052"><ele>803.48645</ele><time>2026-07-27T22:53:04.000Z</time></trkpt>
        <trkpt lat="29.567108" lon="103.406007"><ele>803.79694</ele><time>2026-07-27T22:53:08.000Z</time></trkpt>
        <trkpt lat="29.56713" lon="103.405951"><ele>803.87805</ele><time>2026-07-27T22:53:12.000Z</time></trkpt>
        <trkpt lat="29.567147" lon="103.405894"><ele>803.97534</ele><time>2026-07-27T22:53:16.000Z</time></trkpt>
        <trkpt lat="29.567152" lon="103.405836"><ele>802.8674</ele><time>2026-07-27T22:53:20.000Z</time></trkpt>
        <trkpt lat="29.567119" lon="103.405789"><ele>802.7185</ele><time>2026-07-27T22:53:24.000Z</time></trkpt>
        <trkpt lat="29.567089" lon="103.405745"><ele>802.51776</ele><time>2026-07-27T22:53:28.000Z</time></trkpt>
        <trkpt lat="29.567047" lon="103.405704"><ele>802.0455</ele><time>2026-07-27T22:53:33.000Z</time></trkpt>
        <trkpt lat="29.567009" lon="103.40567"><ele>801.5322</ele><time>2026-07-27T22:53:37.000Z</time></trkpt>
        <trkpt lat="29.566971" lon="103.405625"><ele>801.66864</ele><time>2026-07-27T22:53:41.000Z</time></trkpt>
        <trkpt lat="29.566927" lon="103.405584"><ele>800.9266</ele><time>2026-07-27T22:53:46.000Z</time></trkpt>
        <trkpt lat="29.566892" lon="103.405543"><ele>800.7687</ele><time>2026-07-27T22:53:51.000Z</time></trkpt>
        <trkpt lat="29.566857" lon="103.405503"><ele>800.84216</ele><time>2026-07-27T22:53:55.000Z</time></trkpt>
        <trkpt lat="29.566827" lon="103.40546"><ele>800.77686</ele><time>2026-07-27T22:53:59.000Z</time></trkpt>
        <trkpt lat="29.566792" lon="103.405413"><ele>800.79724</ele><time>2026-07-27T22:54:03.000Z</time></trkpt>
        <trkpt lat="29.566774" lon="103.40536"><ele>802.10626</ele><time>2026-07-27T22:54:07.000Z</time></trkpt>
        <trkpt lat="29.566754" lon="103.405305"><ele>802.53906</ele><time>2026-07-27T22:54:13.000Z</time></trkpt>
        <trkpt lat="29.56674" lon="103.405251"><ele>802.0926</ele><time>2026-07-27T22:54:17.000Z</time></trkpt>
        <trkpt lat="29.566727" lon="103.405188"><ele>802.5959</ele><time>2026-07-27T22:54:21.000Z</time></trkpt>
        <trkpt lat="29.566734" lon="103.405135"><ele>802.9916</ele><time>2026-07-27T22:54:26.000Z</time></trkpt>
        <trkpt lat="29.566796" lon="103.405133"><ele>802.98303</ele><time>2026-07-27T22:54:30.000Z</time></trkpt>
        <trkpt lat="29.56684" lon="103.405145"><ele>803.87897</ele><time>2026-07-27T22:54:34.000Z</time></trkpt>
        <trkpt lat="29.566884" lon="103.40517"><ele>804.01154</ele><time>2026-07-27T22:54:39.000Z</time></trkpt>
        <trkpt lat="29.566936" lon="103.40517"><ele>804.4279</ele><time>2026-07-27T22:54:44.000Z</time></trkpt>
        <trkpt lat="29.566991" lon="103.405156"><ele>805.43787</ele><time>2026-07-27T22:54:49.000Z</time></trkpt>
        <trkpt lat="29.567041" lon="103.405149"><ele>804.62616</ele><time>2026-07-27T22:54:53.000Z</time></trkpt>
        <trkpt lat="29.567093" lon="103.405142"><ele>803.18176</ele><time>2026-07-27T22:54:57.000Z</time></trkpt>
        <trkpt lat="29.567145" lon="103.405116"><ele>801.6006</ele><time>2026-07-27T22:55:02.000Z</time></trkpt>
        <trkpt lat="29.567202" lon="103.405111"><ele>802.8139</ele><time>2026-07-27T22:55:07.000Z</time></trkpt>
        <trkpt lat="29.567249" lon="103.405103"><ele>803.2879</ele><time>2026-07-27T22:55:11.000Z</time></trkpt>
        <trkpt lat="29.567302" lon="103.405095"><ele>802.30914</ele><time>2026-07-27T22:55:15.000Z</time></trkpt>
        <trkpt lat="29.567354" lon="103.405088"><ele>802.057</ele><time>2026-07-27T22:55:19.000Z</time></trkpt>
        <trkpt lat="29.567412" lon="103.405074"><ele>804.1069</ele><time>2026-07-27T22:55:25.000Z</time></trkpt>
        <trkpt lat="29.567459" lon="103.405074"><ele>803.5204</ele><time>2026-07-27T22:55:29.000Z</time></trkpt>
        <trkpt lat="29.567507" lon="103.405077"><ele>803.3907</ele><time>2026-07-27T22:55:33.000Z</time></trkpt>
        <trkpt lat="29.567556" lon="103.405097"><ele>802.06</ele><time>2026-07-27T22:55:37.000Z</time></trkpt>
        <trkpt lat="29.567613" lon="103.405102"><ele>801.62006</ele><time>2026-07-27T22:55:42.000Z</time></trkpt>
        <trkpt lat="29.567663" lon="103.405105"><ele>801.8879</ele><time>2026-07-27T22:55:47.000Z</time></trkpt>
        <trkpt lat="29.567716" lon="103.40509"><ele>801.01105</ele><time>2026-07-27T22:55:51.000Z</time></trkpt>
        <trkpt lat="29.567765" lon="103.405088"><ele>802.28296</ele><time>2026-07-27T22:55:54.000Z</time></trkpt>
        <trkpt lat="29.567818" lon="103.405081"><ele>801.6348</ele><time>2026-07-27T22:55:59.000Z</time></trkpt>
        <trkpt lat="29.567868" lon="103.405058"><ele>799.7237</ele><time>2026-07-27T22:56:03.000Z</time></trkpt>
        <trkpt lat="29.567914" lon="103.405034"><ele>798.51227</ele><time>2026-07-27T22:56:07.000Z</time></trkpt>
        <trkpt lat="29.567956" lon="103.405013"><ele>797.78754</ele><time>2026-07-27T22:56:12.000Z</time></trkpt>
        <trkpt lat="29.567991" lon="103.40498"><ele>797.4522</ele><time>2026-07-27T22:56:16.000Z</time></trkpt>
        <trkpt lat="29.568034" lon="103.404955"><ele>797.4091</ele><time>2026-07-27T22:56:20.000Z</time></trkpt>
        <trkpt lat="29.568077" lon="103.404938"><ele>797.3079</ele><time>2026-07-27T22:56:24.000Z</time></trkpt>
        <trkpt lat="29.56812" lon="103.404921"><ele>797.1843</ele><time>2026-07-27T22:56:28.000Z</time></trkpt>
        <trkpt lat="29.568171" lon="103.404894"><ele>796.15094</ele><time>2026-07-27T22:56:33.000Z</time></trkpt>
        <trkpt lat="29.568215" lon="103.404875"><ele>796.02765</ele><time>2026-07-27T22:56:37.000Z</time></trkpt>
        <trkpt lat="29.568255" lon="103.404839"><ele>795.1234</ele><time>2026-07-27T22:56:41.000Z</time></trkpt>
        <trkpt lat="29.568299" lon="103.404801"><ele>794.2476</ele><time>2026-07-27T22:56:45.000Z</time></trkpt>
        <trkpt lat="29.568331" lon="103.404759"><ele>794.4488</ele><time>2026-07-27T22:56:49.000Z</time></trkpt>
        <trkpt lat="29.568363" lon="103.404706"><ele>794.577</ele><time>2026-07-27T22:56:54.000Z</time></trkpt>
        <trkpt lat="29.568393" lon="103.404658"><ele>794.1753</ele><time>2026-07-27T22:56:59.000Z</time></trkpt>
        <trkpt lat="29.568406" lon="103.404603"><ele>793.7135</ele><time>2026-07-27T22:57:03.000Z</time></trkpt>
        <trkpt lat="29.568428" lon="103.404542"><ele>792.8666</ele><time>2026-07-27T22:57:08.000Z</time></trkpt>
        <trkpt lat="29.568455" lon="103.404493"><ele>792.3313</ele><time>2026-07-27T22:57:11.000Z</time></trkpt>
        <trkpt lat="29.56848" lon="103.404443"><ele>792.83026</ele><time>2026-07-27T22:57:15.000Z</time></trkpt>
        <trkpt lat="29.568509" lon="103.404393"><ele>793.01685</ele><time>2026-07-27T22:57:19.000Z</time></trkpt>
        <trkpt lat="29.568526" lon="103.404344"><ele>792.67474</ele><time>2026-07-27T22:57:23.000Z</time></trkpt>
        <trkpt lat="29.568548" lon="103.404295"><ele>792.93384</ele><time>2026-07-27T22:57:27.000Z</time></trkpt>
        <trkpt lat="29.568574" lon="103.404242"><ele>792.31354</ele><time>2026-07-27T22:57:31.000Z</time></trkpt>
        <trkpt lat="29.568611" lon="103.404194"><ele>791.7105</ele><time>2026-07-27T22:57:35.000Z</time></trkpt>
        <trkpt lat="29.568643" lon="103.404153"><ele>790.8044</ele><time>2026-07-27T22:57:39.000Z</time></trkpt>
        <trkpt lat="29.56867" lon="103.40411"><ele>788.99884</ele><time>2026-07-27T22:57:43.000Z</time></trkpt>
        <trkpt lat="29.568706" lon="103.404063"><ele>789.1435</ele><time>2026-07-27T22:57:47.000Z</time></trkpt>
        <trkpt lat="29.568738" lon="103.404013"><ele>789.78796</ele><time>2026-07-27T22:57:51.000Z</time></trkpt>
        <trkpt lat="29.568765" lon="103.403966"><ele>790.15454</ele><time>2026-07-27T22:57:55.000Z</time></trkpt>
        <trkpt lat="29.568808" lon="103.403949"><ele>790.8863</ele><time>2026-07-27T22:57:59.000Z</time></trkpt>
        <trkpt lat="29.568865" lon="103.403934"><ele>790.0834</ele><time>2026-07-27T22:58:04.000Z</time></trkpt>
        <trkpt lat="29.568918" lon="103.403932"><ele>789.0717</ele><time>2026-07-27T22:58:08.000Z</time></trkpt>
        <trkpt lat="29.568976" lon="103.403941"><ele>790.13556</ele><time>2026-07-27T22:58:12.000Z</time></trkpt>
        <trkpt lat="29.569034" lon="103.403959"><ele>791.4789</ele><time>2026-07-27T22:58:16.000Z</time></trkpt>
        <trkpt lat="29.569085" lon="103.403962"><ele>790.2509</ele><time>2026-07-27T22:58:20.000Z</time></trkpt>
        <trkpt lat="29.569147" lon="103.403955"><ele>788.4911</ele><time>2026-07-27T22:58:25.000Z</time></trkpt>
        <trkpt lat="29.569193" lon="103.403933"><ele>788.20905</ele><time>2026-07-27T22:58:30.000Z</time></trkpt>
        <trkpt lat="29.569235" lon="103.403913"><ele>787.305</ele><time>2026-07-27T22:58:34.000Z</time></trkpt>
        <trkpt lat="29.569282" lon="103.403883"><ele>787.2835</ele><time>2026-07-27T22:58:39.000Z</time></trkpt>
        <trkpt lat="29.569322" lon="103.403854"><ele>787.0357</ele><time>2026-07-27T22:58:43.000Z</time></trkpt>
        <trkpt lat="29.569368" lon="103.403825"><ele>786.0348</ele><time>2026-07-27T22:58:48.000Z</time></trkpt>
        <trkpt lat="29.569409" lon="103.403799"><ele>785.5512</ele><time>2026-07-27T22:58:52.000Z</time></trkpt>
        <trkpt lat="29.569453" lon="103.403766"><ele>784.9053</ele><time>2026-07-27T22:58:56.000Z</time></trkpt>
        <trkpt lat="29.569497" lon="103.403734"><ele>783.6863</ele><time>2026-07-27T22:59:01.000Z</time></trkpt>
        <trkpt lat="29.56954" lon="103.403699"><ele>782.9691</ele><time>2026-07-27T22:59:06.000Z</time></trkpt>
        <trkpt lat="29.569581" lon="103.403662"><ele>780.946</ele><time>2026-07-27T22:59:11.000Z</time></trkpt>
        <trkpt lat="29.569624" lon="103.403619"><ele>781.3652</ele><time>2026-07-27T22:59:16.000Z</time></trkpt>
        <trkpt lat="29.56966" lon="103.403581"><ele>781.9055</ele><time>2026-07-27T22:59:20.000Z</time></trkpt>
        <trkpt lat="29.569699" lon="103.403545"><ele>781.68</ele><time>2026-07-27T22:59:24.000Z</time></trkpt>
        <trkpt lat="29.569734" lon="103.403499"><ele>782.42413</ele><time>2026-07-27T22:59:28.000Z</time></trkpt>
        <trkpt lat="29.56977" lon="103.403459"><ele>781.7898</ele><time>2026-07-27T22:59:32.000Z</time></trkpt>
        <trkpt lat="29.569806" lon="103.40341"><ele>782.0524</ele><time>2026-07-27T22:59:37.000Z</time></trkpt>
        <trkpt lat="29.569839" lon="103.403369"><ele>782.6417</ele><time>2026-07-27T22:59:41.000Z</time></trkpt>
        <trkpt lat="29.569868" lon="103.403326"><ele>782.12555</ele><time>2026-07-27T22:59:45.000Z</time></trkpt>
        <trkpt lat="29.5699" lon="103.40328"><ele>782.29865</ele><time>2026-07-27T22:59:50.000Z</time></trkpt>
        <trkpt lat="29.56993" lon="103.403229"><ele>783.2292</ele><time>2026-07-27T22:59:54.000Z</time></trkpt>
        <trkpt lat="29.569954" lon="103.403175"><ele>782.0934</ele><time>2026-07-27T22:59:59.000Z</time></trkpt>
        <trkpt lat="29.569971" lon="103.40312"><ele>781.8756</ele><time>2026-07-27T23:00:03.000Z</time></trkpt>
        <trkpt lat="29.569993" lon="103.403074"><ele>781.6952</ele><time>2026-07-27T23:00:07.000Z</time></trkpt>
        <trkpt lat="29.570008" lon="103.403014"><ele>781.0724</ele><time>2026-07-27T23:00:12.000Z</time></trkpt>
        <trkpt lat="29.570029" lon="103.402962"><ele>780.0138</ele><time>2026-07-27T23:00:16.000Z</time></trkpt>
        <trkpt lat="29.570055" lon="103.402918"><ele>779.7941</ele><time>2026-07-27T23:00:20.000Z</time></trkpt>
        <trkpt lat="29.570089" lon="103.402883"><ele>779.3298</ele><time>2026-07-27T23:00:24.000Z</time></trkpt>
        <trkpt lat="29.570133" lon="103.402839"><ele>778.6375</ele><time>2026-07-27T23:00:28.000Z</time></trkpt>
        <trkpt lat="29.570178" lon="103.402817"><ele>779.06323</ele><time>2026-07-27T23:00:32.000Z</time></trkpt>
        <trkpt lat="29.570218" lon="103.402783"><ele>782.70996</ele><time>2026-07-27T23:00:58.000Z</time></trkpt>
        <trkpt lat="29.570263" lon="103.402782"><ele>783.4855</ele><time>2026-07-27T23:01:22.000Z</time></trkpt>
        <trkpt lat="29.570259" lon="103.40273"><ele>782.96216</ele><time>2026-07-27T23:01:32.000Z</time></trkpt>
        <trkpt lat="29.570235" lon="103.402682"><ele>784.7946</ele><time>2026-07-27T23:01:44.000Z</time></trkpt>
        <trkpt lat="29.570206" lon="103.402643"><ele>786.4424</ele><time>2026-07-27T23:01:52.000Z</time></trkpt>
        <trkpt lat="29.570182" lon="103.402597"><ele>786.9003</ele><time>2026-07-27T23:01:59.000Z</time></trkpt>
        <trkpt lat="29.570145" lon="103.402566"><ele>786.8967</ele><time>2026-07-27T23:02:06.000Z</time></trkpt>
        <trkpt lat="29.570108" lon="103.402533"><ele>789.1939</ele><time>2026-07-27T23:02:11.000Z</time></trkpt>
        <trkpt lat="29.57008" lon="103.402491"><ele>793.19806</ele><time>2026-07-27T23:02:25.000Z</time></trkpt>
        <trkpt lat="29.570066" lon="103.402441"><ele>792.22363</ele><time>2026-07-27T23:02:36.000Z</time></trkpt>
        <trkpt lat="29.570031" lon="103.402404"><ele>793.72864</ele><time>2026-07-27T23:02:50.000Z</time></trkpt>
        <trkpt lat="29.56999" lon="103.402357"><ele>796.01575</ele><time>2026-07-27T23:02:59.000Z</time></trkpt>
        <trkpt lat="29.569951" lon="103.402328"><ele>797.3179</ele><time>2026-07-27T23:03:11.000Z</time></trkpt>
        <trkpt lat="29.569927" lon="103.402284"><ele>800.24023</ele><time>2026-07-27T23:03:33.000Z</time></trkpt>
        <trkpt lat="29.569961" lon="103.402245"><ele>799.30646</ele><time>2026-07-27T23:03:41.000Z</time></trkpt>
        <trkpt lat="29.569935" lon="103.402202"><ele>803.20154</ele><time>2026-07-27T23:03:53.000Z</time></trkpt>
        <trkpt lat="29.569932" lon="103.402151"><ele>803.8347</ele><time>2026-07-27T23:04:13.000Z</time></trkpt>
        <trkpt lat="29.569918" lon="103.402101"><ele>806.1944</ele><time>2026-07-27T23:04:23.000Z</time></trkpt>
        <trkpt lat="29.569903" lon="103.402047"><ele>811.8138</ele><time>2026-07-27T23:04:42.000Z</time></trkpt>
        <trkpt lat="29.569886" lon="103.401999"><ele>813.5177</ele><time>2026-07-27T23:04:52.000Z</time></trkpt>
        <trkpt lat="29.569868" lon="103.40195"><ele>817.29364</ele><time>2026-07-27T23:05:10.000Z</time></trkpt>
        <trkpt lat="29.56987" lon="103.401897"><ele>819.1508</ele><time>2026-07-27T23:05:25.000Z</time></trkpt>
        <trkpt lat="29.569848" lon="103.401846"><ele>821.47723</ele><time>2026-07-27T23:05:40.000Z</time></trkpt>
        <trkpt lat="29.569796" lon="103.401828"><ele>821.16644</ele><time>2026-07-27T23:05:49.000Z</time></trkpt>
        <trkpt lat="29.569748" lon="103.401831"><ele>825.59717</ele><time>2026-07-27T23:06:06.000Z</time></trkpt>
        <trkpt lat="29.569701" lon="103.401855"><ele>827.033</ele><time>2026-07-27T23:06:17.000Z</time></trkpt>
        <trkpt lat="29.569656" lon="103.401847"><ele>828.1031</ele><time>2026-07-27T23:06:27.000Z</time></trkpt>
        <trkpt lat="29.56961" lon="103.401838"><ele>830.98016</ele><time>2026-07-27T23:06:46.000Z</time></trkpt>
        <trkpt lat="29.569559" lon="103.401838"><ele>830.5221</ele><time>2026-07-27T23:06:54.000Z</time></trkpt>
        <trkpt lat="29.569512" lon="103.40185"><ele>829.98236</ele><time>2026-07-27T23:07:00.000Z</time></trkpt>
        <trkpt lat="29.569474" lon="103.401878"><ele>831.0653</ele><time>2026-07-27T23:07:06.000Z</time></trkpt>
        <trkpt lat="29.569428" lon="103.40188"><ele>832.5344</ele><time>2026-07-27T23:07:14.000Z</time></trkpt>
        <trkpt lat="29.56948" lon="103.401867"><ele>827.99194</ele><time>2026-07-27T23:07:47.000Z</time></trkpt>
        <trkpt lat="29.569533" lon="103.401852"><ele>829.66943</ele><time>2026-07-27T23:07:54.000Z</time></trkpt>
        <trkpt lat="29.569581" lon="103.401848"><ele>830.17194</ele><time>2026-07-27T23:08:00.000Z</time></trkpt>
        <trkpt lat="29.569625" lon="103.401814"><ele>832.77454</ele><time>2026-07-27T23:08:10.000Z</time></trkpt>
        <trkpt lat="29.569587" lon="103.401779"><ele>833.4225</ele><time>2026-07-27T23:08:23.000Z</time></trkpt>
        <trkpt lat="29.569541" lon="103.401768"><ele>833.7518</ele><time>2026-07-27T23:08:31.000Z</time></trkpt>
        <trkpt lat="29.569494" lon="103.401769"><ele>833.4621</ele><time>2026-07-27T23:08:36.000Z</time></trkpt>
        <trkpt lat="29.569447" lon="103.401774"><ele>832.6039</ele><time>2026-07-27T23:08:41.000Z</time></trkpt>
        <trkpt lat="29.569398" lon="103.401792"><ele>834.2254</ele><time>2026-07-27T23:08:49.000Z</time></trkpt>
        <trkpt lat="29.569352" lon="103.401805"><ele>834.6352</ele><time>2026-07-27T23:08:55.000Z</time></trkpt>
        <trkpt lat="29.569309" lon="103.401822"><ele>835.4285</ele><time>2026-07-27T23:09:01.000Z</time></trkpt>
        <trkpt lat="29.569261" lon="103.401836"><ele>835.7764</ele><time>2026-07-27T23:09:06.000Z</time></trkpt>
        <trkpt lat="29.569217" lon="103.401852"><ele>836.0742</ele><time>2026-07-27T23:09:13.000Z</time></trkpt>
        <trkpt lat="29.569164" lon="103.401866"><ele>837.4688</ele><time>2026-07-27T23:09:20.000Z</time></trkpt>
        <trkpt lat="29.569134" lon="103.401814"><ele>838.9583</ele><time>2026-07-27T23:09:26.000Z</time></trkpt>
        <trkpt lat="29.569167" lon="103.401769"><ele>838.39044</ele><time>2026-07-27T23:09:59.000Z</time></trkpt>
        <trkpt lat="29.569213" lon="103.401748"><ele>837.5561</ele><time>2026-07-27T23:10:05.000Z</time></trkpt>
        <trkpt lat="29.56926" lon="103.401731"><ele>838.2313</ele><time>2026-07-27T23:10:10.000Z</time></trkpt>
        <trkpt lat="29.569311" lon="103.401719"><ele>838.25415</ele><time>2026-07-27T23:10:14.000Z</time></trkpt>
        <trkpt lat="29.569364" lon="103.401699"><ele>839.01105</ele><time>2026-07-27T23:10:19.000Z</time></trkpt>
        <trkpt lat="29.569413" lon="103.401673"><ele>838.29425</ele><time>2026-07-27T23:10:25.000Z</time></trkpt>
        <trkpt lat="29.569453" lon="103.40164"><ele>838.8087</ele><time>2026-07-27T23:10:30.000Z</time></trkpt>
        <trkpt lat="29.569499" lon="103.40161"><ele>839.68866</ele><time>2026-07-27T23:10:35.000Z</time></trkpt>
        <trkpt lat="29.569546" lon="103.401599"><ele>839.0868</ele><time>2026-07-27T23:10:39.000Z</time></trkpt>
        <trkpt lat="29.569587" lon="103.401576"><ele>838.9232</ele><time>2026-07-27T23:10:43.000Z</time></trkpt>
        <trkpt lat="29.569628" lon="103.401536"><ele>838.4504</ele><time>2026-07-27T23:10:48.000Z</time></trkpt>
        <trkpt lat="29.569653" lon="103.401491"><ele>838.56976</ele><time>2026-07-27T23:10:52.000Z</time></trkpt>
        <trkpt lat="29.569688" lon="103.401446"><ele>838.4527</ele><time>2026-07-27T23:10:56.000Z</time></trkpt>
        <trkpt lat="29.569715" lon="103.4014"><ele>839.4279</ele><time>2026-07-27T23:11:01.000Z</time></trkpt>
        <trkpt lat="29.569755" lon="103.401363"><ele>839.579</ele><time>2026-07-27T23:11:06.000Z</time></trkpt>
        <trkpt lat="29.569793" lon="103.401321"><ele>840.41315</ele><time>2026-07-27T23:11:11.000Z</time></trkpt>
        <trkpt lat="29.569819" lon="103.401269"><ele>841.3799</ele><time>2026-07-27T23:11:18.000Z</time></trkpt>
        <trkpt lat="29.569855" lon="103.401227"><ele>843.03644</ele><time>2026-07-27T23:11:23.000Z</time></trkpt>
        <trkpt lat="29.569896" lon="103.40119"><ele>843.78613</ele><time>2026-07-27T23:11:28.000Z</time></trkpt>
        <trkpt lat="29.569922" lon="103.401141"><ele>843.73236</ele><time>2026-07-27T23:11:33.000Z</time></trkpt>
        <trkpt lat="29.569949" lon="103.401084"><ele>844.02856</ele><time>2026-07-27T23:11:38.000Z</time></trkpt>
        <trkpt lat="29.569989" lon="103.401037"><ele>843.2558</ele><time>2026-07-27T23:11:43.000Z</time></trkpt>
        <trkpt lat="29.570027" lon="103.401005"><ele>842.5267</ele><time>2026-07-27T23:11:48.000Z</time></trkpt>
        <trkpt lat="29.57006" lon="103.400964"><ele>842.85114</ele><time>2026-07-27T23:11:53.000Z</time></trkpt>
        <trkpt lat="29.570102" lon="103.400925"><ele>843.4648</ele><time>2026-07-27T23:11:58.000Z</time></trkpt>
        <trkpt lat="29.570133" lon="103.400884"><ele>843.5024</ele><time>2026-07-27T23:12:02.000Z</time></trkpt>
        <trkpt lat="29.570167" lon="103.400844"><ele>843.19885</ele><time>2026-07-27T23:12:06.000Z</time></trkpt>
        <trkpt lat="29.570188" lon="103.400796"><ele>844.33093</ele><time>2026-07-27T23:12:11.000Z</time></trkpt>
        <trkpt lat="29.570189" lon="103.400735"><ele>844.68207</ele><time>2026-07-27T23:12:17.000Z</time></trkpt>
        <trkpt lat="29.570185" lon="103.400678"><ele>845.0615</ele><time>2026-07-27T23:12:22.000Z</time></trkpt>
        <trkpt lat="29.570201" lon="103.400626"><ele>846.2719</ele><time>2026-07-27T23:12:27.000Z</time></trkpt>
        <trkpt lat="29.570211" lon="103.400576"><ele>846.861</ele><time>2026-07-27T23:12:32.000Z</time></trkpt>
        <trkpt lat="29.570224" lon="103.400518"><ele>847.6027</ele><time>2026-07-27T23:12:37.000Z</time></trkpt>
        <trkpt lat="29.570258" lon="103.400473"><ele>848.3568</ele><time>2026-07-27T23:12:42.000Z</time></trkpt>
        <trkpt lat="29.570277" lon="103.400413"><ele>848.0462</ele><time>2026-07-27T23:12:48.000Z</time></trkpt>
        <trkpt lat="29.570307" lon="103.400368"><ele>848.0327</ele><time>2026-07-27T23:12:53.000Z</time></trkpt>
        <trkpt lat="29.570331" lon="103.400318"><ele>846.76556</ele><time>2026-07-27T23:12:58.000Z</time></trkpt>
        <trkpt lat="29.570353" lon="103.400266"><ele>846.9601</ele><time>2026-07-27T23:13:03.000Z</time></trkpt>
        <trkpt lat="29.570373" lon="103.400215"><ele>847.33575</ele><time>2026-07-27T23:13:08.000Z</time></trkpt>
        <trkpt lat="29.570391" lon="103.400166"><ele>847.7089</ele><time>2026-07-27T23:13:12.000Z</time></trkpt>
        <trkpt lat="29.570419" lon="103.400119"><ele>849.40393</ele><time>2026-07-27T23:13:18.000Z</time></trkpt>
        <trkpt lat="29.570451" lon="103.400076"><ele>851.862</ele><time>2026-07-27T23:13:23.000Z</time></trkpt>
        <trkpt lat="29.570487" lon="103.400043"><ele>852.3438</ele><time>2026-07-27T23:13:27.000Z</time></trkpt>
        <trkpt lat="29.570514" lon="103.399993"><ele>852.98804</ele><time>2026-07-27T23:13:32.000Z</time></trkpt>
        <trkpt lat="29.570538" lon="103.39994"><ele>853.6841</ele><time>2026-07-27T23:13:37.000Z</time></trkpt>
        <trkpt lat="29.57055" lon="103.39989"><ele>853.1643</ele><time>2026-07-27T23:13:43.000Z</time></trkpt>
        <trkpt lat="29.570576" lon="103.399848"><ele>854.1472</ele><time>2026-07-27T23:13:47.000Z</time></trkpt>
        <trkpt lat="29.570597" lon="103.399794"><ele>854.7344</ele><time>2026-07-27T23:13:52.000Z</time></trkpt>
        <trkpt lat="29.570617" lon="103.399746"><ele>855.47095</ele><time>2026-07-27T23:13:58.000Z</time></trkpt>
        <trkpt lat="29.570635" lon="103.399697"><ele>855.7576</ele><time>2026-07-27T23:14:03.000Z</time></trkpt>
        <trkpt lat="29.570663" lon="103.399656"><ele>855.73157</ele><time>2026-07-27T23:14:08.000Z</time></trkpt>
        <trkpt lat="29.570694" lon="103.399619"><ele>854.2574</ele><time>2026-07-27T23:14:12.000Z</time></trkpt>
        <trkpt lat="29.57074" lon="103.399602"><ele>853.80096</ele><time>2026-07-27T23:14:16.000Z</time></trkpt>
        <trkpt lat="29.570799" lon="103.399587"><ele>854.72626</ele><time>2026-07-27T23:14:21.000Z</time></trkpt>
        <trkpt lat="29.57084" lon="103.39955"><ele>854.91425</ele><time>2026-07-27T23:14:26.000Z</time></trkpt>
        <trkpt lat="29.570889" lon="103.399523"><ele>854.8792</ele><time>2026-07-27T23:14:31.000Z</time></trkpt>
        <trkpt lat="29.570922" lon="103.399486"><ele>854.30383</ele><time>2026-07-27T23:14:34.000Z</time></trkpt>
        <trkpt lat="29.570955" lon="103.399437"><ele>853.5079</ele><time>2026-07-27T23:14:39.000Z</time></trkpt>
        <trkpt lat="29.57099" lon="103.399394"><ele>853.7985</ele><time>2026-07-27T23:14:43.000Z</time></trkpt>
        <trkpt lat="29.571025" lon="103.399346"><ele>854.7162</ele><time>2026-07-27T23:14:48.000Z</time></trkpt>
        <trkpt lat="29.571063" lon="103.399375"><ele>855.0073</ele><time>2026-07-27T23:15:00.000Z</time></trkpt>
        <trkpt lat="29.571119" lon="103.399379"><ele>853.31757</ele><time>2026-07-27T23:15:05.000Z</time></trkpt>
        <trkpt lat="29.571168" lon="103.3994"><ele>852.4318</ele><time>2026-07-27T23:15:10.000Z</time></trkpt>
        <trkpt lat="29.571222" lon="103.399413"><ele>852.33026</ele><time>2026-07-27T23:15:15.000Z</time></trkpt>
        <trkpt lat="29.571285" lon="103.399413"><ele>852.9363</ele><time>2026-07-27T23:15:20.000Z</time></trkpt>
        <trkpt lat="29.571332" lon="103.39942"><ele>852.6967</ele><time>2026-07-27T23:15:24.000Z</time></trkpt>
        <trkpt lat="29.571384" lon="103.399423"><ele>852.66296</ele><time>2026-07-27T23:15:29.000Z</time></trkpt>
        <trkpt lat="29.571432" lon="103.399412"><ele>853.1007</ele><time>2026-07-27T23:15:37.000Z</time></trkpt>
        <trkpt lat="29.57148" lon="103.399431"><ele>851.9097</ele><time>2026-07-27T23:15:41.000Z</time></trkpt>
        <trkpt lat="29.571539" lon="103.399446"><ele>851.6381</ele><time>2026-07-27T23:15:46.000Z</time></trkpt>
        <trkpt lat="29.571584" lon="103.39943"><ele>850.51</ele><time>2026-07-27T23:15:50.000Z</time></trkpt>
        <trkpt lat="29.571629" lon="103.399441"><ele>850.171</ele><time>2026-07-27T23:15:53.000Z</time></trkpt>
        <trkpt lat="29.571676" lon="103.39944"><ele>849.71533</ele><time>2026-07-27T23:15:57.000Z</time></trkpt>
        <trkpt lat="29.57168" lon="103.399378"><ele>849.9973</ele><time>2026-07-27T23:16:06.000Z</time></trkpt>
        <trkpt lat="29.571683" lon="103.399322"><ele>849.01465</ele><time>2026-07-27T23:16:10.000Z</time></trkpt>
        <trkpt lat="29.571688" lon="103.399259"><ele>848.9485</ele><time>2026-07-27T23:16:14.000Z</time></trkpt>
        <trkpt lat="29.571709" lon="103.399212"><ele>848.94995</ele><time>2026-07-27T23:16:18.000Z</time></trkpt>
        <trkpt lat="29.571725" lon="103.399152"><ele>849.1071</ele><time>2026-07-27T23:16:23.000Z</time></trkpt>
        <trkpt lat="29.571721" lon="103.399099"><ele>849.267</ele><time>2026-07-27T23:16:29.000Z</time></trkpt>
        <trkpt lat="29.571724" lon="103.399047"><ele>849.7677</ele><time>2026-07-27T23:16:35.000Z</time></trkpt>
        <trkpt lat="29.571703" lon="103.398996"><ele>848.8388</ele><time>2026-07-27T23:16:41.000Z</time></trkpt>
        <trkpt lat="29.571666" lon="103.398964"><ele>847.8329</ele><time>2026-07-27T23:16:54.000Z</time></trkpt>
        <trkpt lat="29.571696" lon="103.398921"><ele>845.7649</ele><time>2026-07-27T23:17:04.000Z</time></trkpt>
        <trkpt lat="29.571692" lon="103.398866"><ele>844.6192</ele><time>2026-07-27T23:17:11.000Z</time></trkpt>
        <trkpt lat="29.571709" lon="103.398915"><ele>851.8106</ele><time>2026-07-27T23:20:12.000Z</time></trkpt>
        <trkpt lat="29.571711" lon="103.398859"><ele>847.22095</ele><time>2026-07-27T23:21:55.000Z</time></trkpt>
        <trkpt lat="29.571705" lon="103.398911"><ele>848.4341</ele><time>2026-07-27T23:23:43.000Z</time></trkpt>
        <trkpt lat="29.57175" lon="103.398904"><ele>849.59045</ele><time>2026-07-27T23:36:35.000Z</time></trkpt>
        <trkpt lat="29.571706" lon="103.39892"><ele>854.86487</ele><time>2026-07-27T23:38:31.000Z</time></trkpt>
        <trkpt lat="29.57173" lon="103.398877"><ele>853.9924</ele><time>2026-07-27T23:40:08.000Z</time></trkpt>
        <trkpt lat="29.571699" lon="103.398839"><ele>855.83795</ele><time>2026-07-27T23:40:43.000Z</time></trkpt>
        <trkpt lat="29.571688" lon="103.39878"><ele>852.948</ele><time>2026-07-27T23:40:56.000Z</time></trkpt>
        <trkpt lat="29.571671" lon="103.398724"><ele>852.3706</ele><time>2026-07-27T23:41:01.000Z</time></trkpt>
        <trkpt lat="29.571659" lon="103.39866"><ele>850.0243</ele><time>2026-07-27T23:41:07.000Z</time></trkpt>
        <trkpt lat="29.571667" lon="103.398604"><ele>848.9788</ele><time>2026-07-27T23:41:12.000Z</time></trkpt>
        <trkpt lat="29.57166" lon="103.398552"><ele>847.7288</ele><time>2026-07-27T23:41:16.000Z</time></trkpt>
        <trkpt lat="29.571644" lon="103.398495"><ele>846.79877</ele><time>2026-07-27T23:41:22.000Z</time></trkpt>
        <trkpt lat="29.571647" lon="103.398443"><ele>847.10236</ele><time>2026-07-27T23:41:27.000Z</time></trkpt>
        <trkpt lat="29.571656" lon="103.398387"><ele>846.4218</ele><time>2026-07-27T23:41:33.000Z</time></trkpt>
        <trkpt lat="29.571662" lon="103.398335"><ele>844.9178</ele><time>2026-07-27T23:41:37.000Z</time></trkpt>
        <trkpt lat="29.571661" lon="103.398279"><ele>842.02344</ele><time>2026-07-27T23:41:43.000Z</time></trkpt>
        <trkpt lat="29.571673" lon="103.398225"><ele>841.6939</ele><time>2026-07-27T23:41:48.000Z</time></trkpt>
        <trkpt lat="29.571682" lon="103.398174"><ele>841.34283</ele><time>2026-07-27T23:41:52.000Z</time></trkpt>
        <trkpt lat="29.571683" lon="103.398117"><ele>841.16736</ele><time>2026-07-27T23:41:58.000Z</time></trkpt>
        <trkpt lat="29.571676" lon="103.39806"><ele>839.1643</ele><time>2026-07-27T23:42:04.000Z</time></trkpt>
        <trkpt lat="29.571645" lon="103.398013"><ele>836.6319</ele><time>2026-07-27T23:42:09.000Z</time></trkpt>
        <trkpt lat="29.571635" lon="103.397961"><ele>835.20276</ele><time>2026-07-27T23:42:15.000Z</time></trkpt>
        <trkpt lat="29.571618" lon="103.397901"><ele>832.54034</ele><time>2026-07-27T23:42:21.000Z</time></trkpt>
        <trkpt lat="29.571608" lon="103.397847"><ele>830.1615</ele><time>2026-07-27T23:42:27.000Z</time></trkpt>
        <trkpt lat="29.571581" lon="103.397798"><ele>827.3364</ele><time>2026-07-27T23:42:34.000Z</time></trkpt>
        <trkpt lat="29.571573" lon="103.397747"><ele>826.5964</ele><time>2026-07-27T23:42:41.000Z</time></trkpt>
        <trkpt lat="29.571559" lon="103.397695"><ele>824.245</ele><time>2026-07-27T23:42:46.000Z</time></trkpt>
        <trkpt lat="29.571532" lon="103.397649"><ele>823.8114</ele><time>2026-07-27T23:42:51.000Z</time></trkpt>
        <trkpt lat="29.571517" lon="103.397593"><ele>822.7828</ele><time>2026-07-27T23:42:57.000Z</time></trkpt>
        <trkpt lat="29.57151" lon="103.397534"><ele>819.7892</ele><time>2026-07-27T23:43:06.000Z</time></trkpt>
        <trkpt lat="29.571518" lon="103.397482"><ele>818.0769</ele><time>2026-07-27T23:43:13.000Z</time></trkpt>
        <trkpt lat="29.571524" lon="103.397429"><ele>816.8571</ele><time>2026-07-27T23:43:18.000Z</time></trkpt>
        <trkpt lat="29.571546" lon="103.397383"><ele>816.8138</ele><time>2026-07-27T23:43:23.000Z</time></trkpt>
        <trkpt lat="29.571559" lon="103.397323"><ele>814.8909</ele><time>2026-07-27T23:43:30.000Z</time></trkpt>
        <trkpt lat="29.571583" lon="103.397279"><ele>813.0949</ele><time>2026-07-27T23:43:35.000Z</time></trkpt>
        <trkpt lat="29.571611" lon="103.39723"><ele>810.812</ele><time>2026-07-27T23:43:42.000Z</time></trkpt>
        <trkpt lat="29.571624" lon="103.397173"><ele>809.1285</ele><time>2026-07-27T23:43:49.000Z</time></trkpt>
        <trkpt lat="29.571662" lon="103.397128"><ele>808.4252</ele><time>2026-07-27T23:43:57.000Z</time></trkpt>
        <trkpt lat="29.571687" lon="103.39708"><ele>806.17065</ele><time>2026-07-27T23:44:03.000Z</time></trkpt>
        <trkpt lat="29.571718" lon="103.397041"><ele>804.50287</ele><time>2026-07-27T23:44:09.000Z</time></trkpt>
        <trkpt lat="29.571752" lon="103.396993"><ele>802.9636</ele><time>2026-07-27T23:44:15.000Z</time></trkpt>
        <trkpt lat="29.571785" lon="103.396939"><ele>802.2208</ele><time>2026-07-27T23:44:21.000Z</time></trkpt>
        <trkpt lat="29.571817" lon="103.396897"><ele>801.32477</ele><time>2026-07-27T23:44:27.000Z</time></trkpt>
        <trkpt lat="29.571855" lon="103.396866"><ele>798.80695</ele><time>2026-07-27T23:44:33.000Z</time></trkpt>
        <trkpt lat="29.571903" lon="103.396844"><ele>799.3988</ele><time>2026-07-27T23:44:42.000Z</time></trkpt>
        <trkpt lat="29.57195" lon="103.396833"><ele>796.95264</ele><time>2026-07-27T23:44:50.000Z</time></trkpt>
        <trkpt lat="29.571995" lon="103.396816"><ele>795.0334</ele><time>2026-07-27T23:44:56.000Z</time></trkpt>
        <trkpt lat="29.572041" lon="103.396798"><ele>792.80206</ele><time>2026-07-27T23:45:05.000Z</time></trkpt>
        <trkpt lat="29.57208" lon="103.396765"><ele>790.52203</ele><time>2026-07-27T23:45:16.000Z</time></trkpt>
        <trkpt lat="29.572122" lon="103.396744"><ele>789.8501</ele><time>2026-07-27T23:45:26.000Z</time></trkpt>
        <trkpt lat="29.57217" lon="103.396752"><ele>789.5139</ele><time>2026-07-27T23:45:33.000Z</time></trkpt>
        <trkpt lat="29.572215" lon="103.396736"><ele>787.7467</ele><time>2026-07-27T23:45:43.000Z</time></trkpt>
        <trkpt lat="29.572264" lon="103.396722"><ele>786.628</ele><time>2026-07-27T23:45:53.000Z</time></trkpt>
        <trkpt lat="29.57231" lon="103.396707"><ele>783.6729</ele><time>2026-07-27T23:46:01.000Z</time></trkpt>
        <trkpt lat="29.57236" lon="103.3967"><ele>782.44006</ele><time>2026-07-27T23:46:11.000Z</time></trkpt>
        <trkpt lat="29.572387" lon="103.396655"><ele>783.9073</ele><time>2026-07-27T23:46:23.000Z</time></trkpt>
        <trkpt lat="29.572404" lon="103.396603"><ele>783.8272</ele><time>2026-07-27T23:46:29.000Z</time></trkpt>
        <trkpt lat="29.572397" lon="103.396551"><ele>782.1834</ele><time>2026-07-27T23:46:40.000Z</time></trkpt>
        <trkpt lat="29.572371" lon="103.396489"><ele>778.95764</ele><time>2026-07-27T23:46:46.000Z</time></trkpt>
        <trkpt lat="29.572376" lon="103.396431"><ele>778.0928</ele><time>2026-07-27T23:46:51.000Z</time></trkpt>
        <trkpt lat="29.572395" lon="103.396378"><ele>777.7073</ele><time>2026-07-27T23:46:56.000Z</time></trkpt>
        <trkpt lat="29.572432" lon="103.39634"><ele>775.60175</ele><time>2026-07-27T23:47:03.000Z</time></trkpt>
        <trkpt lat="29.572442" lon="103.396282"><ele>774.2788</ele><time>2026-07-27T23:47:07.000Z</time></trkpt>
        <trkpt lat="29.572442" lon="103.396227"><ele>773.291</ele><time>2026-07-27T23:47:12.000Z</time></trkpt>
        <trkpt lat="29.572461" lon="103.396177"><ele>773.6016</ele><time>2026-07-27T23:47:18.000Z</time></trkpt>
        <trkpt lat="29.572485" lon="103.396129"><ele>774.4098</ele><time>2026-07-27T23:47:24.000Z</time></trkpt>
        <trkpt lat="29.572506" lon="103.396082"><ele>772.63025</ele><time>2026-07-27T23:47:29.000Z</time></trkpt>
        <trkpt lat="29.57255" lon="103.396066"><ele>772.21277</ele><time>2026-07-27T23:47:36.000Z</time></trkpt>
        <trkpt lat="29.572588" lon="103.396029"><ele>771.676</ele><time>2026-07-27T23:47:42.000Z</time></trkpt>
        <trkpt lat="29.57262" lon="103.395984"><ele>771.7708</ele><time>2026-07-27T23:47:47.000Z</time></trkpt>
        <trkpt lat="29.572654" lon="103.39595"><ele>768.36383</ele><time>2026-07-27T23:47:52.000Z</time></trkpt>
        <trkpt lat="29.572689" lon="103.395914"><ele>768.1718</ele><time>2026-07-27T23:47:58.000Z</time></trkpt>
        <trkpt lat="29.572736" lon="103.395889"><ele>766.5352</ele><time>2026-07-27T23:48:04.000Z</time></trkpt>
        <trkpt lat="29.572777" lon="103.395863"><ele>764.0026</ele><time>2026-07-27T23:48:11.000Z</time></trkpt>
        <trkpt lat="29.572814" lon="103.395815"><ele>763.2095</ele><time>2026-07-27T23:48:15.000Z</time></trkpt>
        <trkpt lat="29.572856" lon="103.395777"><ele>761.1725</ele><time>2026-07-27T23:48:19.000Z</time></trkpt>
        <trkpt lat="29.572881" lon="103.395732"><ele>760.56445</ele><time>2026-07-27T23:48:24.000Z</time></trkpt>
        <trkpt lat="29.572881" lon="103.395679"><ele>760.48706</ele><time>2026-07-27T23:48:29.000Z</time></trkpt>
        <trkpt lat="29.572903" lon="103.395625"><ele>759.1554</ele><time>2026-07-27T23:48:34.000Z</time></trkpt>
        <trkpt lat="29.572923" lon="103.395577"><ele>758.60596</ele><time>2026-07-27T23:48:38.000Z</time></trkpt>
        <trkpt lat="29.572947" lon="103.395525"><ele>758.6942</ele><time>2026-07-27T23:48:43.000Z</time></trkpt>
        <trkpt lat="29.572976" lon="103.395471"><ele>757.52637</ele><time>2026-07-27T23:48:48.000Z</time></trkpt>
        <trkpt lat="29.572995" lon="103.395422"><ele>757.0718</ele><time>2026-07-27T23:48:53.000Z</time></trkpt>
        <trkpt lat="29.573033" lon="103.395361"><ele>756.3121</ele><time>2026-07-27T23:48:57.000Z</time></trkpt>
        <trkpt lat="29.573064" lon="103.395316"><ele>756.6678</ele><time>2026-07-27T23:49:02.000Z</time></trkpt>
        <trkpt lat="29.573055" lon="103.395256"><ele>755.4576</ele><time>2026-07-27T23:49:08.000Z</time></trkpt>
        <trkpt lat="29.573044" lon="103.395202"><ele>753.1226</ele><time>2026-07-27T23:49:14.000Z</time></trkpt>
        <trkpt lat="29.573033" lon="103.395148"><ele>750.59894</ele><time>2026-07-27T23:49:18.000Z</time></trkpt>
        <trkpt lat="29.573025" lon="103.39509"><ele>750.0586</ele><time>2026-07-27T23:49:23.000Z</time></trkpt>
        <trkpt lat="29.573016" lon="103.395039"><ele>749.11273</ele><time>2026-07-27T23:49:27.000Z</time></trkpt>
        <trkpt lat="29.573012" lon="103.394982"><ele>749.3827</ele><time>2026-07-27T23:49:33.000Z</time></trkpt>
        <trkpt lat="29.57301" lon="103.39493"><ele>748.33374</ele><time>2026-07-27T23:49:37.000Z</time></trkpt>
        <trkpt lat="29.573004" lon="103.394869"><ele>747.4546</ele><time>2026-07-27T23:49:43.000Z</time></trkpt>
        <trkpt lat="29.57299" lon="103.394812"><ele>747.2303</ele><time>2026-07-27T23:49:48.000Z</time></trkpt>
        <trkpt lat="29.572949" lon="103.394759"><ele>746.6733</ele><time>2026-07-27T23:49:53.000Z</time></trkpt>
        <trkpt lat="29.572917" lon="103.394719"><ele>744.72943</ele><time>2026-07-27T23:49:59.000Z</time></trkpt>
        <trkpt lat="29.572887" lon="103.394673"><ele>743.8509</ele><time>2026-07-27T23:50:04.000Z</time></trkpt>
        <trkpt lat="29.572847" lon="103.394648"><ele>741.50275</ele><time>2026-07-27T23:50:12.000Z</time></trkpt>
        <trkpt lat="29.572824" lon="103.394602"><ele>741.7347</ele><time>2026-07-27T23:50:20.000Z</time></trkpt>
        <trkpt lat="29.572832" lon="103.394551"><ele>738.32855</ele><time>2026-07-27T23:50:30.000Z</time></trkpt>
        <trkpt lat="29.572848" lon="103.394499"><ele>735.96564</ele><time>2026-07-27T23:50:36.000Z</time></trkpt>
        <trkpt lat="29.572868" lon="103.394448"><ele>733.0911</ele><time>2026-07-27T23:50:42.000Z</time></trkpt>
        <trkpt lat="29.572882" lon="103.394395"><ele>733.83215</ele><time>2026-07-27T23:50:49.000Z</time></trkpt>
        <trkpt lat="29.572891" lon="103.394336"><ele>731.5877</ele><time>2026-07-27T23:50:56.000Z</time></trkpt>
        <trkpt lat="29.572914" lon="103.39429"><ele>728.80927</ele><time>2026-07-27T23:51:02.000Z</time></trkpt>
        <trkpt lat="29.572937" lon="103.394239"><ele>728.0256</ele><time>2026-07-27T23:51:13.000Z</time></trkpt>
        <trkpt lat="29.572955" lon="103.394177"><ele>727.8791</ele><time>2026-07-27T23:51:18.000Z</time></trkpt>
        <trkpt lat="29.572975" lon="103.394124"><ele>727.25323</ele><time>2026-07-27T23:51:23.000Z</time></trkpt>
        <trkpt lat="29.573007" lon="103.394079"><ele>727.7797</ele><time>2026-07-27T23:51:27.000Z</time></trkpt>
        <trkpt lat="29.573029" lon="103.39401"><ele>728.0378</ele><time>2026-07-27T23:51:35.000Z</time></trkpt>
        <trkpt lat="29.573044" lon="103.39396"><ele>727.0332</ele><time>2026-07-27T23:51:39.000Z</time></trkpt>
        <trkpt lat="29.573057" lon="103.393906"><ele>726.46747</ele><time>2026-07-27T23:51:44.000Z</time></trkpt>
        <trkpt lat="29.573069" lon="103.393856"><ele>726.34515</ele><time>2026-07-27T23:51:49.000Z</time></trkpt>
        <trkpt lat="29.573086" lon="103.393807"><ele>725.52985</ele><time>2026-07-27T23:51:54.000Z</time></trkpt>
        <trkpt lat="29.573123" lon="103.393769"><ele>726.87</ele><time>2026-07-27T23:51:58.000Z</time></trkpt>
        <trkpt lat="29.573166" lon="103.393745"><ele>730.6419</ele><time>2026-07-27T23:52:06.000Z</time></trkpt>
        <trkpt lat="29.573211" lon="103.393745"><ele>730.66425</ele><time>2026-07-27T23:52:11.000Z</time></trkpt>
        <trkpt lat="29.573261" lon="103.393766"><ele>729.238</ele><time>2026-07-27T23:52:17.000Z</time></trkpt>
        <trkpt lat="29.573311" lon="103.393776"><ele>724.227</ele><time>2026-07-27T23:52:26.000Z</time></trkpt>
        <trkpt lat="29.573351" lon="103.393734"><ele>722.90784</ele><time>2026-07-27T23:52:32.000Z</time></trkpt>
        <trkpt lat="29.573389" lon="103.393693"><ele>724.04034</ele><time>2026-07-27T23:52:35.000Z</time></trkpt>
        <trkpt lat="29.573426" lon="103.393654"><ele>725.12787</ele><time>2026-07-27T23:52:39.000Z</time></trkpt>
        <trkpt lat="29.573456" lon="103.393606"><ele>727.42395</ele><time>2026-07-27T23:52:43.000Z</time></trkpt>
        <trkpt lat="29.573509" lon="103.393584"><ele>727.77844</ele><time>2026-07-27T23:52:47.000Z</time></trkpt>
        <trkpt lat="29.573563" lon="103.393585"><ele>727.466</ele><time>2026-07-27T23:52:51.000Z</time></trkpt>
        <trkpt lat="29.573607" lon="103.393577"><ele>726.1732</ele><time>2026-07-27T23:52:55.000Z</time></trkpt>
        <trkpt lat="29.573661" lon="103.393568"><ele>725.4681</ele><time>2026-07-27T23:53:00.000Z</time></trkpt>
        <trkpt lat="29.573696" lon="103.393516"><ele>724.03326</ele><time>2026-07-27T23:53:06.000Z</time></trkpt>
        <trkpt lat="29.573733" lon="103.393475"><ele>725.86145</ele><time>2026-07-27T23:53:11.000Z</time></trkpt>
        <trkpt lat="29.573775" lon="103.393456"><ele>726.8004</ele><time>2026-07-27T23:53:16.000Z</time></trkpt>
        <trkpt lat="29.573829" lon="103.393447"><ele>725.64624</ele><time>2026-07-27T23:53:20.000Z</time></trkpt>
        <trkpt lat="29.573873" lon="103.393426"><ele>724.51764</ele><time>2026-07-27T23:53:24.000Z</time></trkpt>
        <trkpt lat="29.57393" lon="103.393419"><ele>724.4388</ele><time>2026-07-27T23:53:30.000Z</time></trkpt>
        <trkpt lat="29.573972" lon="103.393397"><ele>724.82324</ele><time>2026-07-27T23:53:34.000Z</time></trkpt>
        <trkpt lat="29.573999" lon="103.393347"><ele>725.32745</ele><time>2026-07-27T23:53:38.000Z</time></trkpt>
        <trkpt lat="29.574024" lon="103.393304"><ele>726.0106</ele><time>2026-07-27T23:53:43.000Z</time></trkpt>
        <trkpt lat="29.574044" lon="103.393254"><ele>725.18677</ele><time>2026-07-27T23:53:49.000Z</time></trkpt>
        <trkpt lat="29.574065" lon="103.393206"><ele>722.5862</ele><time>2026-07-27T23:53:54.000Z</time></trkpt>
        <trkpt lat="29.574072" lon="103.39315"><ele>722.32996</ele><time>2026-07-27T23:54:00.000Z</time></trkpt>
        <trkpt lat="29.574073" lon="103.393092"><ele>719.73785</ele><time>2026-07-27T23:54:05.000Z</time></trkpt>
        <trkpt lat="29.574087" lon="103.393043"><ele>718.0207</ele><time>2026-07-27T23:54:11.000Z</time></trkpt>
        <trkpt lat="29.574097" lon="103.392991"><ele>716.2933</ele><time>2026-07-27T23:54:17.000Z</time></trkpt>
        <trkpt lat="29.574117" lon="103.39293"><ele>713.3358</ele><time>2026-07-27T23:54:23.000Z</time></trkpt>
        <trkpt lat="29.574117" lon="103.392869"><ele>712.4277</ele><time>2026-07-27T23:54:30.000Z</time></trkpt>
        <trkpt lat="29.57415" lon="103.392828"><ele>712.4301</ele><time>2026-07-27T23:54:36.000Z</time></trkpt>
        <trkpt lat="29.574161" lon="103.392771"><ele>710.65094</ele><time>2026-07-27T23:54:50.000Z</time></trkpt>
        <trkpt lat="29.574153" lon="103.392717"><ele>707.9212</ele><time>2026-07-27T23:54:56.000Z</time></trkpt>
        <trkpt lat="29.574153" lon="103.392664"><ele>704.87195</ele><time>2026-07-27T23:55:02.000Z</time></trkpt>
        <trkpt lat="29.574145" lon="103.392612"><ele>703.94415</ele><time>2026-07-27T23:55:06.000Z</time></trkpt>
        <trkpt lat="29.574132" lon="103.392553"><ele>703.2074</ele><time>2026-07-27T23:55:11.000Z</time></trkpt>
        <trkpt lat="29.574143" lon="103.39249"><ele>702.42694</ele><time>2026-07-27T23:55:17.000Z</time></trkpt>
        <trkpt lat="29.574142" lon="103.392437"><ele>701.01306</ele><time>2026-07-27T23:55:22.000Z</time></trkpt>
        <trkpt lat="29.574185" lon="103.392474"><ele>701.0355</ele><time>2026-07-27T23:55:43.000Z</time></trkpt>
        <trkpt lat="29.574229" lon="103.392465"><ele>700.6037</ele><time>2026-07-27T23:55:48.000Z</time></trkpt>
        <trkpt lat="29.574268" lon="103.392426"><ele>699.63837</ele><time>2026-07-27T23:55:53.000Z</time></trkpt>
        <trkpt lat="29.574253" lon="103.392377"><ele>697.3922</ele><time>2026-07-27T23:56:01.000Z</time></trkpt>
        <trkpt lat="29.574269" lon="103.392328"><ele>697.8701</ele><time>2026-07-27T23:56:21.000Z</time></trkpt>
        <trkpt lat="29.574294" lon="103.39228"><ele>698.8599</ele><time>2026-07-27T23:56:27.000Z</time></trkpt>
        <trkpt lat="29.574256" lon="103.392248"><ele>699.6986</ele><time>2026-07-27T23:56:31.000Z</time></trkpt>
        <trkpt lat="29.574246" lon="103.392197"><ele>699.5713</ele><time>2026-07-27T23:56:39.000Z</time></trkpt>
        <trkpt lat="29.574204" lon="103.392174"><ele>697.58905</ele><time>2026-07-27T23:56:47.000Z</time></trkpt>
        <trkpt lat="29.574187" lon="103.392122"><ele>700.524</ele><time>2026-07-27T23:56:56.000Z</time></trkpt>
        <trkpt lat="29.574138" lon="103.392099"><ele>700.69904</ele><time>2026-07-27T23:57:06.000Z</time></trkpt>
        <trkpt lat="29.574113" lon="103.392048"><ele>699.15594</ele><time>2026-07-27T23:57:12.000Z</time></trkpt>
        <trkpt lat="29.574066" lon="103.392045"><ele>699.87244</ele><time>2026-07-27T23:57:17.000Z</time></trkpt>
        <trkpt lat="29.574022" lon="103.392069"><ele>698.7006</ele><time>2026-07-28T00:01:51.000Z</time></trkpt>
        <trkpt lat="29.57397" lon="103.392076"><ele>700.0023</ele><time>2026-07-28T00:01:57.000Z</time></trkpt>
        <trkpt lat="29.573924" lon="103.392083"><ele>701.01825</ele><time>2026-07-28T00:02:06.000Z</time></trkpt>
        <trkpt lat="29.573882" lon="103.392114"><ele>701.878</ele><time>2026-07-28T00:02:11.000Z</time></trkpt>
        <trkpt lat="29.573835" lon="103.392105"><ele>704.3806</ele><time>2026-07-28T00:02:17.000Z</time></trkpt>
        <trkpt lat="29.573801" lon="103.392059"><ele>705.3679</ele><time>2026-07-28T00:02:22.000Z</time></trkpt>
        <trkpt lat="29.573764" lon="103.392028"><ele>705.56006</ele><time>2026-07-28T00:02:27.000Z</time></trkpt>
        <trkpt lat="29.573719" lon="103.392007"><ele>704.80774</ele><time>2026-07-28T00:02:32.000Z</time></trkpt>
        <trkpt lat="29.57367" lon="103.391995"><ele>702.9278</ele><time>2026-07-28T00:02:37.000Z</time></trkpt>
        <trkpt lat="29.573637" lon="103.391949"><ele>702.9427</ele><time>2026-07-28T00:02:43.000Z</time></trkpt>
        <trkpt lat="29.573628" lon="103.391898"><ele>704.76306</ele><time>2026-07-28T00:02:48.000Z</time></trkpt>
        <trkpt lat="29.573588" lon="103.391857"><ele>706.5859</ele><time>2026-07-28T00:02:53.000Z</time></trkpt>
        <trkpt lat="29.573552" lon="103.39182"><ele>707.9836</ele><time>2026-07-28T00:02:58.000Z</time></trkpt>
        <trkpt lat="29.57352" lon="103.391778"><ele>709.9306</ele><time>2026-07-28T00:03:09.000Z</time></trkpt>
        <trkpt lat="29.573477" lon="103.39176"><ele>710.4007</ele><time>2026-07-28T00:03:13.000Z</time></trkpt>
        <trkpt lat="29.573425" lon="103.391759"><ele>711.2884</ele><time>2026-07-28T00:03:17.000Z</time></trkpt>
        <trkpt lat="29.573374" lon="103.391772"><ele>713.3206</ele><time>2026-07-28T00:03:25.000Z</time></trkpt>
        <trkpt lat="29.573329" lon="103.391779"><ele>718.8786</ele><time>2026-07-28T00:03:35.000Z</time></trkpt>
        <trkpt lat="29.573284" lon="103.391743"><ele>719.15027</ele><time>2026-07-28T00:03:45.000Z</time></trkpt>
        <trkpt lat="29.573237" lon="103.391743"><ele>721.7664</ele><time>2026-07-28T00:03:57.000Z</time></trkpt>
        <trkpt lat="29.573192" lon="103.391729"><ele>722.6436</ele><time>2026-07-28T00:04:05.000Z</time></trkpt>
        <trkpt lat="29.573141" lon="103.391721"><ele>721.1951</ele><time>2026-07-28T00:04:11.000Z</time></trkpt>
        <trkpt lat="29.573087" lon="103.391728"><ele>721.04315</ele><time>2026-07-28T00:04:16.000Z</time></trkpt>
        <trkpt lat="29.573044" lon="103.391748"><ele>721.00464</ele><time>2026-07-28T00:04:20.000Z</time></trkpt>
        <trkpt lat="29.572993" lon="103.39176"><ele>719.42725</ele><time>2026-07-28T00:04:25.000Z</time></trkpt>
        <trkpt lat="29.572943" lon="103.391771"><ele>719.5589</ele><time>2026-07-28T00:04:29.000Z</time></trkpt>
        <trkpt lat="29.572906" lon="103.391802"><ele>718.49646</ele><time>2026-07-28T00:04:34.000Z</time></trkpt>
        <trkpt lat="29.572858" lon="103.391815"><ele>717.7347</ele><time>2026-07-28T00:04:40.000Z</time></trkpt>
        <trkpt lat="29.572802" lon="103.391805"><ele>718.7362</ele><time>2026-07-28T00:04:46.000Z</time></trkpt>
        <trkpt lat="29.572761" lon="103.391838"><ele>720.198</ele><time>2026-07-28T00:04:53.000Z</time></trkpt>
        <trkpt lat="29.572723" lon="103.391811"><ele>721.39026</ele><time>2026-07-28T00:05:01.000Z</time></trkpt>
        <trkpt lat="29.572676" lon="103.391821"><ele>721.7253</ele><time>2026-07-28T00:05:08.000Z</time></trkpt>
        <trkpt lat="29.572629" lon="103.391818"><ele>720.99725</ele><time>2026-07-28T00:05:14.000Z</time></trkpt>
        <trkpt lat="29.572584" lon="103.391839"><ele>720.9098</ele><time>2026-07-28T00:05:19.000Z</time></trkpt>
        <trkpt lat="29.572529" lon="103.391846"><ele>719.1873</ele><time>2026-07-28T00:05:27.000Z</time></trkpt>
        <trkpt lat="29.572479" lon="103.39183"><ele>719.5881</ele><time>2026-07-28T00:05:34.000Z</time></trkpt>
        <trkpt lat="29.572433" lon="103.3918"><ele>719.51874</ele><time>2026-07-28T00:05:39.000Z</time></trkpt>
        <trkpt lat="29.572392" lon="103.391767"><ele>720.2254</ele><time>2026-07-28T00:05:45.000Z</time></trkpt>
        <trkpt lat="29.572351" lon="103.391741"><ele>720.77625</ele><time>2026-07-28T00:05:52.000Z</time></trkpt>
        <trkpt lat="29.572304" lon="103.391742"><ele>720.80817</ele><time>2026-07-28T00:05:56.000Z</time></trkpt>
        <trkpt lat="29.572255" lon="103.391733"><ele>720.46204</ele><time>2026-07-28T00:06:01.000Z</time></trkpt>
        <trkpt lat="29.572212" lon="103.391702"><ele>719.0952</ele><time>2026-07-28T00:06:06.000Z</time></trkpt>
        <trkpt lat="29.572169" lon="103.391688"><ele>719.76117</ele><time>2026-07-28T00:06:12.000Z</time></trkpt>
        <trkpt lat="29.572119" lon="103.391687"><ele>719.6224</ele><time>2026-07-28T00:06:18.000Z</time></trkpt>
        <trkpt lat="29.572064" lon="103.391697"><ele>719.4384</ele><time>2026-07-28T00:06:23.000Z</time></trkpt>
        <trkpt lat="29.572014" lon="103.391683"><ele>719.2822</ele><time>2026-07-28T00:06:28.000Z</time></trkpt>
        <trkpt lat="29.571965" lon="103.391683"><ele>718.6842</ele><time>2026-07-28T00:06:33.000Z</time></trkpt>
        <trkpt lat="29.571909" lon="103.391681"><ele>718.5769</ele><time>2026-07-28T00:06:38.000Z</time></trkpt>
        <trkpt lat="29.571861" lon="103.391691"><ele>718.3576</ele><time>2026-07-28T00:06:43.000Z</time></trkpt>
        <trkpt lat="29.57182" lon="103.391665"><ele>718.47546</ele><time>2026-07-28T00:06:47.000Z</time></trkpt>
        <trkpt lat="29.571768" lon="103.391677"><ele>716.1273</ele><time>2026-07-28T00:06:52.000Z</time></trkpt>
        <trkpt lat="29.571714" lon="103.391667"><ele>717.68195</ele><time>2026-07-28T00:06:57.000Z</time></trkpt>
        <trkpt lat="29.571658" lon="103.391679"><ele>719.05145</ele><time>2026-07-28T00:07:03.000Z</time></trkpt>
        <trkpt lat="29.571613" lon="103.391707"><ele>719.7293</ele><time>2026-07-28T00:07:08.000Z</time></trkpt>
        <trkpt lat="29.571566" lon="103.391724"><ele>720.57806</ele><time>2026-07-28T00:07:12.000Z</time></trkpt>
        <trkpt lat="29.571513" lon="103.391706"><ele>720.3311</ele><time>2026-07-28T00:07:16.000Z</time></trkpt>
        <trkpt lat="29.57146" lon="103.391687"><ele>720.12775</ele><time>2026-07-28T00:07:22.000Z</time></trkpt>
        <trkpt lat="29.571415" lon="103.391667"><ele>718.67224</ele><time>2026-07-28T00:07:26.000Z</time></trkpt>
        <trkpt lat="29.571371" lon="103.391652"><ele>717.163</ele><time>2026-07-28T00:07:30.000Z</time></trkpt>
        <trkpt lat="29.571313" lon="103.391652"><ele>716.67053</ele><time>2026-07-28T00:07:34.000Z</time></trkpt>
        <trkpt lat="29.571257" lon="103.391668"><ele>716.97925</ele><time>2026-07-28T00:07:39.000Z</time></trkpt>
        <trkpt lat="29.571212" lon="103.39169"><ele>719.60535</ele><time>2026-07-28T00:07:52.000Z</time></trkpt>
        <trkpt lat="29.571179" lon="103.391732"><ele>720.19995</ele><time>2026-07-28T00:07:58.000Z</time></trkpt>
        <trkpt lat="29.571137" lon="103.391758"><ele>722.41364</ele><time>2026-07-28T00:08:06.000Z</time></trkpt>
        <trkpt lat="29.571087" lon="103.39177"><ele>723.4435</ele><time>2026-07-28T00:08:11.000Z</time></trkpt>
        <trkpt lat="29.571038" lon="103.391757"><ele>724.1017</ele><time>2026-07-28T00:08:17.000Z</time></trkpt>
        <trkpt lat="29.571041" lon="103.391695"><ele>723.3918</ele><time>2026-07-28T00:08:22.000Z</time></trkpt>
        <trkpt lat="29.571006" lon="103.39166"><ele>721.57684</ele><time>2026-07-28T00:08:26.000Z</time></trkpt>
        <trkpt lat="29.570958" lon="103.39166"><ele>721.75024</ele><time>2026-07-28T00:08:30.000Z</time></trkpt>
        <trkpt lat="29.570912" lon="103.391654"><ele>723.2484</ele><time>2026-07-28T00:08:35.000Z</time></trkpt>
        <trkpt lat="29.570957" lon="103.391638"><ele>722.09644</ele><time>2026-07-28T00:08:57.000Z</time></trkpt>
        <trkpt lat="29.570916" lon="103.391604"><ele>721.7395</ele><time>2026-07-28T00:09:25.000Z</time></trkpt>
        <trkpt lat="29.570874" lon="103.391582"><ele>721.6455</ele><time>2026-07-28T00:09:32.000Z</time></trkpt>
        <trkpt lat="29.570824" lon="103.391557"><ele>724.24615</ele><time>2026-07-28T00:09:48.000Z</time></trkpt>
        <trkpt lat="29.5708" lon="103.391509"><ele>723.2777</ele><time>2026-07-28T00:09:54.000Z</time></trkpt>
        <trkpt lat="29.57076" lon="103.391481"><ele>721.9809</ele><time>2026-07-28T00:09:59.000Z</time></trkpt>
        <trkpt lat="29.570722" lon="103.39145"><ele>723.6107</ele><time>2026-07-28T00:10:06.000Z</time></trkpt>
        <trkpt lat="29.570681" lon="103.391427"><ele>723.9427</ele><time>2026-07-28T00:10:12.000Z</time></trkpt>
        <trkpt lat="29.570656" lon="103.391384"><ele>722.7933</ele><time>2026-07-28T00:10:18.000Z</time></trkpt>
        <trkpt lat="29.570611" lon="103.39137"><ele>723.84094</ele><time>2026-07-28T00:10:29.000Z</time></trkpt>
        <trkpt lat="29.570577" lon="103.39141"><ele>728.36127</ele><time>2026-07-28T00:10:44.000Z</time></trkpt>
        <trkpt lat="29.570564" lon="103.391358"><ele>729.4924</ele><time>2026-07-28T00:10:58.000Z</time></trkpt>
        <trkpt lat="29.570532" lon="103.391321"><ele>729.3071</ele><time>2026-07-28T00:11:05.000Z</time></trkpt>
        <trkpt lat="29.570489" lon="103.391297"><ele>727.0418</ele><time>2026-07-28T00:11:12.000Z</time></trkpt>
        <trkpt lat="29.570444" lon="103.39127"><ele>726.6775</ele><time>2026-07-28T00:11:26.000Z</time></trkpt>
        <trkpt lat="29.570426" lon="103.391213"><ele>727.21234</ele><time>2026-07-28T00:11:33.000Z</time></trkpt>
        <trkpt lat="29.570407" lon="103.391163"><ele>730.3264</ele><time>2026-07-28T00:11:41.000Z</time></trkpt>
        <trkpt lat="29.570372" lon="103.391195"><ele>735.399</ele><time>2026-07-28T00:11:54.000Z</time></trkpt>
        <trkpt lat="29.570327" lon="103.391181"><ele>736.8804</ele><time>2026-07-28T00:12:05.000Z</time></trkpt>
        <trkpt lat="29.57028" lon="103.391161"><ele>735.50946</ele><time>2026-07-28T00:12:12.000Z</time></trkpt>
        <trkpt lat="29.570257" lon="103.391111"><ele>733.55194</ele><time>2026-07-28T00:12:20.000Z</time></trkpt>
        <trkpt lat="29.570206" lon="103.39111"><ele>733.002</ele><time>2026-07-28T00:12:25.000Z</time></trkpt>
        <trkpt lat="29.570178" lon="103.391057"><ele>731.69977</ele><time>2026-07-28T00:12:29.000Z</time></trkpt>
        <trkpt lat="29.570173" lon="103.390989"><ele>730.39746</ele><time>2026-07-28T00:12:34.000Z</time></trkpt>
        <trkpt lat="29.570186" lon="103.390937"><ele>729.7874</ele><time>2026-07-28T00:12:37.000Z</time></trkpt>
        <trkpt lat="29.57015" lon="103.390895"><ele>728.09644</ele><time>2026-07-28T00:12:45.000Z</time></trkpt>
        <trkpt lat="29.570093" lon="103.390902"><ele>734.3047</ele><time>2026-07-28T00:12:51.000Z</time></trkpt>
        <trkpt lat="29.570053" lon="103.390941"><ele>736.45074</ele><time>2026-07-28T00:12:54.000Z</time></trkpt>
        <trkpt lat="29.57" lon="103.390939"><ele>737.638</ele><time>2026-07-28T00:13:00.000Z</time></trkpt>
        <trkpt lat="29.569949" lon="103.390938"><ele>736.80975</ele><time>2026-07-28T00:13:05.000Z</time></trkpt>
        <trkpt lat="29.569904" lon="103.390926"><ele>735.66077</ele><time>2026-07-28T00:13:11.000Z</time></trkpt>
        <trkpt lat="29.569856" lon="103.390922"><ele>735.125</ele><time>2026-07-28T00:13:17.000Z</time></trkpt>
        <trkpt lat="29.569812" lon="103.390941"><ele>734.8335</ele><time>2026-07-28T00:13:21.000Z</time></trkpt>
        <trkpt lat="29.56976" lon="103.390941"><ele>734.6885</ele><time>2026-07-28T00:13:27.000Z</time></trkpt>
        <trkpt lat="29.569712" lon="103.390912"><ele>731.4314</ele><time>2026-07-28T00:13:34.000Z</time></trkpt>
        <trkpt lat="29.569666" lon="103.390927"><ele>730.90753</ele><time>2026-07-28T00:13:40.000Z</time></trkpt>
        <trkpt lat="29.569617" lon="103.390925"><ele>730.2339</ele><time>2026-07-28T00:13:46.000Z</time></trkpt>
        <trkpt lat="29.569564" lon="103.390944"><ele>729.7476</ele><time>2026-07-28T00:13:52.000Z</time></trkpt>
        <trkpt lat="29.569515" lon="103.390952"><ele>728.8359</ele><time>2026-07-28T00:13:57.000Z</time></trkpt>
        <trkpt lat="29.569464" lon="103.390956"><ele>728.31616</ele><time>2026-07-28T00:14:02.000Z</time></trkpt>
        <trkpt lat="29.569419" lon="103.390945"><ele>729.538</ele><time>2026-07-28T00:14:09.000Z</time></trkpt>
        <trkpt lat="29.569411" lon="103.390999"><ele>732.3658</ele><time>2026-07-28T00:14:29.000Z</time></trkpt>
        <trkpt lat="29.569378" lon="103.390954"><ele>732.0231</ele><time>2026-07-28T00:14:40.000Z</time></trkpt>
        <trkpt lat="29.569336" lon="103.390926"><ele>732.1404</ele><time>2026-07-28T00:14:43.000Z</time></trkpt>
        <trkpt lat="29.569286" lon="103.390913"><ele>734.2314</ele><time>2026-07-28T00:14:47.000Z</time></trkpt>
        <trkpt lat="29.569244" lon="103.390889"><ele>733.8887</ele><time>2026-07-28T00:15:07.000Z</time></trkpt>
        <trkpt lat="29.569186" lon="103.390904"><ele>731.7937</ele><time>2026-07-28T00:15:13.000Z</time></trkpt>
        <trkpt lat="29.569132" lon="103.390912"><ele>727.65814</ele><time>2026-07-28T00:15:18.000Z</time></trkpt>
        <trkpt lat="29.569081" lon="103.390932"><ele>722.9117</ele><time>2026-07-28T00:15:25.000Z</time></trkpt>
        <trkpt lat="29.569064" lon="103.390983"><ele>720.71497</ele><time>2026-07-28T00:15:33.000Z</time></trkpt>
        <trkpt lat="29.569026" lon="103.391016"><ele>720.9683</ele><time>2026-07-28T00:15:37.000Z</time></trkpt>
        <trkpt lat="29.568985" lon="103.391059"><ele>719.2187</ele><time>2026-07-28T00:15:41.000Z</time></trkpt>
        <trkpt lat="29.568987" lon="103.391115"><ele>720.1479</ele><time>2026-07-28T00:15:48.000Z</time></trkpt>
        <trkpt lat="29.569011" lon="103.391173"><ele>720.7007</ele><time>2026-07-28T00:15:51.000Z</time></trkpt>
        <trkpt lat="29.568957" lon="103.391174"><ele>724.24066</ele><time>2026-07-28T00:15:56.000Z</time></trkpt>
        <trkpt lat="29.568909" lon="103.391187"><ele>726.5927</ele><time>2026-07-28T00:16:01.000Z</time></trkpt>
        <trkpt lat="29.568861" lon="103.391146"><ele>736.4193</ele><time>2026-07-28T00:16:06.000Z</time></trkpt>
        <trkpt lat="29.568816" lon="103.391143"><ele>746.4904</ele><time>2026-07-28T00:16:15.000Z</time></trkpt>
        <trkpt lat="29.568777" lon="103.391108"><ele>751.35443</ele><time>2026-07-28T00:16:20.000Z</time></trkpt>
        <trkpt lat="29.568735" lon="103.391086"><ele>760.04663</ele><time>2026-07-28T00:16:34.000Z</time></trkpt>
        <trkpt lat="29.568717" lon="103.391033"><ele>762.2834</ele><time>2026-07-28T00:16:43.000Z</time></trkpt>
        <trkpt lat="29.568701" lon="103.391101"><ele>762.54895</ele><time>2026-07-28T00:16:48.000Z</time></trkpt>
        <trkpt lat="29.568695" lon="103.391156"><ele>763.0488</ele><time>2026-07-28T00:16:51.000Z</time></trkpt>
        <trkpt lat="29.568668" lon="103.39111"><ele>766.32666</ele><time>2026-07-28T00:17:07.000Z</time></trkpt>
        <trkpt lat="29.568646" lon="103.391037"><ele>765.6827</ele><time>2026-07-28T00:17:09.000Z</time></trkpt>
        <trkpt lat="29.568601" lon="103.391023"><ele>765.39795</ele><time>2026-07-28T00:17:12.000Z</time></trkpt>
        <trkpt lat="29.568605" lon="103.390968"><ele>765.06714</ele><time>2026-07-28T00:17:14.000Z</time></trkpt>
        <trkpt lat="29.56859" lon="103.390913"><ele>765.60065</ele><time>2026-07-28T00:17:20.000Z</time></trkpt>
        <trkpt lat="29.568599" lon="103.390791"><ele>766.20715</ele><time>2026-07-28T00:17:25.000Z</time></trkpt>
        <trkpt lat="29.568552" lon="103.390803"><ele>767.1187</ele><time>2026-07-28T00:17:29.000Z</time></trkpt>
        <trkpt lat="29.568527" lon="103.390748"><ele>768.1478</ele><time>2026-07-28T00:17:33.000Z</time></trkpt>
        <trkpt lat="29.568483" lon="103.390779"><ele>769.3225</ele><time>2026-07-28T00:17:37.000Z</time></trkpt>
        <trkpt lat="29.5685" lon="103.390853"><ele>770.35254</ele><time>2026-07-28T00:17:49.000Z</time></trkpt>
        <trkpt lat="29.568468" lon="103.390805"><ele>770.56256</ele><time>2026-07-28T00:17:54.000Z</time></trkpt>
        <trkpt lat="29.568423" lon="103.390899"><ele>770.51697</ele><time>2026-07-28T00:18:03.000Z</time></trkpt>
        <trkpt lat="29.568389" lon="103.390942"><ele>770.62683</ele><time>2026-07-28T00:18:05.000Z</time></trkpt>
        <trkpt lat="29.568343" lon="103.390895"><ele>769.8845</ele><time>2026-07-28T00:18:16.000Z</time></trkpt>
        <trkpt lat="29.568307" lon="103.390859"><ele>766.39166</ele><time>2026-07-28T00:18:24.000Z</time></trkpt>
        <trkpt lat="29.568353" lon="103.390872"><ele>765.86945</ele><time>2026-07-28T00:18:27.000Z</time></trkpt>
        <trkpt lat="29.5684" lon="103.390846"><ele>765.992</ele><time>2026-07-28T00:18:36.000Z</time></trkpt>
        <trkpt lat="29.568444" lon="103.390778"><ele>766.5135</ele><time>2026-07-28T00:18:39.000Z</time></trkpt>
        <trkpt lat="29.568402" lon="103.390733"><ele>768.64044</ele><time>2026-07-28T00:18:46.000Z</time></trkpt>
        <trkpt lat="29.568466" lon="103.390727"><ele>772.24896</ele><time>2026-07-28T00:18:49.000Z</time></trkpt>
        <trkpt lat="29.568408" lon="103.390738"><ele>771.77814</ele><time>2026-07-28T00:18:53.000Z</time></trkpt>
        <trkpt lat="29.56836" lon="103.390743"><ele>771.60114</ele><time>2026-07-28T00:18:59.000Z</time></trkpt>
        <trkpt lat="29.568314" lon="103.390716"><ele>773.50287</ele><time>2026-07-28T00:19:05.000Z</time></trkpt>
        <trkpt lat="29.568312" lon="103.390648"><ele>775.0197</ele><time>2026-07-28T00:19:12.000Z</time></trkpt>
        <trkpt lat="29.568264" lon="103.390646"><ele>777.2132</ele><time>2026-07-28T00:19:21.000Z</time></trkpt>
        <trkpt lat="29.568218" lon="103.390627"><ele>778.13605</ele><time>2026-07-28T00:19:29.000Z</time></trkpt>
        <trkpt lat="29.568167" lon="103.390647"><ele>779.22217</ele><time>2026-07-28T00:19:38.000Z</time></trkpt>
        <trkpt lat="29.568118" lon="103.390659"><ele>778.92303</ele><time>2026-07-28T00:19:43.000Z</time></trkpt>
        <trkpt lat="29.568071" lon="103.390672"><ele>778.51086</ele><time>2026-07-28T00:19:47.000Z</time></trkpt>
        <trkpt lat="29.568018" lon="103.390714"><ele>777.48035</ele><time>2026-07-28T00:19:52.000Z</time></trkpt>
        <trkpt lat="29.567966" lon="103.390725"><ele>775.3941</ele><time>2026-07-28T00:19:59.000Z</time></trkpt>
        <trkpt lat="29.567934" lon="103.390682"><ele>774.82196</ele><time>2026-07-28T00:20:05.000Z</time></trkpt>
        <trkpt lat="29.56791" lon="103.390636"><ele>773.4131</ele><time>2026-07-28T00:20:11.000Z</time></trkpt>
        <trkpt lat="29.567871" lon="103.390664"><ele>772.0383</ele><time>2026-07-28T00:20:16.000Z</time></trkpt>
        <trkpt lat="29.567836" lon="103.390706"><ele>769.2535</ele><time>2026-07-28T00:20:24.000Z</time></trkpt>
        <trkpt lat="29.567805" lon="103.390665"><ele>767.8858</ele><time>2026-07-28T00:20:29.000Z</time></trkpt>
        <trkpt lat="29.567763" lon="103.390644"><ele>768.4098</ele><time>2026-07-28T00:20:38.000Z</time></trkpt>
        <trkpt lat="29.567729" lon="103.39059"><ele>768.54755</ele><time>2026-07-28T00:20:42.000Z</time></trkpt>
        <trkpt lat="29.567684" lon="103.390552"><ele>767.16156</ele><time>2026-07-28T00:20:47.000Z</time></trkpt>
        <trkpt lat="29.567644" lon="103.390528"><ele>765.39453</ele><time>2026-07-28T00:20:52.000Z</time></trkpt>
        <trkpt lat="29.567602" lon="103.390489"><ele>764.3677</ele><time>2026-07-28T00:20:58.000Z</time></trkpt>
        <trkpt lat="29.567552" lon="103.390487"><ele>761.9783</ele><time>2026-07-28T00:21:05.000Z</time></trkpt>
        <trkpt lat="29.567505" lon="103.39048"><ele>761.0882</ele><time>2026-07-28T00:21:11.000Z</time></trkpt>
        <trkpt lat="29.567459" lon="103.39049"><ele>758.3271</ele><time>2026-07-28T00:21:17.000Z</time></trkpt>
        <trkpt lat="29.567435" lon="103.390438"><ele>758.4687</ele><time>2026-07-28T00:21:23.000Z</time></trkpt>
        <trkpt lat="29.567419" lon="103.390387"><ele>759.0029</ele><time>2026-07-28T00:21:26.000Z</time></trkpt>
        <trkpt lat="29.567387" lon="103.390335"><ele>761.0104</ele><time>2026-07-28T00:21:30.000Z</time></trkpt>
        <trkpt lat="29.567331" lon="103.390315"><ele>763.3558</ele><time>2026-07-28T00:21:34.000Z</time></trkpt>
        <trkpt lat="29.567296" lon="103.390266"><ele>766.3268</ele><time>2026-07-28T00:21:39.000Z</time></trkpt>
        <trkpt lat="29.567299" lon="103.390213"><ele>766.93964</ele><time>2026-07-28T00:21:42.000Z</time></trkpt>
        <trkpt lat="29.567262" lon="103.390167"><ele>768.77405</ele><time>2026-07-28T00:21:47.000Z</time></trkpt>
        <trkpt lat="29.567222" lon="103.390141"><ele>770.26013</ele><time>2026-07-28T00:21:51.000Z</time></trkpt>
        <trkpt lat="29.567191" lon="103.390099"><ele>770.25824</ele><time>2026-07-28T00:21:55.000Z</time></trkpt>
        <trkpt lat="29.567152" lon="103.390064"><ele>771.1412</ele><time>2026-07-28T00:22:00.000Z</time></trkpt>
        <trkpt lat="29.567106" lon="103.390053"><ele>773.30707</ele><time>2026-07-28T00:22:05.000Z</time></trkpt>
        <trkpt lat="29.567053" lon="103.390051"><ele>774.0837</ele><time>2026-07-28T00:22:11.000Z</time></trkpt>
        <trkpt lat="29.567005" lon="103.39004"><ele>773.8925</ele><time>2026-07-28T00:22:16.000Z</time></trkpt>
        <trkpt lat="29.56696" lon="103.390033"><ele>774.2946</ele><time>2026-07-28T00:22:24.000Z</time></trkpt>
        <trkpt lat="29.566925" lon="103.389991"><ele>774.3192</ele><time>2026-07-28T00:22:31.000Z</time></trkpt>
        <trkpt lat="29.566878" lon="103.389997"><ele>770.6938</ele><time>2026-07-28T00:22:38.000Z</time></trkpt>
        <trkpt lat="29.566844" lon="103.389957"><ele>768.40735</ele><time>2026-07-28T00:22:46.000Z</time></trkpt>
        <trkpt lat="29.566805" lon="103.38993"><ele>767.1077</ele><time>2026-07-28T00:22:50.000Z</time></trkpt>
        <trkpt lat="29.56675" lon="103.389934"><ele>765.71497</ele><time>2026-07-28T00:22:55.000Z</time></trkpt>
        <trkpt lat="29.566716" lon="103.38989"><ele>763.7696</ele><time>2026-07-28T00:23:03.000Z</time></trkpt>
        <trkpt lat="29.56668" lon="103.389922"><ele>755.2152</ele><time>2026-07-28T00:23:23.000Z</time></trkpt>
        <trkpt lat="29.566632" lon="103.389917"><ele>757.41736</ele><time>2026-07-28T00:24:11.000Z</time></trkpt>
        <trkpt lat="29.566591" lon="103.389891"><ele>756.6132</ele><time>2026-07-28T00:24:20.000Z</time></trkpt>
        <trkpt lat="29.566558" lon="103.389851"><ele>756.8108</ele><time>2026-07-28T00:24:25.000Z</time></trkpt>
        <trkpt lat="29.566553" lon="103.389793"><ele>754.32135</ele><time>2026-07-28T00:24:29.000Z</time></trkpt>
        <trkpt lat="29.566522" lon="103.389753"><ele>754.2239</ele><time>2026-07-28T00:24:34.000Z</time></trkpt>
        <trkpt lat="29.56647" lon="103.389745"><ele>751.1793</ele><time>2026-07-28T00:24:39.000Z</time></trkpt>
        <trkpt lat="29.566418" lon="103.389757"><ele>750.77496</ele><time>2026-07-28T00:24:45.000Z</time></trkpt>
        <trkpt lat="29.566366" lon="103.389775"><ele>747.8704</ele><time>2026-07-28T00:24:53.000Z</time></trkpt>
        <trkpt lat="29.566324" lon="103.389756"><ele>746.0975</ele><time>2026-07-28T00:25:01.000Z</time></trkpt>
        <trkpt lat="29.566288" lon="103.389723"><ele>745.9952</ele><time>2026-07-28T00:25:07.000Z</time></trkpt>
        <trkpt lat="29.566253" lon="103.389689"><ele>746.19037</ele><time>2026-07-28T00:25:14.000Z</time></trkpt>
        <trkpt lat="29.566205" lon="103.389666"><ele>744.6593</ele><time>2026-07-28T00:25:20.000Z</time></trkpt>
        <trkpt lat="29.566158" lon="103.389675"><ele>745.75</ele><time>2026-07-28T00:25:25.000Z</time></trkpt>
        <trkpt lat="29.566115" lon="103.389652"><ele>746.7884</ele><time>2026-07-28T00:25:29.000Z</time></trkpt>
        <trkpt lat="29.566072" lon="103.389669"><ele>747.48645</ele><time>2026-07-28T00:25:34.000Z</time></trkpt>
        <trkpt lat="29.566042" lon="103.389713"><ele>749.8694</ele><time>2026-07-28T00:25:42.000Z</time></trkpt>
        <trkpt lat="29.565987" lon="103.389716"><ele>749.5987</ele><time>2026-07-28T00:25:48.000Z</time></trkpt>
        <trkpt lat="29.565938" lon="103.389708"><ele>749.91797</ele><time>2026-07-28T00:25:53.000Z</time></trkpt>
        <trkpt lat="29.565888" lon="103.389715"><ele>750.01355</ele><time>2026-07-28T00:26:00.000Z</time></trkpt>
        <trkpt lat="29.565839" lon="103.389735"><ele>748.7984</ele><time>2026-07-28T00:26:05.000Z</time></trkpt>
        <trkpt lat="29.56579" lon="103.389749"><ele>749.73944</ele><time>2026-07-28T00:26:10.000Z</time></trkpt>
        <trkpt lat="29.565751" lon="103.389716"><ele>749.6209</ele><time>2026-07-28T00:26:25.000Z</time></trkpt>
        <trkpt lat="29.565722" lon="103.389664"><ele>750.22345</ele><time>2026-07-28T00:26:38.000Z</time></trkpt>
        <trkpt lat="29.565677" lon="103.389638"><ele>751.1272</ele><time>2026-07-28T00:26:49.000Z</time></trkpt>
        <trkpt lat="29.565645" lon="103.389602"><ele>751.3813</ele><time>2026-07-28T00:26:54.000Z</time></trkpt>
        <trkpt lat="29.565596" lon="103.38959"><ele>752.6474</ele><time>2026-07-28T00:27:01.000Z</time></trkpt>
        <trkpt lat="29.565547" lon="103.38957"><ele>754.6247</ele><time>2026-07-28T00:27:05.000Z</time></trkpt>
        <trkpt lat="29.565504" lon="103.389542"><ele>754.8705</ele><time>2026-07-28T00:27:10.000Z</time></trkpt>
        <trkpt lat="29.565457" lon="103.389527"><ele>755.33905</ele><time>2026-07-28T00:27:14.000Z</time></trkpt>
        <trkpt lat="29.565414" lon="103.389511"><ele>755.14484</ele><time>2026-07-28T00:27:19.000Z</time></trkpt>
        <trkpt lat="29.565374" lon="103.389488"><ele>756.87067</ele><time>2026-07-28T00:27:24.000Z</time></trkpt>
        <trkpt lat="29.565326" lon="103.389461"><ele>756.84656</ele><time>2026-07-28T00:27:30.000Z</time></trkpt>
        <trkpt lat="29.565281" lon="103.389447"><ele>757.6161</ele><time>2026-07-28T00:27:34.000Z</time></trkpt>
        <trkpt lat="29.56526" lon="103.389392"><ele>758.16675</ele><time>2026-07-28T00:27:39.000Z</time></trkpt>
        <trkpt lat="29.565239" lon="103.389342"><ele>758.43494</ele><time>2026-07-28T00:27:43.000Z</time></trkpt>
        <trkpt lat="29.565197" lon="103.389298"><ele>760.0482</ele><time>2026-07-28T00:27:49.000Z</time></trkpt>
        <trkpt lat="29.565163" lon="103.389244"><ele>760.38104</ele><time>2026-07-28T00:27:54.000Z</time></trkpt>
        <trkpt lat="29.56513" lon="103.389195"><ele>762.1246</ele><time>2026-07-28T00:28:00.000Z</time></trkpt>
        <trkpt lat="29.565085" lon="103.389165"><ele>761.8612</ele><time>2026-07-28T00:28:05.000Z</time></trkpt>
        <trkpt lat="29.565077" lon="103.389106"><ele>759.71814</ele><time>2026-07-28T00:28:09.000Z</time></trkpt>
        <trkpt lat="29.565055" lon="103.389048"><ele>757.96124</ele><time>2026-07-28T00:28:14.000Z</time></trkpt>
        <trkpt lat="29.565035" lon="103.388997"><ele>757.4657</ele><time>2026-07-28T00:28:19.000Z</time></trkpt>
        <trkpt lat="29.564996" lon="103.388967"><ele>756.33435</ele><time>2026-07-28T00:28:26.000Z</time></trkpt>
        <trkpt lat="29.564946" lon="103.388976"><ele>764.15393</ele><time>2026-07-28T00:28:44.000Z</time></trkpt>
        <trkpt lat="29.564992" lon="103.388994"><ele>762.1381</ele><time>2026-07-28T00:29:50.000Z</time></trkpt>
        <trkpt lat="29.565032" lon="103.389019"><ele>756.2096</ele><time>2026-07-28T00:30:24.000Z</time></trkpt>
        <trkpt lat="29.565056" lon="103.389062"><ele>755.3685</ele><time>2026-07-28T00:31:07.000Z</time></trkpt>
        <trkpt lat="29.565097" lon="103.389101"><ele>753.1967</ele><time>2026-07-28T00:31:16.000Z</time></trkpt>
        <trkpt lat="29.565101" lon="103.389157"><ele>754.7939</ele><time>2026-07-28T00:31:21.000Z</time></trkpt>
        <trkpt lat="29.565103" lon="103.389226"><ele>757.10876</ele><time>2026-07-28T00:31:28.000Z</time></trkpt>
        <trkpt lat="29.565137" lon="103.389266"><ele>757.83093</ele><time>2026-07-28T00:31:33.000Z</time></trkpt>
        <trkpt lat="29.565161" lon="103.389313"><ele>757.72455</ele><time>2026-07-28T00:31:40.000Z</time></trkpt>
        <trkpt lat="29.565183" lon="103.38936"><ele>757.8179</ele><time>2026-07-28T00:31:47.000Z</time></trkpt>
        <trkpt lat="29.565204" lon="103.389409"><ele>757.3914</ele><time>2026-07-28T00:31:53.000Z</time></trkpt>
        <trkpt lat="29.565245" lon="103.389441"><ele>757.0494</ele><time>2026-07-28T00:31:58.000Z</time></trkpt>
        <trkpt lat="29.565289" lon="103.38947"><ele>756.66406</ele><time>2026-07-28T00:32:04.000Z</time></trkpt>
        <trkpt lat="29.565331" lon="103.389501"><ele>757.4271</ele><time>2026-07-28T00:32:08.000Z</time></trkpt>
        <trkpt lat="29.565374" lon="103.389526"><ele>757.5335</ele><time>2026-07-28T00:32:14.000Z</time></trkpt>
        <trkpt lat="29.565421" lon="103.389532"><ele>756.963</ele><time>2026-07-28T00:32:16.000Z</time></trkpt>
        <trkpt lat="29.565474" lon="103.389551"><ele>756.3267</ele><time>2026-07-28T00:32:22.000Z</time></trkpt>
        <trkpt lat="29.565518" lon="103.389571"><ele>756.0246</ele><time>2026-07-28T00:32:26.000Z</time></trkpt>
        <trkpt lat="29.565566" lon="103.389583"><ele>756.79175</ele><time>2026-07-28T00:32:31.000Z</time></trkpt>
        <trkpt lat="29.565615" lon="103.389594"><ele>757.6729</ele><time>2026-07-28T00:32:37.000Z</time></trkpt>
        <trkpt lat="29.565664" lon="103.389597"><ele>758.7973</ele><time>2026-07-28T00:32:44.000Z</time></trkpt>
        <trkpt lat="29.565705" lon="103.389622"><ele>754.91547</ele><time>2026-07-28T00:32:50.000Z</time></trkpt>
        <trkpt lat="29.565698" lon="103.389674"><ele>752.55676</ele><time>2026-07-28T00:33:15.000Z</time></trkpt>
        <trkpt lat="29.5657" lon="103.389726"><ele>751.05237</ele><time>2026-07-28T00:33:24.000Z</time></trkpt>
        <trkpt lat="29.565729" lon="103.389768"><ele>751.41156</ele><time>2026-07-28T00:33:33.000Z</time></trkpt>
        <trkpt lat="29.565771" lon="103.389792"><ele>749.2517</ele><time>2026-07-28T00:33:43.000Z</time></trkpt>
        <trkpt lat="29.565823" lon="103.389797"><ele>749.78265</ele><time>2026-07-28T00:33:51.000Z</time></trkpt>
        <trkpt lat="29.565873" lon="103.38979"><ele>750.23065</ele><time>2026-07-28T00:33:57.000Z</time></trkpt>
        <trkpt lat="29.565924" lon="103.389785"><ele>749.25195</ele><time>2026-07-28T00:34:04.000Z</time></trkpt>
        <trkpt lat="29.565977" lon="103.389784"><ele>748.88025</ele><time>2026-07-28T00:34:10.000Z</time></trkpt>
        <trkpt lat="29.566026" lon="103.389779"><ele>748.6126</ele><time>2026-07-28T00:34:14.000Z</time></trkpt>
        <trkpt lat="29.566074" lon="103.389754"><ele>747.6674</ele><time>2026-07-28T00:34:19.000Z</time></trkpt>
        <trkpt lat="29.566118" lon="103.389737"><ele>745.64545</ele><time>2026-07-28T00:34:23.000Z</time></trkpt>
        <trkpt lat="29.56616" lon="103.389712"><ele>744.1184</ele><time>2026-07-28T00:34:31.000Z</time></trkpt>
        <trkpt lat="29.56621" lon="103.389704"><ele>745.3022</ele><time>2026-07-28T00:34:44.000Z</time></trkpt>
        <trkpt lat="29.566243" lon="103.389743"><ele>747.50104</ele><time>2026-07-28T00:34:54.000Z</time></trkpt>
        <trkpt lat="29.566295" lon="103.389754"><ele>748.39294</ele><time>2026-07-28T00:35:26.000Z</time></trkpt>
        <trkpt lat="29.566352" lon="103.389772"><ele>746.03937</ele><time>2026-07-28T00:35:30.000Z</time></trkpt>
        <trkpt lat="29.566397" lon="103.38978"><ele>746.0128</ele><time>2026-07-28T00:35:35.000Z</time></trkpt>
        <trkpt lat="29.566444" lon="103.389781"><ele>745.4476</ele><time>2026-07-28T00:35:42.000Z</time></trkpt>
        <trkpt lat="29.566494" lon="103.38979"><ele>744.8506</ele><time>2026-07-28T00:35:46.000Z</time></trkpt>
        <trkpt lat="29.56654" lon="103.389806"><ele>743.1785</ele><time>2026-07-28T00:35:51.000Z</time></trkpt>
        <trkpt lat="29.566585" lon="103.389847"><ele>743.14545</ele><time>2026-07-28T00:35:57.000Z</time></trkpt>
        <trkpt lat="29.566621" lon="103.389886"><ele>744.81793</ele><time>2026-07-28T00:36:02.000Z</time></trkpt>
        <trkpt lat="29.566674" lon="103.38991"><ele>746.1936</ele><time>2026-07-28T00:36:07.000Z</time></trkpt>
        <trkpt lat="29.566701" lon="103.389955"><ele>746.31494</ele><time>2026-07-28T00:36:12.000Z</time></trkpt>
        <trkpt lat="29.566731" lon="103.390006"><ele>747.97314</ele><time>2026-07-28T00:36:19.000Z</time></trkpt>
        <trkpt lat="29.566763" lon="103.390047"><ele>747.93225</ele><time>2026-07-28T00:36:24.000Z</time></trkpt>
        <trkpt lat="29.566811" lon="103.390053"><ele>752.56616</ele><time>2026-07-28T00:36:30.000Z</time></trkpt>
        <trkpt lat="29.56684" lon="103.390105"><ele>759.05365</ele><time>2026-07-28T00:36:40.000Z</time></trkpt>
        <trkpt lat="29.566867" lon="103.390062"><ele>760.9889</ele><time>2026-07-28T00:36:44.000Z</time></trkpt>
        <trkpt lat="29.566924" lon="103.390059"><ele>765.4685</ele><time>2026-07-28T00:36:50.000Z</time></trkpt>
        <trkpt lat="29.56697" lon="103.390054"><ele>769.81366</ele><time>2026-07-28T00:36:59.000Z</time></trkpt>
        <trkpt lat="29.566992" lon="103.390115"><ele>769.74005</ele><time>2026-07-28T00:37:04.000Z</time></trkpt>
        <trkpt lat="29.567029" lon="103.390153"><ele>768.63306</ele><time>2026-07-28T00:37:08.000Z</time></trkpt>
        <trkpt lat="29.567048" lon="103.390211"><ele>768.91736</ele><time>2026-07-28T00:37:12.000Z</time></trkpt>
        <trkpt lat="29.567089" lon="103.390243"><ele>769.33966</ele><time>2026-07-28T00:37:17.000Z</time></trkpt>
        <trkpt lat="29.567135" lon="103.390249"><ele>769.3529</ele><time>2026-07-28T00:37:22.000Z</time></trkpt>
        <trkpt lat="29.567177" lon="103.39027"><ele>769.0092</ele><time>2026-07-28T00:37:25.000Z</time></trkpt>
        <trkpt lat="29.567224" lon="103.390274"><ele>770.47876</ele><time>2026-07-28T00:37:32.000Z</time></trkpt>
        <trkpt lat="29.567257" lon="103.390236"><ele>773.49927</ele><time>2026-07-28T00:37:47.000Z</time></trkpt>
        <trkpt lat="29.56731" lon="103.390217"><ele>773.8843</ele><time>2026-07-28T00:37:53.000Z</time></trkpt>
        <trkpt lat="29.56732" lon="103.390277"><ele>772.82086</ele><time>2026-07-28T00:38:00.000Z</time></trkpt>
        <trkpt lat="29.56734" lon="103.390343"><ele>773.10504</ele><time>2026-07-28T00:38:05.000Z</time></trkpt>
        <trkpt lat="29.567389" lon="103.39035"><ele>772.5709</ele><time>2026-07-28T00:38:10.000Z</time></trkpt>
        <trkpt lat="29.567442" lon="103.390362"><ele>771.64636</ele><time>2026-07-28T00:38:19.000Z</time></trkpt>
        <trkpt lat="29.567452" lon="103.390307"><ele>770.6878</ele><time>2026-07-28T00:38:26.000Z</time></trkpt>
        <trkpt lat="29.567446" lon="103.390387"><ele>770.61224</ele><time>2026-07-28T00:38:28.000Z</time></trkpt>
        <trkpt lat="29.567479" lon="103.390434"><ele>769.4493</ele><time>2026-07-28T00:38:33.000Z</time></trkpt>
        <trkpt lat="29.567526" lon="103.39047"><ele>767.6259</ele><time>2026-07-28T00:38:36.000Z</time></trkpt>
        <trkpt lat="29.567539" lon="103.390537"><ele>766.8372</ele><time>2026-07-28T00:38:42.000Z</time></trkpt>
        <trkpt lat="29.567535" lon="103.390589"><ele>765.8566</ele><time>2026-07-28T00:38:46.000Z</time></trkpt>
        <trkpt lat="29.567585" lon="103.390575"><ele>763.90564</ele><time>2026-07-28T00:38:50.000Z</time></trkpt>
        <trkpt lat="29.567632" lon="103.390604"><ele>765.6956</ele><time>2026-07-28T00:38:54.000Z</time></trkpt>
        <trkpt lat="29.567692" lon="103.390604"><ele>766.4196</ele><time>2026-07-28T00:38:58.000Z</time></trkpt>
        <trkpt lat="29.567737" lon="103.390614"><ele>765.53046</ele><time>2026-07-28T00:39:04.000Z</time></trkpt>
        <trkpt lat="29.567775" lon="103.390643"><ele>766.5913</ele><time>2026-07-28T00:39:09.000Z</time></trkpt>
        <trkpt lat="29.567829" lon="103.390655"><ele>767.0178</ele><time>2026-07-28T00:39:15.000Z</time></trkpt>
        <trkpt lat="29.567852" lon="103.390711"><ele>765.66406</ele><time>2026-07-28T00:39:20.000Z</time></trkpt>
        <trkpt lat="29.5679" lon="103.39073"><ele>765.229</ele><time>2026-07-28T00:39:23.000Z</time></trkpt>
        <trkpt lat="29.567945" lon="103.390725"><ele>764.88727</ele><time>2026-07-28T00:39:26.000Z</time></trkpt>
        <trkpt lat="29.568003" lon="103.390745"><ele>764.2933</ele><time>2026-07-28T00:39:31.000Z</time></trkpt>
        <trkpt lat="29.567999" lon="103.390798"><ele>762.40955</ele><time>2026-07-28T00:39:40.000Z</time></trkpt>
        <trkpt lat="29.568042" lon="103.390777"><ele>764.5253</ele><time>2026-07-28T00:39:50.000Z</time></trkpt>
        <trkpt lat="29.568093" lon="103.390773"><ele>765.8191</ele><time>2026-07-28T00:39:56.000Z</time></trkpt>
        <trkpt lat="29.568139" lon="103.390785"><ele>766.6543</ele><time>2026-07-28T00:40:01.000Z</time></trkpt>
        <trkpt lat="29.568187" lon="103.390779"><ele>767.1032</ele><time>2026-07-28T00:40:10.000Z</time></trkpt>
        <trkpt lat="29.568235" lon="103.390812"><ele>767.3091</ele><time>2026-07-28T00:40:20.000Z</time></trkpt>
        <trkpt lat="29.568275" lon="103.390844"><ele>766.0776</ele><time>2026-07-28T00:40:28.000Z</time></trkpt>
        <trkpt lat="29.56832" lon="103.390826"><ele>763.20917</ele><time>2026-07-28T00:40:36.000Z</time></trkpt>
        <trkpt lat="29.568357" lon="103.390861"><ele>760.4336</ele><time>2026-07-28T00:40:42.000Z</time></trkpt>
        <trkpt lat="29.568402" lon="103.390846"><ele>759.89355</ele><time>2026-07-28T00:40:50.000Z</time></trkpt>
        <trkpt lat="29.568451" lon="103.390855"><ele>762.9696</ele><time>2026-07-28T00:40:57.000Z</time></trkpt>
        <trkpt lat="29.568493" lon="103.390879"><ele>765.237</ele><time>2026-07-28T00:41:01.000Z</time></trkpt>
        <trkpt lat="29.56854" lon="103.390907"><ele>765.52435</ele><time>2026-07-28T00:41:06.000Z</time></trkpt>
        <trkpt lat="29.568589" lon="103.390934"><ele>765.81104</ele><time>2026-07-28T00:41:10.000Z</time></trkpt>
        <trkpt lat="29.568634" lon="103.390969"><ele>765.8632</ele><time>2026-07-28T00:41:15.000Z</time></trkpt>
        <trkpt lat="29.56869" lon="103.39095"><ele>765.74884</ele><time>2026-07-28T00:41:18.000Z</time></trkpt>
        <trkpt lat="29.568734" lon="103.390971"><ele>765.7101</ele><time>2026-07-28T00:41:22.000Z</time></trkpt>
        <trkpt lat="29.568761" lon="103.391018"><ele>766.072</ele><time>2026-07-28T00:41:25.000Z</time></trkpt>
        <trkpt lat="29.568797" lon="103.391057"><ele>765.946</ele><time>2026-07-28T00:41:28.000Z</time></trkpt>
        <trkpt lat="29.56882" lon="103.391105"><ele>766.71423</ele><time>2026-07-28T00:41:31.000Z</time></trkpt>
        <trkpt lat="29.568864" lon="103.391136"><ele>766.3212</ele><time>2026-07-28T00:41:34.000Z</time></trkpt>
        <trkpt lat="29.568907" lon="103.391158"><ele>766.4669</ele><time>2026-07-28T00:41:38.000Z</time></trkpt>
        <trkpt lat="29.568972" lon="103.391133"><ele>766.61615</ele><time>2026-07-28T00:41:41.000Z</time></trkpt>
        <trkpt lat="29.569002" lon="103.391087"><ele>766.3632</ele><time>2026-07-28T00:41:47.000Z</time></trkpt>
        <trkpt lat="29.569053" lon="103.391054"><ele>753.6949</ele><time>2026-07-28T00:42:11.000Z</time></trkpt>
        <trkpt lat="29.569099" lon="103.391043"><ele>748.659</ele><time>2026-07-28T00:42:15.000Z</time></trkpt>
        <trkpt lat="29.569144" lon="103.391031"><ele>736.29877</ele><time>2026-07-28T00:42:22.000Z</time></trkpt>
        <trkpt lat="29.569189" lon="103.391012"><ele>732.4902</ele><time>2026-07-28T00:42:26.000Z</time></trkpt>
        <trkpt lat="29.569232" lon="103.390992"><ele>730.57605</ele><time>2026-07-28T00:42:31.000Z</time></trkpt>
        <trkpt lat="29.569285" lon="103.390989"><ele>728.2452</ele><time>2026-07-28T00:42:36.000Z</time></trkpt>
        <trkpt lat="29.569323" lon="103.391025"><ele>727.8946</ele><time>2026-07-28T00:42:42.000Z</time></trkpt>
        <trkpt lat="29.569367" lon="103.39105"><ele>728.83295</ele><time>2026-07-28T00:42:45.000Z</time></trkpt>
        <trkpt lat="29.569415" lon="103.391049"><ele>728.49005</ele><time>2026-07-28T00:42:48.000Z</time></trkpt>
        <trkpt lat="29.569451" lon="103.391018"><ele>730.111</ele><time>2026-07-28T00:42:52.000Z</time></trkpt>
        <trkpt lat="29.569502" lon="103.391002"><ele>730.70233</ele><time>2026-07-28T00:42:57.000Z</time></trkpt>
        <trkpt lat="29.56955" lon="103.39099"><ele>732.3072</ele><time>2026-07-28T00:43:00.000Z</time></trkpt>
        <trkpt lat="29.5696" lon="103.391004"><ele>735.1972</ele><time>2026-07-28T00:43:05.000Z</time></trkpt>
        <trkpt lat="29.569621" lon="103.39106"><ele>736.85974</ele><time>2026-07-28T00:43:12.000Z</time></trkpt>
        <trkpt lat="29.569667" lon="103.391077"><ele>739.8141</ele><time>2026-07-28T00:43:22.000Z</time></trkpt>
        <trkpt lat="29.569719" lon="103.391074"><ele>740.3044</ele><time>2026-07-28T00:43:27.000Z</time></trkpt>
        <trkpt lat="29.569769" lon="103.39107"><ele>739.53217</ele><time>2026-07-28T00:43:34.000Z</time></trkpt>
        <trkpt lat="29.569806" lon="103.391108"><ele>739.5491</ele><time>2026-07-28T00:43:38.000Z</time></trkpt>
        <trkpt lat="29.569859" lon="103.391123"><ele>740.9861</ele><time>2026-07-28T00:43:46.000Z</time></trkpt>
        <trkpt lat="29.569913" lon="103.391134"><ele>740.64294</ele><time>2026-07-28T00:43:54.000Z</time></trkpt>
        <trkpt lat="29.569954" lon="103.391171"><ele>738.96484</ele><time>2026-07-28T00:43:59.000Z</time></trkpt>
        <trkpt lat="29.57" lon="103.391192"><ele>736.41565</ele><time>2026-07-28T00:44:08.000Z</time></trkpt>
        <trkpt lat="29.570048" lon="103.391226"><ele>733.77167</ele><time>2026-07-28T00:44:17.000Z</time></trkpt>
        <trkpt lat="29.570091" lon="103.391248"><ele>733.406</ele><time>2026-07-28T00:44:22.000Z</time></trkpt>
        <trkpt lat="29.570135" lon="103.391235"><ele>734.85736</ele><time>2026-07-28T00:44:26.000Z</time></trkpt>
        <trkpt lat="29.570189" lon="103.391196"><ele>735.345</ele><time>2026-07-28T00:44:31.000Z</time></trkpt>
        <trkpt lat="29.570234" lon="103.391189"><ele>735.4276</ele><time>2026-07-28T00:44:34.000Z</time></trkpt>
        <trkpt lat="29.570276" lon="103.391209"><ele>735.86475</ele><time>2026-07-28T00:44:39.000Z</time></trkpt>
        <trkpt lat="29.570324" lon="103.391202"><ele>736.2029</ele><time>2026-07-28T00:44:43.000Z</time></trkpt>
        <trkpt lat="29.570361" lon="103.391238"><ele>736.75183</ele><time>2026-07-28T00:44:48.000Z</time></trkpt>
        <trkpt lat="29.570393" lon="103.391275"><ele>736.78577</ele><time>2026-07-28T00:44:52.000Z</time></trkpt>
        <trkpt lat="29.570423" lon="103.391315"><ele>737.0291</ele><time>2026-07-28T00:44:57.000Z</time></trkpt>
        <trkpt lat="29.570472" lon="103.391351"><ele>736.8217</ele><time>2026-07-28T00:45:02.000Z</time></trkpt>
        <trkpt lat="29.570517" lon="103.391363"><ele>737.20685</ele><time>2026-07-28T00:45:06.000Z</time></trkpt>
        <trkpt lat="29.570532" lon="103.391418"><ele>736.6005</ele><time>2026-07-28T00:45:09.000Z</time></trkpt>
        <trkpt lat="29.570539" lon="103.391481"><ele>735.66003</ele><time>2026-07-28T00:45:11.000Z</time></trkpt>
        <trkpt lat="29.57055" lon="103.391546"><ele>735.30884</ele><time>2026-07-28T00:45:14.000Z</time></trkpt>
        <trkpt lat="29.570594" lon="103.391558"><ele>732.127</ele><time>2026-07-28T00:45:17.000Z</time></trkpt>
        <trkpt lat="29.570622" lon="103.391613"><ele>727.50006</ele><time>2026-07-28T00:45:22.000Z</time></trkpt>
        <trkpt lat="29.570672" lon="103.39162"><ele>724.7535</ele><time>2026-07-28T00:45:27.000Z</time></trkpt>
        <trkpt lat="29.570724" lon="103.391603"><ele>722.6802</ele><time>2026-07-28T00:45:32.000Z</time></trkpt>
        <trkpt lat="29.570773" lon="103.391599"><ele>721.5594</ele><time>2026-07-28T00:45:40.000Z</time></trkpt>
        <trkpt lat="29.57082" lon="103.391599"><ele>722.8042</ele><time>2026-07-28T00:45:47.000Z</time></trkpt>
        <trkpt lat="29.570852" lon="103.391644"><ele>724.9389</ele><time>2026-07-28T00:46:00.000Z</time></trkpt>
        <trkpt lat="29.570908" lon="103.391645"><ele>724.1542</ele><time>2026-07-28T00:46:11.000Z</time></trkpt>
        <trkpt lat="29.570964" lon="103.391654"><ele>722.8031</ele><time>2026-07-28T00:46:15.000Z</time></trkpt>
        <trkpt lat="29.571021" lon="103.391659"><ele>721.182</ele><time>2026-07-28T00:46:20.000Z</time></trkpt>
        <trkpt lat="29.571066" lon="103.391679"><ele>720.53406</ele><time>2026-07-28T00:46:27.000Z</time></trkpt>
        <trkpt lat="29.571114" lon="103.39171"><ele>721.5515</ele><time>2026-07-28T00:46:34.000Z</time></trkpt>
        <trkpt lat="29.571161" lon="103.391744"><ele>720.69806</ele><time>2026-07-28T00:46:39.000Z</time></trkpt>
        <trkpt lat="29.571215" lon="103.391765"><ele>719.2141</ele><time>2026-07-28T00:46:43.000Z</time></trkpt>
        <trkpt lat="29.571278" lon="103.391758"><ele>718.8697</ele><time>2026-07-28T00:46:48.000Z</time></trkpt>
        <trkpt lat="29.571327" lon="103.391757"><ele>718.15454</ele><time>2026-07-28T00:46:52.000Z</time></trkpt>
        <trkpt lat="29.57137" lon="103.391739"><ele>717.80756</ele><time>2026-07-28T00:46:56.000Z</time></trkpt>
        <trkpt lat="29.57142" lon="103.391729"><ele>717.7087</ele><time>2026-07-28T00:47:01.000Z</time></trkpt>
        <trkpt lat="29.571469" lon="103.391704"><ele>717.2587</ele><time>2026-07-28T00:47:06.000Z</time></trkpt>
        <trkpt lat="29.571516" lon="103.391705"><ele>716.4882</ele><time>2026-07-28T00:47:10.000Z</time></trkpt>
        <trkpt lat="29.571571" lon="103.391698"><ele>715.6504</ele><time>2026-07-28T00:47:15.000Z</time></trkpt>
        <trkpt lat="29.571625" lon="103.391685"><ele>715.2003</ele><time>2026-07-28T00:47:21.000Z</time></trkpt>
        <trkpt lat="29.571673" lon="103.391679"><ele>715.7275</ele><time>2026-07-28T00:47:26.000Z</time></trkpt>
        <trkpt lat="29.57172" lon="103.391679"><ele>715.6807</ele><time>2026-07-28T00:47:31.000Z</time></trkpt>
        <trkpt lat="29.571768" lon="103.391698"><ele>716.6312</ele><time>2026-07-28T00:47:35.000Z</time></trkpt>
        <trkpt lat="29.571814" lon="103.391717"><ele>718.2591</ele><time>2026-07-28T00:47:39.000Z</time></trkpt>
        <trkpt lat="29.571853" lon="103.391747"><ele>719.90753</ele><time>2026-07-28T00:47:47.000Z</time></trkpt>
        <trkpt lat="29.571902" lon="103.39175"><ele>720.22253</ele><time>2026-07-28T00:47:53.000Z</time></trkpt>
        <trkpt lat="29.571942" lon="103.391722"><ele>720.3886</ele><time>2026-07-28T00:47:57.000Z</time></trkpt>
        <trkpt lat="29.571988" lon="103.391718"><ele>721.52856</ele><time>2026-07-28T00:48:02.000Z</time></trkpt>
        <trkpt lat="29.572035" lon="103.391727"><ele>722.36847</ele><time>2026-07-28T00:48:08.000Z</time></trkpt>
        <trkpt lat="29.572079" lon="103.391745"><ele>722.1848</ele><time>2026-07-28T00:48:12.000Z</time></trkpt>
        <trkpt lat="29.572128" lon="103.391737"><ele>723.0651</ele><time>2026-07-28T00:48:18.000Z</time></trkpt>
        <trkpt lat="29.572184" lon="103.391752"><ele>723.9401</ele><time>2026-07-28T00:48:25.000Z</time></trkpt>
        <trkpt lat="29.572231" lon="103.391764"><ele>723.58575</ele><time>2026-07-28T00:48:31.000Z</time></trkpt>
        <trkpt lat="29.572288" lon="103.391785"><ele>723.5543</ele><time>2026-07-28T00:48:36.000Z</time></trkpt>
        <trkpt lat="29.572332" lon="103.391802"><ele>723.4989</ele><time>2026-07-28T00:48:40.000Z</time></trkpt>
        <trkpt lat="29.572383" lon="103.391804"><ele>722.8536</ele><time>2026-07-28T00:48:44.000Z</time></trkpt>
        <trkpt lat="29.572434" lon="103.391819"><ele>722.4332</ele><time>2026-07-28T00:48:50.000Z</time></trkpt>
        <trkpt lat="29.57246" lon="103.391862"><ele>722.03625</ele><time>2026-07-28T00:48:57.000Z</time></trkpt>
        <trkpt lat="29.572505" lon="103.391896"><ele>723.00476</ele><time>2026-07-28T00:49:01.000Z</time></trkpt>
        <trkpt lat="29.572556" lon="103.391914"><ele>722.7012</ele><time>2026-07-28T00:49:04.000Z</time></trkpt>
        <trkpt lat="29.572605" lon="103.391918"><ele>722.6996</ele><time>2026-07-28T00:49:08.000Z</time></trkpt>
        <trkpt lat="29.572639" lon="103.391878"><ele>722.9521</ele><time>2026-07-28T00:49:17.000Z</time></trkpt>
        <trkpt lat="29.572684" lon="103.39186"><ele>723.1276</ele><time>2026-07-28T00:49:24.000Z</time></trkpt>
        <trkpt lat="29.57273" lon="103.391885"><ele>722.1336</ele><time>2026-07-28T00:49:30.000Z</time></trkpt>
        <trkpt lat="29.572768" lon="103.391921"><ele>722.14813</ele><time>2026-07-28T00:49:36.000Z</time></trkpt>
        <trkpt lat="29.572809" lon="103.391899"><ele>721.6689</ele><time>2026-07-28T00:49:41.000Z</time></trkpt>
        <trkpt lat="29.572862" lon="103.3919"><ele>719.7859</ele><time>2026-07-28T00:49:46.000Z</time></trkpt>
        <trkpt lat="29.572917" lon="103.391898"><ele>719.8349</ele><time>2026-07-28T00:49:50.000Z</time></trkpt>
        <trkpt lat="29.57296" lon="103.391876"><ele>720.7313</ele><time>2026-07-28T00:49:54.000Z</time></trkpt>
        <trkpt lat="29.573014" lon="103.391858"><ele>720.1945</ele><time>2026-07-28T00:49:59.000Z</time></trkpt>
        <trkpt lat="29.573059" lon="103.39183"><ele>720.8344</ele><time>2026-07-28T00:50:04.000Z</time></trkpt>
        <trkpt lat="29.57309" lon="103.391784"><ele>721.542</ele><time>2026-07-28T00:50:08.000Z</time></trkpt>
        <trkpt lat="29.573132" lon="103.391759"><ele>720.7131</ele><time>2026-07-28T00:50:13.000Z</time></trkpt>
        <trkpt lat="29.573181" lon="103.391797"><ele>720.3892</ele><time>2026-07-28T00:50:17.000Z</time></trkpt>
        <trkpt lat="29.573235" lon="103.391805"><ele>719.4294</ele><time>2026-07-28T00:50:23.000Z</time></trkpt>
        <trkpt lat="29.573285" lon="103.391816"><ele>717.8145</ele><time>2026-07-28T00:50:29.000Z</time></trkpt>
        <trkpt lat="29.573335" lon="103.391831"><ele>717.96423</ele><time>2026-07-28T00:50:33.000Z</time></trkpt>
        <trkpt lat="29.573381" lon="103.391853"><ele>717.3265</ele><time>2026-07-28T00:50:39.000Z</time></trkpt>
        <trkpt lat="29.57343" lon="103.391856"><ele>718.0793</ele><time>2026-07-28T00:50:43.000Z</time></trkpt>
        <trkpt lat="29.573476" lon="103.391873"><ele>719.1541</ele><time>2026-07-28T00:50:47.000Z</time></trkpt>
        <trkpt lat="29.573526" lon="103.391869"><ele>719.4059</ele><time>2026-07-28T00:50:55.000Z</time></trkpt>
        <trkpt lat="29.573527" lon="103.391921"><ele>722.9744</ele><time>2026-07-28T00:51:09.000Z</time></trkpt>
        <trkpt lat="29.573578" lon="103.39191"><ele>716.76697</ele><time>2026-07-28T00:51:22.000Z</time></trkpt>
        <trkpt lat="29.573538" lon="103.391946"><ele>717.82947</ele><time>2026-07-28T00:51:47.000Z</time></trkpt>
        <trkpt lat="29.573511" lon="103.391989"><ele>715.6736</ele><time>2026-07-28T00:51:58.000Z</time></trkpt>
        <trkpt lat="29.573528" lon="103.391938"><ele>716.83844</ele><time>2026-07-28T00:52:02.000Z</time></trkpt>
        <trkpt lat="29.573597" lon="103.391891"><ele>715.08307</ele><time>2026-07-28T00:52:08.000Z</time></trkpt>
        <trkpt lat="29.573645" lon="103.391887"><ele>711.1155</ele><time>2026-07-28T00:52:55.000Z</time></trkpt>
        <trkpt lat="29.573599" lon="103.391915"><ele>712.7227</ele><time>2026-07-28T00:53:00.000Z</time></trkpt>
        <trkpt lat="29.573568" lon="103.391953"><ele>716.45</ele><time>2026-07-28T00:53:05.000Z</time></trkpt>
        <trkpt lat="29.573555" lon="103.392014"><ele>715.7663</ele><time>2026-07-28T00:53:10.000Z</time></trkpt>
        <trkpt lat="29.573621" lon="103.391981"><ele>712.4502</ele><time>2026-07-28T00:53:17.000Z</time></trkpt>
        <trkpt lat="29.573652" lon="103.391944"><ele>709.5485</ele><time>2026-07-28T00:53:29.000Z</time></trkpt>
        <trkpt lat="29.573688" lon="103.391985"><ele>709.111</ele><time>2026-07-28T00:53:36.000Z</time></trkpt>
        <trkpt lat="29.57372" lon="103.392024"><ele>709.4415</ele><time>2026-07-28T00:53:42.000Z</time></trkpt>
        <trkpt lat="29.573765" lon="103.392054"><ele>709.2175</ele><time>2026-07-28T00:53:48.000Z</time></trkpt>
        <trkpt lat="29.573812" lon="103.392082"><ele>708.86884</ele><time>2026-07-28T00:53:53.000Z</time></trkpt>
        <trkpt lat="29.57385" lon="103.39211"><ele>710.01807</ele><time>2026-07-28T00:53:59.000Z</time></trkpt>
        <trkpt lat="29.573877" lon="103.392153"><ele>709.217</ele><time>2026-07-28T00:54:03.000Z</time></trkpt>
        <trkpt lat="29.573922" lon="103.392169"><ele>708.93823</ele><time>2026-07-28T00:54:08.000Z</time></trkpt>
        <trkpt lat="29.573965" lon="103.392151"><ele>708.6911</ele><time>2026-07-28T00:54:15.000Z</time></trkpt>
        <trkpt lat="29.574014" lon="103.392142"><ele>709.935</ele><time>2026-07-28T00:54:26.000Z</time></trkpt>
        <trkpt lat="29.574054" lon="103.392115"><ele>708.6452</ele><time>2026-07-28T00:54:30.000Z</time></trkpt>
        <trkpt lat="29.574093" lon="103.392087"><ele>704.8807</ele><time>2026-07-28T00:54:36.000Z</time></trkpt>
        <trkpt lat="29.574122" lon="103.392036"><ele>699.0117</ele><time>2026-07-28T00:55:01.000Z</time></trkpt>
        <trkpt lat="29.574142" lon="103.39198"><ele>700.19104</ele><time>2026-07-28T00:55:07.000Z</time></trkpt>
        <trkpt lat="29.574097" lon="103.391968"><ele>702.14215</ele><time>2026-07-28T00:55:29.000Z</time></trkpt>
        <trkpt lat="29.574137" lon="103.391932"><ele>702.0103</ele><time>2026-07-28T00:56:14.000Z</time></trkpt>
        <trkpt lat="29.574171" lon="103.391884"><ele>701.8187</ele><time>2026-07-28T00:56:25.000Z</time></trkpt>
        <trkpt lat="29.574141" lon="103.391936"><ele>699.43225</ele><time>2026-07-28T00:56:54.000Z</time></trkpt>
        <trkpt lat="29.574127" lon="103.391996"><ele>702.1047</ele><time>2026-07-28T01:01:29.000Z</time></trkpt>
        <trkpt lat="29.574137" lon="103.392065"><ele>701.1101</ele><time>2026-07-28T01:01:33.000Z</time></trkpt>
        <trkpt lat="29.574173" lon="103.392112"><ele>698.5382</ele><time>2026-07-28T01:01:55.000Z</time></trkpt>
        <trkpt lat="29.574207" lon="103.39217"><ele>697.1263</ele><time>2026-07-28T01:02:02.000Z</time></trkpt>
        <trkpt lat="29.574238" lon="103.39221"><ele>696.8867</ele><time>2026-07-28T01:02:10.000Z</time></trkpt>
        <trkpt lat="29.574247" lon="103.392274"><ele>696.3139</ele><time>2026-07-28T01:02:13.000Z</time></trkpt>
        <trkpt lat="29.574256" lon="103.392326"><ele>696.5791</ele><time>2026-07-28T01:02:15.000Z</time></trkpt>
        <trkpt lat="29.57431" lon="103.392288"><ele>696.0539</ele><time>2026-07-28T01:02:18.000Z</time></trkpt>
        <trkpt lat="29.574335" lon="103.392243"><ele>696.9008</ele><time>2026-07-28T01:02:23.000Z</time></trkpt>
        <trkpt lat="29.574387" lon="103.392205"><ele>697.43475</ele><time>2026-07-28T01:02:26.000Z</time></trkpt>
        <trkpt lat="29.574427" lon="103.392159"><ele>697.3876</ele><time>2026-07-28T01:02:31.000Z</time></trkpt>
        <trkpt lat="29.57447" lon="103.392116"><ele>698.9766</ele><time>2026-07-28T01:02:36.000Z</time></trkpt>
        <trkpt lat="29.574507" lon="103.392147"><ele>705.60016</ele><time>2026-07-28T01:02:48.000Z</time></trkpt>
        <trkpt lat="29.574559" lon="103.392173"><ele>707.5663</ele><time>2026-07-28T01:02:53.000Z</time></trkpt>
        <trkpt lat="29.574606" lon="103.392195"><ele>709.6514</ele><time>2026-07-28T01:03:00.000Z</time></trkpt>
        <trkpt lat="29.574658" lon="103.392192"><ele>711.3542</ele><time>2026-07-28T01:03:07.000Z</time></trkpt>
        <trkpt lat="29.574706" lon="103.392175"><ele>709.8086</ele><time>2026-07-28T01:03:12.000Z</time></trkpt>
        <trkpt lat="29.574758" lon="103.392176"><ele>711.7744</ele><time>2026-07-28T01:03:21.000Z</time></trkpt>
        <trkpt lat="29.574805" lon="103.392176"><ele>714.05725</ele><time>2026-07-28T01:03:30.000Z</time></trkpt>
        <trkpt lat="29.574861" lon="103.392168"><ele>714.3437</ele><time>2026-07-28T01:03:41.000Z</time></trkpt>
        <trkpt lat="29.574911" lon="103.392167"><ele>715.0133</ele><time>2026-07-28T01:03:48.000Z</time></trkpt>
        <trkpt lat="29.574951" lon="103.392138"><ele>717.6698</ele><time>2026-07-28T01:03:57.000Z</time></trkpt>
        <trkpt lat="29.575005" lon="103.392117"><ele>719.8927</ele><time>2026-07-28T01:04:06.000Z</time></trkpt>
        <trkpt lat="29.575048" lon="103.392095"><ele>718.6353</ele><time>2026-07-28T01:04:13.000Z</time></trkpt>
        <trkpt lat="29.575091" lon="103.392074"><ele>721.2243</ele><time>2026-07-28T01:04:25.000Z</time></trkpt>
        <trkpt lat="29.575129" lon="103.392044"><ele>722.5411</ele><time>2026-07-28T01:04:32.000Z</time></trkpt>
        <trkpt lat="29.575178" lon="103.392039"><ele>726.20685</ele><time>2026-07-28T01:04:40.000Z</time></trkpt>
        <trkpt lat="29.575225" lon="103.392025"><ele>725.95514</ele><time>2026-07-28T01:04:48.000Z</time></trkpt>
        <trkpt lat="29.575266" lon="103.391993"><ele>727.44293</ele><time>2026-07-28T01:04:57.000Z</time></trkpt>
        <trkpt lat="29.575305" lon="103.391965"><ele>728.4091</ele><time>2026-07-28T01:05:04.000Z</time></trkpt>
        <trkpt lat="29.57534" lon="103.391931"><ele>727.4392</ele><time>2026-07-28T01:05:11.000Z</time></trkpt>
        <trkpt lat="29.57538" lon="103.391901"><ele>729.2441</ele><time>2026-07-28T01:05:21.000Z</time></trkpt>
        <trkpt lat="29.575425" lon="103.391901"><ele>731.3118</ele><time>2026-07-28T01:05:32.000Z</time></trkpt>
        <trkpt lat="29.575476" lon="103.391893"><ele>734.07764</ele><time>2026-07-28T01:05:42.000Z</time></trkpt>
        <trkpt lat="29.575528" lon="103.391901"><ele>736.5121</ele><time>2026-07-28T01:05:52.000Z</time></trkpt>
        <trkpt lat="29.575581" lon="103.391921"><ele>736.93896</ele><time>2026-07-28T01:06:02.000Z</time></trkpt>
        <trkpt lat="29.575627" lon="103.391924"><ele>739.70483</ele><time>2026-07-28T01:06:11.000Z</time></trkpt>
        <trkpt lat="29.575672" lon="103.391939"><ele>741.4985</ele><time>2026-07-28T01:06:20.000Z</time></trkpt>
        <trkpt lat="29.575715" lon="103.39196"><ele>743.6906</ele><time>2026-07-28T01:06:28.000Z</time></trkpt>
        <trkpt lat="29.575764" lon="103.391977"><ele>743.6838</ele><time>2026-07-28T01:06:40.000Z</time></trkpt>
        <trkpt lat="29.575809" lon="103.391966"><ele>744.77454</ele><time>2026-07-28T01:06:49.000Z</time></trkpt>
        <trkpt lat="29.575845" lon="103.391927"><ele>747.3332</ele><time>2026-07-28T01:07:00.000Z</time></trkpt>
        <trkpt lat="29.575888" lon="103.391902"><ele>750.2013</ele><time>2026-07-28T01:07:11.000Z</time></trkpt>
        <trkpt lat="29.575937" lon="103.391894"><ele>751.2759</ele><time>2026-07-28T01:07:19.000Z</time></trkpt>
        <trkpt lat="29.575989" lon="103.391902"><ele>753.55914</ele><time>2026-07-28T01:07:25.000Z</time></trkpt>
        <trkpt lat="29.576032" lon="103.39192"><ele>753.3977</ele><time>2026-07-28T01:07:31.000Z</time></trkpt>
        <trkpt lat="29.57608" lon="103.391935"><ele>753.2205</ele><time>2026-07-28T01:07:36.000Z</time></trkpt>
        <trkpt lat="29.576127" lon="103.391957"><ele>753.9417</ele><time>2026-07-28T01:07:44.000Z</time></trkpt>
        <trkpt lat="29.576172" lon="103.391967"><ele>755.51404</ele><time>2026-07-28T01:07:51.000Z</time></trkpt>
        <trkpt lat="29.576215" lon="103.391988"><ele>758.29474</ele><time>2026-07-28T01:07:59.000Z</time></trkpt>
        <trkpt lat="29.576264" lon="103.392003"><ele>758.92456</ele><time>2026-07-28T01:08:07.000Z</time></trkpt>
        <trkpt lat="29.576312" lon="103.392"><ele>761.4648</ele><time>2026-07-28T01:08:17.000Z</time></trkpt>
        <trkpt lat="29.576367" lon="103.392003"><ele>763.88403</ele><time>2026-07-28T01:08:27.000Z</time></trkpt>
        <trkpt lat="29.576419" lon="103.392006"><ele>766.19574</ele><time>2026-07-28T01:08:37.000Z</time></trkpt>
        <trkpt lat="29.576465" lon="103.391993"><ele>764.90784</ele><time>2026-07-28T01:08:42.000Z</time></trkpt>
        <trkpt lat="29.57651" lon="103.391975"><ele>763.57526</ele><time>2026-07-28T01:08:52.000Z</time></trkpt>
        <trkpt lat="29.576556" lon="103.39197"><ele>763.4247</ele><time>2026-07-28T01:09:00.000Z</time></trkpt>
        <trkpt lat="29.576605" lon="103.391952"><ele>764.16406</ele><time>2026-07-28T01:09:04.000Z</time></trkpt>
        <trkpt lat="29.576653" lon="103.391938"><ele>765.7928</ele><time>2026-07-28T01:09:11.000Z</time></trkpt>
        <trkpt lat="29.576709" lon="103.391934"><ele>768.827</ele><time>2026-07-28T01:09:15.000Z</time></trkpt>
        <trkpt lat="29.576748" lon="103.391902"><ele>770.48236</ele><time>2026-07-28T01:09:21.000Z</time></trkpt>
        <trkpt lat="29.576791" lon="103.391878"><ele>772.0784</ele><time>2026-07-28T01:09:25.000Z</time></trkpt>
        <trkpt lat="29.576823" lon="103.391841"><ele>773.9987</ele><time>2026-07-28T01:09:29.000Z</time></trkpt>
        <trkpt lat="29.576858" lon="103.391803"><ele>775.6188</ele><time>2026-07-28T01:09:34.000Z</time></trkpt>
        <trkpt lat="29.576881" lon="103.391747"><ele>776.51196</ele><time>2026-07-28T01:09:41.000Z</time></trkpt>
        <trkpt lat="29.576884" lon="103.391688"><ele>774.3376</ele><time>2026-07-28T01:09:46.000Z</time></trkpt>
        <trkpt lat="29.576893" lon="103.391631"><ele>772.56116</ele><time>2026-07-28T01:09:52.000Z</time></trkpt>
        <trkpt lat="29.576917" lon="103.39158"><ele>775.2178</ele><time>2026-07-28T01:10:00.000Z</time></trkpt>
        <trkpt lat="29.576943" lon="103.391524"><ele>776.69403</ele><time>2026-07-28T01:10:06.000Z</time></trkpt>
        <trkpt lat="29.576973" lon="103.391476"><ele>777.2527</ele><time>2026-07-28T01:10:11.000Z</time></trkpt>
        <trkpt lat="29.577007" lon="103.391427"><ele>777.3357</ele><time>2026-07-28T01:10:21.000Z</time></trkpt>
        <trkpt lat="29.577027" lon="103.391373"><ele>778.18555</ele><time>2026-07-28T01:10:28.000Z</time></trkpt>
        <trkpt lat="29.577042" lon="103.391314"><ele>778.56177</ele><time>2026-07-28T01:10:34.000Z</time></trkpt>
        <trkpt lat="29.577066" lon="103.39127"><ele>779.11694</ele><time>2026-07-28T01:10:41.000Z</time></trkpt>
        <trkpt lat="29.577096" lon="103.391224"><ele>779.5867</ele><time>2026-07-28T01:10:47.000Z</time></trkpt>
        <trkpt lat="29.577124" lon="103.391171"><ele>779.7474</ele><time>2026-07-28T01:10:51.000Z</time></trkpt>
        <trkpt lat="29.577152" lon="103.391129"><ele>781.31256</ele><time>2026-07-28T01:10:59.000Z</time></trkpt>
        <trkpt lat="29.577172" lon="103.391067"><ele>781.2078</ele><time>2026-07-28T01:11:05.000Z</time></trkpt>
        <trkpt lat="29.577198" lon="103.39102"><ele>780.53906</ele><time>2026-07-28T01:11:10.000Z</time></trkpt>
        <trkpt lat="29.577224" lon="103.390975"><ele>781.9019</ele><time>2026-07-28T01:11:16.000Z</time></trkpt>
        <trkpt lat="29.577276" lon="103.390978"><ele>784.49756</ele><time>2026-07-28T01:11:21.000Z</time></trkpt>
        <trkpt lat="29.577332" lon="103.390977"><ele>785.7285</ele><time>2026-07-28T01:11:26.000Z</time></trkpt>
        <trkpt lat="29.577386" lon="103.39098"><ele>786.2532</ele><time>2026-07-28T01:11:30.000Z</time></trkpt>
        <trkpt lat="29.57743" lon="103.390993"><ele>789.42566</ele><time>2026-07-28T01:11:39.000Z</time></trkpt>
        <trkpt lat="29.577472" lon="103.391016"><ele>786.95917</ele><time>2026-07-28T01:11:48.000Z</time></trkpt>
        <trkpt lat="29.577513" lon="103.391037"><ele>787.9821</ele><time>2026-07-28T01:11:53.000Z</time></trkpt>
        <trkpt lat="29.57756" lon="103.391062"><ele>790.08</ele><time>2026-07-28T01:12:00.000Z</time></trkpt>
        <trkpt lat="29.577606" lon="103.391067"><ele>789.9621</ele><time>2026-07-28T01:12:04.000Z</time></trkpt>
        <trkpt lat="29.577657" lon="103.39107"><ele>790.4651</ele><time>2026-07-28T01:12:11.000Z</time></trkpt>
        <trkpt lat="29.577703" lon="103.391086"><ele>793.70154</ele><time>2026-07-28T01:12:21.000Z</time></trkpt>
        <trkpt lat="29.57775" lon="103.391097"><ele>794.0595</ele><time>2026-07-28T01:12:27.000Z</time></trkpt>
        <trkpt lat="29.577801" lon="103.391109"><ele>796.6176</ele><time>2026-07-28T01:12:36.000Z</time></trkpt>
        <trkpt lat="29.577844" lon="103.391131"><ele>795.89734</ele><time>2026-07-28T01:12:44.000Z</time></trkpt>
        <trkpt lat="29.577901" lon="103.391139"><ele>799.9942</ele><time>2026-07-28T01:12:56.000Z</time></trkpt>
        <trkpt lat="29.577928" lon="103.391092"><ele>800.48944</ele><time>2026-07-28T01:13:03.000Z</time></trkpt>
        <trkpt lat="29.577945" lon="103.391036"><ele>799.43524</ele><time>2026-07-28T01:13:07.000Z</time></trkpt>
        <trkpt lat="29.577977" lon="103.390992"><ele>798.053</ele><time>2026-07-28T01:13:12.000Z</time></trkpt>
        <trkpt lat="29.578007" lon="103.390947"><ele>798.727</ele><time>2026-07-28T01:13:17.000Z</time></trkpt>
        <trkpt lat="29.578034" lon="103.390901"><ele>799.63544</ele><time>2026-07-28T01:13:21.000Z</time></trkpt>
        <trkpt lat="29.578058" lon="103.39085"><ele>801.3934</ele><time>2026-07-28T01:13:24.000Z</time></trkpt>
        <trkpt lat="29.578095" lon="103.390818"><ele>802.1331</ele><time>2026-07-28T01:13:30.000Z</time></trkpt>
        <trkpt lat="29.578125" lon="103.390772"><ele>803.15735</ele><time>2026-07-28T01:13:35.000Z</time></trkpt>
        <trkpt lat="29.578156" lon="103.390719"><ele>803.673</ele><time>2026-07-28T01:13:42.000Z</time></trkpt>
        <trkpt lat="29.578174" lon="103.390662"><ele>805.03925</ele><time>2026-07-28T01:13:49.000Z</time></trkpt>
        <trkpt lat="29.578194" lon="103.390609"><ele>805.7153</ele><time>2026-07-28T01:13:55.000Z</time></trkpt>
        <trkpt lat="29.578211" lon="103.390561"><ele>806.9612</ele><time>2026-07-28T01:14:00.000Z</time></trkpt>
        <trkpt lat="29.578232" lon="103.390508"><ele>807.4396</ele><time>2026-07-28T01:14:05.000Z</time></trkpt>
        <trkpt lat="29.578255" lon="103.39046"><ele>806.9973</ele><time>2026-07-28T01:14:10.000Z</time></trkpt>
        <trkpt lat="29.578286" lon="103.390419"><ele>805.7195</ele><time>2026-07-28T01:14:15.000Z</time></trkpt>
        <trkpt lat="29.578324" lon="103.390379"><ele>805.78625</ele><time>2026-07-28T01:14:20.000Z</time></trkpt>
        <trkpt lat="29.57834" lon="103.390322"><ele>805.06915</ele><time>2026-07-28T01:14:25.000Z</time></trkpt>
        <trkpt lat="29.578369" lon="103.390282"><ele>805.41113</ele><time>2026-07-28T01:14:30.000Z</time></trkpt>
        <trkpt lat="29.578388" lon="103.390233"><ele>804.5474</ele><time>2026-07-28T01:14:35.000Z</time></trkpt>
        <trkpt lat="29.5784" lon="103.39018"><ele>805.96906</ele><time>2026-07-28T01:14:39.000Z</time></trkpt>
        <trkpt lat="29.57843" lon="103.390132"><ele>807.01746</ele><time>2026-07-28T01:14:44.000Z</time></trkpt>
        <trkpt lat="29.578458" lon="103.390085"><ele>808.1116</ele><time>2026-07-28T01:14:51.000Z</time></trkpt>
        <trkpt lat="29.578469" lon="103.390033"><ele>808.61755</ele><time>2026-07-28T01:14:56.000Z</time></trkpt>
        <trkpt lat="29.578485" lon="103.38997"><ele>809.53357</ele><time>2026-07-28T01:15:01.000Z</time></trkpt>
        <trkpt lat="29.578492" lon="103.389912"><ele>808.5605</ele><time>2026-07-28T01:15:07.000Z</time></trkpt>
        <trkpt lat="29.578512" lon="103.389855"><ele>809.06213</ele><time>2026-07-28T01:15:14.000Z</time></trkpt>
        <trkpt lat="29.578535" lon="103.389806"><ele>808.81885</ele><time>2026-07-28T01:15:21.000Z</time></trkpt>
        <trkpt lat="29.578532" lon="103.389747"><ele>810.96014</ele><time>2026-07-28T01:15:27.000Z</time></trkpt>
        <trkpt lat="29.578531" lon="103.389681"><ele>812.0324</ele><time>2026-07-28T01:15:34.000Z</time></trkpt>
        <trkpt lat="29.578534" lon="103.389626"><ele>812.0363</ele><time>2026-07-28T01:15:39.000Z</time></trkpt>
        <trkpt lat="29.578538" lon="103.389569"><ele>811.7231</ele><time>2026-07-28T01:15:44.000Z</time></trkpt>
        <trkpt lat="29.578537" lon="103.389509"><ele>810.9696</ele><time>2026-07-28T01:15:49.000Z</time></trkpt>
        <trkpt lat="29.578536" lon="103.389449"><ele>811.3537</ele><time>2026-07-28T01:15:53.000Z</time></trkpt>
        <trkpt lat="29.578527" lon="103.389386"><ele>811.8455</ele><time>2026-07-28T01:15:58.000Z</time></trkpt>
        <trkpt lat="29.578509" lon="103.389319"><ele>813.5474</ele><time>2026-07-28T01:16:05.000Z</time></trkpt>
        <trkpt lat="29.578465" lon="103.389279"><ele>815.42444</ele><time>2026-07-28T01:16:11.000Z</time></trkpt>
        <trkpt lat="29.578433" lon="103.389239"><ele>816.40894</ele><time>2026-07-28T01:16:15.000Z</time></trkpt>
        <trkpt lat="29.578417" lon="103.389188"><ele>814.9497</ele><time>2026-07-28T01:16:21.000Z</time></trkpt>
        <trkpt lat="29.578409" lon="103.38913"><ele>812.6895</ele><time>2026-07-28T01:16:29.000Z</time></trkpt>
        <trkpt lat="29.578422" lon="103.389073"><ele>811.67847</ele><time>2026-07-28T01:16:36.000Z</time></trkpt>
        <trkpt lat="29.578434" lon="103.389016"><ele>812.6959</ele><time>2026-07-28T01:16:56.000Z</time></trkpt>
        <trkpt lat="29.578428" lon="103.388959"><ele>813.47156</ele><time>2026-07-28T01:16:59.000Z</time></trkpt>
        <trkpt lat="29.578458" lon="103.388917"><ele>812.60706</ele><time>2026-07-28T01:17:04.000Z</time></trkpt>
        <trkpt lat="29.578487" lon="103.388872"><ele>811.72546</ele><time>2026-07-28T01:17:08.000Z</time></trkpt>
        <trkpt lat="29.578537" lon="103.388844"><ele>811.8651</ele><time>2026-07-28T01:17:14.000Z</time></trkpt>
        <trkpt lat="29.578586" lon="103.388836"><ele>812.7681</ele><time>2026-07-28T01:17:18.000Z</time></trkpt>
        <trkpt lat="29.578631" lon="103.388849"><ele>812.6246</ele><time>2026-07-28T01:17:22.000Z</time></trkpt>
        <trkpt lat="29.578679" lon="103.388864"><ele>813.1322</ele><time>2026-07-28T01:17:26.000Z</time></trkpt>
        <trkpt lat="29.578725" lon="103.388849"><ele>814.0125</ele><time>2026-07-28T01:17:32.000Z</time></trkpt>
        <trkpt lat="29.578778" lon="103.388844"><ele>813.5444</ele><time>2026-07-28T01:17:36.000Z</time></trkpt>
        <trkpt lat="29.578831" lon="103.3888"><ele>813.1761</ele><time>2026-07-28T01:17:43.000Z</time></trkpt>
        <trkpt lat="29.578871" lon="103.388752"><ele>814.97046</ele><time>2026-07-28T01:17:46.000Z</time></trkpt>
        <trkpt lat="29.57891" lon="103.388712"><ele>815.6032</ele><time>2026-07-28T01:17:49.000Z</time></trkpt>
        <trkpt lat="29.578947" lon="103.388669"><ele>816.5294</ele><time>2026-07-28T01:17:55.000Z</time></trkpt>
        <trkpt lat="29.578996" lon="103.388651"><ele>817.34894</ele><time>2026-07-28T01:18:01.000Z</time></trkpt>
        <trkpt lat="29.579033" lon="103.38862"><ele>817.181</ele><time>2026-07-28T01:18:10.000Z</time></trkpt>
        <trkpt lat="29.579061" lon="103.388578"><ele>817.57794</ele><time>2026-07-28T01:18:17.000Z</time></trkpt>
        <trkpt lat="29.579059" lon="103.388525"><ele>819.05194</ele><time>2026-07-28T01:18:22.000Z</time></trkpt>
        <trkpt lat="29.579057" lon="103.388472"><ele>819.5792</ele><time>2026-07-28T01:18:26.000Z</time></trkpt>
        <trkpt lat="29.579052" lon="103.388411"><ele>819.7402</ele><time>2026-07-28T01:18:32.000Z</time></trkpt>
        <trkpt lat="29.579031" lon="103.388355"><ele>820.2353</ele><time>2026-07-28T01:18:41.000Z</time></trkpt>
        <trkpt lat="29.579049" lon="103.388302"><ele>824.3819</ele><time>2026-07-28T01:18:51.000Z</time></trkpt>
        <trkpt lat="29.579063" lon="103.388248"><ele>827.50055</ele><time>2026-07-28T01:19:03.000Z</time></trkpt>
        <trkpt lat="29.579087" lon="103.388198"><ele>829.71594</ele><time>2026-07-28T01:19:12.000Z</time></trkpt>
        <trkpt lat="29.579072" lon="103.388149"><ele>830.48425</ele><time>2026-07-28T01:19:20.000Z</time></trkpt>
        <trkpt lat="29.579052" lon="103.3881"><ele>829.76697</ele><time>2026-07-28T01:19:27.000Z</time></trkpt>
        <trkpt lat="29.579036" lon="103.388037"><ele>829.56104</ele><time>2026-07-28T01:19:32.000Z</time></trkpt>
        <trkpt lat="29.579033" lon="103.387983"><ele>827.9503</ele><time>2026-07-28T01:19:38.000Z</time></trkpt>
        <trkpt lat="29.579065" lon="103.387934"><ele>826.9371</ele><time>2026-07-28T01:19:48.000Z</time></trkpt>
        <trkpt lat="29.579042" lon="103.387888"><ele>827.40485</ele><time>2026-07-28T01:19:56.000Z</time></trkpt>
        <trkpt lat="29.579023" lon="103.387834"><ele>828.66034</ele><time>2026-07-28T01:20:03.000Z</time></trkpt>
        <trkpt lat="29.579014" lon="103.387771"><ele>829.9293</ele><time>2026-07-28T01:20:09.000Z</time></trkpt>
        <trkpt lat="29.579008" lon="103.387706"><ele>829.69586</ele><time>2026-07-28T01:20:16.000Z</time></trkpt>
        <trkpt lat="29.578997" lon="103.387647"><ele>829.33636</ele><time>2026-07-28T01:20:20.000Z</time></trkpt>
        <trkpt lat="29.578991" lon="103.387583"><ele>830.05743</ele><time>2026-07-28T01:20:25.000Z</time></trkpt>
        <trkpt lat="29.57898" lon="103.387529"><ele>830.77356</ele><time>2026-07-28T01:20:30.000Z</time></trkpt>
        <trkpt lat="29.57898" lon="103.387477"><ele>830.4548</ele><time>2026-07-28T01:20:34.000Z</time></trkpt>
        <trkpt lat="29.578993" lon="103.387425"><ele>829.39386</ele><time>2026-07-28T01:20:38.000Z</time></trkpt>
        <trkpt lat="29.578996" lon="103.387367"><ele>828.88367</ele><time>2026-07-28T01:20:43.000Z</time></trkpt>
        <trkpt lat="29.578979" lon="103.387308"><ele>828.93524</ele><time>2026-07-28T01:20:48.000Z</time></trkpt>
        <trkpt lat="29.57898" lon="103.387255"><ele>828.77234</ele><time>2026-07-28T01:20:53.000Z</time></trkpt>
        <trkpt lat="29.579012" lon="103.387211"><ele>829.3668</ele><time>2026-07-28T01:20:59.000Z</time></trkpt>
        <trkpt lat="29.579026" lon="103.387153"><ele>828.0181</ele><time>2026-07-28T01:21:04.000Z</time></trkpt>
        <trkpt lat="29.579048" lon="103.387107"><ele>828.4423</ele><time>2026-07-28T01:21:09.000Z</time></trkpt>
        <trkpt lat="29.579085" lon="103.387071"><ele>830.83057</ele><time>2026-07-28T01:21:17.000Z</time></trkpt>
        <trkpt lat="29.579125" lon="103.387044"><ele>833.8751</ele><time>2026-07-28T01:21:25.000Z</time></trkpt>
        <trkpt lat="29.579161" lon="103.387001"><ele>836.6597</ele><time>2026-07-28T01:21:37.000Z</time></trkpt>
        <trkpt lat="29.57919" lon="103.386958"><ele>838.96423</ele><time>2026-07-28T01:21:48.000Z</time></trkpt>
        <trkpt lat="29.579212" lon="103.38691"><ele>842.28094</ele><time>2026-07-28T01:21:56.000Z</time></trkpt>
        <trkpt lat="29.579251" lon="103.386885"><ele>849.3135</ele><time>2026-07-28T01:22:18.000Z</time></trkpt>
        <trkpt lat="29.57928" lon="103.386842"><ele>848.46783</ele><time>2026-07-28T01:22:46.000Z</time></trkpt>
        <trkpt lat="29.579324" lon="103.386817"><ele>855.09937</ele><time>2026-07-28T01:22:58.000Z</time></trkpt>
        <trkpt lat="29.579343" lon="103.386766"><ele>857.90564</ele><time>2026-07-28T01:23:10.000Z</time></trkpt>
        <trkpt lat="29.579371" lon="103.386724"><ele>856.43304</ele><time>2026-07-28T01:23:21.000Z</time></trkpt>
        <trkpt lat="29.57938" lon="103.38667"><ele>854.57477</ele><time>2026-07-28T01:23:27.000Z</time></trkpt>
        <trkpt lat="29.579394" lon="103.386614"><ele>854.18024</ele><time>2026-07-28T01:23:34.000Z</time></trkpt>
        <trkpt lat="29.579417" lon="103.386564"><ele>857.4876</ele><time>2026-07-28T01:23:46.000Z</time></trkpt>
        <trkpt lat="29.57943" lon="103.386514"><ele>857.6731</ele><time>2026-07-28T01:23:51.000Z</time></trkpt>
        <trkpt lat="29.579445" lon="103.386458"><ele>858.0096</ele><time>2026-07-28T01:24:03.000Z</time></trkpt>
        <trkpt lat="29.579445" lon="103.3864"><ele>864.0489</ele><time>2026-07-28T01:24:14.000Z</time></trkpt>
        <trkpt lat="29.579447" lon="103.386342"><ele>861.9847</ele><time>2026-07-28T01:24:25.000Z</time></trkpt>
        <trkpt lat="29.579458" lon="103.386288"><ele>863.4733</ele><time>2026-07-28T01:24:35.000Z</time></trkpt>
        <trkpt lat="29.579452" lon="103.386234"><ele>861.98584</ele><time>2026-07-28T01:24:41.000Z</time></trkpt>
        <trkpt lat="29.579448" lon="103.386176"><ele>863.89087</ele><time>2026-07-28T01:24:49.000Z</time></trkpt>
        <trkpt lat="29.579458" lon="103.386124"><ele>868.32404</ele><time>2026-07-28T01:25:01.000Z</time></trkpt>
        <trkpt lat="29.579462" lon="103.38607"><ele>870.0776</ele><time>2026-07-28T01:25:16.000Z</time></trkpt>
        <trkpt lat="29.579483" lon="103.386022"><ele>869.5458</ele><time>2026-07-28T01:25:24.000Z</time></trkpt>
        <trkpt lat="29.579479" lon="103.385962"><ele>869.13513</ele><time>2026-07-28T01:25:30.000Z</time></trkpt>
        <trkpt lat="29.579486" lon="103.385907"><ele>871.2998</ele><time>2026-07-28T01:25:38.000Z</time></trkpt>
        <trkpt lat="29.579524" lon="103.385871"><ele>874.39655</ele><time>2026-07-28T01:25:54.000Z</time></trkpt>
        <trkpt lat="29.579547" lon="103.385827"><ele>877.43024</ele><time>2026-07-28T01:26:05.000Z</time></trkpt>
        <trkpt lat="29.579552" lon="103.385775"><ele>880.19135</ele><time>2026-07-28T01:27:06.000Z</time></trkpt>
        <trkpt lat="29.579593" lon="103.385743"><ele>881.37036</ele><time>2026-07-28T01:27:22.000Z</time></trkpt>
        <trkpt lat="29.579624" lon="103.385706"><ele>882.71173</ele><time>2026-07-28T01:27:32.000Z</time></trkpt>
        <trkpt lat="29.579646" lon="103.385658"><ele>882.9363</ele><time>2026-07-28T01:27:39.000Z</time></trkpt>
        <trkpt lat="29.57967" lon="103.38561"><ele>884.3699</ele><time>2026-07-28T01:27:49.000Z</time></trkpt>
        <trkpt lat="29.579694" lon="103.385562"><ele>886.2691</ele><time>2026-07-28T01:27:59.000Z</time></trkpt>
        <trkpt lat="29.579738" lon="103.385532"><ele>888.61206</ele><time>2026-07-28T01:28:09.000Z</time></trkpt>
        <trkpt lat="29.579784" lon="103.38552"><ele>890.94366</ele><time>2026-07-28T01:28:21.000Z</time></trkpt>
        <trkpt lat="29.579826" lon="103.38549"><ele>891.57135</ele><time>2026-07-28T01:28:30.000Z</time></trkpt>
        <trkpt lat="29.579853" lon="103.385441"><ele>895.55096</ele><time>2026-07-28T01:28:43.000Z</time></trkpt>
        <trkpt lat="29.579883" lon="103.385401"><ele>894.804</ele><time>2026-07-28T01:28:50.000Z</time></trkpt>
        <trkpt lat="29.579924" lon="103.385363"><ele>897.9326</ele><time>2026-07-28T01:29:02.000Z</time></trkpt>
        <trkpt lat="29.579973" lon="103.385339"><ele>896.6954</ele><time>2026-07-28T01:29:12.000Z</time></trkpt>
        <trkpt lat="29.580016" lon="103.385309"><ele>901.2583</ele><time>2026-07-28T01:29:25.000Z</time></trkpt>
        <trkpt lat="29.580059" lon="103.385284"><ele>904.7038</ele><time>2026-07-28T01:29:35.000Z</time></trkpt>
        <trkpt lat="29.5801" lon="103.385261"><ele>904.43146</ele><time>2026-07-28T01:29:42.000Z</time></trkpt>
        <trkpt lat="29.580126" lon="103.385214"><ele>903.5049</ele><time>2026-07-28T01:29:51.000Z</time></trkpt>
        <trkpt lat="29.580157" lon="103.385174"><ele>910.59827</ele><time>2026-07-28T01:30:18.000Z</time></trkpt>
        <trkpt lat="29.580196" lon="103.385139"><ele>909.1078</ele><time>2026-07-28T01:30:25.000Z</time></trkpt>
        <trkpt lat="29.580215" lon="103.385082"><ele>908.4428</ele><time>2026-07-28T01:30:31.000Z</time></trkpt>
        <trkpt lat="29.580248" lon="103.385044"><ele>908.337</ele><time>2026-07-28T01:30:36.000Z</time></trkpt>
        <trkpt lat="29.580285" lon="103.385009"><ele>910.0517</ele><time>2026-07-28T01:30:43.000Z</time></trkpt>
        <trkpt lat="29.580318" lon="103.384971"><ele>911.48096</ele><time>2026-07-28T01:30:51.000Z</time></trkpt>
        <trkpt lat="29.580347" lon="103.38493"><ele>914.155</ele><time>2026-07-28T01:30:59.000Z</time></trkpt>
        <trkpt lat="29.580374" lon="103.384883"><ele>913.50073</ele><time>2026-07-28T01:31:05.000Z</time></trkpt>
        <trkpt lat="29.580408" lon="103.384832"><ele>913.2499</ele><time>2026-07-28T01:31:11.000Z</time></trkpt>
        <trkpt lat="29.580439" lon="103.384794"><ele>913.8186</ele><time>2026-07-28T01:31:16.000Z</time></trkpt>
        <trkpt lat="29.580477" lon="103.384751"><ele>914.69293</ele><time>2026-07-28T01:31:24.000Z</time></trkpt>
        <trkpt lat="29.58051" lon="103.384707"><ele>917.14844</ele><time>2026-07-28T01:31:33.000Z</time></trkpt>
        <trkpt lat="29.58054" lon="103.384666"><ele>918.3415</ele><time>2026-07-28T01:31:42.000Z</time></trkpt>
        <trkpt lat="29.580574" lon="103.384626"><ele>920.043</ele><time>2026-07-28T01:31:50.000Z</time></trkpt>
        <trkpt lat="29.580596" lon="103.38458"><ele>923.47736</ele><time>2026-07-28T01:32:00.000Z</time></trkpt>
        <trkpt lat="29.580627" lon="103.384533"><ele>927.47943</ele><time>2026-07-28T01:32:10.000Z</time></trkpt>
        <trkpt lat="29.580663" lon="103.384486"><ele>929.09534</ele><time>2026-07-28T01:32:22.000Z</time></trkpt>
        <trkpt lat="29.580702" lon="103.384454"><ele>931.2592</ele><time>2026-07-28T01:32:32.000Z</time></trkpt>
        <trkpt lat="29.580739" lon="103.384424"><ele>932.1114</ele><time>2026-07-28T01:32:43.000Z</time></trkpt>
        <trkpt lat="29.580776" lon="103.384394"><ele>928.49554</ele><time>2026-07-28T01:32:51.000Z</time></trkpt>
        <trkpt lat="29.5808" lon="103.384349"><ele>928.67096</ele><time>2026-07-28T01:33:04.000Z</time></trkpt>
        <trkpt lat="29.580843" lon="103.384313"><ele>929.93445</ele><time>2026-07-28T01:33:14.000Z</time></trkpt>
        <trkpt lat="29.580875" lon="103.384272"><ele>933.0013</ele><time>2026-07-28T01:33:25.000Z</time></trkpt>
        <trkpt lat="29.580912" lon="103.384236"><ele>933.1533</ele><time>2026-07-28T01:33:35.000Z</time></trkpt>
        <trkpt lat="29.58096" lon="103.384214"><ele>934.1511</ele><time>2026-07-28T01:33:47.000Z</time></trkpt>
        <trkpt lat="29.581008" lon="103.384211"><ele>937.54315</ele><time>2026-07-28T01:34:02.000Z</time></trkpt>
        <trkpt lat="29.581053" lon="103.384223"><ele>946.627</ele><time>2026-07-28T01:34:17.000Z</time></trkpt>
        <trkpt lat="29.5811" lon="103.384231"><ele>951.62537</ele><time>2026-07-28T01:34:28.000Z</time></trkpt>
        <trkpt lat="29.581147" lon="103.384235"><ele>960.4346</ele><time>2026-07-28T01:34:40.000Z</time></trkpt>
        <trkpt lat="29.581184" lon="103.384265"><ele>967.3109</ele><time>2026-07-28T01:34:51.000Z</time></trkpt>
        <trkpt lat="29.581232" lon="103.384273"><ele>970.7474</ele><time>2026-07-28T01:35:02.000Z</time></trkpt>
        <trkpt lat="29.58127" lon="103.384306"><ele>970.441</ele><time>2026-07-28T01:35:13.000Z</time></trkpt>
        <trkpt lat="29.581319" lon="103.384312"><ele>977.1683</ele><time>2026-07-28T01:35:33.000Z</time></trkpt>
        <trkpt lat="29.581368" lon="103.384284"><ele>975.0832</ele><time>2026-07-28T01:35:55.000Z</time></trkpt>
        <trkpt lat="29.581409" lon="103.384327"><ele>975.5787</ele><time>2026-07-28T01:36:05.000Z</time></trkpt>
        <trkpt lat="29.58145" lon="103.384288"><ele>982.60486</ele><time>2026-07-28T01:36:15.000Z</time></trkpt>
        <trkpt lat="29.581494" lon="103.384304"><ele>981.80475</ele><time>2026-07-28T01:36:19.000Z</time></trkpt>
        <trkpt lat="29.581515" lon="103.384352"><ele>977.64325</ele><time>2026-07-28T01:36:30.000Z</time></trkpt>
        <trkpt lat="29.581563" lon="103.38435"><ele>969.90094</ele><time>2026-07-28T01:37:22.000Z</time></trkpt>
        <trkpt lat="29.58159" lon="103.3844"><ele>969.35254</ele><time>2026-07-28T01:37:31.000Z</time></trkpt>
        <trkpt lat="29.581614" lon="103.38435"><ele>966.7719</ele><time>2026-07-28T01:37:36.000Z</time></trkpt>
        <trkpt lat="29.581633" lon="103.384299"><ele>963.6431</ele><time>2026-07-28T01:37:41.000Z</time></trkpt>
        <trkpt lat="29.581644" lon="103.384246"><ele>963.1559</ele><time>2026-07-28T01:37:47.000Z</time></trkpt>
        <trkpt lat="29.581634" lon="103.384191"><ele>966.5552</ele><time>2026-07-28T01:37:58.000Z</time></trkpt>
        <trkpt lat="29.581609" lon="103.384144"><ele>968.23846</ele><time>2026-07-28T01:38:06.000Z</time></trkpt>
        <trkpt lat="29.581573" lon="103.384101"><ele>966.9471</ele><time>2026-07-28T01:38:13.000Z</time></trkpt>
        <trkpt lat="29.581552" lon="103.384051"><ele>970.0979</ele><time>2026-07-28T01:38:24.000Z</time></trkpt>
        <trkpt lat="29.581543" lon="103.383988"><ele>971.1521</ele><time>2026-07-28T01:38:32.000Z</time></trkpt>
        <trkpt lat="29.581523" lon="103.38393"><ele>974.1328</ele><time>2026-07-28T01:38:46.000Z</time></trkpt>
        <trkpt lat="29.581502" lon="103.383876"><ele>975.9299</ele><time>2026-07-28T01:38:57.000Z</time></trkpt>
        <trkpt lat="29.581496" lon="103.383819"><ele>975.4076</ele><time>2026-07-28T01:39:02.000Z</time></trkpt>
        <trkpt lat="29.581483" lon="103.383763"><ele>976.36584</ele><time>2026-07-28T01:39:07.000Z</time></trkpt>
        <trkpt lat="29.581459" lon="103.383719"><ele>977.97754</ele><time>2026-07-28T01:39:12.000Z</time></trkpt>
        <trkpt lat="29.581442" lon="103.383671"><ele>981.24677</ele><time>2026-07-28T01:39:29.000Z</time></trkpt>
        <trkpt lat="29.58144" lon="103.383619"><ele>981.03656</ele><time>2026-07-28T01:39:43.000Z</time></trkpt>
        <trkpt lat="29.58145" lon="103.383564"><ele>984.70416</ele><time>2026-07-28T01:39:56.000Z</time></trkpt>
        <trkpt lat="29.581448" lon="103.383498"><ele>990.1019</ele><time>2026-07-28T01:40:10.000Z</time></trkpt>
        <trkpt lat="29.58144" lon="103.383444"><ele>991.4655</ele><time>2026-07-28T01:40:20.000Z</time></trkpt>
        <trkpt lat="29.581419" lon="103.383397"><ele>991.9965</ele><time>2026-07-28T01:40:28.000Z</time></trkpt>
        <trkpt lat="29.581417" lon="103.383344"><ele>991.29016</ele><time>2026-07-28T01:40:34.000Z</time></trkpt>
        <trkpt lat="29.581406" lon="103.38328"><ele>991.1919</ele><time>2026-07-28T01:40:40.000Z</time></trkpt>
        <trkpt lat="29.581392" lon="103.383228"><ele>995.4062</ele><time>2026-07-28T01:40:53.000Z</time></trkpt>
        <trkpt lat="29.581379" lon="103.383169"><ele>997.1487</ele><time>2026-07-28T01:41:01.000Z</time></trkpt>
        <trkpt lat="29.581368" lon="103.383112"><ele>995.93915</ele><time>2026-07-28T01:41:11.000Z</time></trkpt>
        <trkpt lat="29.581362" lon="103.38306"><ele>997.95557</ele><time>2026-07-28T01:41:24.000Z</time></trkpt>
        <trkpt lat="29.581356" lon="103.383003"><ele>998.5973</ele><time>2026-07-28T01:41:36.000Z</time></trkpt>
        <trkpt lat="29.581344" lon="103.382952"><ele>1000.85693</ele><time>2026-07-28T01:41:48.000Z</time></trkpt>
        <trkpt lat="29.581351" lon="103.382896"><ele>1003.4307</ele><time>2026-07-28T01:41:56.000Z</time></trkpt>
        <trkpt lat="29.58133" lon="103.382837"><ele>1005.57605</ele><time>2026-07-28T01:42:05.000Z</time></trkpt>
        <trkpt lat="29.581331" lon="103.382782"><ele>1010.58875</ele><time>2026-07-28T01:42:23.000Z</time></trkpt>
        <trkpt lat="29.581375" lon="103.382758"><ele>1012.10565</ele><time>2026-07-28T01:42:31.000Z</time></trkpt>
        <trkpt lat="29.581348" lon="103.382712"><ele>1010.33295</ele><time>2026-07-28T01:42:34.000Z</time></trkpt>
        <trkpt lat="29.581324" lon="103.382662"><ele>1008.00653</ele><time>2026-07-28T01:42:39.000Z</time></trkpt>
        <trkpt lat="29.581331" lon="103.382603"><ele>1010.74286</ele><time>2026-07-28T01:42:48.000Z</time></trkpt>
        <trkpt lat="29.581308" lon="103.382533"><ele>1010.3749</ele><time>2026-07-28T01:42:53.000Z</time></trkpt>
        <trkpt lat="29.58131" lon="103.38248"><ele>1011.3843</ele><time>2026-07-28T01:43:17.000Z</time></trkpt>
        <trkpt lat="29.581272" lon="103.38245"><ele>1011.2042</ele><time>2026-07-28T01:43:22.000Z</time></trkpt>
        <trkpt lat="29.581226" lon="103.382466"><ele>1013.0904</ele><time>2026-07-28T01:43:26.000Z</time></trkpt>
        <trkpt lat="29.581179" lon="103.38245"><ele>1015.75183</ele><time>2026-07-28T01:43:39.000Z</time></trkpt>
        <trkpt lat="29.581175" lon="103.382392"><ele>1017.43475</ele><time>2026-07-28T01:44:12.000Z</time></trkpt>
        <trkpt lat="29.581205" lon="103.382342"><ele>1014.56775</ele><time>2026-07-28T01:44:16.000Z</time></trkpt>
        <trkpt lat="29.581184" lon="103.382288"><ele>1015.35657</ele><time>2026-07-28T01:44:22.000Z</time></trkpt>
        <trkpt lat="29.58114" lon="103.382296"><ele>1015.0941</ele><time>2026-07-28T01:45:08.000Z</time></trkpt>
        <trkpt lat="29.581173" lon="103.382261"><ele>1013.30145</ele><time>2026-07-28T01:45:34.000Z</time></trkpt>
        <trkpt lat="29.581203" lon="103.38222"><ele>1014.61646</ele><time>2026-07-28T01:45:40.000Z</time></trkpt>
        <trkpt lat="29.581181" lon="103.382267"><ele>1014.9208</ele><time>2026-07-28T01:45:51.000Z</time></trkpt>
        <trkpt lat="29.581198" lon="103.382209"><ele>1015.86676</ele><time>2026-07-28T01:46:35.000Z</time></trkpt>
        <trkpt lat="29.58122" lon="103.382156"><ele>1017.0309</ele><time>2026-07-28T01:46:39.000Z</time></trkpt>
        <trkpt lat="29.581228" lon="103.382104"><ele>1018.09564</ele><time>2026-07-28T01:46:43.000Z</time></trkpt>
        <trkpt lat="29.581231" lon="103.382051"><ele>1019.34485</ele><time>2026-07-28T01:47:03.000Z</time></trkpt>
        <trkpt lat="29.581247" lon="103.381995"><ele>1015.7114</ele><time>2026-07-28T01:47:18.000Z</time></trkpt>
        <trkpt lat="29.581276" lon="103.381945"><ele>1015.9575</ele><time>2026-07-28T01:47:22.000Z</time></trkpt>
        <trkpt lat="29.581308" lon="103.381899"><ele>1014.05914</ele><time>2026-07-28T01:47:43.000Z</time></trkpt>
        <trkpt lat="29.581317" lon="103.381845"><ele>1013.8568</ele><time>2026-07-28T01:47:47.000Z</time></trkpt>
        <trkpt lat="29.58131" lon="103.38178"><ele>1013.8515</ele><time>2026-07-28T01:47:51.000Z</time></trkpt>
        <trkpt lat="29.58125" lon="103.381812"><ele>1012.5698</ele><time>2026-07-28T01:48:00.000Z</time></trkpt>
        <trkpt lat="29.581217" lon="103.381772"><ele>1011.9248</ele><time>2026-07-28T01:48:03.000Z</time></trkpt>
        <trkpt lat="29.581265" lon="103.381744"><ele>1011.1313</ele><time>2026-07-28T01:48:06.000Z</time></trkpt>
        <trkpt lat="29.581309" lon="103.381731"><ele>1011.4692</ele><time>2026-07-28T01:48:07.000Z</time></trkpt>
        <trkpt lat="29.581351" lon="103.381703"><ele>1012.8839</ele><time>2026-07-28T01:48:11.000Z</time></trkpt>
        <trkpt lat="29.581401" lon="103.38167"><ele>1012.9866</ele><time>2026-07-28T01:48:14.000Z</time></trkpt>
        <trkpt lat="29.581453" lon="103.381634"><ele>1014.1521</ele><time>2026-07-28T01:48:18.000Z</time></trkpt>
        <trkpt lat="29.581506" lon="103.381606"><ele>1013.77057</ele><time>2026-07-28T01:48:22.000Z</time></trkpt>
        <trkpt lat="29.581561" lon="103.381599"><ele>1017.4955</ele><time>2026-07-28T01:48:28.000Z</time></trkpt>
        <trkpt lat="29.581609" lon="103.381607"><ele>1016.35046</ele><time>2026-07-28T01:48:34.000Z</time></trkpt>
        <trkpt lat="29.581656" lon="103.38162"><ele>1017.7929</ele><time>2026-07-28T01:48:39.000Z</time></trkpt>
        <trkpt lat="29.581704" lon="103.381644"><ele>1019.3531</ele><time>2026-07-28T01:48:43.000Z</time></trkpt>
        <trkpt lat="29.581739" lon="103.381681"><ele>1021.31934</ele><time>2026-07-28T01:48:49.000Z</time></trkpt>
        <trkpt lat="29.581784" lon="103.381659"><ele>1019.3091</ele><time>2026-07-28T01:49:10.000Z</time></trkpt>
        <trkpt lat="29.581829" lon="103.381676"><ele>1019.30896</ele><time>2026-07-28T01:49:14.000Z</time></trkpt>
        <trkpt lat="29.581866" lon="103.38164"><ele>1020.4922</ele><time>2026-07-28T01:49:19.000Z</time></trkpt>
        <trkpt lat="29.581832" lon="103.381676"><ele>1019.224</ele><time>2026-07-28T01:49:33.000Z</time></trkpt>
        <trkpt lat="29.581787" lon="103.3817"><ele>1020.20074</ele><time>2026-07-28T01:49:38.000Z</time></trkpt>
        <trkpt lat="29.58175" lon="103.381745"><ele>1020.6067</ele><time>2026-07-28T01:49:43.000Z</time></trkpt>
        <trkpt lat="29.581721" lon="103.381792"><ele>1020.53937</ele><time>2026-07-28T01:49:48.000Z</time></trkpt>
        <trkpt lat="29.581689" lon="103.381839"><ele>1019.33124</ele><time>2026-07-28T01:49:53.000Z</time></trkpt>
        <trkpt lat="29.581639" lon="103.381873"><ele>1019.80646</ele><time>2026-07-28T01:50:03.000Z</time></trkpt>
        <trkpt lat="29.581598" lon="103.381913"><ele>1019.44073</ele><time>2026-07-28T01:50:08.000Z</time></trkpt>
        <trkpt lat="29.581563" lon="103.381952"><ele>1017.9899</ele><time>2026-07-28T01:50:13.000Z</time></trkpt>
        <trkpt lat="29.581531" lon="103.381992"><ele>1013.7184</ele><time>2026-07-28T01:50:42.000Z</time></trkpt>
        <trkpt lat="29.581519" lon="103.382047"><ele>1013.54694</ele><time>2026-07-28T01:50:48.000Z</time></trkpt>
        <trkpt lat="29.581508" lon="103.382103"><ele>1012.6524</ele><time>2026-07-28T01:50:54.000Z</time></trkpt>
        <trkpt lat="29.581485" lon="103.382149"><ele>1013.36475</ele><time>2026-07-28T01:51:00.000Z</time></trkpt>
        <trkpt lat="29.581472" lon="103.382206"><ele>1014.14453</ele><time>2026-07-28T01:51:05.000Z</time></trkpt>
        <trkpt lat="29.581436" lon="103.382236"><ele>1017.3841</ele><time>2026-07-28T01:51:16.000Z</time></trkpt>
        <trkpt lat="29.581428" lon="103.382293"><ele>1019.46246</ele><time>2026-07-28T01:51:57.000Z</time></trkpt>
        <trkpt lat="29.581407" lon="103.382344"><ele>1018.32416</ele><time>2026-07-28T01:52:03.000Z</time></trkpt>
        <trkpt lat="29.58139" lon="103.382397"><ele>1017.79736</ele><time>2026-07-28T01:52:07.000Z</time></trkpt>
        <trkpt lat="29.581379" lon="103.382447"><ele>1017.4591</ele><time>2026-07-28T01:52:13.000Z</time></trkpt>
        <trkpt lat="29.581397" lon="103.382496"><ele>1017.13477</ele><time>2026-07-28T01:52:17.000Z</time></trkpt>
        <trkpt lat="29.581424" lon="103.382542"><ele>1015.8736</ele><time>2026-07-28T01:52:29.000Z</time></trkpt>
        <trkpt lat="29.581395" lon="103.382585"><ele>1015.76044</ele><time>2026-07-28T01:52:46.000Z</time></trkpt>
        <trkpt lat="29.58134" lon="103.382586"><ele>1015.57166</ele><time>2026-07-28T01:52:56.000Z</time></trkpt>
        <trkpt lat="29.581327" lon="103.382637"><ele>1013.8927</ele><time>2026-07-28T01:53:11.000Z</time></trkpt>
        <trkpt lat="29.581298" lon="103.382685"><ele>1008.37103</ele><time>2026-07-28T01:53:41.000Z</time></trkpt>
        <trkpt lat="29.581303" lon="103.38274"><ele>1006.3149</ele><time>2026-07-28T01:53:46.000Z</time></trkpt>
        <trkpt lat="29.581327" lon="103.382786"><ele>1007.99115</ele><time>2026-07-28T01:53:55.000Z</time></trkpt>
        <trkpt lat="29.581335" lon="103.382847"><ele>1007.9411</ele><time>2026-07-28T01:54:03.000Z</time></trkpt>
        <trkpt lat="29.581342" lon="103.382901"><ele>1008.66376</ele><time>2026-07-28T01:54:10.000Z</time></trkpt>
        <trkpt lat="29.581343" lon="103.382954"><ele>1004.00916</ele><time>2026-07-28T01:54:57.000Z</time></trkpt>
        <trkpt lat="29.581347" lon="103.38301"><ele>1002.2549</ele><time>2026-07-28T01:55:04.000Z</time></trkpt>
        <trkpt lat="29.58136" lon="103.383069"><ele>1001.3894</ele><time>2026-07-28T01:55:16.000Z</time></trkpt>
        <trkpt lat="29.581382" lon="103.383114"><ele>999.91125</ele><time>2026-07-28T01:55:30.000Z</time></trkpt>
        <trkpt lat="29.581383" lon="103.383177"><ele>994.91974</ele><time>2026-07-28T01:55:42.000Z</time></trkpt>
        <trkpt lat="29.581402" lon="103.383256"><ele>992.0624</ele><time>2026-07-28T01:55:49.000Z</time></trkpt>
        <trkpt lat="29.581405" lon="103.383308"><ele>992.01636</ele><time>2026-07-28T01:55:52.000Z</time></trkpt>
        <trkpt lat="29.581414" lon="103.383362"><ele>991.7961</ele><time>2026-07-28T01:55:57.000Z</time></trkpt>
        <trkpt lat="29.581412" lon="103.383421"><ele>993.99426</ele><time>2026-07-28T01:56:05.000Z</time></trkpt>
        <trkpt lat="29.581425" lon="103.383476"><ele>992.6385</ele><time>2026-07-28T01:56:10.000Z</time></trkpt>
        <trkpt lat="29.581414" lon="103.383535"><ele>991.58575</ele><time>2026-07-28T01:56:16.000Z</time></trkpt>
        <trkpt lat="29.581416" lon="103.383593"><ele>988.96704</ele><time>2026-07-28T01:56:24.000Z</time></trkpt>
        <trkpt lat="29.581417" lon="103.383655"><ele>987.85767</ele><time>2026-07-28T01:56:30.000Z</time></trkpt>
        <trkpt lat="29.581427" lon="103.383716"><ele>987.46313</ele><time>2026-07-28T01:56:35.000Z</time></trkpt>
        <trkpt lat="29.581446" lon="103.383773"><ele>986.8679</ele><time>2026-07-28T01:56:39.000Z</time></trkpt>
        <trkpt lat="29.581465" lon="103.383826"><ele>985.2366</ele><time>2026-07-28T01:56:43.000Z</time></trkpt>
        <trkpt lat="29.581493" lon="103.383872"><ele>983.8849</ele><time>2026-07-28T01:56:47.000Z</time></trkpt>
        <trkpt lat="29.581496" lon="103.383927"><ele>982.3153</ele><time>2026-07-28T01:56:53.000Z</time></trkpt>
        <trkpt lat="29.581525" lon="103.383973"><ele>979.9949</ele><time>2026-07-28T01:57:00.000Z</time></trkpt>
        <trkpt lat="29.581537" lon="103.384026"><ele>979.0479</ele><time>2026-07-28T01:57:04.000Z</time></trkpt>
        <trkpt lat="29.581551" lon="103.384085"><ele>976.4184</ele><time>2026-07-28T01:57:10.000Z</time></trkpt>
        <trkpt lat="29.581578" lon="103.384141"><ele>974.9202</ele><time>2026-07-28T01:57:16.000Z</time></trkpt>
        <trkpt lat="29.581612" lon="103.384176"><ele>972.0545</ele><time>2026-07-28T01:57:21.000Z</time></trkpt>
        <trkpt lat="29.581648" lon="103.384208"><ele>969.3202</ele><time>2026-07-28T01:57:32.000Z</time></trkpt>
        <trkpt lat="29.581679" lon="103.38426"><ele>966.39246</ele><time>2026-07-28T01:57:44.000Z</time></trkpt>
        <trkpt lat="29.581639" lon="103.384297"><ele>964.7433</ele><time>2026-07-28T01:57:49.000Z</time></trkpt>
        <trkpt lat="29.581627" lon="103.384348"><ele>966.22687</ele><time>2026-07-28T01:58:01.000Z</time></trkpt>
        <trkpt lat="29.581583" lon="103.384376"><ele>966.65375</ele><time>2026-07-28T01:58:07.000Z</time></trkpt>
        <trkpt lat="29.581529" lon="103.384379"><ele>967.715</ele><time>2026-07-28T01:58:15.000Z</time></trkpt>
        <trkpt lat="29.581485" lon="103.384401"><ele>969.8558</ele><time>2026-07-28T01:58:31.000Z</time></trkpt>
        <trkpt lat="29.581426" lon="103.384407"><ele>969.97943</ele><time>2026-07-28T01:58:45.000Z</time></trkpt>
        <trkpt lat="29.581376" lon="103.384385"><ele>969.89124</ele><time>2026-07-28T01:58:47.000Z</time></trkpt>
        <trkpt lat="29.581384" lon="103.384321"><ele>969.3992</ele><time>2026-07-28T01:58:49.000Z</time></trkpt>
        <trkpt lat="29.581398" lon="103.384267"><ele>968.8818</ele><time>2026-07-28T01:58:50.000Z</time></trkpt>
        <trkpt lat="29.581449" lon="103.384295"><ele>968.4851</ele><time>2026-07-28T01:58:52.000Z</time></trkpt>
        <trkpt lat="29.581408" lon="103.38426"><ele>967.3993</ele><time>2026-07-28T01:58:56.000Z</time></trkpt>
        <trkpt lat="29.581397" lon="103.384312"><ele>974.5892</ele><time>2026-07-28T01:59:14.000Z</time></trkpt>
        <trkpt lat="29.581351" lon="103.384305"><ele>970.82465</ele><time>2026-07-28T01:59:19.000Z</time></trkpt>
        <trkpt lat="29.581303" lon="103.384284"><ele>966.86176</ele><time>2026-07-28T01:59:24.000Z</time></trkpt>
        <trkpt lat="29.581266" lon="103.384245"><ele>963.7121</ele><time>2026-07-28T01:59:28.000Z</time></trkpt>
        <trkpt lat="29.581216" lon="103.384216"><ele>960.2444</ele><time>2026-07-28T01:59:35.000Z</time></trkpt>
        <trkpt lat="29.581175" lon="103.384191"><ele>958.86957</ele><time>2026-07-28T01:59:40.000Z</time></trkpt>
        <trkpt lat="29.581146" lon="103.384146"><ele>957.71735</ele><time>2026-07-28T01:59:44.000Z</time></trkpt>
        <trkpt lat="29.581097" lon="103.38415"><ele>956.22687</ele><time>2026-07-28T01:59:50.000Z</time></trkpt>
        <trkpt lat="29.581056" lon="103.384114"><ele>954.92303</ele><time>2026-07-28T01:59:56.000Z</time></trkpt>
        <trkpt lat="29.581001" lon="103.384091"><ele>953.7746</ele><time>2026-07-28T02:00:01.000Z</time></trkpt>
        <trkpt lat="29.580953" lon="103.384088"><ele>952.24066</ele><time>2026-07-28T02:00:05.000Z</time></trkpt>
        <trkpt lat="29.580911" lon="103.384111"><ele>952.6574</ele><time>2026-07-28T02:00:08.000Z</time></trkpt>
        <trkpt lat="29.58087" lon="103.384151"><ele>951.95026</ele><time>2026-07-28T02:00:12.000Z</time></trkpt>
        <trkpt lat="29.580849" lon="103.384214"><ele>947.76483</ele><time>2026-07-28T02:00:16.000Z</time></trkpt>
        <trkpt lat="29.580837" lon="103.38427"><ele>943.4304</ele><time>2026-07-28T02:00:20.000Z</time></trkpt>
        <trkpt lat="29.580796" lon="103.384311"><ele>938.5165</ele><time>2026-07-28T02:00:25.000Z</time></trkpt>
        <trkpt lat="29.580748" lon="103.384342"><ele>933.5001</ele><time>2026-07-28T02:00:30.000Z</time></trkpt>
        <trkpt lat="29.580725" lon="103.384388"><ele>931.8029</ele><time>2026-07-28T02:00:35.000Z</time></trkpt>
        <trkpt lat="29.580692" lon="103.384427"><ele>931.29346</ele><time>2026-07-28T02:00:41.000Z</time></trkpt>
        <trkpt lat="29.580676" lon="103.384483"><ele>930.5687</ele><time>2026-07-28T02:00:49.000Z</time></trkpt>
        <trkpt lat="29.58065" lon="103.384527"><ele>925.18976</ele><time>2026-07-28T02:01:03.000Z</time></trkpt>
        <trkpt lat="29.58059" lon="103.384542"><ele>922.5426</ele><time>2026-07-28T02:01:10.000Z</time></trkpt>
        <trkpt lat="29.580547" lon="103.384588"><ele>921.39453</ele><time>2026-07-28T02:01:14.000Z</time></trkpt>
        <trkpt lat="29.580517" lon="103.38463"><ele>920.0327</ele><time>2026-07-28T02:01:18.000Z</time></trkpt>
        <trkpt lat="29.580499" lon="103.384682"><ele>919.6494</ele><time>2026-07-28T02:01:22.000Z</time></trkpt>
        <trkpt lat="29.580466" lon="103.384722"><ele>918.1371</ele><time>2026-07-28T02:01:26.000Z</time></trkpt>
        <trkpt lat="29.580442" lon="103.38477"><ele>915.63776</ele><time>2026-07-28T02:01:30.000Z</time></trkpt>
        <trkpt lat="29.580411" lon="103.384812"><ele>914.4148</ele><time>2026-07-28T02:01:34.000Z</time></trkpt>
        <trkpt lat="29.580383" lon="103.384863"><ele>913.88806</ele><time>2026-07-28T02:01:38.000Z</time></trkpt>
        <trkpt lat="29.580347" lon="103.384899"><ele>914.0097</ele><time>2026-07-28T02:01:44.000Z</time></trkpt>
        <trkpt lat="29.580302" lon="103.384926"><ele>915.4323</ele><time>2026-07-28T02:01:47.000Z</time></trkpt>
        <trkpt lat="29.580264" lon="103.384961"><ele>916.2984</ele><time>2026-07-28T02:01:51.000Z</time></trkpt>
        <trkpt lat="29.580232" lon="103.385004"><ele>915.2717</ele><time>2026-07-28T02:01:54.000Z</time></trkpt>
        <trkpt lat="29.580211" lon="103.385051"><ele>914.26807</ele><time>2026-07-28T02:01:57.000Z</time></trkpt>
        <trkpt lat="29.580191" lon="103.385099"><ele>913.5371</ele><time>2026-07-28T02:02:00.000Z</time></trkpt>
        <trkpt lat="29.580156" lon="103.38514"><ele>912.46893</ele><time>2026-07-28T02:02:04.000Z</time></trkpt>
        <trkpt lat="29.580126" lon="103.385197"><ele>909.90564</ele><time>2026-07-28T02:02:09.000Z</time></trkpt>
        <trkpt lat="29.580087" lon="103.385224"><ele>908.49133</ele><time>2026-07-28T02:02:13.000Z</time></trkpt>
        <trkpt lat="29.580046" lon="103.385246"><ele>906.7379</ele><time>2026-07-28T02:02:18.000Z</time></trkpt>
        <trkpt lat="29.580006" lon="103.385278"><ele>905.4751</ele><time>2026-07-28T02:02:24.000Z</time></trkpt>
        <trkpt lat="29.579964" lon="103.385306"><ele>903.0015</ele><time>2026-07-28T02:02:29.000Z</time></trkpt>
        <trkpt lat="29.579923" lon="103.385328"><ele>900.9879</ele><time>2026-07-28T02:02:33.000Z</time></trkpt>
        <trkpt lat="29.57988" lon="103.38536"><ele>899.56036</ele><time>2026-07-28T02:02:37.000Z</time></trkpt>
        <trkpt lat="29.57985" lon="103.38541"><ele>898.4959</ele><time>2026-07-28T02:02:41.000Z</time></trkpt>
        <trkpt lat="29.579809" lon="103.385438"><ele>896.5891</ele><time>2026-07-28T02:02:47.000Z</time></trkpt>
        <trkpt lat="29.579769" lon="103.385472"><ele>897.0552</ele><time>2026-07-28T02:02:53.000Z</time></trkpt>
        <trkpt lat="29.579723" lon="103.385501"><ele>893.9135</ele><time>2026-07-28T02:03:00.000Z</time></trkpt>
        <trkpt lat="29.579687" lon="103.385544"><ele>889.0003</ele><time>2026-07-28T02:03:08.000Z</time></trkpt>
        <trkpt lat="29.57965" lon="103.385583"><ele>888.7387</ele><time>2026-07-28T02:03:13.000Z</time></trkpt>
        <trkpt lat="29.579628" lon="103.385635"><ele>886.77026</ele><time>2026-07-28T02:03:17.000Z</time></trkpt>
        <trkpt lat="29.579602" lon="103.385686"><ele>883.22034</ele><time>2026-07-28T02:03:22.000Z</time></trkpt>
        <trkpt lat="29.579577" lon="103.385736"><ele>882.65564</ele><time>2026-07-28T02:03:27.000Z</time></trkpt>
        <trkpt lat="29.579539" lon="103.385778"><ele>880.46045</ele><time>2026-07-28T02:03:31.000Z</time></trkpt>
        <trkpt lat="29.579537" lon="103.385832"><ele>875.895</ele><time>2026-07-28T02:03:36.000Z</time></trkpt>
        <trkpt lat="29.579515" lon="103.385883"><ele>873.90924</ele><time>2026-07-28T02:03:43.000Z</time></trkpt>
        <trkpt lat="29.579481" lon="103.385936"><ele>875.5181</ele><time>2026-07-28T02:03:49.000Z</time></trkpt>
        <trkpt lat="29.579467" lon="103.385987"><ele>874.4269</ele><time>2026-07-28T02:04:03.000Z</time></trkpt>
        <trkpt lat="29.579471" lon="103.38604"><ele>873.3971</ele><time>2026-07-28T02:04:33.000Z</time></trkpt>
        <trkpt lat="29.579451" lon="103.386091"><ele>871.7197</ele><time>2026-07-28T02:04:43.000Z</time></trkpt>
        <trkpt lat="29.579458" lon="103.386148"><ele>871.86597</ele><time>2026-07-28T02:04:58.000Z</time></trkpt>
        <trkpt lat="29.579432" lon="103.386191"><ele>868.7009</ele><time>2026-07-28T02:05:05.000Z</time></trkpt>
        <trkpt lat="29.579424" lon="103.386242"><ele>869.39935</ele><time>2026-07-28T02:05:09.000Z</time></trkpt>
        <trkpt lat="29.579414" lon="103.3863"><ele>868.70166</ele><time>2026-07-28T02:05:13.000Z</time></trkpt>
        <trkpt lat="29.579412" lon="103.386359"><ele>867.76587</ele><time>2026-07-28T02:05:19.000Z</time></trkpt>
        <trkpt lat="29.5794" lon="103.386414"><ele>867.06793</ele><time>2026-07-28T02:05:24.000Z</time></trkpt>
        <trkpt lat="29.579381" lon="103.386463"><ele>864.78265</ele><time>2026-07-28T02:05:31.000Z</time></trkpt>
        <trkpt lat="29.57936" lon="103.386515"><ele>864.0301</ele><time>2026-07-28T02:05:36.000Z</time></trkpt>
        <trkpt lat="29.57935" lon="103.386575"><ele>861.861</ele><time>2026-07-28T02:05:43.000Z</time></trkpt>
        <trkpt lat="29.579338" lon="103.386638"><ele>861.3782</ele><time>2026-07-28T02:05:46.000Z</time></trkpt>
        <trkpt lat="29.579315" lon="103.386686"><ele>858.4484</ele><time>2026-07-28T02:05:50.000Z</time></trkpt>
        <trkpt lat="29.57929" lon="103.386735"><ele>859.3408</ele><time>2026-07-28T02:05:55.000Z</time></trkpt>
        <trkpt lat="29.579249" lon="103.386769"><ele>853.1774</ele><time>2026-07-28T02:06:11.000Z</time></trkpt>
        <trkpt lat="29.579229" lon="103.386819"><ele>851.62115</ele><time>2026-07-28T02:06:16.000Z</time></trkpt>
        <trkpt lat="29.579189" lon="103.386858"><ele>850.24854</ele><time>2026-07-28T02:06:22.000Z</time></trkpt>
        <trkpt lat="29.579161" lon="103.386907"><ele>848.9418</ele><time>2026-07-28T02:06:27.000Z</time></trkpt>
        <trkpt lat="29.579135" lon="103.38697"><ele>844.702</ele><time>2026-07-28T02:06:32.000Z</time></trkpt>
        <trkpt lat="29.579111" lon="103.387015"><ele>840.31915</ele><time>2026-07-28T02:06:41.000Z</time></trkpt>
        <trkpt lat="29.579085" lon="103.387059"><ele>836.9512</ele><time>2026-07-28T02:06:52.000Z</time></trkpt>
        <trkpt lat="29.579052" lon="103.387102"><ele>837.41284</ele><time>2026-07-28T02:06:59.000Z</time></trkpt>
        <trkpt lat="29.579025" lon="103.387153"><ele>834.9056</ele><time>2026-07-28T02:07:04.000Z</time></trkpt>
        <trkpt lat="29.579009" lon="103.38721"><ele>833.10394</ele><time>2026-07-28T02:07:10.000Z</time></trkpt>
        <trkpt lat="29.578989" lon="103.387262"><ele>833.49384</ele><time>2026-07-28T02:07:14.000Z</time></trkpt>
        <trkpt lat="29.578977" lon="103.387319"><ele>834.60864</ele><time>2026-07-28T02:07:18.000Z</time></trkpt>
        <trkpt lat="29.578963" lon="103.387371"><ele>835.0368</ele><time>2026-07-28T02:07:22.000Z</time></trkpt>
        <trkpt lat="29.578963" lon="103.387433"><ele>836.5323</ele><time>2026-07-28T02:07:27.000Z</time></trkpt>
        <trkpt lat="29.578965" lon="103.38749"><ele>836.038</ele><time>2026-07-28T02:07:31.000Z</time></trkpt>
        <trkpt lat="29.578957" lon="103.387552"><ele>835.6269</ele><time>2026-07-28T02:07:35.000Z</time></trkpt>
        <trkpt lat="29.57896" lon="103.387609"><ele>835.39484</ele><time>2026-07-28T02:07:39.000Z</time></trkpt>
        <trkpt lat="29.578959" lon="103.387668"><ele>834.51056</ele><time>2026-07-28T02:07:43.000Z</time></trkpt>
        <trkpt lat="29.578973" lon="103.387719"><ele>835.2808</ele><time>2026-07-28T02:07:47.000Z</time></trkpt>
        <trkpt lat="29.578982" lon="103.387777"><ele>835.1399</ele><time>2026-07-28T02:07:51.000Z</time></trkpt>
        <trkpt lat="29.578994" lon="103.387829"><ele>833.9563</ele><time>2026-07-28T02:07:54.000Z</time></trkpt>
        <trkpt lat="29.57899" lon="103.387887"><ele>832.73236</ele><time>2026-07-28T02:08:00.000Z</time></trkpt>
        <trkpt lat="29.579008" lon="103.387937"><ele>830.23413</ele><time>2026-07-28T02:08:05.000Z</time></trkpt>
        <trkpt lat="29.579005" lon="103.387998"><ele>829.7755</ele><time>2026-07-28T02:08:10.000Z</time></trkpt>
        <trkpt lat="29.579004" lon="103.38805"><ele>829.7317</ele><time>2026-07-28T02:08:14.000Z</time></trkpt>
        <trkpt lat="29.579017" lon="103.388101"><ele>829.3962</ele><time>2026-07-28T02:08:17.000Z</time></trkpt>
        <trkpt lat="29.579029" lon="103.388166"><ele>827.13965</ele><time>2026-07-28T02:08:21.000Z</time></trkpt>
        <trkpt lat="29.579025" lon="103.388219"><ele>826.95953</ele><time>2026-07-28T02:08:26.000Z</time></trkpt>
        <trkpt lat="29.579006" lon="103.388267"><ele>828.06824</ele><time>2026-07-28T02:08:32.000Z</time></trkpt>
        <trkpt lat="29.579002" lon="103.38833"><ele>825.70013</ele><time>2026-07-28T02:08:40.000Z</time></trkpt>
        <trkpt lat="29.579" lon="103.388389"><ele>824.60486</ele><time>2026-07-28T02:08:43.000Z</time></trkpt>
        <trkpt lat="29.579013" lon="103.388454"><ele>823.5907</ele><time>2026-07-28T02:08:47.000Z</time></trkpt>
        <trkpt lat="29.57902" lon="103.38851"><ele>824.1998</ele><time>2026-07-28T02:08:51.000Z</time></trkpt>
        <trkpt lat="29.579023" lon="103.388568"><ele>824.56134</ele><time>2026-07-28T02:08:55.000Z</time></trkpt>
        <trkpt lat="29.579" lon="103.388616"><ele>824.54865</ele><time>2026-07-28T02:08:59.000Z</time></trkpt>
        <trkpt lat="29.578976" lon="103.388661"><ele>821.95886</ele><time>2026-07-28T02:09:04.000Z</time></trkpt>
        <trkpt lat="29.578933" lon="103.388698"><ele>818.85376</ele><time>2026-07-28T02:09:11.000Z</time></trkpt>
        <trkpt lat="29.578894" lon="103.388724"><ele>819.39294</ele><time>2026-07-28T02:09:15.000Z</time></trkpt>
        <trkpt lat="29.578847" lon="103.388746"><ele>819.4031</ele><time>2026-07-28T02:09:20.000Z</time></trkpt>
        <trkpt lat="29.578805" lon="103.388777"><ele>820.0385</ele><time>2026-07-28T02:09:24.000Z</time></trkpt>
        <trkpt lat="29.578755" lon="103.388789"><ele>820.5654</ele><time>2026-07-28T02:09:29.000Z</time></trkpt>
        <trkpt lat="29.578706" lon="103.3888"><ele>818.0543</ele><time>2026-07-28T02:09:35.000Z</time></trkpt>
        <trkpt lat="29.578656" lon="103.388817"><ele>816.91644</ele><time>2026-07-28T02:09:39.000Z</time></trkpt>
        <trkpt lat="29.578607" lon="103.388811"><ele>816.6359</ele><time>2026-07-28T02:09:43.000Z</time></trkpt>
        <trkpt lat="29.578557" lon="103.388825"><ele>816.80396</ele><time>2026-07-28T02:09:47.000Z</time></trkpt>
        <trkpt lat="29.578508" lon="103.388846"><ele>816.30164</ele><time>2026-07-28T02:09:51.000Z</time></trkpt>
        <trkpt lat="29.578476" lon="103.388884"><ele>814.4099</ele><time>2026-07-28T02:10:03.000Z</time></trkpt>
        <trkpt lat="29.578464" lon="103.388947"><ele>814.85175</ele><time>2026-07-28T02:10:07.000Z</time></trkpt>
        <trkpt lat="29.578445" lon="103.389005"><ele>813.8395</ele><time>2026-07-28T02:10:13.000Z</time></trkpt>
        <trkpt lat="29.578425" lon="103.389058"><ele>811.89197</ele><time>2026-07-28T02:10:18.000Z</time></trkpt>
        <trkpt lat="29.578414" lon="103.389116"><ele>812.589</ele><time>2026-07-28T02:10:22.000Z</time></trkpt>
        <trkpt lat="29.578407" lon="103.389176"><ele>811.7271</ele><time>2026-07-28T02:10:29.000Z</time></trkpt>
        <trkpt lat="29.5784" lon="103.38923"><ele>813.2026</ele><time>2026-07-28T02:10:36.000Z</time></trkpt>
        <trkpt lat="29.578425" lon="103.389287"><ele>814.6583</ele><time>2026-07-28T02:10:42.000Z</time></trkpt>
        <trkpt lat="29.578444" lon="103.389337"><ele>814.32227</ele><time>2026-07-28T02:10:46.000Z</time></trkpt>
        <trkpt lat="29.578475" lon="103.389392"><ele>815.6954</ele><time>2026-07-28T02:10:52.000Z</time></trkpt>
        <trkpt lat="29.578489" lon="103.389444"><ele>813.6539</ele><time>2026-07-28T02:10:57.000Z</time></trkpt>
        <trkpt lat="29.578498" lon="103.389499"><ele>813.1829</ele><time>2026-07-28T02:11:02.000Z</time></trkpt>
        <trkpt lat="29.578509" lon="103.38956"><ele>814.16815</ele><time>2026-07-28T02:11:07.000Z</time></trkpt>
        <trkpt lat="29.578524" lon="103.389623"><ele>813.9363</ele><time>2026-07-28T02:11:14.000Z</time></trkpt>
        <trkpt lat="29.578517" lon="103.389678"><ele>812.8955</ele><time>2026-07-28T02:11:18.000Z</time></trkpt>
        <trkpt lat="29.578514" lon="103.389742"><ele>812.94916</ele><time>2026-07-28T02:11:24.000Z</time></trkpt>
        <trkpt lat="29.578491" lon="103.389791"><ele>810.5492</ele><time>2026-07-28T02:11:29.000Z</time></trkpt>
        <trkpt lat="29.578463" lon="103.38985"><ele>811.26056</ele><time>2026-07-28T02:11:33.000Z</time></trkpt>
        <trkpt lat="29.578454" lon="103.389902"><ele>810.1546</ele><time>2026-07-28T02:11:37.000Z</time></trkpt>
        <trkpt lat="29.578441" lon="103.389959"><ele>808.9254</ele><time>2026-07-28T02:11:41.000Z</time></trkpt>
        <trkpt lat="29.578429" lon="103.390011"><ele>808.94025</ele><time>2026-07-28T02:11:44.000Z</time></trkpt>
        <trkpt lat="29.578398" lon="103.390068"><ele>809.47314</ele><time>2026-07-28T02:11:48.000Z</time></trkpt>
        <trkpt lat="29.578381" lon="103.390117"><ele>808.5723</ele><time>2026-07-28T02:11:51.000Z</time></trkpt>
        <trkpt lat="29.57836" lon="103.390182"><ele>808.6213</ele><time>2026-07-28T02:11:55.000Z</time></trkpt>
        <trkpt lat="29.578343" lon="103.39023"><ele>807.0573</ele><time>2026-07-28T02:11:58.000Z</time></trkpt>
        <trkpt lat="29.578324" lon="103.390288"><ele>804.82104</ele><time>2026-07-28T02:12:02.000Z</time></trkpt>
        <trkpt lat="29.578295" lon="103.39034"><ele>805.11664</ele><time>2026-07-28T02:12:05.000Z</time></trkpt>
        <trkpt lat="29.578273" lon="103.390399"><ele>803.952</ele><time>2026-07-28T02:12:09.000Z</time></trkpt>
        <trkpt lat="29.578247" lon="103.390444"><ele>803.07446</ele><time>2026-07-28T02:12:12.000Z</time></trkpt>
        <trkpt lat="29.578221" lon="103.390493"><ele>802.9913</ele><time>2026-07-28T02:12:15.000Z</time></trkpt>
        <trkpt lat="29.578197" lon="103.390547"><ele>802.72595</ele><time>2026-07-28T02:12:18.000Z</time></trkpt>
        <trkpt lat="29.578161" lon="103.390602"><ele>804.50494</ele><time>2026-07-28T02:12:22.000Z</time></trkpt>
        <trkpt lat="29.578133" lon="103.390653"><ele>804.58514</ele><time>2026-07-28T02:12:26.000Z</time></trkpt>
        <trkpt lat="29.578116" lon="103.390712"><ele>803.3823</ele><time>2026-07-28T02:12:31.000Z</time></trkpt>
        <trkpt lat="29.57809" lon="103.390758"><ele>803.7667</ele><time>2026-07-28T02:12:34.000Z</time></trkpt>
        <trkpt lat="29.578067" lon="103.390813"><ele>803.5265</ele><time>2026-07-28T02:12:38.000Z</time></trkpt>
        <trkpt lat="29.57805" lon="103.390863"><ele>803.7484</ele><time>2026-07-28T02:12:42.000Z</time></trkpt>
        <trkpt lat="29.578018" lon="103.390907"><ele>804.19196</ele><time>2026-07-28T02:12:46.000Z</time></trkpt>
        <trkpt lat="29.577979" lon="103.390949"><ele>803.33</ele><time>2026-07-28T02:12:50.000Z</time></trkpt>
        <trkpt lat="29.577948" lon="103.39099"><ele>802.7678</ele><time>2026-07-28T02:12:54.000Z</time></trkpt>
        <trkpt lat="29.577931" lon="103.391039"><ele>801.83563</ele><time>2026-07-28T02:12:57.000Z</time></trkpt>
        <trkpt lat="29.577934" lon="103.391093"><ele>800.3802</ele><time>2026-07-28T02:13:01.000Z</time></trkpt>
        <trkpt lat="29.577888" lon="103.391107"><ele>799.94366</ele><time>2026-07-28T02:13:08.000Z</time></trkpt>
        <trkpt lat="29.577841" lon="103.391101"><ele>799.7845</ele><time>2026-07-28T02:13:14.000Z</time></trkpt>
        <trkpt lat="29.577795" lon="103.391072"><ele>799.18164</ele><time>2026-07-28T02:13:18.000Z</time></trkpt>
        <trkpt lat="29.57775" lon="103.391036"><ele>798.8687</ele><time>2026-07-28T02:13:23.000Z</time></trkpt>
        <trkpt lat="29.577701" lon="103.391028"><ele>798.8444</ele><time>2026-07-28T02:13:26.000Z</time></trkpt>
        <trkpt lat="29.577653" lon="103.391016"><ele>797.02704</ele><time>2026-07-28T02:13:31.000Z</time></trkpt>
        <trkpt lat="29.577605" lon="103.390996"><ele>793.6629</ele><time>2026-07-28T02:13:35.000Z</time></trkpt>
        <trkpt lat="29.577546" lon="103.390982"><ele>790.6346</ele><time>2026-07-28T02:13:41.000Z</time></trkpt>
        <trkpt lat="29.577499" lon="103.39096"><ele>790.5333</ele><time>2026-07-28T02:13:46.000Z</time></trkpt>
        <trkpt lat="29.577454" lon="103.390937"><ele>788.64417</ele><time>2026-07-28T02:13:50.000Z</time></trkpt>
        <trkpt lat="29.577401" lon="103.390924"><ele>788.1787</ele><time>2026-07-28T02:13:54.000Z</time></trkpt>
        <trkpt lat="29.577341" lon="103.390924"><ele>788.32153</ele><time>2026-07-28T02:13:58.000Z</time></trkpt>
        <trkpt lat="29.57728" lon="103.390941"><ele>786.15216</ele><time>2026-07-28T02:14:03.000Z</time></trkpt>
        <trkpt lat="29.577238" lon="103.390986"><ele>786.0855</ele><time>2026-07-28T02:14:06.000Z</time></trkpt>
        <trkpt lat="29.5772" lon="103.391019"><ele>786.92175</ele><time>2026-07-28T02:14:09.000Z</time></trkpt>
        <trkpt lat="29.577162" lon="103.391064"><ele>787.58575</ele><time>2026-07-28T02:14:14.000Z</time></trkpt>
        <trkpt lat="29.577144" lon="103.391115"><ele>784.06055</ele><time>2026-07-28T02:14:19.000Z</time></trkpt>
        <trkpt lat="29.577117" lon="103.391179"><ele>783.91516</ele><time>2026-07-28T02:14:22.000Z</time></trkpt>
        <trkpt lat="29.577084" lon="103.391229"><ele>782.9469</ele><time>2026-07-28T02:14:26.000Z</time></trkpt>
        <trkpt lat="29.577044" lon="103.391278"><ele>783.4537</ele><time>2026-07-28T02:14:31.000Z</time></trkpt>
        <trkpt lat="29.577021" lon="103.391329"><ele>782.7925</ele><time>2026-07-28T02:14:34.000Z</time></trkpt>
        <trkpt lat="29.577" lon="103.391378"><ele>782.4234</ele><time>2026-07-28T02:14:37.000Z</time></trkpt>
        <trkpt lat="29.57697" lon="103.391418"><ele>782.8483</ele><time>2026-07-28T02:14:43.000Z</time></trkpt>
        <trkpt lat="29.576939" lon="103.391472"><ele>781.8741</ele><time>2026-07-28T02:14:47.000Z</time></trkpt>
        <trkpt lat="29.576916" lon="103.391527"><ele>781.44604</ele><time>2026-07-28T02:14:50.000Z</time></trkpt>
        <trkpt lat="29.576894" lon="103.391578"><ele>781.4003</ele><time>2026-07-28T02:14:53.000Z</time></trkpt>
        <trkpt lat="29.576868" lon="103.391643"><ele>780.1763</ele><time>2026-07-28T02:14:57.000Z</time></trkpt>
        <trkpt lat="29.57686" lon="103.391708"><ele>778.56226</ele><time>2026-07-28T02:15:01.000Z</time></trkpt>
        <trkpt lat="29.576829" lon="103.391748"><ele>777.56366</ele><time>2026-07-28T02:15:04.000Z</time></trkpt>
        <trkpt lat="29.576805" lon="103.391803"><ele>776.7999</ele><time>2026-07-28T02:15:08.000Z</time></trkpt>
        <trkpt lat="29.576774" lon="103.391848"><ele>778.1686</ele><time>2026-07-28T02:15:12.000Z</time></trkpt>
        <trkpt lat="29.576734" lon="103.391874"><ele>779.5925</ele><time>2026-07-28T02:15:16.000Z</time></trkpt>
        <trkpt lat="29.576687" lon="103.391896"><ele>777.96265</ele><time>2026-07-28T02:15:20.000Z</time></trkpt>
        <trkpt lat="29.576632" lon="103.391927"><ele>778.6017</ele><time>2026-07-28T02:15:24.000Z</time></trkpt>
        <trkpt lat="29.576601" lon="103.391966"><ele>778.8196</ele><time>2026-07-28T02:15:27.000Z</time></trkpt>
        <trkpt lat="29.576562" lon="103.392003"><ele>779.8385</ele><time>2026-07-28T02:15:31.000Z</time></trkpt>
        <trkpt lat="29.576529" lon="103.39196"><ele>771.6093</ele><time>2026-07-28T02:15:39.000Z</time></trkpt>
        <trkpt lat="29.576479" lon="103.391969"><ele>769.31256</ele><time>2026-07-28T02:15:45.000Z</time></trkpt>
        <trkpt lat="29.576429" lon="103.391965"><ele>766.76447</ele><time>2026-07-28T02:15:50.000Z</time></trkpt>
        <trkpt lat="29.576376" lon="103.391954"><ele>765.0605</ele><time>2026-07-28T02:15:54.000Z</time></trkpt>
        <trkpt lat="29.576324" lon="103.391936"><ele>763.8492</ele><time>2026-07-28T02:15:58.000Z</time></trkpt>
        <trkpt lat="29.576276" lon="103.391935"><ele>761.90717</ele><time>2026-07-28T02:16:01.000Z</time></trkpt>
        <trkpt lat="29.576226" lon="103.391922"><ele>759.18524</ele><time>2026-07-28T02:16:05.000Z</time></trkpt>
        <trkpt lat="29.576178" lon="103.391912"><ele>758.494</ele><time>2026-07-28T02:16:08.000Z</time></trkpt>
        <trkpt lat="29.576126" lon="103.391899"><ele>755.792</ele><time>2026-07-28T02:16:12.000Z</time></trkpt>
        <trkpt lat="29.576079" lon="103.391877"><ele>755.9579</ele><time>2026-07-28T02:16:16.000Z</time></trkpt>
        <trkpt lat="29.576034" lon="103.391853"><ele>755.54895</ele><time>2026-07-28T02:16:21.000Z</time></trkpt>
        <trkpt lat="29.575982" lon="103.391838"><ele>756.42566</ele><time>2026-07-28T02:16:25.000Z</time></trkpt>
        <trkpt lat="29.575933" lon="103.391861"><ele>755.0269</ele><time>2026-07-28T02:16:30.000Z</time></trkpt>
        <trkpt lat="29.57588" lon="103.391886"><ele>752.8839</ele><time>2026-07-28T02:16:35.000Z</time></trkpt>
        <trkpt lat="29.575832" lon="103.391909"><ele>751.3164</ele><time>2026-07-28T02:16:39.000Z</time></trkpt>
        <trkpt lat="29.575782" lon="103.391926"><ele>748.15906</ele><time>2026-07-28T02:16:47.000Z</time></trkpt>
        <trkpt lat="29.575739" lon="103.391897"><ele>744.61005</ele><time>2026-07-28T02:16:52.000Z</time></trkpt>
        <trkpt lat="29.575692" lon="103.39189"><ele>743.07245</ele><time>2026-07-28T02:16:56.000Z</time></trkpt>
        <trkpt lat="29.575645" lon="103.391877"><ele>741.5346</ele><time>2026-07-28T02:17:00.000Z</time></trkpt>
        <trkpt lat="29.575597" lon="103.391852"><ele>738.9872</ele><time>2026-07-28T02:17:06.000Z</time></trkpt>
        <trkpt lat="29.575539" lon="103.391837"><ele>737.7229</ele><time>2026-07-28T02:17:11.000Z</time></trkpt>
        <trkpt lat="29.575493" lon="103.391827"><ele>736.184</ele><time>2026-07-28T02:17:15.000Z</time></trkpt>
        <trkpt lat="29.575452" lon="103.391854"><ele>733.8492</ele><time>2026-07-28T02:17:20.000Z</time></trkpt>
        <trkpt lat="29.5754" lon="103.391878"><ele>733.45654</ele><time>2026-07-28T02:17:24.000Z</time></trkpt>
        <trkpt lat="29.575356" lon="103.391905"><ele>731.47687</ele><time>2026-07-28T02:17:28.000Z</time></trkpt>
        <trkpt lat="29.575312" lon="103.391928"><ele>728.80237</ele><time>2026-07-28T02:17:32.000Z</time></trkpt>
        <trkpt lat="29.575266" lon="103.391958"><ele>727.48596</ele><time>2026-07-28T02:17:38.000Z</time></trkpt>
        <trkpt lat="29.575219" lon="103.391979"><ele>727.16565</ele><time>2026-07-28T02:17:42.000Z</time></trkpt>
        <trkpt lat="29.575169" lon="103.392006"><ele>726.49976</ele><time>2026-07-28T02:17:47.000Z</time></trkpt>
        <trkpt lat="29.57512" lon="103.392022"><ele>726.61115</ele><time>2026-07-28T02:17:51.000Z</time></trkpt>
        <trkpt lat="29.575081" lon="103.392054"><ele>725.21</ele><time>2026-07-28T02:17:56.000Z</time></trkpt>
        <trkpt lat="29.575037" lon="103.39207"><ele>724.8364</ele><time>2026-07-28T02:17:58.000Z</time></trkpt>
        <trkpt lat="29.574992" lon="103.392089"><ele>721.6295</ele><time>2026-07-28T02:18:04.000Z</time></trkpt>
        <trkpt lat="29.574945" lon="103.392091"><ele>719.46356</ele><time>2026-07-28T02:18:07.000Z</time></trkpt>
        <trkpt lat="29.574903" lon="103.392114"><ele>720.0124</ele><time>2026-07-28T02:18:11.000Z</time></trkpt>
        <trkpt lat="29.574857" lon="103.392112"><ele>716.9312</ele><time>2026-07-28T02:18:17.000Z</time></trkpt>
        <trkpt lat="29.574807" lon="103.392134"><ele>715.38477</ele><time>2026-07-28T02:18:23.000Z</time></trkpt>
        <trkpt lat="29.574761" lon="103.392146"><ele>713.8358</ele><time>2026-07-28T02:18:27.000Z</time></trkpt>
        <trkpt lat="29.574701" lon="103.392144"><ele>712.58746</ele><time>2026-07-28T02:18:32.000Z</time></trkpt>
        <trkpt lat="29.574655" lon="103.392151"><ele>711.69965</ele><time>2026-07-28T02:18:36.000Z</time></trkpt>
        <trkpt lat="29.57461" lon="103.392155"><ele>710.0231</ele><time>2026-07-28T02:18:48.000Z</time></trkpt>
        <trkpt lat="29.574562" lon="103.392142"><ele>705.7103</ele><time>2026-07-28T02:19:01.000Z</time></trkpt>
        <trkpt lat="29.574513" lon="103.392142"><ele>704.8141</ele><time>2026-07-28T02:19:09.000Z</time></trkpt>
        <trkpt lat="29.574468" lon="103.392167"><ele>706.72766</ele><time>2026-07-28T02:19:16.000Z</time></trkpt>
        <trkpt lat="29.57443" lon="103.392199"><ele>705.8992</ele><time>2026-07-28T02:19:23.000Z</time></trkpt>
        <trkpt lat="29.57437" lon="103.392224"><ele>705.1909</ele><time>2026-07-28T02:19:29.000Z</time></trkpt>
        <trkpt lat="29.574329" lon="103.392256"><ele>703.9897</ele><time>2026-07-28T02:19:37.000Z</time></trkpt>
        <trkpt lat="29.574332" lon="103.392308"><ele>703.4655</ele><time>2026-07-28T02:19:49.000Z</time></trkpt>
        <trkpt lat="29.574274" lon="103.392307"><ele>700.5782</ele><time>2026-07-28T02:20:06.000Z</time></trkpt>
        <trkpt lat="29.574238" lon="103.392246"><ele>700.0988</ele><time>2026-07-28T02:20:10.000Z</time></trkpt>
        <trkpt lat="29.574261" lon="103.392292"><ele>700.69403</ele><time>2026-07-28T02:20:17.000Z</time></trkpt>
        <trkpt lat="29.574255" lon="103.392348"><ele>701.26276</ele><time>2026-07-28T02:20:22.000Z</time></trkpt>
        <trkpt lat="29.574232" lon="103.392404"><ele>702.2802</ele><time>2026-07-28T02:20:36.000Z</time></trkpt>
        <trkpt lat="29.574186" lon="103.392415"><ele>703.8027</ele><time>2026-07-28T02:20:47.000Z</time></trkpt>
        <trkpt lat="29.574136" lon="103.392398"><ele>703.4367</ele><time>2026-07-28T02:21:01.000Z</time></trkpt>
        <trkpt lat="29.574095" lon="103.392426"><ele>702.7606</ele><time>2026-07-28T02:21:12.000Z</time></trkpt>
        <trkpt lat="29.574085" lon="103.392486"><ele>701.6253</ele><time>2026-07-28T02:21:17.000Z</time></trkpt>
        <trkpt lat="29.574064" lon="103.392544"><ele>701.5845</ele><time>2026-07-28T02:21:24.000Z</time></trkpt>
        <trkpt lat="29.574084" lon="103.392595"><ele>701.4028</ele><time>2026-07-28T02:21:33.000Z</time></trkpt>
        <trkpt lat="29.574088" lon="103.39265"><ele>702.7515</ele><time>2026-07-28T02:21:40.000Z</time></trkpt>
        <trkpt lat="29.574077" lon="103.392701"><ele>703.0468</ele><time>2026-07-28T02:21:49.000Z</time></trkpt>
        <trkpt lat="29.574094" lon="103.392754"><ele>705.9039</ele><time>2026-07-28T02:21:59.000Z</time></trkpt>
        <trkpt lat="29.574121" lon="103.392796"><ele>708.4666</ele><time>2026-07-28T02:22:07.000Z</time></trkpt>
        <trkpt lat="29.574155" lon="103.392834"><ele>708.95984</ele><time>2026-07-28T02:22:12.000Z</time></trkpt>
        <trkpt lat="29.57416" lon="103.3929"><ele>708.6813</ele><time>2026-07-28T02:22:18.000Z</time></trkpt>
        <trkpt lat="29.574158" lon="103.392956"><ele>709.7383</ele><time>2026-07-28T02:22:25.000Z</time></trkpt>
        <trkpt lat="29.574194" lon="103.393002"><ele>710.67206</ele><time>2026-07-28T02:22:30.000Z</time></trkpt>
        <trkpt lat="29.574249" lon="103.393026"><ele>712.10126</ele><time>2026-07-28T02:22:35.000Z</time></trkpt>
        <trkpt lat="29.574297" lon="103.393049"><ele>713.1339</ele><time>2026-07-28T02:22:42.000Z</time></trkpt>
        <trkpt lat="29.574344" lon="103.393069"><ele>713.455</ele><time>2026-07-28T02:22:52.000Z</time></trkpt>
        <trkpt lat="29.574388" lon="103.393097"><ele>711.3928</ele><time>2026-07-28T02:22:59.000Z</time></trkpt>
        <trkpt lat="29.57442" lon="103.393143"><ele>710.3609</ele><time>2026-07-28T02:23:04.000Z</time></trkpt>
        <trkpt lat="29.574443" lon="103.393193"><ele>709.355</ele><time>2026-07-28T02:23:12.000Z</time></trkpt>
        <trkpt lat="29.574483" lon="103.393234"><ele>709.65607</ele><time>2026-07-28T02:23:17.000Z</time></trkpt>
        <trkpt lat="29.57451" lon="103.393282"><ele>707.871</ele><time>2026-07-28T02:23:25.000Z</time></trkpt>
        <trkpt lat="29.574527" lon="103.393339"><ele>707.806</ele><time>2026-07-28T02:23:31.000Z</time></trkpt>
        <trkpt lat="29.574539" lon="103.393396"><ele>706.9416</ele><time>2026-07-28T02:23:36.000Z</time></trkpt>
        <trkpt lat="29.574518" lon="103.393442"><ele>707.3706</ele><time>2026-07-28T02:23:40.000Z</time></trkpt>
        <trkpt lat="29.574476" lon="103.393482"><ele>705.71</ele><time>2026-07-28T02:23:44.000Z</time></trkpt>
        <trkpt lat="29.574441" lon="103.393527"><ele>705.48956</ele><time>2026-07-28T02:23:49.000Z</time></trkpt>
        <trkpt lat="29.574453" lon="103.393579"><ele>706.24194</ele><time>2026-07-28T02:24:00.000Z</time></trkpt>
        <trkpt lat="29.574458" lon="103.393637"><ele>706.7871</ele><time>2026-07-28T02:24:08.000Z</time></trkpt>
        <trkpt lat="29.574445" lon="103.393691"><ele>704.3929</ele><time>2026-07-28T02:24:15.000Z</time></trkpt>
        <trkpt lat="29.574409" lon="103.393728"><ele>703.08075</ele><time>2026-07-28T02:24:19.000Z</time></trkpt>
        <trkpt lat="29.574384" lon="103.393776"><ele>703.6815</ele><time>2026-07-28T02:24:24.000Z</time></trkpt>
        <trkpt lat="29.574357" lon="103.393821"><ele>702.35</ele><time>2026-07-28T02:24:29.000Z</time></trkpt>
        <trkpt lat="29.574338" lon="103.393881"><ele>701.35724</ele><time>2026-07-28T02:24:36.000Z</time></trkpt>
        <trkpt lat="29.574361" lon="103.393928"><ele>701.4729</ele><time>2026-07-28T02:24:43.000Z</time></trkpt>
        <trkpt lat="29.574373" lon="103.393977"><ele>700.6271</ele><time>2026-07-28T02:24:49.000Z</time></trkpt>
        <trkpt lat="29.574407" lon="103.394026"><ele>699.2097</ele><time>2026-07-28T02:24:54.000Z</time></trkpt>
        <trkpt lat="29.574409" lon="103.39409"><ele>700.4788</ele><time>2026-07-28T02:25:11.000Z</time></trkpt>
        <trkpt lat="29.574409" lon="103.394011"><ele>701.82367</ele><time>2026-07-28T02:25:16.000Z</time></trkpt>
        <trkpt lat="29.574567" lon="103.394207"><ele>698.12</ele><time>2026-07-28T02:25:27.000Z</time></trkpt>
        <trkpt lat="29.574607" lon="103.39412"><ele>697.9316</ele><time>2026-07-28T02:25:28.000Z</time></trkpt>
        <trkpt lat="29.574658" lon="103.394115"><ele>697.9368</ele><time>2026-07-28T02:25:29.000Z</time></trkpt>
        <trkpt lat="29.574677" lon="103.394062"><ele>697.73</ele><time>2026-07-28T02:25:33.000Z</time></trkpt>
        <trkpt lat="29.574642" lon="103.394007"><ele>697.6525</ele><time>2026-07-28T02:25:40.000Z</time></trkpt>
        <trkpt lat="29.574585" lon="103.394065"><ele>697.7033</ele><time>2026-07-28T02:25:41.000Z</time></trkpt>
        <trkpt lat="29.574462" lon="103.394038"><ele>706.1783</ele><time>2026-07-28T02:26:13.000Z</time></trkpt>
        <trkpt lat="29.574602" lon="103.394044"><ele>698.2064</ele><time>2026-07-28T02:26:23.000Z</time></trkpt>
        <trkpt lat="29.574611" lon="103.394107"><ele>698.0559</ele><time>2026-07-28T02:26:30.000Z</time></trkpt>
        <trkpt lat="29.574561" lon="103.394102"><ele>693.9144</ele><time>2026-07-28T02:27:37.000Z</time></trkpt>
        <trkpt lat="29.574615" lon="103.394092"><ele>692.8259</ele><time>2026-07-28T02:28:07.000Z</time></trkpt>
        <trkpt lat="29.57462" lon="103.394153"><ele>691.97394</ele><time>2026-07-28T02:28:19.000Z</time></trkpt>
        <trkpt lat="29.574611" lon="103.39421"><ele>692.05853</ele><time>2026-07-28T02:28:25.000Z</time></trkpt>
        <trkpt lat="29.574654" lon="103.394232"><ele>691.96893</ele><time>2026-07-28T02:28:54.000Z</time></trkpt>
        <trkpt lat="29.574605" lon="103.394285"><ele>692.6412</ele><time>2026-07-28T02:29:07.000Z</time></trkpt>
        <trkpt lat="29.574543" lon="103.394337"><ele>692.39655</ele><time>2026-07-28T02:29:09.000Z</time></trkpt>
        <trkpt lat="29.574477" lon="103.394368"><ele>692.6386</ele><time>2026-07-28T02:29:12.000Z</time></trkpt>
        <trkpt lat="29.574421" lon="103.394381"><ele>692.3506</ele><time>2026-07-28T02:29:15.000Z</time></trkpt>
        <trkpt lat="29.574369" lon="103.394416"><ele>692.45917</ele><time>2026-07-28T02:29:18.000Z</time></trkpt>
        <trkpt lat="29.574295" lon="103.39446"><ele>693.16644</ele><time>2026-07-28T02:29:20.000Z</time></trkpt>
        <trkpt lat="29.574244" lon="103.394475"><ele>693.35974</ele><time>2026-07-28T02:29:21.000Z</time></trkpt>
        <trkpt lat="29.574197" lon="103.394491"><ele>693.4784</ele><time>2026-07-28T02:29:22.000Z</time></trkpt>
        <trkpt lat="29.574137" lon="103.394528"><ele>695.0889</ele><time>2026-07-28T02:29:24.000Z</time></trkpt>
        <trkpt lat="29.574086" lon="103.394577"><ele>696.1468</ele><time>2026-07-28T02:29:27.000Z</time></trkpt>
        <trkpt lat="29.57404" lon="103.39466"><ele>696.51904</ele><time>2026-07-28T02:29:29.000Z</time></trkpt>
        <trkpt lat="29.574043" lon="103.394761"><ele>699.37476</ele><time>2026-07-28T02:29:31.000Z</time></trkpt>
        <trkpt lat="29.574052" lon="103.394845"><ele>700.4821</ele><time>2026-07-28T02:29:33.000Z</time></trkpt>
        <trkpt lat="29.57404" lon="103.394901"><ele>701.32904</ele><time>2026-07-28T02:29:35.000Z</time></trkpt>
        <trkpt lat="29.573991" lon="103.394929"><ele>700.861</ele><time>2026-07-28T02:29:37.000Z</time></trkpt>
        <trkpt lat="29.573933" lon="103.394918"><ele>702.32776</ele><time>2026-07-28T02:29:38.000Z</time></trkpt>
        <trkpt lat="29.57389" lon="103.394881"><ele>704.7248</ele><time>2026-07-28T02:29:39.000Z</time></trkpt>
        <trkpt lat="29.573856" lon="103.394843"><ele>705.8948</ele><time>2026-07-28T02:29:40.000Z</time></trkpt>
        <trkpt lat="29.573781" lon="103.394785"><ele>708.6372</ele><time>2026-07-28T02:29:42.000Z</time></trkpt>
        <trkpt lat="29.573708" lon="103.394736"><ele>710.7934</ele><time>2026-07-28T02:29:44.000Z</time></trkpt>
        <trkpt lat="29.573646" lon="103.394768"><ele>712.6384</ele><time>2026-07-28T02:29:46.000Z</time></trkpt>
        <trkpt lat="29.573662" lon="103.394861"><ele>716.47</ele><time>2026-07-28T02:29:48.000Z</time></trkpt>
        <trkpt lat="29.573689" lon="103.394924"><ele>715.8421</ele><time>2026-07-28T02:29:49.000Z</time></trkpt>
        <trkpt lat="29.573722" lon="103.394999"><ele>716.77515</ele><time>2026-07-28T02:29:51.000Z</time></trkpt>
        <trkpt lat="29.573726" lon="103.395088"><ele>718.0163</ele><time>2026-07-28T02:29:53.000Z</time></trkpt>
        <trkpt lat="29.573685" lon="103.395207"><ele>719.4773</ele><time>2026-07-28T02:29:54.000Z</time></trkpt>
        <trkpt lat="29.573684" lon="103.395298"><ele>720.87805</ele><time>2026-07-28T02:29:56.000Z</time></trkpt>
        <trkpt lat="29.573687" lon="103.395357"><ele>721.8826</ele><time>2026-07-28T02:29:57.000Z</time></trkpt>
        <trkpt lat="29.573682" lon="103.395418"><ele>723.33026</ele><time>2026-07-28T02:29:58.000Z</time></trkpt>
        <trkpt lat="29.573652" lon="103.395483"><ele>724.1876</ele><time>2026-07-28T02:30:00.000Z</time></trkpt>
        <trkpt lat="29.57362" lon="103.395528"><ele>725.6525</ele><time>2026-07-28T02:30:03.000Z</time></trkpt>
        <trkpt lat="29.573571" lon="103.395568"><ele>726.1218</ele><time>2026-07-28T02:30:07.000Z</time></trkpt>
        <trkpt lat="29.573525" lon="103.395555"><ele>727.12274</ele><time>2026-07-28T02:30:09.000Z</time></trkpt>
        <trkpt lat="29.573503" lon="103.395448"><ele>729.1489</ele><time>2026-07-28T02:30:11.000Z</time></trkpt>
        <trkpt lat="29.573487" lon="103.395328"><ele>731.18384</ele><time>2026-07-28T02:30:13.000Z</time></trkpt>
        <trkpt lat="29.573484" lon="103.395262"><ele>733.03815</ele><time>2026-07-28T02:30:14.000Z</time></trkpt>
        <trkpt lat="29.573458" lon="103.395177"><ele>735.8213</ele><time>2026-07-28T02:30:16.000Z</time></trkpt>
        <trkpt lat="29.573401" lon="103.395132"><ele>735.1047</ele><time>2026-07-28T02:30:19.000Z</time></trkpt>
        <trkpt lat="29.573358" lon="103.395186"><ele>737.00903</ele><time>2026-07-28T02:30:21.000Z</time></trkpt>
        <trkpt lat="29.573348" lon="103.395239"><ele>737.8027</ele><time>2026-07-28T02:30:22.000Z</time></trkpt>
        <trkpt lat="29.573348" lon="103.395353"><ele>739.4434</ele><time>2026-07-28T02:30:24.000Z</time></trkpt>
        <trkpt lat="29.573347" lon="103.395421"><ele>740.18677</ele><time>2026-07-28T02:30:25.000Z</time></trkpt>
        <trkpt lat="29.57335" lon="103.395484"><ele>741.40967</ele><time>2026-07-28T02:30:26.000Z</time></trkpt>
        <trkpt lat="29.57335" lon="103.395544"><ele>742.2145</ele><time>2026-07-28T02:30:27.000Z</time></trkpt>
        <trkpt lat="29.573346" lon="103.3956"><ele>742.84143</ele><time>2026-07-28T02:30:28.000Z</time></trkpt>
        <trkpt lat="29.573345" lon="103.395657"><ele>743.836</ele><time>2026-07-28T02:30:29.000Z</time></trkpt>
        <trkpt lat="29.57334" lon="103.395715"><ele>744.15283</ele><time>2026-07-28T02:30:30.000Z</time></trkpt>
        <trkpt lat="29.573337" lon="103.395777"><ele>744.32324</ele><time>2026-07-28T02:30:31.000Z</time></trkpt>
        <trkpt lat="29.573344" lon="103.395847"><ele>743.84766</ele><time>2026-07-28T02:30:32.000Z</time></trkpt>
        <trkpt lat="29.573339" lon="103.395924"><ele>743.7385</ele><time>2026-07-28T02:30:33.000Z</time></trkpt>
        <trkpt lat="29.573334" lon="103.395996"><ele>743.82007</ele><time>2026-07-28T02:30:34.000Z</time></trkpt>
        <trkpt lat="29.573324" lon="103.396069"><ele>742.95013</ele><time>2026-07-28T02:30:35.000Z</time></trkpt>
        <trkpt lat="29.573308" lon="103.396131"><ele>742.83545</ele><time>2026-07-28T02:30:36.000Z</time></trkpt>
        <trkpt lat="29.573286" lon="103.396193"><ele>742.60254</ele><time>2026-07-28T02:30:37.000Z</time></trkpt>
        <trkpt lat="29.573263" lon="103.396247"><ele>742.11865</ele><time>2026-07-28T02:30:38.000Z</time></trkpt>
        <trkpt lat="29.573228" lon="103.396308"><ele>742.12177</ele><time>2026-07-28T02:30:39.000Z</time></trkpt>
        <trkpt lat="29.573201" lon="103.396351"><ele>742.2634</ele><time>2026-07-28T02:30:40.000Z</time></trkpt>
        <trkpt lat="29.573174" lon="103.396434"><ele>742.95654</ele><time>2026-07-28T02:30:42.000Z</time></trkpt>
        <trkpt lat="29.573176" lon="103.3965"><ele>744.85266</ele><time>2026-07-28T02:30:44.000Z</time></trkpt>
        <trkpt lat="29.573184" lon="103.39661"><ele>745.33276</ele><time>2026-07-28T02:30:46.000Z</time></trkpt>
        <trkpt lat="29.573185" lon="103.396671"><ele>745.53015</ele><time>2026-07-28T02:30:47.000Z</time></trkpt>
        <trkpt lat="29.573184" lon="103.396736"><ele>745.1124</ele><time>2026-07-28T02:30:48.000Z</time></trkpt>
        <trkpt lat="29.573175" lon="103.396803"><ele>745.1337</ele><time>2026-07-28T02:30:49.000Z</time></trkpt>
        <trkpt lat="29.573153" lon="103.396873"><ele>745.0208</ele><time>2026-07-28T02:30:50.000Z</time></trkpt>
        <trkpt lat="29.572982" lon="103.396971"><ele>744.9649</ele><time>2026-07-28T02:30:52.000Z</time></trkpt>
        <trkpt lat="29.572959" lon="103.39706"><ele>745.71906</ele><time>2026-07-28T02:30:53.000Z</time></trkpt>
        <trkpt lat="29.572954" lon="103.397127"><ele>746.511</ele><time>2026-07-28T02:30:54.000Z</time></trkpt>
        <trkpt lat="29.572923" lon="103.397199"><ele>747.14526</ele><time>2026-07-28T02:30:55.000Z</time></trkpt>
        <trkpt lat="29.572892" lon="103.397272"><ele>748.2145</ele><time>2026-07-28T02:30:56.000Z</time></trkpt>
        <trkpt lat="29.572856" lon="103.397322"><ele>749.4423</ele><time>2026-07-28T02:30:57.000Z</time></trkpt>
        <trkpt lat="29.572827" lon="103.397366"><ele>750.90765</ele><time>2026-07-28T02:30:58.000Z</time></trkpt>
        <trkpt lat="29.572859" lon="103.397455"><ele>752.85986</ele><time>2026-07-28T02:30:59.000Z</time></trkpt>
        <trkpt lat="29.572802" lon="103.397458"><ele>754.38416</ele><time>2026-07-28T02:31:02.000Z</time></trkpt>
        <trkpt lat="29.572775" lon="103.397415"><ele>753.7312</ele><time>2026-07-28T02:31:03.000Z</time></trkpt>
        <trkpt lat="29.572759" lon="103.397317"><ele>756.5774</ele><time>2026-07-28T02:31:05.000Z</time></trkpt>
        <trkpt lat="29.572753" lon="103.397252"><ele>757.12646</ele><time>2026-07-28T02:31:06.000Z</time></trkpt>
        <trkpt lat="29.572751" lon="103.397171"><ele>757.5379</ele><time>2026-07-28T02:31:08.000Z</time></trkpt>
        <trkpt lat="29.572748" lon="103.397106"><ele>757.6494</ele><time>2026-07-28T02:31:10.000Z</time></trkpt>
        <trkpt lat="29.572741" lon="103.397033"><ele>759.1322</ele><time>2026-07-28T02:31:12.000Z</time></trkpt>
        <trkpt lat="29.572701" lon="103.396946"><ele>760.28735</ele><time>2026-07-28T02:31:14.000Z</time></trkpt>
        <trkpt lat="29.572608" lon="103.396947"><ele>761.23474</ele><time>2026-07-28T02:31:16.000Z</time></trkpt>
        <trkpt lat="29.572568" lon="103.396998"><ele>762.2457</ele><time>2026-07-28T02:31:17.000Z</time></trkpt>
        <trkpt lat="29.572529" lon="103.397113"><ele>765.9914</ele><time>2026-07-28T02:31:19.000Z</time></trkpt>
        <trkpt lat="29.572524" lon="103.397219"><ele>766.81116</ele><time>2026-07-28T02:31:20.000Z</time></trkpt>
        <trkpt lat="29.572501" lon="103.39729"><ele>767.6595</ele><time>2026-07-28T02:31:21.000Z</time></trkpt>
        <trkpt lat="29.572486" lon="103.397385"><ele>771.8188</ele><time>2026-07-28T02:31:23.000Z</time></trkpt>
        <trkpt lat="29.572435" lon="103.39744"><ele>775.42773</ele><time>2026-07-28T02:31:25.000Z</time></trkpt>
        <trkpt lat="29.572362" lon="103.397418"><ele>777.0231</ele><time>2026-07-28T02:31:28.000Z</time></trkpt>
        <trkpt lat="29.572341" lon="103.397328"><ele>777.4905</ele><time>2026-07-28T02:31:29.000Z</time></trkpt>
        <trkpt lat="29.572309" lon="103.397265"><ele>779.155</ele><time>2026-07-28T02:31:30.000Z</time></trkpt>
        <trkpt lat="29.572281" lon="103.397198"><ele>780.29645</ele><time>2026-07-28T02:31:31.000Z</time></trkpt>
        <trkpt lat="29.572255" lon="103.397139"><ele>781.893</ele><time>2026-07-28T02:31:32.000Z</time></trkpt>
        <trkpt lat="29.572242" lon="103.397085"><ele>783.0738</ele><time>2026-07-28T02:31:33.000Z</time></trkpt>
        <trkpt lat="29.572218" lon="103.39703"><ele>784.23346</ele><time>2026-07-28T02:31:34.000Z</time></trkpt>
        <trkpt lat="29.572184" lon="103.396983"><ele>784.65485</ele><time>2026-07-28T02:31:35.000Z</time></trkpt>
        <trkpt lat="29.572123" lon="103.396987"><ele>784.9323</ele><time>2026-07-28T02:31:37.000Z</time></trkpt>
        <trkpt lat="29.572081" lon="103.397021"><ele>786.657</ele><time>2026-07-28T02:31:38.000Z</time></trkpt>
        <trkpt lat="29.572036" lon="103.397084"><ele>788.84045</ele><time>2026-07-28T02:31:39.000Z</time></trkpt>
        <trkpt lat="29.571992" lon="103.397146"><ele>789.14886</ele><time>2026-07-28T02:31:40.000Z</time></trkpt>
        <trkpt lat="29.571925" lon="103.397189"><ele>791.7509</ele><time>2026-07-28T02:31:41.000Z</time></trkpt>
        <trkpt lat="29.571913" lon="103.397268"><ele>792.4202</ele><time>2026-07-28T02:31:42.000Z</time></trkpt>
        <trkpt lat="29.571918" lon="103.397383"><ele>794.3811</ele><time>2026-07-28T02:31:43.000Z</time></trkpt>
        <trkpt lat="29.571938" lon="103.397453"><ele>795.20996</ele><time>2026-07-28T02:31:44.000Z</time></trkpt>
        <trkpt lat="29.571975" lon="103.39753"><ele>796.8691</ele><time>2026-07-28T02:31:45.000Z</time></trkpt>
        <trkpt lat="29.572026" lon="103.39757"><ele>798.3609</ele><time>2026-07-28T02:31:46.000Z</time></trkpt>
        <trkpt lat="29.572049" lon="103.397631"><ele>800.2496</ele><time>2026-07-28T02:31:47.000Z</time></trkpt>
        <trkpt lat="29.57209" lon="103.397687"><ele>802.7005</ele><time>2026-07-28T02:31:48.000Z</time></trkpt>
        <trkpt lat="29.572143" lon="103.397726"><ele>805.2345</ele><time>2026-07-28T02:31:49.000Z</time></trkpt>
        <trkpt lat="29.572211" lon="103.397747"><ele>806.1129</ele><time>2026-07-28T02:31:50.000Z</time></trkpt>
        <trkpt lat="29.572267" lon="103.39781"><ele>807.54614</ele><time>2026-07-28T02:31:51.000Z</time></trkpt>
        <trkpt lat="29.572323" lon="103.397862"><ele>808.4268</ele><time>2026-07-28T02:31:52.000Z</time></trkpt>
        <trkpt lat="29.572376" lon="103.397899"><ele>810.0568</ele><time>2026-07-28T02:31:53.000Z</time></trkpt>
        <trkpt lat="29.572425" lon="103.39792"><ele>811.0659</ele><time>2026-07-28T02:31:54.000Z</time></trkpt>
        <trkpt lat="29.572481" lon="103.397917"><ele>812.20703</ele><time>2026-07-28T02:31:55.000Z</time></trkpt>
        <trkpt lat="29.57252" lon="103.397962"><ele>812.0697</ele><time>2026-07-28T02:31:56.000Z</time></trkpt>
        <trkpt lat="29.572594" lon="103.398009"><ele>811.9332</ele><time>2026-07-28T02:31:57.000Z</time></trkpt>
        <trkpt lat="29.572665" lon="103.398062"><ele>812.7783</ele><time>2026-07-28T02:31:58.000Z</time></trkpt>
        <trkpt lat="29.572733" lon="103.398111"><ele>813.23914</ele><time>2026-07-28T02:31:59.000Z</time></trkpt>
        <trkpt lat="29.572809" lon="103.398158"><ele>812.7247</ele><time>2026-07-28T02:32:00.000Z</time></trkpt>
        <trkpt lat="29.572867" lon="103.398232"><ele>812.5421</ele><time>2026-07-28T02:32:01.000Z</time></trkpt>
        <trkpt lat="29.572931" lon="103.398303"><ele>813.2334</ele><time>2026-07-28T02:32:02.000Z</time></trkpt>
        <trkpt lat="29.572998" lon="103.398355"><ele>812.98395</ele><time>2026-07-28T02:32:03.000Z</time></trkpt>
        <trkpt lat="29.573056" lon="103.398422"><ele>812.68164</ele><time>2026-07-28T02:32:04.000Z</time></trkpt>
        <trkpt lat="29.573036" lon="103.398507"><ele>812.7684</ele><time>2026-07-28T02:32:05.000Z</time></trkpt>
        <trkpt lat="29.573047" lon="103.398576"><ele>812.76227</ele><time>2026-07-28T02:32:06.000Z</time></trkpt>
        <trkpt lat="29.573058" lon="103.39865"><ele>812.91046</ele><time>2026-07-28T02:32:07.000Z</time></trkpt>
        <trkpt lat="29.573079" lon="103.398717"><ele>812.60767</ele><time>2026-07-28T02:32:08.000Z</time></trkpt>
        <trkpt lat="29.573065" lon="103.398792"><ele>812.68195</ele><time>2026-07-28T02:32:09.000Z</time></trkpt>
        <trkpt lat="29.573082" lon="103.398869"><ele>813.42645</ele><time>2026-07-28T02:32:10.000Z</time></trkpt>
        <trkpt lat="29.573095" lon="103.398957"><ele>814.5077</ele><time>2026-07-28T02:32:11.000Z</time></trkpt>
        <trkpt lat="29.573096" lon="103.399047"><ele>815.68854</ele><time>2026-07-28T02:32:12.000Z</time></trkpt>
        <trkpt lat="29.573119" lon="103.399132"><ele>816.812</ele><time>2026-07-28T02:32:13.000Z</time></trkpt>
        <trkpt lat="29.573145" lon="103.399213"><ele>817.317</ele><time>2026-07-28T02:32:14.000Z</time></trkpt>
        <trkpt lat="29.573153" lon="103.399296"><ele>818.2191</ele><time>2026-07-28T02:32:15.000Z</time></trkpt>
        <trkpt lat="29.573165" lon="103.399374"><ele>818.5321</ele><time>2026-07-28T02:32:16.000Z</time></trkpt>
        <trkpt lat="29.573164" lon="103.399449"><ele>818.94403</ele><time>2026-07-28T02:32:17.000Z</time></trkpt>
        <trkpt lat="29.573163" lon="103.399523"><ele>818.3524</ele><time>2026-07-28T02:32:18.000Z</time></trkpt>
        <trkpt lat="29.573116" lon="103.399548"><ele>818.00134</ele><time>2026-07-28T02:32:19.000Z</time></trkpt>
        <trkpt lat="29.573083" lon="103.399593"><ele>817.4824</ele><time>2026-07-28T02:32:20.000Z</time></trkpt>
        <trkpt lat="29.573047" lon="103.399651"><ele>817.14825</ele><time>2026-07-28T02:32:21.000Z</time></trkpt>
        <trkpt lat="29.573017" lon="103.399735"><ele>816.9105</ele><time>2026-07-28T02:32:22.000Z</time></trkpt>
        <trkpt lat="29.573006" lon="103.399827"><ele>815.65137</ele><time>2026-07-28T02:32:23.000Z</time></trkpt>
        <trkpt lat="29.573004" lon="103.399902"><ele>815.2624</ele><time>2026-07-28T02:32:24.000Z</time></trkpt>
        <trkpt lat="29.573003" lon="103.399984"><ele>814.7261</ele><time>2026-07-28T02:32:25.000Z</time></trkpt>
        <trkpt lat="29.573002" lon="103.400065"><ele>813.6416</ele><time>2026-07-28T02:32:26.000Z</time></trkpt>
        <trkpt lat="29.573002" lon="103.400141"><ele>812.3875</ele><time>2026-07-28T02:32:27.000Z</time></trkpt>
        <trkpt lat="29.573001" lon="103.400216"><ele>811.55237</ele><time>2026-07-28T02:32:28.000Z</time></trkpt>
        <trkpt lat="29.573" lon="103.400279"><ele>810.6363</ele><time>2026-07-28T02:32:29.000Z</time></trkpt>
        <trkpt lat="29.572999" lon="103.400334"><ele>810.1281</ele><time>2026-07-28T02:32:30.000Z</time></trkpt>
        <trkpt lat="29.573021" lon="103.400362"><ele>808.90015</ele><time>2026-07-28T02:32:34.000Z</time></trkpt>
        <trkpt lat="29.572965" lon="103.400373"><ele>805.3328</ele><time>2026-07-28T02:32:36.000Z</time></trkpt>
        <trkpt lat="29.572918" lon="103.400375"><ele>805.2203</ele><time>2026-07-28T02:32:37.000Z</time></trkpt>
        <trkpt lat="29.572859" lon="103.400378"><ele>804.68933</ele><time>2026-07-28T02:32:38.000Z</time></trkpt>
        <trkpt lat="29.572813" lon="103.400373"><ele>804.98553</ele><time>2026-07-28T02:32:39.000Z</time></trkpt>
        <trkpt lat="29.572769" lon="103.400384"><ele>805.48157</ele><time>2026-07-28T02:32:40.000Z</time></trkpt>
        <trkpt lat="29.572722" lon="103.400445"><ele>805.81665</ele><time>2026-07-28T02:32:40.000Z</time></trkpt>
        <trkpt lat="29.572751" lon="103.400551"><ele>806.3625</ele><time>2026-07-28T02:32:41.000Z</time></trkpt>
        <trkpt lat="29.572832" lon="103.400713"><ele>798.21533</ele><time>2026-07-28T02:32:48.000Z</time></trkpt>
        <trkpt lat="29.572796" lon="103.400755"><ele>798.0261</ele><time>2026-07-28T02:32:49.000Z</time></trkpt>
        <trkpt lat="29.572742" lon="103.400731"><ele>796.5663</ele><time>2026-07-28T02:32:50.000Z</time></trkpt>
        <trkpt lat="29.572672" lon="103.400703"><ele>796.73895</ele><time>2026-07-28T02:32:51.000Z</time></trkpt>
        <trkpt lat="29.572602" lon="103.400677"><ele>795.06604</ele><time>2026-07-28T02:32:52.000Z</time></trkpt>
        <trkpt lat="29.57254" lon="103.400644"><ele>793.36523</ele><time>2026-07-28T02:32:53.000Z</time></trkpt>
        <trkpt lat="29.572481" lon="103.400604"><ele>791.3406</ele><time>2026-07-28T02:32:54.000Z</time></trkpt>
        <trkpt lat="29.572422" lon="103.400593"><ele>790.2194</ele><time>2026-07-28T02:32:55.000Z</time></trkpt>
        <trkpt lat="29.57237" lon="103.400561"><ele>788.96234</ele><time>2026-07-28T02:32:56.000Z</time></trkpt>
        <trkpt lat="29.572317" lon="103.400574"><ele>788.3318</ele><time>2026-07-28T02:32:57.000Z</time></trkpt>
        <trkpt lat="29.572271" lon="103.400598"><ele>787.7621</ele><time>2026-07-28T02:32:58.000Z</time></trkpt>
        <trkpt lat="29.572236" lon="103.400663"><ele>786.6564</ele><time>2026-07-28T02:32:59.000Z</time></trkpt>
        <trkpt lat="29.572229" lon="103.40074"><ele>785.6452</ele><time>2026-07-28T02:33:00.000Z</time></trkpt>
        <trkpt lat="29.572228" lon="103.40083"><ele>785.0708</ele><time>2026-07-28T02:33:01.000Z</time></trkpt>
        <trkpt lat="29.572249" lon="103.400902"><ele>783.3306</ele><time>2026-07-28T02:33:02.000Z</time></trkpt>
        <trkpt lat="29.572272" lon="103.400969"><ele>781.72394</ele><time>2026-07-28T02:33:03.000Z</time></trkpt>
        <trkpt lat="29.572294" lon="103.401036"><ele>780.41205</ele><time>2026-07-28T02:33:04.000Z</time></trkpt>
        <trkpt lat="29.572314" lon="103.4011"><ele>779.1773</ele><time>2026-07-28T02:33:05.000Z</time></trkpt>
        <trkpt lat="29.572329" lon="103.401204"><ele>776.4921</ele><time>2026-07-28T02:33:08.000Z</time></trkpt>
        <trkpt lat="29.572324" lon="103.401294"><ele>775.48395</ele><time>2026-07-28T02:33:10.000Z</time></trkpt>
        <trkpt lat="29.572292" lon="103.401337"><ele>774.81665</ele><time>2026-07-28T02:33:11.000Z</time></trkpt>
        <trkpt lat="29.57226" lon="103.4014"><ele>774.5484</ele><time>2026-07-28T02:33:12.000Z</time></trkpt>
        <trkpt lat="29.572257" lon="103.401458"><ele>773.7174</ele><time>2026-07-28T02:33:13.000Z</time></trkpt>
        <trkpt lat="29.572216" lon="103.40153"><ele>772.446</ele><time>2026-07-28T02:33:15.000Z</time></trkpt>
        <trkpt lat="29.572294" lon="103.401596"><ele>771.21826</ele><time>2026-07-28T02:33:17.000Z</time></trkpt>
        <trkpt lat="29.57238" lon="103.401601"><ele>770.3924</ele><time>2026-07-28T02:33:19.000Z</time></trkpt>
        <trkpt lat="29.572451" lon="103.401678"><ele>770.9748</ele><time>2026-07-28T02:33:21.000Z</time></trkpt>
        <trkpt lat="29.57249" lon="103.401726"><ele>770.92584</ele><time>2026-07-28T02:33:22.000Z</time></trkpt>
        <trkpt lat="29.572524" lon="103.401771"><ele>771.39355</ele><time>2026-07-28T02:33:23.000Z</time></trkpt>
        <trkpt lat="29.572554" lon="103.401826"><ele>771.2197</ele><time>2026-07-28T02:33:24.000Z</time></trkpt>
        <trkpt lat="29.572573" lon="103.401881"><ele>770.9182</ele><time>2026-07-28T02:33:25.000Z</time></trkpt>
        <trkpt lat="29.572596" lon="103.401954"><ele>770.6674</ele><time>2026-07-28T02:33:26.000Z</time></trkpt>
        <trkpt lat="29.572628" lon="103.402022"><ele>770.21045</ele><time>2026-07-28T02:33:27.000Z</time></trkpt>
        <trkpt lat="29.57269" lon="103.402088"><ele>770.10455</ele><time>2026-07-28T02:33:28.000Z</time></trkpt>
        <trkpt lat="29.572752" lon="103.40214"><ele>769.81006</ele><time>2026-07-28T02:33:29.000Z</time></trkpt>
        <trkpt lat="29.572804" lon="103.402196"><ele>769.44354</ele><time>2026-07-28T02:33:30.000Z</time></trkpt>
        <trkpt lat="29.57285" lon="103.402254"><ele>768.74316</ele><time>2026-07-28T02:33:31.000Z</time></trkpt>
        <trkpt lat="29.572899" lon="103.402317"><ele>768.6514</ele><time>2026-07-28T02:33:32.000Z</time></trkpt>
        <trkpt lat="29.572946" lon="103.402384"><ele>768.2157</ele><time>2026-07-28T02:33:33.000Z</time></trkpt>
        <trkpt lat="29.572978" lon="103.402451"><ele>767.4216</ele><time>2026-07-28T02:33:34.000Z</time></trkpt>
        <trkpt lat="29.572993" lon="103.402573"><ele>767.1784</ele><time>2026-07-28T02:33:36.000Z</time></trkpt>
        <trkpt lat="29.573005" lon="103.402635"><ele>766.5896</ele><time>2026-07-28T02:33:37.000Z</time></trkpt>
        <trkpt lat="29.573015" lon="103.402692"><ele>766.41754</ele><time>2026-07-28T02:33:38.000Z</time></trkpt>
        <trkpt lat="29.573077" lon="103.40276"><ele>765.0195</ele><time>2026-07-28T02:33:39.000Z</time></trkpt>
        <trkpt lat="29.573148" lon="103.402781"><ele>764.5552</ele><time>2026-07-28T02:33:40.000Z</time></trkpt>
        <trkpt lat="29.573213" lon="103.402781"><ele>764.49725</ele><time>2026-07-28T02:33:41.000Z</time></trkpt>
        <trkpt lat="29.573253" lon="103.402812"><ele>764.62573</ele><time>2026-07-28T02:33:42.000Z</time></trkpt>
        <trkpt lat="29.573308" lon="103.402837"><ele>764.67694</ele><time>2026-07-28T02:33:43.000Z</time></trkpt>
        <trkpt lat="29.573364" lon="103.402856"><ele>764.4775</ele><time>2026-07-28T02:33:44.000Z</time></trkpt>
        <trkpt lat="29.573346" lon="103.402908"><ele>763.9281</ele><time>2026-07-28T02:33:45.000Z</time></trkpt>
        <trkpt lat="29.57328" lon="103.402946"><ele>763.1449</ele><time>2026-07-28T02:33:47.000Z</time></trkpt>
        <trkpt lat="29.573236" lon="103.402994"><ele>763.0299</ele><time>2026-07-28T02:33:48.000Z</time></trkpt>
        <trkpt lat="29.573193" lon="103.403044"><ele>762.96313</ele><time>2026-07-28T02:33:49.000Z</time></trkpt>
        <trkpt lat="29.573149" lon="103.403126"><ele>763.18036</ele><time>2026-07-28T02:33:50.000Z</time></trkpt>
        <trkpt lat="29.57317" lon="103.403254"><ele>764.5266</ele><time>2026-07-28T02:33:51.000Z</time></trkpt>
        <trkpt lat="29.573186" lon="103.403325"><ele>765.80945</ele><time>2026-07-28T02:33:52.000Z</time></trkpt>
        <trkpt lat="29.573198" lon="103.403394"><ele>766.8773</ele><time>2026-07-28T02:33:53.000Z</time></trkpt>
        <trkpt lat="29.573223" lon="103.403468"><ele>767.56934</ele><time>2026-07-28T02:33:54.000Z</time></trkpt>
        <trkpt lat="29.573266" lon="103.403536"><ele>767.9872</ele><time>2026-07-28T02:33:55.000Z</time></trkpt>
        <trkpt lat="29.57333" lon="103.403585"><ele>767.0188</ele><time>2026-07-28T02:33:56.000Z</time></trkpt>
        <trkpt lat="29.573379" lon="103.403621"><ele>766.69727</ele><time>2026-07-28T02:33:57.000Z</time></trkpt>
        <trkpt lat="29.573438" lon="103.403678"><ele>767.1143</ele><time>2026-07-28T02:33:58.000Z</time></trkpt>
        <trkpt lat="29.573491" lon="103.403731"><ele>767.8301</ele><time>2026-07-28T02:33:59.000Z</time></trkpt>
        <trkpt lat="29.573543" lon="103.403781"><ele>768.8753</ele><time>2026-07-28T02:34:00.000Z</time></trkpt>
        <trkpt lat="29.57359" lon="103.403832"><ele>768.99976</ele><time>2026-07-28T02:34:01.000Z</time></trkpt>
        <trkpt lat="29.573633" lon="103.403887"><ele>768.50616</ele><time>2026-07-28T02:34:02.000Z</time></trkpt>
        <trkpt lat="29.573675" lon="103.403939"><ele>768.41534</ele><time>2026-07-28T02:34:03.000Z</time></trkpt>
        <trkpt lat="29.573728" lon="103.403974"><ele>768.27344</ele><time>2026-07-28T02:34:04.000Z</time></trkpt>
        <trkpt lat="29.573794" lon="103.403983"><ele>768.0825</ele><time>2026-07-28T02:34:05.000Z</time></trkpt>
        <trkpt lat="29.573861" lon="103.403973"><ele>768.21497</ele><time>2026-07-28T02:34:06.000Z</time></trkpt>
        <trkpt lat="29.573926" lon="103.40397"><ele>768.4416</ele><time>2026-07-28T02:34:07.000Z</time></trkpt>
        <trkpt lat="29.573986" lon="103.403983"><ele>768.4508</ele><time>2026-07-28T02:34:08.000Z</time></trkpt>
        <trkpt lat="29.574044" lon="103.404002"><ele>768.2856</ele><time>2026-07-28T02:34:09.000Z</time></trkpt>
        <trkpt lat="29.574095" lon="103.404"><ele>767.8274</ele><time>2026-07-28T02:34:10.000Z</time></trkpt>
        <trkpt lat="29.574143" lon="103.403974"><ele>767.6941</ele><time>2026-07-28T02:34:11.000Z</time></trkpt>
        <trkpt lat="29.574179" lon="103.403935"><ele>767.72906</ele><time>2026-07-28T02:34:12.000Z</time></trkpt>
        <trkpt lat="29.574218" lon="103.403876"><ele>767.0952</ele><time>2026-07-28T02:34:13.000Z</time></trkpt>
        <trkpt lat="29.57425" lon="103.403811"><ele>766.888</ele><time>2026-07-28T02:34:14.000Z</time></trkpt>
        <trkpt lat="29.57427" lon="103.403735"><ele>766.73096</ele><time>2026-07-28T02:34:15.000Z</time></trkpt>
        <trkpt lat="29.574279" lon="103.403661"><ele>766.8796</ele><time>2026-07-28T02:34:16.000Z</time></trkpt>
        <trkpt lat="29.574285" lon="103.403591"><ele>766.744</ele><time>2026-07-28T02:34:17.000Z</time></trkpt>
        <trkpt lat="29.574288" lon="103.403521"><ele>766.5531</ele><time>2026-07-28T02:34:18.000Z</time></trkpt>
        <trkpt lat="29.57429" lon="103.403457"><ele>766.2898</ele><time>2026-07-28T02:34:19.000Z</time></trkpt>
        <trkpt lat="29.574303" lon="103.403404"><ele>766.27454</ele><time>2026-07-28T02:34:20.000Z</time></trkpt>
        <trkpt lat="29.574325" lon="103.403351"><ele>766.06604</ele><time>2026-07-28T02:34:21.000Z</time></trkpt>
        <trkpt lat="29.574374" lon="103.403299"><ele>766.1362</ele><time>2026-07-28T02:34:22.000Z</time></trkpt>
        <trkpt lat="29.574412" lon="103.403251"><ele>766.50714</ele><time>2026-07-28T02:34:23.000Z</time></trkpt>
        <trkpt lat="29.574464" lon="103.403224"><ele>766.7155</ele><time>2026-07-28T02:34:24.000Z</time></trkpt>
        <trkpt lat="29.574519" lon="103.403216"><ele>767.3187</ele><time>2026-07-28T02:34:25.000Z</time></trkpt>
        <trkpt lat="29.574553" lon="103.403251"><ele>768.0969</ele><time>2026-07-28T02:34:26.000Z</time></trkpt>
        <trkpt lat="29.574619" lon="103.403345"><ele>768.7423</ele><time>2026-07-28T02:34:28.000Z</time></trkpt>
        <trkpt lat="29.57466" lon="103.403418"><ele>768.95386</ele><time>2026-07-28T02:34:29.000Z</time></trkpt>
        <trkpt lat="29.574698" lon="103.403484"><ele>769.0276</ele><time>2026-07-28T02:34:30.000Z</time></trkpt>
        <trkpt lat="29.574736" lon="103.403549"><ele>769.496</ele><time>2026-07-28T02:34:31.000Z</time></trkpt>
        <trkpt lat="29.574784" lon="103.403613"><ele>769.0541</ele><time>2026-07-28T02:34:32.000Z</time></trkpt>
        <trkpt lat="29.574857" lon="103.403649"><ele>768.4565</ele><time>2026-07-28T02:34:33.000Z</time></trkpt>
        <trkpt lat="29.574914" lon="103.403711"><ele>767.4568</ele><time>2026-07-28T02:34:34.000Z</time></trkpt>
        <trkpt lat="29.574972" lon="103.403778"><ele>766.8061</ele><time>2026-07-28T02:34:35.000Z</time></trkpt>
        <trkpt lat="29.575034" lon="103.403847"><ele>765.70605</ele><time>2026-07-28T02:34:36.000Z</time></trkpt>
        <trkpt lat="29.575105" lon="103.403925"><ele>764.0704</ele><time>2026-07-28T02:34:37.000Z</time></trkpt>
        <trkpt lat="29.57518" lon="103.404006"><ele>762.5601</ele><time>2026-07-28T02:34:38.000Z</time></trkpt>
        <trkpt lat="29.575274" lon="103.404081"><ele>761.2327</ele><time>2026-07-28T02:34:39.000Z</time></trkpt>
        <trkpt lat="29.575358" lon="103.404142"><ele>760.09985</ele><time>2026-07-28T02:34:40.000Z</time></trkpt>
        <trkpt lat="29.575442" lon="103.404206"><ele>758.4806</ele><time>2026-07-28T02:34:41.000Z</time></trkpt>
        <trkpt lat="29.575511" lon="103.404288"><ele>758.08624</ele><time>2026-07-28T02:34:42.000Z</time></trkpt>
        <trkpt lat="29.575574" lon="103.404367"><ele>757.29724</ele><time>2026-07-28T02:34:43.000Z</time></trkpt>
        <trkpt lat="29.575632" lon="103.404431"><ele>756.27136</ele><time>2026-07-28T02:34:44.000Z</time></trkpt>
        <trkpt lat="29.575708" lon="103.404474"><ele>755.9581</ele><time>2026-07-28T02:34:45.000Z</time></trkpt>
        <trkpt lat="29.575766" lon="103.40452"><ele>755.47437</ele><time>2026-07-28T02:34:46.000Z</time></trkpt>
        <trkpt lat="29.57583" lon="103.404528"><ele>755.0809</ele><time>2026-07-28T02:34:47.000Z</time></trkpt>
        <trkpt lat="29.575884" lon="103.404503"><ele>754.51166</ele><time>2026-07-28T02:34:48.000Z</time></trkpt>
        <trkpt lat="29.575929" lon="103.404447"><ele>754.1454</ele><time>2026-07-28T02:34:49.000Z</time></trkpt>
        <trkpt lat="29.575922" lon="103.404374"><ele>753.50146</ele><time>2026-07-28T02:34:50.000Z</time></trkpt>
        <trkpt lat="29.575883" lon="103.404303"><ele>752.6385</ele><time>2026-07-28T02:34:51.000Z</time></trkpt>
        <trkpt lat="29.575826" lon="103.404261"><ele>751.74335</ele><time>2026-07-28T02:34:52.000Z</time></trkpt>
        <trkpt lat="29.575787" lon="103.404212"><ele>751.22144</ele><time>2026-07-28T02:34:53.000Z</time></trkpt>
        <trkpt lat="29.575749" lon="103.404169"><ele>750.8511</ele><time>2026-07-28T02:34:54.000Z</time></trkpt>
        <trkpt lat="29.575695" lon="103.404119"><ele>749.5416</ele><time>2026-07-28T02:34:55.000Z</time></trkpt>
        <trkpt lat="29.57563" lon="103.404081"><ele>749.18207</ele><time>2026-07-28T02:34:56.000Z</time></trkpt>
        <trkpt lat="29.575648" lon="103.404013"><ele>748.1011</ele><time>2026-07-28T02:34:58.000Z</time></trkpt>
        <trkpt lat="29.575694" lon="103.404057"><ele>747.34644</ele><time>2026-07-28T02:34:59.000Z</time></trkpt>
        <trkpt lat="29.575794" lon="103.40413"><ele>745.9411</ele><time>2026-07-28T02:35:01.000Z</time></trkpt>
        <trkpt lat="29.575865" lon="103.404166"><ele>745.8484</ele><time>2026-07-28T02:35:02.000Z</time></trkpt>
        <trkpt lat="29.575923" lon="103.404211"><ele>745.8569</ele><time>2026-07-28T02:35:03.000Z</time></trkpt>
        <trkpt lat="29.576022" lon="103.404188"><ele>745.17535</ele><time>2026-07-28T02:35:03.000Z</time></trkpt>
        <trkpt lat="29.57611" lon="103.404189"><ele>744.3328</ele><time>2026-07-28T02:35:04.000Z</time></trkpt>
        <trkpt lat="29.576203" lon="103.404193"><ele>743.63403</ele><time>2026-07-28T02:35:05.000Z</time></trkpt>
        <trkpt lat="29.576303" lon="103.404204"><ele>743.7547</ele><time>2026-07-28T02:35:06.000Z</time></trkpt>
        <trkpt lat="29.576411" lon="103.404222"><ele>743.1503</ele><time>2026-07-28T02:35:07.000Z</time></trkpt>
        <trkpt lat="29.576507" lon="103.404242"><ele>742.15045</ele><time>2026-07-28T02:35:08.000Z</time></trkpt>
        <trkpt lat="29.576562" lon="103.404314"><ele>741.5697</ele><time>2026-07-28T02:35:09.000Z</time></trkpt>
        <trkpt lat="29.576595" lon="103.404374"><ele>740.9934</ele><time>2026-07-28T02:35:10.000Z</time></trkpt>
        <trkpt lat="29.576649" lon="103.404451"><ele>740.3996</ele><time>2026-07-28T02:35:11.000Z</time></trkpt>
        <trkpt lat="29.576687" lon="103.404495"><ele>739.60114</ele><time>2026-07-28T02:35:13.000Z</time></trkpt>
        <trkpt lat="29.576723" lon="103.404537"><ele>739.0034</ele><time>2026-07-28T02:35:14.000Z</time></trkpt>
        <trkpt lat="29.5768" lon="103.404536"><ele>738.00616</ele><time>2026-07-28T02:35:15.000Z</time></trkpt>
        <trkpt lat="29.576861" lon="103.404526"><ele>735.6786</ele><time>2026-07-28T02:35:17.000Z</time></trkpt>
        <trkpt lat="29.576845" lon="103.404432"><ele>735.76575</ele><time>2026-07-28T02:35:19.000Z</time></trkpt>
        <trkpt lat="29.57683" lon="103.40435"><ele>735.82166</ele><time>2026-07-28T02:35:20.000Z</time></trkpt>
        <trkpt lat="29.576773" lon="103.404281"><ele>735.9072</ele><time>2026-07-28T02:35:21.000Z</time></trkpt>
        <trkpt lat="29.576749" lon="103.404212"><ele>736.4237</ele><time>2026-07-28T02:35:22.000Z</time></trkpt>
        <trkpt lat="29.576692" lon="103.404165"><ele>735.2984</ele><time>2026-07-28T02:35:23.000Z</time></trkpt>
        <trkpt lat="29.576676" lon="103.404096"><ele>734.68506</ele><time>2026-07-28T02:35:24.000Z</time></trkpt>
        <trkpt lat="29.576698" lon="103.404026"><ele>733.7994</ele><time>2026-07-28T02:35:25.000Z</time></trkpt>
        <trkpt lat="29.576751" lon="103.403981"><ele>732.7183</ele><time>2026-07-28T02:35:26.000Z</time></trkpt>
        <trkpt lat="29.576821" lon="103.403959"><ele>730.45483</ele><time>2026-07-28T02:35:27.000Z</time></trkpt>
        <trkpt lat="29.57689" lon="103.403951"><ele>730.2338</ele><time>2026-07-28T02:35:28.000Z</time></trkpt>
        <trkpt lat="29.576959" lon="103.403944"><ele>730.85815</ele><time>2026-07-28T02:35:29.000Z</time></trkpt>
        <trkpt lat="29.577028" lon="103.403966"><ele>730.46173</ele><time>2026-07-28T02:35:30.000Z</time></trkpt>
        <trkpt lat="29.577075" lon="103.404026"><ele>729.08466</ele><time>2026-07-28T02:35:31.000Z</time></trkpt>
        <trkpt lat="29.577073" lon="103.404113"><ele>728.47296</ele><time>2026-07-28T02:35:32.000Z</time></trkpt>
        <trkpt lat="29.577096" lon="103.404195"><ele>727.4171</ele><time>2026-07-28T02:35:33.000Z</time></trkpt>
        <trkpt lat="29.577118" lon="103.404285"><ele>726.33594</ele><time>2026-07-28T02:35:34.000Z</time></trkpt>
        <trkpt lat="29.577124" lon="103.404369"><ele>725.32623</ele><time>2026-07-28T02:35:35.000Z</time></trkpt>
        <trkpt lat="29.577121" lon="103.404446"><ele>724.235</ele><time>2026-07-28T02:35:36.000Z</time></trkpt>
        <trkpt lat="29.577104" lon="103.404514"><ele>723.6636</ele><time>2026-07-28T02:35:37.000Z</time></trkpt>
        <trkpt lat="29.577101" lon="103.40458"><ele>722.61566</ele><time>2026-07-28T02:35:38.000Z</time></trkpt>
        <trkpt lat="29.577114" lon="103.404652"><ele>722.33386</ele><time>2026-07-28T02:35:39.000Z</time></trkpt>
        <trkpt lat="29.577121" lon="103.404705"><ele>722.4295</ele><time>2026-07-28T02:35:40.000Z</time></trkpt>
        <trkpt lat="29.577241" lon="103.404715"><ele>722.49786</ele><time>2026-07-28T02:35:41.000Z</time></trkpt>
        <trkpt lat="29.577298" lon="103.40465"><ele>722.1506</ele><time>2026-07-28T02:35:43.000Z</time></trkpt>
        <trkpt lat="29.577323" lon="103.404548"><ele>720.7991</ele><time>2026-07-28T02:35:45.000Z</time></trkpt>
        <trkpt lat="29.57733" lon="103.404449"><ele>719.0624</ele><time>2026-07-28T02:35:46.000Z</time></trkpt>
        <trkpt lat="29.577337" lon="103.40435"><ele>717.24976</ele><time>2026-07-28T02:35:47.000Z</time></trkpt>
        <trkpt lat="29.577348" lon="103.404254"><ele>715.6</ele><time>2026-07-28T02:35:48.000Z</time></trkpt>
        <trkpt lat="29.577371" lon="103.404177"><ele>714.3671</ele><time>2026-07-28T02:35:49.000Z</time></trkpt>
        <trkpt lat="29.577358" lon="103.404117"><ele>713.9432</ele><time>2026-07-28T02:35:50.000Z</time></trkpt>
        <trkpt lat="29.577381" lon="103.40403"><ele>712.3037</ele><time>2026-07-28T02:35:52.000Z</time></trkpt>
        <trkpt lat="29.577471" lon="103.404084"><ele>711.5489</ele><time>2026-07-28T02:35:54.000Z</time></trkpt>
        <trkpt lat="29.57749" lon="103.404167"><ele>710.0045</ele><time>2026-07-28T02:35:55.000Z</time></trkpt>
        <trkpt lat="29.577522" lon="103.404218"><ele>709.685</ele><time>2026-07-28T02:35:56.000Z</time></trkpt>
        <trkpt lat="29.577539" lon="103.404322"><ele>708.1582</ele><time>2026-07-28T02:35:57.000Z</time></trkpt>
        <trkpt lat="29.57754" lon="103.404406"><ele>707.263</ele><time>2026-07-28T02:35:58.000Z</time></trkpt>
        <trkpt lat="29.577527" lon="103.404475"><ele>706.0298</ele><time>2026-07-28T02:35:59.000Z</time></trkpt>
        <trkpt lat="29.57754" lon="103.404546"><ele>704.83325</ele><time>2026-07-28T02:36:00.000Z</time></trkpt>
        <trkpt lat="29.577572" lon="103.404582"><ele>703.9551</ele><time>2026-07-28T02:36:01.000Z</time></trkpt>
        <trkpt lat="29.577647" lon="103.404597"><ele>703.47577</ele><time>2026-07-28T02:36:03.000Z</time></trkpt>
        <trkpt lat="29.577689" lon="103.404539"><ele>703.2841</ele><time>2026-07-28T02:36:04.000Z</time></trkpt>
        <trkpt lat="29.577695" lon="103.404467"><ele>702.48364</ele><time>2026-07-28T02:36:05.000Z</time></trkpt>
        <trkpt lat="29.577711" lon="103.404416"><ele>704.025</ele><time>2026-07-28T02:36:06.000Z</time></trkpt>
        <trkpt lat="29.577721" lon="103.404351"><ele>703.766</ele><time>2026-07-28T02:36:07.000Z</time></trkpt>
        <trkpt lat="29.577739" lon="103.404253"><ele>703.916</ele><time>2026-07-28T02:36:08.000Z</time></trkpt>
        <trkpt lat="29.577744" lon="103.404159"><ele>704.01105</ele><time>2026-07-28T02:36:09.000Z</time></trkpt>
        <trkpt lat="29.577748" lon="103.404074"><ele>702.6565</ele><time>2026-07-28T02:36:10.000Z</time></trkpt>
        <trkpt lat="29.577743" lon="103.403997"><ele>702.1901</ele><time>2026-07-28T02:36:11.000Z</time></trkpt>
        <trkpt lat="29.57773" lon="103.40393"><ele>701.3509</ele><time>2026-07-28T02:36:12.000Z</time></trkpt>
        <trkpt lat="29.577712" lon="103.403873"><ele>700.0611</ele><time>2026-07-28T02:36:13.000Z</time></trkpt>
        <trkpt lat="29.577702" lon="103.403821"><ele>698.8592</ele><time>2026-07-28T02:36:14.000Z</time></trkpt>
        <trkpt lat="29.57773" lon="103.403757"><ele>695.8623</ele><time>2026-07-28T02:36:16.000Z</time></trkpt>
        <trkpt lat="29.577791" lon="103.403788"><ele>691.7903</ele><time>2026-07-28T02:36:18.000Z</time></trkpt>
        <trkpt lat="29.577799" lon="103.403841"><ele>690.3895</ele><time>2026-07-28T02:36:19.000Z</time></trkpt>
        <trkpt lat="29.57784" lon="103.40392"><ele>687.6672</ele><time>2026-07-28T02:36:25.000Z</time></trkpt>
        <trkpt lat="29.57785" lon="103.403971"><ele>686.4267</ele><time>2026-07-28T02:36:26.000Z</time></trkpt>
        <trkpt lat="29.577852" lon="103.404025"><ele>685.6999</ele><time>2026-07-28T02:36:27.000Z</time></trkpt>
        <trkpt lat="29.577874" lon="103.404086"><ele>684.0085</ele><time>2026-07-28T02:36:28.000Z</time></trkpt>
        <trkpt lat="29.577879" lon="103.404167"><ele>682.818</ele><time>2026-07-28T02:36:29.000Z</time></trkpt>
        <trkpt lat="29.577894" lon="103.404249"><ele>681.3232</ele><time>2026-07-28T02:36:30.000Z</time></trkpt>
        <trkpt lat="29.57792" lon="103.404334"><ele>679.58417</ele><time>2026-07-28T02:36:31.000Z</time></trkpt>
        <trkpt lat="29.577927" lon="103.404418"><ele>677.68365</ele><time>2026-07-28T02:36:32.000Z</time></trkpt>
        <trkpt lat="29.577949" lon="103.404501"><ele>676.4819</ele><time>2026-07-28T02:36:33.000Z</time></trkpt>
        <trkpt lat="29.577967" lon="103.404576"><ele>675.22235</ele><time>2026-07-28T02:36:34.000Z</time></trkpt>
        <trkpt lat="29.577975" lon="103.404643"><ele>673.7929</ele><time>2026-07-28T02:36:35.000Z</time></trkpt>
        <trkpt lat="29.577983" lon="103.404695"><ele>672.27875</ele><time>2026-07-28T02:36:36.000Z</time></trkpt>
        <trkpt lat="29.578011" lon="103.40474"><ele>671.593</ele><time>2026-07-28T02:36:37.000Z</time></trkpt>
        <trkpt lat="29.57804" lon="103.404789"><ele>670.8638</ele><time>2026-07-28T02:36:38.000Z</time></trkpt>
        <trkpt lat="29.578069" lon="103.404849"><ele>669.9685</ele><time>2026-07-28T02:36:39.000Z</time></trkpt>
        <trkpt lat="29.578103" lon="103.40491"><ele>668.79364</ele><time>2026-07-28T02:36:40.000Z</time></trkpt>
        <trkpt lat="29.578138" lon="103.404972"><ele>667.4179</ele><time>2026-07-28T02:36:41.000Z</time></trkpt>
        <trkpt lat="29.578162" lon="103.405029"><ele>666.02844</ele><time>2026-07-28T02:36:42.000Z</time></trkpt>
        <trkpt lat="29.578224" lon="103.405097"><ele>665.6415</ele><time>2026-07-28T02:36:44.000Z</time></trkpt>
        <trkpt lat="29.578263" lon="103.40513"><ele>664.6911</ele><time>2026-07-28T02:36:45.000Z</time></trkpt>
        <trkpt lat="29.578304" lon="103.405168"><ele>663.63873</ele><time>2026-07-28T02:36:46.000Z</time></trkpt>
        <trkpt lat="29.578341" lon="103.405198"><ele>662.6818</ele><time>2026-07-28T02:36:47.000Z</time></trkpt>
        <trkpt lat="29.578391" lon="103.405259"><ele>661.09894</ele><time>2026-07-28T02:36:49.000Z</time></trkpt>
        <trkpt lat="29.578417" lon="103.405311"><ele>659.95514</ele><time>2026-07-28T02:36:52.000Z</time></trkpt>
        <trkpt lat="29.578453" lon="103.405354"><ele>659.82886</ele><time>2026-07-28T02:36:54.000Z</time></trkpt>
        <trkpt lat="29.578492" lon="103.405402"><ele>659.53186</ele><time>2026-07-28T02:36:56.000Z</time></trkpt>
        <trkpt lat="29.578552" lon="103.405409"><ele>660.1347</ele><time>2026-07-28T02:36:58.000Z</time></trkpt>
        <trkpt lat="29.578633" lon="103.405373"><ele>664.02234</ele><time>2026-07-28T02:37:01.000Z</time></trkpt>
        <trkpt lat="29.578623" lon="103.405287"><ele>664.104</ele><time>2026-07-28T02:37:03.000Z</time></trkpt>
        <trkpt lat="29.578588" lon="103.405243"><ele>663.7103</ele><time>2026-07-28T02:37:04.000Z</time></trkpt>
        <trkpt lat="29.578554" lon="103.405193"><ele>663.1107</ele><time>2026-07-28T02:37:05.000Z</time></trkpt>
        <trkpt lat="29.578518" lon="103.405128"><ele>662.47327</ele><time>2026-07-28T02:37:06.000Z</time></trkpt>
        <trkpt lat="29.57848" lon="103.405055"><ele>661.4736</ele><time>2026-07-28T02:37:07.000Z</time></trkpt>
        <trkpt lat="29.578451" lon="103.404981"><ele>661.2538</ele><time>2026-07-28T02:37:08.000Z</time></trkpt>
        <trkpt lat="29.578432" lon="103.404904"><ele>660.40717</ele><time>2026-07-28T02:37:09.000Z</time></trkpt>
        <trkpt lat="29.578423" lon="103.404828"><ele>659.2412</ele><time>2026-07-28T02:37:10.000Z</time></trkpt>
        <trkpt lat="29.578431" lon="103.404753"><ele>658.15247</ele><time>2026-07-28T02:37:11.000Z</time></trkpt>
        <trkpt lat="29.578445" lon="103.404676"><ele>657.343</ele><time>2026-07-28T02:37:12.000Z</time></trkpt>
        <trkpt lat="29.578454" lon="103.404606"><ele>656.2801</ele><time>2026-07-28T02:37:13.000Z</time></trkpt>
        <trkpt lat="29.578463" lon="103.40453"><ele>655.3477</ele><time>2026-07-28T02:37:14.000Z</time></trkpt>
        <trkpt lat="29.578473" lon="103.404457"><ele>654.6494</ele><time>2026-07-28T02:37:15.000Z</time></trkpt>
        <trkpt lat="29.578483" lon="103.404388"><ele>654.0856</ele><time>2026-07-28T02:37:15.000Z</time></trkpt>
        <trkpt lat="29.578494" lon="103.404325"><ele>653.9156</ele><time>2026-07-28T02:37:16.000Z</time></trkpt>
        <trkpt lat="29.578524" lon="103.40427"><ele>653.55817</ele><time>2026-07-28T02:37:17.000Z</time></trkpt>
        <trkpt lat="29.578566" lon="103.404234"><ele>653.13306</ele><time>2026-07-28T02:37:19.000Z</time></trkpt>
        <trkpt lat="29.578609" lon="103.404212"><ele>652.8247</ele><time>2026-07-28T02:37:20.000Z</time></trkpt>
        <trkpt lat="29.578652" lon="103.404192"><ele>652.7486</ele><time>2026-07-28T02:37:21.000Z</time></trkpt>
        <trkpt lat="29.578734" lon="103.404182"><ele>652.6106</ele><time>2026-07-28T02:37:23.000Z</time></trkpt>
        <trkpt lat="29.578775" lon="103.404242"><ele>652.1727</ele><time>2026-07-28T02:37:25.000Z</time></trkpt>
        <trkpt lat="29.578742" lon="103.404355"><ele>651.022</ele><time>2026-07-28T02:37:27.000Z</time></trkpt>
        <trkpt lat="29.578716" lon="103.404413"><ele>650.6298</ele><time>2026-07-28T02:37:28.000Z</time></trkpt>
        <trkpt lat="29.578668" lon="103.404468"><ele>650.4596</ele><time>2026-07-28T02:37:29.000Z</time></trkpt>
        <trkpt lat="29.578638" lon="103.40453"><ele>650.51843</ele><time>2026-07-28T02:37:30.000Z</time></trkpt>
        <trkpt lat="29.578633" lon="103.404594"><ele>650.78107</ele><time>2026-07-28T02:37:31.000Z</time></trkpt>
        <trkpt lat="29.578602" lon="103.404658"><ele>650.9527</ele><time>2026-07-28T02:37:32.000Z</time></trkpt>
        <trkpt lat="29.578613" lon="103.404732"><ele>651.13403</ele><time>2026-07-28T02:37:33.000Z</time></trkpt>
        <trkpt lat="29.578659" lon="103.404819"><ele>650.7594</ele><time>2026-07-28T02:37:34.000Z</time></trkpt>
        <trkpt lat="29.578711" lon="103.404901"><ele>649.8914</ele><time>2026-07-28T02:37:35.000Z</time></trkpt>
        <trkpt lat="29.578763" lon="103.404979"><ele>649.7469</ele><time>2026-07-28T02:37:36.000Z</time></trkpt>
        <trkpt lat="29.578815" lon="103.405052"><ele>649.53436</ele><time>2026-07-28T02:37:37.000Z</time></trkpt>
        <trkpt lat="29.578869" lon="103.405123"><ele>649.336</ele><time>2026-07-28T02:37:38.000Z</time></trkpt>
        <trkpt lat="29.578928" lon="103.405195"><ele>648.4475</ele><time>2026-07-28T02:37:39.000Z</time></trkpt>
        <trkpt lat="29.579001" lon="103.405251"><ele>647.794</ele><time>2026-07-28T02:37:40.000Z</time></trkpt>
        <trkpt lat="29.579054" lon="103.405322"><ele>647.4885</ele><time>2026-07-28T02:37:41.000Z</time></trkpt>
        <trkpt lat="29.579114" lon="103.405378"><ele>647.0663</ele><time>2026-07-28T02:37:42.000Z</time></trkpt>
        <trkpt lat="29.579189" lon="103.405421"><ele>646.4846</ele><time>2026-07-28T02:37:43.000Z</time></trkpt>
        <trkpt lat="29.579268" lon="103.405453"><ele>645.9316</ele><time>2026-07-28T02:37:44.000Z</time></trkpt>
        <trkpt lat="29.579349" lon="103.405481"><ele>645.3857</ele><time>2026-07-28T02:37:45.000Z</time></trkpt>
        <trkpt lat="29.579417" lon="103.40551"><ele>644.20337</ele><time>2026-07-28T02:37:46.000Z</time></trkpt>
        <trkpt lat="29.579483" lon="103.405537"><ele>643.49756</ele><time>2026-07-28T02:37:47.000Z</time></trkpt>
        <trkpt lat="29.579542" lon="103.405574"><ele>642.74713</ele><time>2026-07-28T02:37:48.000Z</time></trkpt>
        <trkpt lat="29.579604" lon="103.405642"><ele>641.9299</ele><time>2026-07-28T02:37:49.000Z</time></trkpt>
        <trkpt lat="29.579674" lon="103.405654"><ele>641.35486</ele><time>2026-07-28T02:37:50.000Z</time></trkpt>
        <trkpt lat="29.579733" lon="103.405661"><ele>640.82166</ele><time>2026-07-28T02:37:51.000Z</time></trkpt>
        <trkpt lat="29.579801" lon="103.405662"><ele>640.51447</ele><time>2026-07-28T02:37:52.000Z</time></trkpt>
        <trkpt lat="29.579888" lon="103.405661"><ele>640.57837</ele><time>2026-07-28T02:37:53.000Z</time></trkpt>
        <trkpt lat="29.579985" lon="103.405656"><ele>640.7898</ele><time>2026-07-28T02:37:54.000Z</time></trkpt>
        <trkpt lat="29.580085" lon="103.405648"><ele>640.2129</ele><time>2026-07-28T02:37:55.000Z</time></trkpt>
        <trkpt lat="29.580168" lon="103.405642"><ele>639.46954</ele><time>2026-07-28T02:37:56.000Z</time></trkpt>
        <trkpt lat="29.580254" lon="103.405635"><ele>638.52576</ele><time>2026-07-28T02:37:57.000Z</time></trkpt>
        <trkpt lat="29.580377" lon="103.405536"><ele>636.1079</ele><time>2026-07-28T02:38:00.000Z</time></trkpt>
        <trkpt lat="29.580429" lon="103.4055"><ele>635.4188</ele><time>2026-07-28T02:38:01.000Z</time></trkpt>
        <trkpt lat="29.580491" lon="103.405459"><ele>634.42163</ele><time>2026-07-28T02:38:02.000Z</time></trkpt>
        <trkpt lat="29.580553" lon="103.405416"><ele>633.5188</ele><time>2026-07-28T02:38:03.000Z</time></trkpt>
        <trkpt lat="29.580616" lon="103.405373"><ele>631.9915</ele><time>2026-07-28T02:38:04.000Z</time></trkpt>
        <trkpt lat="29.58068" lon="103.40533"><ele>631.21405</ele><time>2026-07-28T02:38:05.000Z</time></trkpt>
        <trkpt lat="29.581012" lon="103.405093"><ele>627.69226</ele><time>2026-07-28T02:38:09.000Z</time></trkpt>
        <trkpt lat="29.581207" lon="103.404884"><ele>625.02466</ele><time>2026-07-28T02:38:12.000Z</time></trkpt>
        <trkpt lat="29.581274" lon="103.40481"><ele>624.14935</ele><time>2026-07-28T02:38:13.000Z</time></trkpt>
        <trkpt lat="29.58134" lon="103.404734"><ele>623.8424</ele><time>2026-07-28T02:38:14.000Z</time></trkpt>
        <trkpt lat="29.581405" lon="103.404658"><ele>622.5491</ele><time>2026-07-28T02:38:15.000Z</time></trkpt>
        <trkpt lat="29.581475" lon="103.404576"><ele>622.1359</ele><time>2026-07-28T02:38:16.000Z</time></trkpt>
        <trkpt lat="29.581546" lon="103.404492"><ele>621.187</ele><time>2026-07-28T02:38:17.000Z</time></trkpt>
        <trkpt lat="29.581662" lon="103.404328"><ele>623.713</ele><time>2026-07-28T02:38:18.000Z</time></trkpt>
        <trkpt lat="29.581731" lon="103.404216"><ele>624.65985</ele><time>2026-07-28T02:38:19.000Z</time></trkpt>
        <trkpt lat="29.581781" lon="103.404143"><ele>624.15826</ele><time>2026-07-28T02:38:20.000Z</time></trkpt>
        <trkpt lat="29.581846" lon="103.404061"><ele>623.5874</ele><time>2026-07-28T02:38:21.000Z</time></trkpt>
        <trkpt lat="29.581915" lon="103.403986"><ele>623.80597</ele><time>2026-07-28T02:38:22.000Z</time></trkpt>
        <trkpt lat="29.581983" lon="103.403913"><ele>623.6199</ele><time>2026-07-28T02:38:23.000Z</time></trkpt>
        <trkpt lat="29.58205" lon="103.40385"><ele>624.7332</ele><time>2026-07-28T02:38:24.000Z</time></trkpt>
        <trkpt lat="29.582092" lon="103.403802"><ele>626.14954</ele><time>2026-07-28T02:38:25.000Z</time></trkpt>
        <trkpt lat="29.582128" lon="103.403735"><ele>626.5049</ele><time>2026-07-28T02:38:26.000Z</time></trkpt>
        <trkpt lat="29.582165" lon="103.403664"><ele>626.1247</ele><time>2026-07-28T02:38:27.000Z</time></trkpt>
        <trkpt lat="29.582201" lon="103.403587"><ele>626.04974</ele><time>2026-07-28T02:38:28.000Z</time></trkpt>
        <trkpt lat="29.582261" lon="103.403554"><ele>625.38446</ele><time>2026-07-28T02:38:29.000Z</time></trkpt>
        <trkpt lat="29.582329" lon="103.403528"><ele>625.01056</ele><time>2026-07-28T02:38:30.000Z</time></trkpt>
        <trkpt lat="29.582391" lon="103.403458"><ele>625.1714</ele><time>2026-07-28T02:38:31.000Z</time></trkpt>
        <trkpt lat="29.582468" lon="103.403406"><ele>624.99225</ele><time>2026-07-28T02:38:32.000Z</time></trkpt>
        <trkpt lat="29.582531" lon="103.403309"><ele>624.5666</ele><time>2026-07-28T02:38:33.000Z</time></trkpt>
        <trkpt lat="29.582591" lon="103.403224"><ele>623.7588</ele><time>2026-07-28T02:38:34.000Z</time></trkpt>
        <trkpt lat="29.582633" lon="103.403149"><ele>624.21674</ele><time>2026-07-28T02:38:35.000Z</time></trkpt>
        <trkpt lat="29.582683" lon="103.403064"><ele>624.19525</ele><time>2026-07-28T02:38:36.000Z</time></trkpt>
        <trkpt lat="29.582699" lon="103.402967"><ele>624.1664</ele><time>2026-07-28T02:38:37.000Z</time></trkpt>
        <trkpt lat="29.582708" lon="103.402855"><ele>624.6589</ele><time>2026-07-28T02:38:38.000Z</time></trkpt>
        <trkpt lat="29.582731" lon="103.402733"><ele>624.5514</ele><time>2026-07-28T02:38:39.000Z</time></trkpt>
        <trkpt lat="29.582718" lon="103.402591"><ele>625.0154</ele><time>2026-07-28T02:38:40.000Z</time></trkpt>
        <trkpt lat="29.58273" lon="103.402446"><ele>625.521</ele><time>2026-07-28T02:38:41.000Z</time></trkpt>
        <trkpt lat="29.582746" lon="103.402299"><ele>625.1756</ele><time>2026-07-28T02:38:42.000Z</time></trkpt>
        <trkpt lat="29.582777" lon="103.402156"><ele>625.19104</ele><time>2026-07-28T02:38:43.000Z</time></trkpt>
        <trkpt lat="29.582822" lon="103.402021"><ele>623.46094</ele><time>2026-07-28T02:38:44.000Z</time></trkpt>
        <trkpt lat="29.582881" lon="103.401911"><ele>622.5148</ele><time>2026-07-28T02:38:45.000Z</time></trkpt>
        <trkpt lat="29.582954" lon="103.401821"><ele>621.4134</ele><time>2026-07-28T02:38:46.000Z</time></trkpt>
        <trkpt lat="29.583049" lon="103.401759"><ele>621.0497</ele><time>2026-07-28T02:38:47.000Z</time></trkpt>
        <trkpt lat="29.583143" lon="103.401716"><ele>620.56</ele><time>2026-07-28T02:38:48.000Z</time></trkpt>
        <trkpt lat="29.583236" lon="103.401684"><ele>620.62366</ele><time>2026-07-28T02:38:49.000Z</time></trkpt>
        <trkpt lat="29.583335" lon="103.401664"><ele>620.9065</ele><time>2026-07-28T02:38:50.000Z</time></trkpt>
        <trkpt lat="29.583449" lon="103.401651"><ele>620.06067</ele><time>2026-07-28T02:38:51.000Z</time></trkpt>
        <trkpt lat="29.583552" lon="103.401644"><ele>619.4535</ele><time>2026-07-28T02:38:52.000Z</time></trkpt>
        <trkpt lat="29.583659" lon="103.401641"><ele>618.84076</ele><time>2026-07-28T02:38:53.000Z</time></trkpt>
        <trkpt lat="29.583763" lon="103.401641"><ele>618.83905</ele><time>2026-07-28T02:38:54.000Z</time></trkpt>
        <trkpt lat="29.583867" lon="103.401645"><ele>618.0914</ele><time>2026-07-28T02:38:55.000Z</time></trkpt>
        <trkpt lat="29.58397" lon="103.401655"><ele>616.75604</ele><time>2026-07-28T02:38:56.000Z</time></trkpt>
        <trkpt lat="29.584072" lon="103.401661"><ele>615.8329</ele><time>2026-07-28T02:38:57.000Z</time></trkpt>
        <trkpt lat="29.584173" lon="103.401665"><ele>614.63763</ele><time>2026-07-28T02:38:58.000Z</time></trkpt>
        <trkpt lat="29.584273" lon="103.401667"><ele>613.7107</ele><time>2026-07-28T02:38:59.000Z</time></trkpt>
        <trkpt lat="29.584368" lon="103.401669"><ele>612.70325</ele><time>2026-07-28T02:39:00.000Z</time></trkpt>
        <trkpt lat="29.584456" lon="103.401674"><ele>612.4482</ele><time>2026-07-28T02:39:01.000Z</time></trkpt>
        <trkpt lat="29.584536" lon="103.40169"><ele>611.618</ele><time>2026-07-28T02:39:02.000Z</time></trkpt>
        <trkpt lat="29.584618" lon="103.401722"><ele>610.72076</ele><time>2026-07-28T02:39:03.000Z</time></trkpt>
        <trkpt lat="29.584704" lon="103.401764"><ele>609.3892</ele><time>2026-07-28T02:39:04.000Z</time></trkpt>
        <trkpt lat="29.584793" lon="103.401814"><ele>608.4687</ele><time>2026-07-28T02:39:05.000Z</time></trkpt>
        <trkpt lat="29.584882" lon="103.401862"><ele>608.0447</ele><time>2026-07-28T02:39:05.000Z</time></trkpt>
        <trkpt lat="29.584975" lon="103.401896"><ele>607.5064</ele><time>2026-07-28T02:39:06.000Z</time></trkpt>
        <trkpt lat="29.585064" lon="103.401913"><ele>606.66034</ele><time>2026-07-28T02:39:07.000Z</time></trkpt>
        <trkpt lat="29.585147" lon="103.401936"><ele>606.3393</ele><time>2026-07-28T02:39:08.000Z</time></trkpt>
        <trkpt lat="29.585216" lon="103.401978"><ele>606.2356</ele><time>2026-07-28T02:39:09.000Z</time></trkpt>
        <trkpt lat="29.585269" lon="103.402048"><ele>605.44855</ele><time>2026-07-28T02:39:10.000Z</time></trkpt>
        <trkpt lat="29.585259" lon="103.402139"><ele>604.8601</ele><time>2026-07-28T02:39:11.000Z</time></trkpt>
        <trkpt lat="29.585277" lon="103.40223"><ele>604.9793</ele><time>2026-07-28T02:39:12.000Z</time></trkpt>
        <trkpt lat="29.585291" lon="103.402331"><ele>605.1803</ele><time>2026-07-28T02:39:13.000Z</time></trkpt>
        <trkpt lat="29.585308" lon="103.402438"><ele>605.2024</ele><time>2026-07-28T02:39:14.000Z</time></trkpt>
        <trkpt lat="29.585333" lon="103.402552"><ele>605.3812</ele><time>2026-07-28T02:39:15.000Z</time></trkpt>
        <trkpt lat="29.58535" lon="103.402671"><ele>604.95166</ele><time>2026-07-28T02:39:16.000Z</time></trkpt>
        <trkpt lat="29.58537" lon="103.402794"><ele>604.0222</ele><time>2026-07-28T02:39:17.000Z</time></trkpt>
        <trkpt lat="29.585383" lon="103.402922"><ele>603.76874</ele><time>2026-07-28T02:39:18.000Z</time></trkpt>
        <trkpt lat="29.5854" lon="103.403046"><ele>603.3616</ele><time>2026-07-28T02:39:19.000Z</time></trkpt>
        <trkpt lat="29.585435" lon="103.403166"><ele>602.84204</ele><time>2026-07-28T02:39:20.000Z</time></trkpt>
        <trkpt lat="29.585485" lon="103.403279"><ele>603.03864</ele><time>2026-07-28T02:39:21.000Z</time></trkpt>
        <trkpt lat="29.585545" lon="103.403384"><ele>602.717</ele><time>2026-07-28T02:39:22.000Z</time></trkpt>
        <trkpt lat="29.585614" lon="103.403476"><ele>602.14</ele><time>2026-07-28T02:39:24.000Z</time></trkpt>
        <trkpt lat="29.585693" lon="103.403554"><ele>601.7122</ele><time>2026-07-28T02:39:25.000Z</time></trkpt>
        <trkpt lat="29.585778" lon="103.403623"><ele>601.58356</ele><time>2026-07-28T02:39:26.000Z</time></trkpt>
        <trkpt lat="29.585857" lon="103.403702"><ele>601.4947</ele><time>2026-07-28T02:39:27.000Z</time></trkpt>
        <trkpt lat="29.58593" lon="103.403794"><ele>601.21814</ele><time>2026-07-28T02:39:28.000Z</time></trkpt>
        <trkpt lat="29.586002" lon="103.403896"><ele>600.73065</ele><time>2026-07-28T02:39:29.000Z</time></trkpt>
        <trkpt lat="29.586073" lon="103.404001"><ele>600.02905</ele><time>2026-07-28T02:39:30.000Z</time></trkpt>
        <trkpt lat="29.586142" lon="103.404104"><ele>599.61975</ele><time>2026-07-28T02:39:31.000Z</time></trkpt>
        <trkpt lat="29.586208" lon="103.404202"><ele>599.1745</ele><time>2026-07-28T02:39:32.000Z</time></trkpt>
        <trkpt lat="29.586271" lon="103.404295"><ele>598.5496</ele><time>2026-07-28T02:39:33.000Z</time></trkpt>
        <trkpt lat="29.586336" lon="103.404385"><ele>598.1729</ele><time>2026-07-28T02:39:34.000Z</time></trkpt>
        <trkpt lat="29.586394" lon="103.404482"><ele>597.68854</ele><time>2026-07-28T02:39:35.000Z</time></trkpt>
        <trkpt lat="29.586458" lon="103.404574"><ele>597.19977</ele><time>2026-07-28T02:39:36.000Z</time></trkpt>
        <trkpt lat="29.586533" lon="103.404651"><ele>596.8636</ele><time>2026-07-28T02:39:37.000Z</time></trkpt>
        <trkpt lat="29.586614" lon="103.404717"><ele>596.57227</ele><time>2026-07-28T02:39:38.000Z</time></trkpt>
        <trkpt lat="29.586697" lon="103.404773"><ele>596.4502</ele><time>2026-07-28T02:39:39.000Z</time></trkpt>
        <trkpt lat="29.586789" lon="103.404808"><ele>596.4436</ele><time>2026-07-28T02:39:40.000Z</time></trkpt>
        <trkpt lat="29.586881" lon="103.40483"><ele>596.11755</ele><time>2026-07-28T02:39:41.000Z</time></trkpt>
        <trkpt lat="29.586971" lon="103.404856"><ele>596.1169</ele><time>2026-07-28T02:39:42.000Z</time></trkpt>
        <trkpt lat="29.58706" lon="103.404883"><ele>595.57556</ele><time>2026-07-28T02:39:43.000Z</time></trkpt>
        <trkpt lat="29.587149" lon="103.404909"><ele>595.73364</ele><time>2026-07-28T02:39:44.000Z</time></trkpt>
        <trkpt lat="29.58724" lon="103.404933"><ele>595.8791</ele><time>2026-07-28T02:39:45.000Z</time></trkpt>
        <trkpt lat="29.587328" lon="103.404954"><ele>595.7619</ele><time>2026-07-28T02:39:46.000Z</time></trkpt>
        <trkpt lat="29.587413" lon="103.404975"><ele>595.52374</ele><time>2026-07-28T02:39:47.000Z</time></trkpt>
        <trkpt lat="29.587496" lon="103.404993"><ele>595.4314</ele><time>2026-07-28T02:39:48.000Z</time></trkpt>
        <trkpt lat="29.587577" lon="103.405008"><ele>595.209</ele><time>2026-07-28T02:39:49.000Z</time></trkpt>
        <trkpt lat="29.587661" lon="103.405021"><ele>594.96735</ele><time>2026-07-28T02:39:50.000Z</time></trkpt>
        <trkpt lat="29.587745" lon="103.405035"><ele>594.78864</ele><time>2026-07-28T02:39:51.000Z</time></trkpt>
        <trkpt lat="29.587825" lon="103.405052"><ele>594.87085</ele><time>2026-07-28T02:39:52.000Z</time></trkpt>
        <trkpt lat="29.587899" lon="103.40507"><ele>594.7756</ele><time>2026-07-28T02:39:53.000Z</time></trkpt>
        <trkpt lat="29.587963" lon="103.405096"><ele>594.8899</ele><time>2026-07-28T02:39:54.000Z</time></trkpt>
        <trkpt lat="29.588011" lon="103.405112"><ele>595.10034</ele><time>2026-07-28T02:39:55.000Z</time></trkpt>
        <trkpt lat="29.587949" lon="103.405181"><ele>594.73505</ele><time>2026-07-28T02:39:56.000Z</time></trkpt>
        <trkpt lat="29.587878" lon="103.405282"><ele>593.14435</ele><time>2026-07-28T02:39:59.000Z</time></trkpt>
        <trkpt lat="29.587813" lon="103.405336"><ele>592.5402</ele><time>2026-07-28T02:40:00.000Z</time></trkpt>
        <trkpt lat="29.58775" lon="103.405387"><ele>592.305</ele><time>2026-07-28T02:40:01.000Z</time></trkpt>
        <trkpt lat="29.587677" lon="103.405438"><ele>591.4704</ele><time>2026-07-28T02:40:02.000Z</time></trkpt>
        <trkpt lat="29.5876" lon="103.405495"><ele>591.55176</ele><time>2026-07-28T02:40:03.000Z</time></trkpt>
        <trkpt lat="29.587521" lon="103.405555"><ele>591.6029</ele><time>2026-07-28T02:40:04.000Z</time></trkpt>
        <trkpt lat="29.587442" lon="103.405611"><ele>591.3467</ele><time>2026-07-28T02:40:05.000Z</time></trkpt>
        <trkpt lat="29.587354" lon="103.405667"><ele>590.6</ele><time>2026-07-28T02:40:06.000Z</time></trkpt>
        <trkpt lat="29.587267" lon="103.405717"><ele>590.67206</ele><time>2026-07-28T02:40:07.000Z</time></trkpt>
        <trkpt lat="29.587177" lon="103.405756"><ele>590.42535</ele><time>2026-07-28T02:40:08.000Z</time></trkpt>
        <trkpt lat="29.587082" lon="103.405785"><ele>590.2326</ele><time>2026-07-28T02:40:09.000Z</time></trkpt>
        <trkpt lat="29.58698" lon="103.405802"><ele>590.39795</ele><time>2026-07-28T02:40:10.000Z</time></trkpt>
        <trkpt lat="29.586875" lon="103.405825"><ele>591.0836</ele><time>2026-07-28T02:40:11.000Z</time></trkpt>
        <trkpt lat="29.586772" lon="103.405843"><ele>590.7954</ele><time>2026-07-28T02:40:12.000Z</time></trkpt>
        <trkpt lat="29.586668" lon="103.405863"><ele>590.58954</ele><time>2026-07-28T02:40:13.000Z</time></trkpt>
        <trkpt lat="29.586561" lon="103.40588"><ele>589.9509</ele><time>2026-07-28T02:40:14.000Z</time></trkpt>
        <trkpt lat="29.586461" lon="103.405933"><ele>589.6216</ele><time>2026-07-28T02:40:15.000Z</time></trkpt>
        <trkpt lat="29.586371" lon="103.406009"><ele>589.33466</ele><time>2026-07-28T02:40:16.000Z</time></trkpt>
        <trkpt lat="29.586296" lon="103.406108"><ele>589.16034</ele><time>2026-07-28T02:40:17.000Z</time></trkpt>
        <trkpt lat="29.586236" lon="103.406217"><ele>589.173</ele><time>2026-07-28T02:40:18.000Z</time></trkpt>
        <trkpt lat="29.586179" lon="103.406336"><ele>589.0634</ele><time>2026-07-28T02:40:19.000Z</time></trkpt>
        <trkpt lat="29.586126" lon="103.406456"><ele>588.7114</ele><time>2026-07-28T02:40:20.000Z</time></trkpt>
        <trkpt lat="29.586079" lon="103.406583"><ele>588.3903</ele><time>2026-07-28T02:40:21.000Z</time></trkpt>
        <trkpt lat="29.586041" lon="103.406715"><ele>588.1717</ele><time>2026-07-28T02:40:22.000Z</time></trkpt>
        <trkpt lat="29.586011" lon="103.406854"><ele>587.7208</ele><time>2026-07-28T02:40:23.000Z</time></trkpt>
        <trkpt lat="29.585992" lon="103.406983"><ele>587.8843</ele><time>2026-07-28T02:40:24.000Z</time></trkpt>
        <trkpt lat="29.58598" lon="103.407115"><ele>587.7614</ele><time>2026-07-28T02:40:25.000Z</time></trkpt>
        <trkpt lat="29.585972" lon="103.407244"><ele>588.05695</ele><time>2026-07-28T02:40:26.000Z</time></trkpt>
        <trkpt lat="29.585973" lon="103.407384"><ele>588.0168</ele><time>2026-07-28T02:40:27.000Z</time></trkpt>
        <trkpt lat="29.585982" lon="103.407515"><ele>588.04</ele><time>2026-07-28T02:40:28.000Z</time></trkpt>
        <trkpt lat="29.585994" lon="103.407643"><ele>588.0899</ele><time>2026-07-28T02:40:29.000Z</time></trkpt>
        <trkpt lat="29.586008" lon="103.40777"><ele>587.77875</ele><time>2026-07-28T02:40:30.000Z</time></trkpt>
        <trkpt lat="29.586034" lon="103.407903"><ele>587.3131</ele><time>2026-07-28T02:40:31.000Z</time></trkpt>
        <trkpt lat="29.586072" lon="103.408031"><ele>586.64514</ele><time>2026-07-28T02:40:32.000Z</time></trkpt>
        <trkpt lat="29.586115" lon="103.408152"><ele>586.0438</ele><time>2026-07-28T02:40:33.000Z</time></trkpt>
        <trkpt lat="29.586162" lon="103.408274"><ele>585.03705</ele><time>2026-07-28T02:40:34.000Z</time></trkpt>
        <trkpt lat="29.586211" lon="103.408397"><ele>584.46295</ele><time>2026-07-28T02:40:35.000Z</time></trkpt>
        <trkpt lat="29.58626" lon="103.408521"><ele>583.91254</ele><time>2026-07-28T02:40:36.000Z</time></trkpt>
        <trkpt lat="29.586306" lon="103.408644"><ele>583.5472</ele><time>2026-07-28T02:40:37.000Z</time></trkpt>
        <trkpt lat="29.586351" lon="103.40877"><ele>583.29333</ele><time>2026-07-28T02:40:38.000Z</time></trkpt>
        <trkpt lat="29.586376" lon="103.408892"><ele>583.0385</ele><time>2026-07-28T02:40:39.000Z</time></trkpt>
        <trkpt lat="29.586386" lon="103.409015"><ele>582.7647</ele><time>2026-07-28T02:40:40.000Z</time></trkpt>
        <trkpt lat="29.586379" lon="103.409143"><ele>582.1462</ele><time>2026-07-28T02:40:41.000Z</time></trkpt>
        <trkpt lat="29.586358" lon="103.409269"><ele>581.4849</ele><time>2026-07-28T02:40:42.000Z</time></trkpt>
        <trkpt lat="29.586324" lon="103.409395"><ele>581.2854</ele><time>2026-07-28T02:40:43.000Z</time></trkpt>
        <trkpt lat="29.586285" lon="103.409519"><ele>581.13025</ele><time>2026-07-28T02:40:44.000Z</time></trkpt>
        <trkpt lat="29.586239" lon="103.409622"><ele>580.7082</ele><time>2026-07-28T02:40:45.000Z</time></trkpt>
        <trkpt lat="29.58617" lon="103.409686"><ele>580.2722</ele><time>2026-07-28T02:40:46.000Z</time></trkpt>
        <trkpt lat="29.586088" lon="103.409737"><ele>580.2426</ele><time>2026-07-28T02:40:47.000Z</time></trkpt>
        <trkpt lat="29.585989" lon="103.409758"><ele>580.3391</ele><time>2026-07-28T02:40:48.000Z</time></trkpt>
        <trkpt lat="29.58589" lon="103.409777"><ele>579.8571</ele><time>2026-07-28T02:40:49.000Z</time></trkpt>
        <trkpt lat="29.585786" lon="103.409797"><ele>579.25214</ele><time>2026-07-28T02:40:50.000Z</time></trkpt>
        <trkpt lat="29.585679" lon="103.409831"><ele>579.10016</ele><time>2026-07-28T02:40:51.000Z</time></trkpt>
        <trkpt lat="29.585565" lon="103.409829"><ele>579.374</ele><time>2026-07-28T02:40:52.000Z</time></trkpt>
        <trkpt lat="29.58545" lon="103.409855"><ele>578.9647</ele><time>2026-07-28T02:40:53.000Z</time></trkpt>
        <trkpt lat="29.585336" lon="103.409863"><ele>578.60065</ele><time>2026-07-28T02:40:54.000Z</time></trkpt>
        <trkpt lat="29.585224" lon="103.409875"><ele>578.5266</ele><time>2026-07-28T02:40:55.000Z</time></trkpt>
        <trkpt lat="29.585118" lon="103.409881"><ele>578.2277</ele><time>2026-07-28T02:40:56.000Z</time></trkpt>
        <trkpt lat="29.585023" lon="103.409869"><ele>578.1413</ele><time>2026-07-28T02:40:57.000Z</time></trkpt>
        <trkpt lat="29.584937" lon="103.409832"><ele>578.4412</ele><time>2026-07-28T02:40:58.000Z</time></trkpt>
        <trkpt lat="29.58486" lon="103.409772"><ele>578.70953</ele><time>2026-07-28T02:40:59.000Z</time></trkpt>
        <trkpt lat="29.584795" lon="103.409698"><ele>578.6624</ele><time>2026-07-28T02:41:00.000Z</time></trkpt>
        <trkpt lat="29.584739" lon="103.409615"><ele>578.5147</ele><time>2026-07-28T02:41:01.000Z</time></trkpt>
        <trkpt lat="29.584679" lon="103.409535"><ele>578.5432</ele><time>2026-07-28T02:41:02.000Z</time></trkpt>
        <trkpt lat="29.584607" lon="103.409468"><ele>578.52985</ele><time>2026-07-28T02:41:03.000Z</time></trkpt>
        <trkpt lat="29.584529" lon="103.409422"><ele>578.6203</ele><time>2026-07-28T02:41:04.000Z</time></trkpt>
        <trkpt lat="29.584449" lon="103.409397"><ele>578.5846</ele><time>2026-07-28T02:41:05.000Z</time></trkpt>
        <trkpt lat="29.584369" lon="103.409382"><ele>578.81854</ele><time>2026-07-28T02:41:05.000Z</time></trkpt>
        <trkpt lat="29.584286" lon="103.409371"><ele>579.02606</ele><time>2026-07-28T02:41:06.000Z</time></trkpt>
        <trkpt lat="29.584202" lon="103.409362"><ele>579.5073</ele><time>2026-07-28T02:41:07.000Z</time></trkpt>
        <trkpt lat="29.584114" lon="103.409351"><ele>579.82654</ele><time>2026-07-28T02:41:08.000Z</time></trkpt>
        <trkpt lat="29.584023" lon="103.40934"><ele>579.98346</ele><time>2026-07-28T02:41:09.000Z</time></trkpt>
        <trkpt lat="29.583933" lon="103.409332"><ele>580.47485</ele><time>2026-07-28T02:41:10.000Z</time></trkpt>
        <trkpt lat="29.583847" lon="103.409325"><ele>580.6839</ele><time>2026-07-28T02:41:11.000Z</time></trkpt>
        <trkpt lat="29.583763" lon="103.409325"><ele>581.0726</ele><time>2026-07-28T02:41:12.000Z</time></trkpt>
        <trkpt lat="29.58368" lon="103.409347"><ele>581.39197</ele><time>2026-07-28T02:41:13.000Z</time></trkpt>
        <trkpt lat="29.583606" lon="103.409392"><ele>581.874</ele><time>2026-07-28T02:41:14.000Z</time></trkpt>
        <trkpt lat="29.583527" lon="103.409426"><ele>582.72644</ele><time>2026-07-28T02:41:15.000Z</time></trkpt>
        <trkpt lat="29.583452" lon="103.409478"><ele>583.1752</ele><time>2026-07-28T02:41:16.000Z</time></trkpt>
        <trkpt lat="29.583382" lon="103.409543"><ele>583.83276</ele><time>2026-07-28T02:41:17.000Z</time></trkpt>
        <trkpt lat="29.583322" lon="103.409625"><ele>584.2661</ele><time>2026-07-28T02:41:18.000Z</time></trkpt>
        <trkpt lat="29.583266" lon="103.409698"><ele>584.3882</ele><time>2026-07-28T02:41:19.000Z</time></trkpt>
        <trkpt lat="29.583229" lon="103.409775"><ele>585.44904</ele><time>2026-07-28T02:41:20.000Z</time></trkpt>
        <trkpt lat="29.583176" lon="103.409839"><ele>585.9261</ele><time>2026-07-28T02:41:21.000Z</time></trkpt>
        <trkpt lat="29.583137" lon="103.409913"><ele>586.43146</ele><time>2026-07-28T02:41:22.000Z</time></trkpt>
        <trkpt lat="29.583092" lon="103.409969"><ele>587.0099</ele><time>2026-07-28T02:41:23.000Z</time></trkpt>
        <trkpt lat="29.583054" lon="103.410026"><ele>587.3824</ele><time>2026-07-28T02:41:24.000Z</time></trkpt>
        <trkpt lat="29.583016" lon="103.410083"><ele>588.4563</ele><time>2026-07-28T02:41:25.000Z</time></trkpt>
        <trkpt lat="29.582973" lon="103.410146"><ele>588.72974</ele><time>2026-07-28T02:41:26.000Z</time></trkpt>
        <trkpt lat="29.582928" lon="103.410213"><ele>589.56757</ele><time>2026-07-28T02:41:27.000Z</time></trkpt>
        <trkpt lat="29.582879" lon="103.410282"><ele>590.0887</ele><time>2026-07-28T02:41:28.000Z</time></trkpt>
        <trkpt lat="29.582825" lon="103.410353"><ele>590.65497</ele><time>2026-07-28T02:41:30.000Z</time></trkpt>
        <trkpt lat="29.582771" lon="103.41043"><ele>591.4224</ele><time>2026-07-28T02:41:31.000Z</time></trkpt>
        <trkpt lat="29.582705" lon="103.41049"><ele>592.34735</ele><time>2026-07-28T02:41:32.000Z</time></trkpt>
        <trkpt lat="29.582648" lon="103.410565"><ele>593.5015</ele><time>2026-07-28T02:41:33.000Z</time></trkpt>
        <trkpt lat="29.582593" lon="103.41064"><ele>594.2261</ele><time>2026-07-28T02:41:34.000Z</time></trkpt>
        <trkpt lat="29.582537" lon="103.410707"><ele>595.2587</ele><time>2026-07-28T02:41:35.000Z</time></trkpt>
        <trkpt lat="29.582476" lon="103.41077"><ele>596.8173</ele><time>2026-07-28T02:41:36.000Z</time></trkpt>
        <trkpt lat="29.582419" lon="103.410837"><ele>597.9934</ele><time>2026-07-28T02:41:37.000Z</time></trkpt>
        <trkpt lat="29.582357" lon="103.4109"><ele>598.9354</ele><time>2026-07-28T02:41:38.000Z</time></trkpt>
        <trkpt lat="29.582294" lon="103.410951"><ele>600.3363</ele><time>2026-07-28T02:41:39.000Z</time></trkpt>
        <trkpt lat="29.582224" lon="103.411003"><ele>602.28015</ele><time>2026-07-28T02:41:40.000Z</time></trkpt>
        <trkpt lat="29.582152" lon="103.411064"><ele>604.9179</ele><time>2026-07-28T02:41:41.000Z</time></trkpt>
        <trkpt lat="29.582076" lon="103.411117"><ele>606.2461</ele><time>2026-07-28T02:41:42.000Z</time></trkpt>
        <trkpt lat="29.582004" lon="103.411159"><ele>607.2489</ele><time>2026-07-28T02:41:43.000Z</time></trkpt>
        <trkpt lat="29.581932" lon="103.411198"><ele>607.95795</ele><time>2026-07-28T02:41:44.000Z</time></trkpt>
        <trkpt lat="29.581855" lon="103.411229"><ele>608.60535</ele><time>2026-07-28T02:41:45.000Z</time></trkpt>
        <trkpt lat="29.581781" lon="103.411248"><ele>610.52264</ele><time>2026-07-28T02:41:46.000Z</time></trkpt>
        <trkpt lat="29.581705" lon="103.411276"><ele>611.13837</ele><time>2026-07-28T02:41:47.000Z</time></trkpt>
        <trkpt lat="29.581638" lon="103.411327"><ele>611.2333</ele><time>2026-07-28T02:41:48.000Z</time></trkpt>
        <trkpt lat="29.581566" lon="103.411358"><ele>611.767</ele><time>2026-07-28T02:41:49.000Z</time></trkpt>
        <trkpt lat="29.581497" lon="103.411391"><ele>612.44885</ele><time>2026-07-28T02:41:50.000Z</time></trkpt>
        <trkpt lat="29.58143" lon="103.411423"><ele>613.20026</ele><time>2026-07-28T02:41:51.000Z</time></trkpt>
        <trkpt lat="29.581366" lon="103.41146"><ele>613.64124</ele><time>2026-07-28T02:41:52.000Z</time></trkpt>
        <trkpt lat="29.581308" lon="103.4115"><ele>613.9317</ele><time>2026-07-28T02:41:53.000Z</time></trkpt>
        <trkpt lat="29.581252" lon="103.411543"><ele>613.8967</ele><time>2026-07-28T02:41:54.000Z</time></trkpt>
        <trkpt lat="29.581199" lon="103.411588"><ele>613.9528</ele><time>2026-07-28T02:41:55.000Z</time></trkpt>
        <trkpt lat="29.581145" lon="103.411639"><ele>613.6354</ele><time>2026-07-28T02:41:56.000Z</time></trkpt>
        <trkpt lat="29.581096" lon="103.411696"><ele>613.33496</ele><time>2026-07-28T02:41:57.000Z</time></trkpt>
        <trkpt lat="29.581065" lon="103.41177"><ele>612.59625</ele><time>2026-07-28T02:41:58.000Z</time></trkpt>
        <trkpt lat="29.581024" lon="103.411836"><ele>612.07886</ele><time>2026-07-28T02:41:59.000Z</time></trkpt>
        <trkpt lat="29.58102" lon="103.411926"><ele>611.73425</ele><time>2026-07-28T02:42:00.000Z</time></trkpt>
        <trkpt lat="29.581063" lon="103.412037"><ele>611.075</ele><time>2026-07-28T02:42:01.000Z</time></trkpt>
        <trkpt lat="29.58114" lon="103.412122"><ele>610.3704</ele><time>2026-07-28T02:42:02.000Z</time></trkpt>
        <trkpt lat="29.581209" lon="103.412188"><ele>608.75586</ele><time>2026-07-28T02:42:03.000Z</time></trkpt>
        <trkpt lat="29.581282" lon="103.412258"><ele>606.31226</ele><time>2026-07-28T02:42:04.000Z</time></trkpt>
        <trkpt lat="29.58134" lon="103.412329"><ele>604.0471</ele><time>2026-07-28T02:42:05.000Z</time></trkpt>
        <trkpt lat="29.581399" lon="103.412412"><ele>601.0204</ele><time>2026-07-28T02:42:06.000Z</time></trkpt>
        <trkpt lat="29.581447" lon="103.412504"><ele>598.7398</ele><time>2026-07-28T02:42:07.000Z</time></trkpt>
        <trkpt lat="29.581488" lon="103.412614"><ele>597.5496</ele><time>2026-07-28T02:42:08.000Z</time></trkpt>
        <trkpt lat="29.581529" lon="103.412721"><ele>595.8444</ele><time>2026-07-28T02:42:09.000Z</time></trkpt>
        <trkpt lat="29.581576" lon="103.412829"><ele>594.39166</ele><time>2026-07-28T02:42:10.000Z</time></trkpt>
        <trkpt lat="29.58164" lon="103.412945"><ele>592.6199</ele><time>2026-07-28T02:42:11.000Z</time></trkpt>
        <trkpt lat="29.581717" lon="103.413032"><ele>590.6034</ele><time>2026-07-28T02:42:12.000Z</time></trkpt>
        <trkpt lat="29.581807" lon="103.413109"><ele>589.44305</ele><time>2026-07-28T02:42:13.000Z</time></trkpt>
        <trkpt lat="29.581889" lon="103.413174"><ele>588.0344</ele><time>2026-07-28T02:42:14.000Z</time></trkpt>
        <trkpt lat="29.581965" lon="103.413234"><ele>586.9214</ele><time>2026-07-28T02:42:15.000Z</time></trkpt>
        <trkpt lat="29.582034" lon="103.413288"><ele>585.1415</ele><time>2026-07-28T02:42:16.000Z</time></trkpt>
        <trkpt lat="29.582086" lon="103.41335"><ele>585.50085</ele><time>2026-07-28T02:42:17.000Z</time></trkpt>
        <trkpt lat="29.582142" lon="103.413421"><ele>583.6345</ele><time>2026-07-28T02:42:18.000Z</time></trkpt>
        <trkpt lat="29.58212" lon="103.413896"><ele>582.53455</ele><time>2026-07-28T02:42:23.000Z</time></trkpt>
        <trkpt lat="29.582199" lon="103.414027"><ele>583.1321</ele><time>2026-07-28T02:42:24.000Z</time></trkpt>
        <trkpt lat="29.582183" lon="103.41413"><ele>584.019</ele><time>2026-07-28T02:42:25.000Z</time></trkpt>
        <trkpt lat="29.582185" lon="103.414227"><ele>582.71265</ele><time>2026-07-28T02:42:26.000Z</time></trkpt>
        <trkpt lat="29.582194" lon="103.414332"><ele>581.64685</ele><time>2026-07-28T02:42:27.000Z</time></trkpt>
        <trkpt lat="29.582219" lon="103.414409"><ele>580.4884</ele><time>2026-07-28T02:42:28.000Z</time></trkpt>
        <trkpt lat="29.582228" lon="103.414513"><ele>580.94714</ele><time>2026-07-28T02:42:29.000Z</time></trkpt>
        <trkpt lat="29.582233" lon="103.414621"><ele>580.43225</ele><time>2026-07-28T02:42:30.000Z</time></trkpt>
        <trkpt lat="29.582233" lon="103.414716"><ele>580.5427</ele><time>2026-07-28T02:42:31.000Z</time></trkpt>
        <trkpt lat="29.582241" lon="103.414799"><ele>580.0554</ele><time>2026-07-28T02:42:32.000Z</time></trkpt>
        <trkpt lat="29.582253" lon="103.41487"><ele>579.28204</ele><time>2026-07-28T02:42:33.000Z</time></trkpt>
        <trkpt lat="29.582265" lon="103.414944"><ele>578.66504</ele><time>2026-07-28T02:42:34.000Z</time></trkpt>
        <trkpt lat="29.582275" lon="103.415007"><ele>577.8991</ele><time>2026-07-28T02:42:35.000Z</time></trkpt>
        <trkpt lat="29.582264" lon="103.415063"><ele>577.4011</ele><time>2026-07-28T02:42:36.000Z</time></trkpt>
        <trkpt lat="29.582208" lon="103.415113"><ele>577.46375</ele><time>2026-07-28T02:42:37.000Z</time></trkpt>
        <trkpt lat="29.58212" lon="103.415042"><ele>576.93744</ele><time>2026-07-28T02:42:38.000Z</time></trkpt>
        <trkpt lat="29.582074" lon="103.415058"><ele>576.98785</ele><time>2026-07-28T02:42:39.000Z</time></trkpt>
        <trkpt lat="29.582037" lon="103.415016"><ele>577.65063</ele><time>2026-07-28T02:42:40.000Z</time></trkpt>
        <trkpt lat="29.58203" lon="103.414929"><ele>577.7151</ele><time>2026-07-28T02:42:41.000Z</time></trkpt>
        <trkpt lat="29.582031" lon="103.414849"><ele>576.50116</ele><time>2026-07-28T02:42:42.000Z</time></trkpt>
        <trkpt lat="29.582017" lon="103.414766"><ele>575.74194</ele><time>2026-07-28T02:42:43.000Z</time></trkpt>
        <trkpt lat="29.582001" lon="103.41468"><ele>575.60895</ele><time>2026-07-28T02:42:44.000Z</time></trkpt>
        <trkpt lat="29.582008" lon="103.4146"><ele>575.6241</ele><time>2026-07-28T02:42:45.000Z</time></trkpt>
        <trkpt lat="29.581996" lon="103.414513"><ele>574.80566</ele><time>2026-07-28T02:42:46.000Z</time></trkpt>
        <trkpt lat="29.58198" lon="103.414427"><ele>573.88354</ele><time>2026-07-28T02:42:47.000Z</time></trkpt>
        <trkpt lat="29.58197" lon="103.414336"><ele>572.7272</ele><time>2026-07-28T02:42:48.000Z</time></trkpt>
        <trkpt lat="29.581963" lon="103.414243"><ele>571.6718</ele><time>2026-07-28T02:42:49.000Z</time></trkpt>
        <trkpt lat="29.581954" lon="103.414131"><ele>570.8748</ele><time>2026-07-28T02:42:50.000Z</time></trkpt>
        <trkpt lat="29.581941" lon="103.413993"><ele>570.7588</ele><time>2026-07-28T02:42:51.000Z</time></trkpt>
        <trkpt lat="29.581925" lon="103.413883"><ele>570.01544</ele><time>2026-07-28T02:42:52.000Z</time></trkpt>
        <trkpt lat="29.581898" lon="103.413776"><ele>569.0938</ele><time>2026-07-28T02:42:53.000Z</time></trkpt>
        <trkpt lat="29.581854" lon="103.413686"><ele>567.6344</ele><time>2026-07-28T02:42:54.000Z</time></trkpt>
        <trkpt lat="29.581785" lon="103.413594"><ele>566.6473</ele><time>2026-07-28T02:42:55.000Z</time></trkpt>
        <trkpt lat="29.58171" lon="103.413505"><ele>566.1559</ele><time>2026-07-28T02:42:55.000Z</time></trkpt>
        <trkpt lat="29.581623" lon="103.413417"><ele>566.0682</ele><time>2026-07-28T02:42:56.000Z</time></trkpt>
        <trkpt lat="29.581552" lon="103.41333"><ele>565.5103</ele><time>2026-07-28T02:42:57.000Z</time></trkpt>
        <trkpt lat="29.581484" lon="103.413232"><ele>564.68</ele><time>2026-07-28T02:42:58.000Z</time></trkpt>
        <trkpt lat="29.581424" lon="103.413152"><ele>563.6558</ele><time>2026-07-28T02:42:59.000Z</time></trkpt>
        <trkpt lat="29.581357" lon="103.413075"><ele>563.5142</ele><time>2026-07-28T02:43:00.000Z</time></trkpt>
        <trkpt lat="29.5813" lon="103.413"><ele>562.9333</ele><time>2026-07-28T02:43:01.000Z</time></trkpt>
        <trkpt lat="29.581246" lon="103.412934"><ele>562.234</ele><time>2026-07-28T02:43:02.000Z</time></trkpt>
        <trkpt lat="29.581184" lon="103.412885"><ele>562.20593</ele><time>2026-07-28T02:43:03.000Z</time></trkpt>
        <trkpt lat="29.581128" lon="103.412853"><ele>561.21014</ele><time>2026-07-28T02:43:04.000Z</time></trkpt>
        <trkpt lat="29.581064" lon="103.412862"><ele>560.5759</ele><time>2026-07-28T02:43:05.000Z</time></trkpt>
        <trkpt lat="29.581015" lon="103.412902"><ele>560.36914</ele><time>2026-07-28T02:43:06.000Z</time></trkpt>
        <trkpt lat="29.580984" lon="103.412962"><ele>560.2153</ele><time>2026-07-28T02:43:07.000Z</time></trkpt>
        <trkpt lat="29.580982" lon="103.413051"><ele>558.8297</ele><time>2026-07-28T02:43:08.000Z</time></trkpt>
        <trkpt lat="29.581041" lon="103.413112"><ele>557.4252</ele><time>2026-07-28T02:43:09.000Z</time></trkpt>
        <trkpt lat="29.581099" lon="103.413169"><ele>556.25037</ele><time>2026-07-28T02:43:10.000Z</time></trkpt>
        <trkpt lat="29.581157" lon="103.413231"><ele>554.18445</ele><time>2026-07-28T02:43:11.000Z</time></trkpt>
        <trkpt lat="29.581217" lon="103.413302"><ele>552.28253</ele><time>2026-07-28T02:43:12.000Z</time></trkpt>
        <trkpt lat="29.581282" lon="103.413377"><ele>550.8727</ele><time>2026-07-28T02:43:13.000Z</time></trkpt>
        <trkpt lat="29.581347" lon="103.41345"><ele>548.8352</ele><time>2026-07-28T02:43:14.000Z</time></trkpt>
        <trkpt lat="29.581409" lon="103.41354"><ele>547.16223</ele><time>2026-07-28T02:43:15.000Z</time></trkpt>
        <trkpt lat="29.581458" lon="103.413645"><ele>546.3408</ele><time>2026-07-28T02:43:16.000Z</time></trkpt>
        <trkpt lat="29.581493" lon="103.413757"><ele>545.04456</ele><time>2026-07-28T02:43:17.000Z</time></trkpt>
        <trkpt lat="29.581521" lon="103.41387"><ele>543.9245</ele><time>2026-07-28T02:43:18.000Z</time></trkpt>
        <trkpt lat="29.581542" lon="103.413982"><ele>542.95935</ele><time>2026-07-28T02:43:19.000Z</time></trkpt>
        <trkpt lat="29.581559" lon="103.414093"><ele>542.00946</ele><time>2026-07-28T02:43:20.000Z</time></trkpt>
        <trkpt lat="29.581558" lon="103.414207"><ele>541.3886</ele><time>2026-07-28T02:43:21.000Z</time></trkpt>
        <trkpt lat="29.581549" lon="103.414325"><ele>540.26056</ele><time>2026-07-28T02:43:22.000Z</time></trkpt>
        <trkpt lat="29.581544" lon="103.414441"><ele>539.1728</ele><time>2026-07-28T02:43:23.000Z</time></trkpt>
        <trkpt lat="29.581498" lon="103.414555"><ele>538.27405</ele><time>2026-07-28T02:43:24.000Z</time></trkpt>
        <trkpt lat="29.581497" lon="103.414682"><ele>537.0464</ele><time>2026-07-28T02:43:25.000Z</time></trkpt>
        <trkpt lat="29.581504" lon="103.414822"><ele>536.4118</ele><time>2026-07-28T02:43:26.000Z</time></trkpt>
        <trkpt lat="29.581512" lon="103.41495"><ele>535.4269</ele><time>2026-07-28T02:43:27.000Z</time></trkpt>
        <trkpt lat="29.581525" lon="103.415081"><ele>534.2606</ele><time>2026-07-28T02:43:28.000Z</time></trkpt>
        <trkpt lat="29.581542" lon="103.415205"><ele>532.9045</ele><time>2026-07-28T02:43:29.000Z</time></trkpt>
        <trkpt lat="29.581557" lon="103.415342"><ele>532.32294</ele><time>2026-07-28T02:43:30.000Z</time></trkpt>
        <trkpt lat="29.581551" lon="103.415471"><ele>530.9436</ele><time>2026-07-28T02:43:31.000Z</time></trkpt>
        <trkpt lat="29.581553" lon="103.415601"><ele>530.0278</ele><time>2026-07-28T02:43:32.000Z</time></trkpt>
        <trkpt lat="29.581554" lon="103.41573"><ele>529.14636</ele><time>2026-07-28T02:43:33.000Z</time></trkpt>
        <trkpt lat="29.581552" lon="103.415857"><ele>529.21594</ele><time>2026-07-28T02:43:34.000Z</time></trkpt>
        <trkpt lat="29.581539" lon="103.415975"><ele>528.73206</ele><time>2026-07-28T02:43:36.000Z</time></trkpt>
        <trkpt lat="29.581524" lon="103.416092"><ele>528.30865</ele><time>2026-07-28T02:43:37.000Z</time></trkpt>
        <trkpt lat="29.58149" lon="103.416188"><ele>527.7331</ele><time>2026-07-28T02:43:38.000Z</time></trkpt>
        <trkpt lat="29.581458" lon="103.416287"><ele>527.7237</ele><time>2026-07-28T02:43:39.000Z</time></trkpt>
        <trkpt lat="29.581426" lon="103.416388"><ele>527.24286</ele><time>2026-07-28T02:43:40.000Z</time></trkpt>
        <trkpt lat="29.58138" lon="103.416473"><ele>527.1487</ele><time>2026-07-28T02:43:41.000Z</time></trkpt>
        <trkpt lat="29.581321" lon="103.416547"><ele>526.88434</ele><time>2026-07-28T02:43:42.000Z</time></trkpt>
        <trkpt lat="29.581259" lon="103.416633"><ele>526.37427</ele><time>2026-07-28T02:43:43.000Z</time></trkpt>
        <trkpt lat="29.5812" lon="103.416713"><ele>526.2841</ele><time>2026-07-28T02:43:44.000Z</time></trkpt>
        <trkpt lat="29.581142" lon="103.416791"><ele>526.0248</ele><time>2026-07-28T02:43:45.000Z</time></trkpt>
        <trkpt lat="29.581082" lon="103.416869"><ele>526.0812</ele><time>2026-07-28T02:43:46.000Z</time></trkpt>
        <trkpt lat="29.581026" lon="103.416938"><ele>525.9574</ele><time>2026-07-28T02:43:47.000Z</time></trkpt>
        <trkpt lat="29.581036" lon="103.41709"><ele>526.24225</ele><time>2026-07-28T02:43:48.000Z</time></trkpt>
        <trkpt lat="29.580987" lon="103.417163"><ele>527.10913</ele><time>2026-07-28T02:43:49.000Z</time></trkpt>
        <trkpt lat="29.580955" lon="103.417227"><ele>527.56213</ele><time>2026-07-28T02:43:50.000Z</time></trkpt>
        <trkpt lat="29.580868" lon="103.417282"><ele>527.9179</ele><time>2026-07-28T02:43:51.000Z</time></trkpt>
        <trkpt lat="29.580791" lon="103.417309"><ele>527.8602</ele><time>2026-07-28T02:43:52.000Z</time></trkpt>
        <trkpt lat="29.580701" lon="103.417316"><ele>527.5726</ele><time>2026-07-28T02:43:53.000Z</time></trkpt>
        <trkpt lat="29.580601" lon="103.417296"><ele>526.3762</ele><time>2026-07-28T02:43:54.000Z</time></trkpt>
        <trkpt lat="29.580492" lon="103.417215"><ele>524.7114</ele><time>2026-07-28T02:43:55.000Z</time></trkpt>
        <trkpt lat="29.580406" lon="103.417242"><ele>523.69385</ele><time>2026-07-28T02:43:56.000Z</time></trkpt>
        <trkpt lat="29.580312" lon="103.417271"><ele>524.4222</ele><time>2026-07-28T02:43:57.000Z</time></trkpt>
        <trkpt lat="29.58022" lon="103.417295"><ele>524.9592</ele><time>2026-07-28T02:43:58.000Z</time></trkpt>
        <trkpt lat="29.580127" lon="103.417336"><ele>525.7767</ele><time>2026-07-28T02:43:59.000Z</time></trkpt>
        <trkpt lat="29.580034" lon="103.417351"><ele>525.81885</ele><time>2026-07-28T02:44:00.000Z</time></trkpt>
        <trkpt lat="29.579941" lon="103.417373"><ele>525.9466</ele><time>2026-07-28T02:44:01.000Z</time></trkpt>
        <trkpt lat="29.579848" lon="103.417393"><ele>525.96704</ele><time>2026-07-28T02:44:02.000Z</time></trkpt>
        <trkpt lat="29.57975" lon="103.41741"><ele>525.74426</ele><time>2026-07-28T02:44:03.000Z</time></trkpt>
        <trkpt lat="29.579654" lon="103.417432"><ele>525.40204</ele><time>2026-07-28T02:44:04.000Z</time></trkpt>
        <trkpt lat="29.579562" lon="103.417452"><ele>525.5969</ele><time>2026-07-28T02:44:05.000Z</time></trkpt>
        <trkpt lat="29.579476" lon="103.417476"><ele>525.2995</ele><time>2026-07-28T02:44:06.000Z</time></trkpt>
        <trkpt lat="29.57939" lon="103.417497"><ele>525.16125</ele><time>2026-07-28T02:44:07.000Z</time></trkpt>
        <trkpt lat="29.579317" lon="103.417543"><ele>524.6665</ele><time>2026-07-28T02:44:08.000Z</time></trkpt>
        <trkpt lat="29.57924" lon="103.417578"><ele>524.07886</ele><time>2026-07-28T02:44:09.000Z</time></trkpt>
        <trkpt lat="29.579166" lon="103.417638"><ele>523.56335</ele><time>2026-07-28T02:44:10.000Z</time></trkpt>
        <trkpt lat="29.579107" lon="103.417739"><ele>523.2907</ele><time>2026-07-28T02:44:11.000Z</time></trkpt>
        <trkpt lat="29.579084" lon="103.417844"><ele>523.0748</ele><time>2026-07-28T02:44:12.000Z</time></trkpt>
        <trkpt lat="29.579134" lon="103.417994"><ele>522.95856</ele><time>2026-07-28T02:44:13.000Z</time></trkpt>
        <trkpt lat="29.579197" lon="103.418091"><ele>522.95306</ele><time>2026-07-28T02:44:14.000Z</time></trkpt>
        <trkpt lat="29.579266" lon="103.418177"><ele>523.1047</ele><time>2026-07-28T02:44:15.000Z</time></trkpt>
        <trkpt lat="29.579359" lon="103.41826"><ele>521.8339</ele><time>2026-07-28T02:44:16.000Z</time></trkpt>
        <trkpt lat="29.579448" lon="103.418328"><ele>521.0071</ele><time>2026-07-28T02:44:17.000Z</time></trkpt>
        <trkpt lat="29.579534" lon="103.418389"><ele>520.3823</ele><time>2026-07-28T02:44:18.000Z</time></trkpt>
        <trkpt lat="29.579615" lon="103.418447"><ele>519.9906</ele><time>2026-07-28T02:44:19.000Z</time></trkpt>
        <trkpt lat="29.579696" lon="103.418505"><ele>519.4946</ele><time>2026-07-28T02:44:20.000Z</time></trkpt>
        <trkpt lat="29.579778" lon="103.418562"><ele>519.38715</ele><time>2026-07-28T02:44:21.000Z</time></trkpt>
        <trkpt lat="29.579863" lon="103.418618"><ele>518.9837</ele><time>2026-07-28T02:44:22.000Z</time></trkpt>
        <trkpt lat="29.579948" lon="103.418667"><ele>518.53253</ele><time>2026-07-28T02:44:23.000Z</time></trkpt>
        <trkpt lat="29.580036" lon="103.41871"><ele>518.5394</ele><time>2026-07-28T02:44:24.000Z</time></trkpt>
        <trkpt lat="29.580125" lon="103.418743"><ele>518.7101</ele><time>2026-07-28T02:44:25.000Z</time></trkpt>
        <trkpt lat="29.580208" lon="103.418787"><ele>518.7334</ele><time>2026-07-28T02:44:26.000Z</time></trkpt>
        <trkpt lat="29.580292" lon="103.418827"><ele>518.519</ele><time>2026-07-28T02:44:27.000Z</time></trkpt>
        <trkpt lat="29.580376" lon="103.418864"><ele>518.3267</ele><time>2026-07-28T02:44:28.000Z</time></trkpt>
        <trkpt lat="29.580461" lon="103.418904"><ele>518.03723</ele><time>2026-07-28T02:44:29.000Z</time></trkpt>
        <trkpt lat="29.58055" lon="103.418938"><ele>517.6665</ele><time>2026-07-28T02:44:30.000Z</time></trkpt>
        <trkpt lat="29.580638" lon="103.418969"><ele>517.51056</ele><time>2026-07-28T02:44:31.000Z</time></trkpt>
        <trkpt lat="29.580725" lon="103.418998"><ele>517.2717</ele><time>2026-07-28T02:44:32.000Z</time></trkpt>
        <trkpt lat="29.580814" lon="103.41902"><ele>516.7628</ele><time>2026-07-28T02:44:33.000Z</time></trkpt>
        <trkpt lat="29.580903" lon="103.419044"><ele>516.10144</ele><time>2026-07-28T02:44:34.000Z</time></trkpt>
        <trkpt lat="29.580995" lon="103.419067"><ele>515.6903</ele><time>2026-07-28T02:44:35.000Z</time></trkpt>
        <trkpt lat="29.581085" lon="103.419092"><ele>515.30206</ele><time>2026-07-28T02:44:36.000Z</time></trkpt>
        <trkpt lat="29.581175" lon="103.419118"><ele>514.85455</ele><time>2026-07-28T02:44:36.000Z</time></trkpt>
        <trkpt lat="29.581268" lon="103.419147"><ele>514.50397</ele><time>2026-07-28T02:44:37.000Z</time></trkpt>
        <trkpt lat="29.581361" lon="103.419181"><ele>513.6621</ele><time>2026-07-28T02:44:38.000Z</time></trkpt>
        <trkpt lat="29.581456" lon="103.419211"><ele>513.0644</ele><time>2026-07-28T02:44:39.000Z</time></trkpt>
        <trkpt lat="29.581552" lon="103.419241"><ele>512.7953</ele><time>2026-07-28T02:44:40.000Z</time></trkpt>
        <trkpt lat="29.58165" lon="103.41927"><ele>512.215</ele><time>2026-07-28T02:44:41.000Z</time></trkpt>
        <trkpt lat="29.581746" lon="103.419307"><ele>511.41504</ele><time>2026-07-28T02:44:42.000Z</time></trkpt>
        <trkpt lat="29.581838" lon="103.419342"><ele>511.37408</ele><time>2026-07-28T02:44:43.000Z</time></trkpt>
        <trkpt lat="29.581934" lon="103.419383"><ele>510.6935</ele><time>2026-07-28T02:44:44.000Z</time></trkpt>
        <trkpt lat="29.582018" lon="103.419442"><ele>510.48856</ele><time>2026-07-28T02:44:45.000Z</time></trkpt>
        <trkpt lat="29.582096" lon="103.419493"><ele>511.1957</ele><time>2026-07-28T02:44:46.000Z</time></trkpt>
        <trkpt lat="29.582172" lon="103.419557"><ele>511.8472</ele><time>2026-07-28T02:44:47.000Z</time></trkpt>
        <trkpt lat="29.582238" lon="103.419625"><ele>512.04956</ele><time>2026-07-28T02:44:48.000Z</time></trkpt>
        <trkpt lat="29.582305" lon="103.419693"><ele>512.6567</ele><time>2026-07-28T02:44:49.000Z</time></trkpt>
        <trkpt lat="29.582361" lon="103.419769"><ele>512.9013</ele><time>2026-07-28T02:44:50.000Z</time></trkpt>
        <trkpt lat="29.582407" lon="103.419847"><ele>513.58093</ele><time>2026-07-28T02:44:51.000Z</time></trkpt>
        <trkpt lat="29.582437" lon="103.419933"><ele>514.84576</ele><time>2026-07-28T02:44:52.000Z</time></trkpt>
        <trkpt lat="29.58245" lon="103.420026"><ele>515.5137</ele><time>2026-07-28T02:44:53.000Z</time></trkpt>
        <trkpt lat="29.582455" lon="103.420125"><ele>514.78815</ele><time>2026-07-28T02:44:54.000Z</time></trkpt>
        <trkpt lat="29.582456" lon="103.420228"><ele>514.6717</ele><time>2026-07-28T02:44:55.000Z</time></trkpt>
        <trkpt lat="29.582442" lon="103.420324"><ele>514.23035</ele><time>2026-07-28T02:44:56.000Z</time></trkpt>
        <trkpt lat="29.582424" lon="103.420427"><ele>514.2601</ele><time>2026-07-28T02:44:57.000Z</time></trkpt>
        <trkpt lat="29.582398" lon="103.420533"><ele>514.17224</ele><time>2026-07-28T02:44:58.000Z</time></trkpt>
        <trkpt lat="29.582367" lon="103.420638"><ele>513.99615</ele><time>2026-07-28T02:44:59.000Z</time></trkpt>
        <trkpt lat="29.582334" lon="103.420747"><ele>513.18134</ele><time>2026-07-28T02:45:00.000Z</time></trkpt>
        <trkpt lat="29.582299" lon="103.420846"><ele>512.86664</ele><time>2026-07-28T02:45:01.000Z</time></trkpt>
        <trkpt lat="29.582263" lon="103.420938"><ele>512.971</ele><time>2026-07-28T02:45:02.000Z</time></trkpt>
        <trkpt lat="29.582229" lon="103.421024"><ele>512.6437</ele><time>2026-07-28T02:45:03.000Z</time></trkpt>
        <trkpt lat="29.5822" lon="103.421124"><ele>512.16736</ele><time>2026-07-28T02:45:04.000Z</time></trkpt>
        <trkpt lat="29.582197" lon="103.421222"><ele>511.91864</ele><time>2026-07-28T02:45:05.000Z</time></trkpt>
        <trkpt lat="29.582239" lon="103.421333"><ele>512.0021</ele><time>2026-07-28T02:45:06.000Z</time></trkpt>
        <trkpt lat="29.582262" lon="103.421414"><ele>512.0108</ele><time>2026-07-28T02:45:07.000Z</time></trkpt>
        <trkpt lat="29.582287" lon="103.421506"><ele>513.6752</ele><time>2026-07-28T02:45:08.000Z</time></trkpt>
        <trkpt lat="29.582315" lon="103.421608"><ele>515.61145</ele><time>2026-07-28T02:45:09.000Z</time></trkpt>
        <trkpt lat="29.582341" lon="103.421705"><ele>516.94403</ele><time>2026-07-28T02:45:10.000Z</time></trkpt>
        <trkpt lat="29.582366" lon="103.42181"><ele>517.517</ele><time>2026-07-28T02:45:11.000Z</time></trkpt>
        <trkpt lat="29.582392" lon="103.421914"><ele>519.1345</ele><time>2026-07-28T02:45:12.000Z</time></trkpt>
        <trkpt lat="29.582431" lon="103.422013"><ele>519.9979</ele><time>2026-07-28T02:45:13.000Z</time></trkpt>
        <trkpt lat="29.582455" lon="103.422112"><ele>519.8124</ele><time>2026-07-28T02:45:14.000Z</time></trkpt>
        <trkpt lat="29.582478" lon="103.422209"><ele>520.4618</ele><time>2026-07-28T02:45:15.000Z</time></trkpt>
        <trkpt lat="29.582501" lon="103.422306"><ele>520.28534</ele><time>2026-07-28T02:45:16.000Z</time></trkpt>
        <trkpt lat="29.582526" lon="103.422406"><ele>520.6836</ele><time>2026-07-28T02:45:17.000Z</time></trkpt>
        <trkpt lat="29.582556" lon="103.422503"><ele>520.7524</ele><time>2026-07-28T02:45:18.000Z</time></trkpt>
        <trkpt lat="29.582593" lon="103.422599"><ele>520.94666</ele><time>2026-07-28T02:45:19.000Z</time></trkpt>
        <trkpt lat="29.582642" lon="103.422689"><ele>521.1676</ele><time>2026-07-28T02:45:20.000Z</time></trkpt>
        <trkpt lat="29.582703" lon="103.422773"><ele>520.70935</ele><time>2026-07-28T02:45:21.000Z</time></trkpt>
        <trkpt lat="29.582767" lon="103.422858"><ele>520.3258</ele><time>2026-07-28T02:45:22.000Z</time></trkpt>
        <trkpt lat="29.582837" lon="103.422936"><ele>519.74335</ele><time>2026-07-28T02:45:23.000Z</time></trkpt>
        <trkpt lat="29.582907" lon="103.423014"><ele>519.34814</ele><time>2026-07-28T02:45:24.000Z</time></trkpt>
        <trkpt lat="29.582967" lon="103.423099"><ele>519.1653</ele><time>2026-07-28T02:45:25.000Z</time></trkpt>
        <trkpt lat="29.58302" lon="103.42319"><ele>519.45593</ele><time>2026-07-28T02:45:26.000Z</time></trkpt>
        <trkpt lat="29.583066" lon="103.423288"><ele>519.71313</ele><time>2026-07-28T02:45:27.000Z</time></trkpt>
        <trkpt lat="29.583088" lon="103.4234"><ele>520.16534</ele><time>2026-07-28T02:45:28.000Z</time></trkpt>
        <trkpt lat="29.583177" lon="103.423578"><ele>519.54364</ele><time>2026-07-28T02:45:30.000Z</time></trkpt>
        <trkpt lat="29.58321" lon="103.423681"><ele>520.20856</ele><time>2026-07-28T02:45:31.000Z</time></trkpt>
        <trkpt lat="29.583248" lon="103.423777"><ele>519.8359</ele><time>2026-07-28T02:45:32.000Z</time></trkpt>
        <trkpt lat="29.583284" lon="103.423873"><ele>519.9093</ele><time>2026-07-28T02:45:33.000Z</time></trkpt>
        <trkpt lat="29.583318" lon="103.423967"><ele>519.679</ele><time>2026-07-28T02:45:34.000Z</time></trkpt>
        <trkpt lat="29.583353" lon="103.424057"><ele>519.5646</ele><time>2026-07-28T02:45:35.000Z</time></trkpt>
        <trkpt lat="29.583386" lon="103.424151"><ele>519.0315</ele><time>2026-07-28T02:45:36.000Z</time></trkpt>
        <trkpt lat="29.583418" lon="103.424247"><ele>519.1799</ele><time>2026-07-28T02:45:37.000Z</time></trkpt>
        <trkpt lat="29.583453" lon="103.424338"><ele>519.0678</ele><time>2026-07-28T02:45:38.000Z</time></trkpt>
        <trkpt lat="29.583484" lon="103.42443"><ele>519.5473</ele><time>2026-07-28T02:45:39.000Z</time></trkpt>
        <trkpt lat="29.583518" lon="103.424523"><ele>519.17834</ele><time>2026-07-28T02:45:40.000Z</time></trkpt>
        <trkpt lat="29.58355" lon="103.424619"><ele>518.67584</ele><time>2026-07-28T02:45:42.000Z</time></trkpt>
        <trkpt lat="29.583595" lon="103.424704"><ele>518.578</ele><time>2026-07-28T02:45:43.000Z</time></trkpt>
        <trkpt lat="29.583634" lon="103.424806"><ele>519.1846</ele><time>2026-07-28T02:45:44.000Z</time></trkpt>
        <trkpt lat="29.583669" lon="103.424909"><ele>519.91425</ele><time>2026-07-28T02:45:45.000Z</time></trkpt>
        <trkpt lat="29.583697" lon="103.425012"><ele>520.44507</ele><time>2026-07-28T02:45:46.000Z</time></trkpt>
        <trkpt lat="29.583726" lon="103.425112"><ele>520.1802</ele><time>2026-07-28T02:45:47.000Z</time></trkpt>
        <trkpt lat="29.583769" lon="103.425207"><ele>520.6659</ele><time>2026-07-28T02:45:48.000Z</time></trkpt>
        <trkpt lat="29.583812" lon="103.425318"><ele>521.2884</ele><time>2026-07-28T02:45:49.000Z</time></trkpt>
        <trkpt lat="29.583856" lon="103.425415"><ele>520.8922</ele><time>2026-07-28T02:45:50.000Z</time></trkpt>
        <trkpt lat="29.583895" lon="103.425504"><ele>520.42145</ele><time>2026-07-28T02:45:51.000Z</time></trkpt>
        <trkpt lat="29.583947" lon="103.425591"><ele>520.14233</ele><time>2026-07-28T02:45:52.000Z</time></trkpt>
        <trkpt lat="29.584001" lon="103.425674"><ele>519.59247</ele><time>2026-07-28T02:45:53.000Z</time></trkpt>
        <trkpt lat="29.584055" lon="103.425757"><ele>519.6804</ele><time>2026-07-28T02:45:53.000Z</time></trkpt>
        <trkpt lat="29.584119" lon="103.425833"><ele>519.1113</ele><time>2026-07-28T02:45:55.000Z</time></trkpt>
        <trkpt lat="29.584176" lon="103.425911"><ele>519.0681</ele><time>2026-07-28T02:45:56.000Z</time></trkpt>
        <trkpt lat="29.584233" lon="103.425985"><ele>518.163</ele><time>2026-07-28T02:45:57.000Z</time></trkpt>
        <trkpt lat="29.584283" lon="103.426064"><ele>516.5977</ele><time>2026-07-28T02:45:58.000Z</time></trkpt>
        <trkpt lat="29.584325" lon="103.426153"><ele>515.44916</ele><time>2026-07-28T02:45:59.000Z</time></trkpt>
        <trkpt lat="29.584357" lon="103.426248"><ele>514.2797</ele><time>2026-07-28T02:46:00.000Z</time></trkpt>
        <trkpt lat="29.584382" lon="103.426346"><ele>513.2351</ele><time>2026-07-28T02:46:01.000Z</time></trkpt>
        <trkpt lat="29.584404" lon="103.426448"><ele>512.0555</ele><time>2026-07-28T02:46:02.000Z</time></trkpt>
        <trkpt lat="29.58442" lon="103.42655"><ele>511.10663</ele><time>2026-07-28T02:46:03.000Z</time></trkpt>
        <trkpt lat="29.584433" lon="103.426642"><ele>510.4838</ele><time>2026-07-28T02:46:04.000Z</time></trkpt>
        <trkpt lat="29.584453" lon="103.42673"><ele>509.59793</ele><time>2026-07-28T02:46:05.000Z</time></trkpt>
        <trkpt lat="29.584437" lon="103.426831"><ele>508.60892</ele><time>2026-07-28T02:46:06.000Z</time></trkpt>
        <trkpt lat="29.584461" lon="103.426919"><ele>507.88132</ele><time>2026-07-28T02:46:07.000Z</time></trkpt>
        <trkpt lat="29.584486" lon="103.427009"><ele>507.0866</ele><time>2026-07-28T02:46:08.000Z</time></trkpt>
        <trkpt lat="29.584515" lon="103.427109"><ele>506.19263</ele><time>2026-07-28T02:46:09.000Z</time></trkpt>
        <trkpt lat="29.584544" lon="103.427209"><ele>506.23663</ele><time>2026-07-28T02:46:10.000Z</time></trkpt>
        <trkpt lat="29.584571" lon="103.427304"><ele>505.5684</ele><time>2026-07-28T02:46:11.000Z</time></trkpt>
        <trkpt lat="29.584668" lon="103.427484"><ele>504.35352</ele><time>2026-07-28T02:46:13.000Z</time></trkpt>
        <trkpt lat="29.584702" lon="103.427575"><ele>503.47034</ele><time>2026-07-28T02:46:14.000Z</time></trkpt>
        <trkpt lat="29.584734" lon="103.427679"><ele>503.0186</ele><time>2026-07-28T02:46:15.000Z</time></trkpt>
        <trkpt lat="29.584763" lon="103.427797"><ele>502.89764</ele><time>2026-07-28T02:46:16.000Z</time></trkpt>
        <trkpt lat="29.584789" lon="103.427912"><ele>502.4678</ele><time>2026-07-28T02:46:17.000Z</time></trkpt>
        <trkpt lat="29.58481" lon="103.428024"><ele>502.82974</ele><time>2026-07-28T02:46:18.000Z</time></trkpt>
        <trkpt lat="29.584802" lon="103.428112"><ele>502.045</ele><time>2026-07-28T02:46:19.000Z</time></trkpt>
        <trkpt lat="29.584649" lon="103.428344"><ele>500.70108</ele><time>2026-07-28T02:46:21.000Z</time></trkpt>
        <trkpt lat="29.584591" lon="103.42844"><ele>500.22263</ele><time>2026-07-28T02:46:22.000Z</time></trkpt>
        <trkpt lat="29.584532" lon="103.428543"><ele>500.155</ele><time>2026-07-28T02:46:23.000Z</time></trkpt>
        <trkpt lat="29.584471" lon="103.428644"><ele>499.74524</ele><time>2026-07-28T02:46:24.000Z</time></trkpt>
        <trkpt lat="29.584413" lon="103.428742"><ele>499.22284</ele><time>2026-07-28T02:46:25.000Z</time></trkpt>
        <trkpt lat="29.584355" lon="103.428843"><ele>499.33466</ele><time>2026-07-28T02:46:26.000Z</time></trkpt>
        <trkpt lat="29.584233" lon="103.428901"><ele>498.95728</ele><time>2026-07-28T02:46:27.000Z</time></trkpt>
        <trkpt lat="29.584236" lon="103.429046"><ele>498.85983</ele><time>2026-07-28T02:46:28.000Z</time></trkpt>
        <trkpt lat="29.584182" lon="103.429148"><ele>498.28845</ele><time>2026-07-28T02:46:29.000Z</time></trkpt>
        <trkpt lat="29.584133" lon="103.429255"><ele>497.05072</ele><time>2026-07-28T02:46:30.000Z</time></trkpt>
        <trkpt lat="29.584084" lon="103.429368"><ele>496.495</ele><time>2026-07-28T02:46:31.000Z</time></trkpt>
        <trkpt lat="29.584037" lon="103.42948"><ele>495.7426</ele><time>2026-07-28T02:46:32.000Z</time></trkpt>
        <trkpt lat="29.583992" lon="103.429598"><ele>494.93768</ele><time>2026-07-28T02:46:33.000Z</time></trkpt>
        <trkpt lat="29.583953" lon="103.42972"><ele>494.20438</ele><time>2026-07-28T02:46:34.000Z</time></trkpt>
        <trkpt lat="29.583915" lon="103.429849"><ele>493.3988</ele><time>2026-07-28T02:46:34.000Z</time></trkpt>
        <trkpt lat="29.583873" lon="103.429974"><ele>492.99094</ele><time>2026-07-28T02:46:35.000Z</time></trkpt>
        <trkpt lat="29.583831" lon="103.430101"><ele>492.68896</ele><time>2026-07-28T02:46:36.000Z</time></trkpt>
        <trkpt lat="29.58379" lon="103.430228"><ele>492.18387</ele><time>2026-07-28T02:46:37.000Z</time></trkpt>
        <trkpt lat="29.583746" lon="103.430354"><ele>492.15866</ele><time>2026-07-28T02:46:38.000Z</time></trkpt>
        <trkpt lat="29.583704" lon="103.43048"><ele>491.9162</ele><time>2026-07-28T02:46:39.000Z</time></trkpt>
        <trkpt lat="29.583666" lon="103.430605"><ele>491.69473</ele><time>2026-07-28T02:46:40.000Z</time></trkpt>
        <trkpt lat="29.583628" lon="103.430724"><ele>491.3827</ele><time>2026-07-28T02:46:41.000Z</time></trkpt>
        <trkpt lat="29.583594" lon="103.430825"><ele>491.09686</ele><time>2026-07-28T02:46:42.000Z</time></trkpt>
        <trkpt lat="29.583566" lon="103.430917"><ele>491.10962</ele><time>2026-07-28T02:46:43.000Z</time></trkpt>
        <trkpt lat="29.583542" lon="103.430992"><ele>490.8176</ele><time>2026-07-28T02:46:44.000Z</time></trkpt>
        <trkpt lat="29.583521" lon="103.431058"><ele>490.80545</ele><time>2026-07-28T02:46:45.000Z</time></trkpt>
        <trkpt lat="29.583504" lon="103.431114"><ele>490.40384</ele><time>2026-07-28T02:46:46.000Z</time></trkpt>
        <trkpt lat="29.583489" lon="103.431168"><ele>490.859</ele><time>2026-07-28T02:46:47.000Z</time></trkpt>
        <trkpt lat="29.58346" lon="103.431255"><ele>490.90817</ele><time>2026-07-28T02:46:49.000Z</time></trkpt>
        <trkpt lat="29.583427" lon="103.431335"><ele>490.79535</ele><time>2026-07-28T02:46:51.000Z</time></trkpt>
        <trkpt lat="29.58341" lon="103.431386"><ele>490.62088</ele><time>2026-07-28T02:46:52.000Z</time></trkpt>
        <trkpt lat="29.583386" lon="103.431448"><ele>490.79846</ele><time>2026-07-28T02:46:53.000Z</time></trkpt>
        <trkpt lat="29.583362" lon="103.43152"><ele>490.47208</ele><time>2026-07-28T02:46:54.000Z</time></trkpt>
        <trkpt lat="29.583336" lon="103.431599"><ele>490.53693</ele><time>2026-07-28T02:46:55.000Z</time></trkpt>
        <trkpt lat="29.583312" lon="103.431682"><ele>491.07083</ele><time>2026-07-28T02:46:56.000Z</time></trkpt>
        <trkpt lat="29.583281" lon="103.43177"><ele>490.79416</ele><time>2026-07-28T02:46:57.000Z</time></trkpt>
        <trkpt lat="29.583251" lon="103.431864"><ele>490.63153</ele><time>2026-07-28T02:46:58.000Z</time></trkpt>
        <trkpt lat="29.583219" lon="103.431963"><ele>490.97086</ele><time>2026-07-28T02:46:59.000Z</time></trkpt>
        <trkpt lat="29.583189" lon="103.432065"><ele>491.13882</ele><time>2026-07-28T02:47:00.000Z</time></trkpt>
        <trkpt lat="29.583157" lon="103.432172"><ele>491.50897</ele><time>2026-07-28T02:47:01.000Z</time></trkpt>
        <trkpt lat="29.58309" lon="103.432271"><ele>492.13632</ele><time>2026-07-28T02:47:02.000Z</time></trkpt>
        <trkpt lat="29.583065" lon="103.432388"><ele>492.7287</ele><time>2026-07-28T02:47:03.000Z</time></trkpt>
        <trkpt lat="29.583043" lon="103.432507"><ele>493.38284</ele><time>2026-07-28T02:47:04.000Z</time></trkpt>
        <trkpt lat="29.583075" lon="103.432635"><ele>494.10703</ele><time>2026-07-28T02:47:05.000Z</time></trkpt>
        <trkpt lat="29.583058" lon="103.432755"><ele>494.74588</ele><time>2026-07-28T02:47:06.000Z</time></trkpt>
        <trkpt lat="29.583044" lon="103.432879"><ele>495.93396</ele><time>2026-07-28T02:47:07.000Z</time></trkpt>
        <trkpt lat="29.583029" lon="103.433001"><ele>496.6408</ele><time>2026-07-28T02:47:08.000Z</time></trkpt>
        <trkpt lat="29.583008" lon="103.433124"><ele>496.69022</ele><time>2026-07-28T02:47:09.000Z</time></trkpt>
        <trkpt lat="29.58299" lon="103.433249"><ele>496.9462</ele><time>2026-07-28T02:47:10.000Z</time></trkpt>
        <trkpt lat="29.582974" lon="103.433374"><ele>496.9221</ele><time>2026-07-28T02:47:11.000Z</time></trkpt>
        <trkpt lat="29.582955" lon="103.433496"><ele>496.5333</ele><time>2026-07-28T02:47:12.000Z</time></trkpt>
        <trkpt lat="29.582932" lon="103.433618"><ele>495.93512</ele><time>2026-07-28T02:47:13.000Z</time></trkpt>
        <trkpt lat="29.582855" lon="103.433726"><ele>495.48907</ele><time>2026-07-28T02:47:14.000Z</time></trkpt>
        <trkpt lat="29.582823" lon="103.433844"><ele>495.0916</ele><time>2026-07-28T02:47:15.000Z</time></trkpt>
        <trkpt lat="29.582787" lon="103.433964"><ele>494.8</ele><time>2026-07-28T02:47:16.000Z</time></trkpt>
        <trkpt lat="29.58275" lon="103.434078"><ele>494.25836</ele><time>2026-07-28T02:47:17.000Z</time></trkpt>
        <trkpt lat="29.582711" lon="103.434198"><ele>494.24213</ele><time>2026-07-28T02:47:18.000Z</time></trkpt>
        <trkpt lat="29.582672" lon="103.43432"><ele>494.18417</ele><time>2026-07-28T02:47:19.000Z</time></trkpt>
        <trkpt lat="29.582677" lon="103.434461"><ele>493.59457</ele><time>2026-07-28T02:47:20.000Z</time></trkpt>
        <trkpt lat="29.58264" lon="103.434583"><ele>493.34787</ele><time>2026-07-28T02:47:21.000Z</time></trkpt>
        <trkpt lat="29.582599" lon="103.434703"><ele>493.14154</ele><time>2026-07-28T02:47:22.000Z</time></trkpt>
        <trkpt lat="29.58256" lon="103.434821"><ele>492.8257</ele><time>2026-07-28T02:47:23.000Z</time></trkpt>
        <trkpt lat="29.582522" lon="103.434936"><ele>492.31393</ele><time>2026-07-28T02:47:24.000Z</time></trkpt>
        <trkpt lat="29.582485" lon="103.435051"><ele>492.09155</ele><time>2026-07-28T02:47:25.000Z</time></trkpt>
        <trkpt lat="29.582449" lon="103.435165"><ele>492.0372</ele><time>2026-07-28T02:47:26.000Z</time></trkpt>
        <trkpt lat="29.582414" lon="103.435277"><ele>491.8105</ele><time>2026-07-28T02:47:27.000Z</time></trkpt>
        <trkpt lat="29.582378" lon="103.435386"><ele>491.53235</ele><time>2026-07-28T02:47:28.000Z</time></trkpt>
        <trkpt lat="29.582342" lon="103.435492"><ele>491.45987</ele><time>2026-07-28T02:47:29.000Z</time></trkpt>
        <trkpt lat="29.582308" lon="103.435596"><ele>491.60245</ele><time>2026-07-28T02:47:30.000Z</time></trkpt>
        <trkpt lat="29.582276" lon="103.435699"><ele>491.71387</ele><time>2026-07-28T02:47:31.000Z</time></trkpt>
        <trkpt lat="29.582242" lon="103.435804"><ele>491.66446</ele><time>2026-07-28T02:47:32.000Z</time></trkpt>
        <trkpt lat="29.582207" lon="103.435909"><ele>491.53726</ele><time>2026-07-28T02:47:33.000Z</time></trkpt>
        <trkpt lat="29.582172" lon="103.436013"><ele>491.41763</ele><time>2026-07-28T02:47:34.000Z</time></trkpt>
        <trkpt lat="29.582138" lon="103.436118"><ele>491.25482</ele><time>2026-07-28T02:47:35.000Z</time></trkpt>
        <trkpt lat="29.582104" lon="103.43622"><ele>491.35013</ele><time>2026-07-28T02:47:36.000Z</time></trkpt>
        <trkpt lat="29.582071" lon="103.436321"><ele>491.30188</ele><time>2026-07-28T02:47:37.000Z</time></trkpt>
        <trkpt lat="29.582043" lon="103.43642"><ele>491.2438</ele><time>2026-07-28T02:47:38.000Z</time></trkpt>
        <trkpt lat="29.582015" lon="103.436516"><ele>491.19034</ele><time>2026-07-28T02:47:39.000Z</time></trkpt>
        <trkpt lat="29.581982" lon="103.436607"><ele>491.32812</ele><time>2026-07-28T02:47:40.000Z</time></trkpt>
        <trkpt lat="29.581952" lon="103.436698"><ele>491.36313</ele><time>2026-07-28T02:47:41.000Z</time></trkpt>
        <trkpt lat="29.581926" lon="103.436788"><ele>491.75485</ele><time>2026-07-28T02:47:42.000Z</time></trkpt>
        <trkpt lat="29.581902" lon="103.436874"><ele>491.9862</ele><time>2026-07-28T02:47:43.000Z</time></trkpt>
        <trkpt lat="29.581879" lon="103.436963"><ele>492.1268</ele><time>2026-07-28T02:47:44.000Z</time></trkpt>
        <trkpt lat="29.581855" lon="103.437053"><ele>492.0767</ele><time>2026-07-28T02:47:45.000Z</time></trkpt>
        <trkpt lat="29.581821" lon="103.437146"><ele>492.04123</ele><time>2026-07-28T02:47:46.000Z</time></trkpt>
        <trkpt lat="29.581789" lon="103.437235"><ele>491.81918</ele><time>2026-07-28T02:47:47.000Z</time></trkpt>
        <trkpt lat="29.58176" lon="103.437318"><ele>491.44257</ele><time>2026-07-28T02:47:48.000Z</time></trkpt>
        <trkpt lat="29.581735" lon="103.437396"><ele>491.29126</ele><time>2026-07-28T02:47:49.000Z</time></trkpt>
        <trkpt lat="29.581711" lon="103.437472"><ele>491.24997</ele><time>2026-07-28T02:47:50.000Z</time></trkpt>
        <trkpt lat="29.581687" lon="103.437552"><ele>491.32693</ele><time>2026-07-28T02:47:51.000Z</time></trkpt>
        <trkpt lat="29.581659" lon="103.437638"><ele>491.6104</ele><time>2026-07-28T02:47:52.000Z</time></trkpt>
        <trkpt lat="29.581635" lon="103.437713"><ele>491.7304</ele><time>2026-07-28T02:47:53.000Z</time></trkpt>
        <trkpt lat="29.581546" lon="103.437972"><ele>491.65555</ele><time>2026-07-28T02:47:58.000Z</time></trkpt>
        <trkpt lat="29.581524" lon="103.438038"><ele>491.32303</ele><time>2026-07-28T02:47:59.000Z</time></trkpt>
        <trkpt lat="29.581505" lon="103.438097"><ele>491.10535</ele><time>2026-07-28T02:48:00.000Z</time></trkpt>
        <trkpt lat="29.581483" lon="103.438145"><ele>490.62445</ele><time>2026-07-28T02:48:01.000Z</time></trkpt>
        <trkpt lat="29.581462" lon="103.4382"><ele>490.03363</ele><time>2026-07-28T02:48:02.000Z</time></trkpt>
        <trkpt lat="29.581416" lon="103.438329"><ele>489.81674</ele><time>2026-07-28T02:48:05.000Z</time></trkpt>
        <trkpt lat="29.581403" lon="103.43839"><ele>490.09348</ele><time>2026-07-28T02:48:06.000Z</time></trkpt>
        <trkpt lat="29.581381" lon="103.438461"><ele>490.36182</ele><time>2026-07-28T02:48:07.000Z</time></trkpt>
        <trkpt lat="29.581354" lon="103.438539"><ele>490.5056</ele><time>2026-07-28T02:48:08.000Z</time></trkpt>
        <trkpt lat="29.581327" lon="103.438622"><ele>490.6205</ele><time>2026-07-28T02:48:09.000Z</time></trkpt>
        <trkpt lat="29.581297" lon="103.438716"><ele>491.16022</ele><time>2026-07-28T02:48:10.000Z</time></trkpt>
        <trkpt lat="29.581267" lon="103.438812"><ele>490.82608</ele><time>2026-07-28T02:48:11.000Z</time></trkpt>
        <trkpt lat="29.581235" lon="103.438909"><ele>490.52914</ele><time>2026-07-28T02:48:12.000Z</time></trkpt>
        <trkpt lat="29.581198" lon="103.439007"><ele>490.30493</ele><time>2026-07-28T02:48:13.000Z</time></trkpt>
        <trkpt lat="29.581148" lon="103.439103"><ele>490.094</ele><time>2026-07-28T02:48:14.000Z</time></trkpt>
        <trkpt lat="29.581133" lon="103.439214"><ele>490.25134</ele><time>2026-07-28T02:48:15.000Z</time></trkpt>
        <trkpt lat="29.5811" lon="103.439321"><ele>490.2534</ele><time>2026-07-28T02:48:16.000Z</time></trkpt>
        <trkpt lat="29.58105" lon="103.439421"><ele>490.20236</ele><time>2026-07-28T02:48:17.000Z</time></trkpt>
        <trkpt lat="29.581014" lon="103.439528"><ele>490.07748</ele><time>2026-07-28T02:48:18.000Z</time></trkpt>
        <trkpt lat="29.580978" lon="103.439638"><ele>490.09842</ele><time>2026-07-28T02:48:19.000Z</time></trkpt>
        <trkpt lat="29.58094" lon="103.439751"><ele>490.09006</ele><time>2026-07-28T02:48:20.000Z</time></trkpt>
        <trkpt lat="29.580902" lon="103.439865"><ele>490.05923</ele><time>2026-07-28T02:48:21.000Z</time></trkpt>
        <trkpt lat="29.580864" lon="103.439981"><ele>489.88217</ele><time>2026-07-28T02:48:22.000Z</time></trkpt>
        <trkpt lat="29.580825" lon="103.440098"><ele>489.68997</ele><time>2026-07-28T02:48:23.000Z</time></trkpt>
        <trkpt lat="29.580786" lon="103.440215"><ele>489.55743</ele><time>2026-07-28T02:48:24.000Z</time></trkpt>
        <trkpt lat="29.580746" lon="103.440334"><ele>489.36655</ele><time>2026-07-28T02:48:25.000Z</time></trkpt>
        <trkpt lat="29.580707" lon="103.440452"><ele>489.02756</ele><time>2026-07-28T02:48:26.000Z</time></trkpt>
        <trkpt lat="29.5807" lon="103.440581"><ele>488.9968</ele><time>2026-07-28T02:48:27.000Z</time></trkpt>
        <trkpt lat="29.580663" lon="103.440696"><ele>488.60742</ele><time>2026-07-28T02:48:28.000Z</time></trkpt>
        <trkpt lat="29.580624" lon="103.440806"><ele>488.50507</ele><time>2026-07-28T02:48:29.000Z</time></trkpt>
        <trkpt lat="29.580586" lon="103.440914"><ele>488.36993</ele><time>2026-07-28T02:48:30.000Z</time></trkpt>
        <trkpt lat="29.58055" lon="103.441024"><ele>488.54025</ele><time>2026-07-28T02:48:31.000Z</time></trkpt>
        <trkpt lat="29.580515" lon="103.441134"><ele>488.4181</ele><time>2026-07-28T02:48:32.000Z</time></trkpt>
        <trkpt lat="29.580482" lon="103.441244"><ele>488.32742</ele><time>2026-07-28T02:48:33.000Z</time></trkpt>
        <trkpt lat="29.580448" lon="103.441354"><ele>488.23114</ele><time>2026-07-28T02:48:34.000Z</time></trkpt>
        <trkpt lat="29.580381" lon="103.441448"><ele>488.315</ele><time>2026-07-28T02:48:35.000Z</time></trkpt>
        <trkpt lat="29.580347" lon="103.441551"><ele>488.1428</ele><time>2026-07-28T02:48:36.000Z</time></trkpt>
        <trkpt lat="29.580313" lon="103.441653"><ele>488.0117</ele><time>2026-07-28T02:48:37.000Z</time></trkpt>
        <trkpt lat="29.580286" lon="103.441756"><ele>487.81653</ele><time>2026-07-28T02:48:38.000Z</time></trkpt>
        <trkpt lat="29.580261" lon="103.441854"><ele>487.54596</ele><time>2026-07-28T02:48:39.000Z</time></trkpt>
        <trkpt lat="29.580251" lon="103.441946"><ele>487.5104</ele><time>2026-07-28T02:48:40.000Z</time></trkpt>
        <trkpt lat="29.580222" lon="103.442026"><ele>487.47293</ele><time>2026-07-28T02:48:41.000Z</time></trkpt>
        <trkpt lat="29.580187" lon="103.442098"><ele>487.68878</ele><time>2026-07-28T02:48:42.000Z</time></trkpt>
        <trkpt lat="29.580143" lon="103.442154"><ele>487.68655</ele><time>2026-07-28T02:48:43.000Z</time></trkpt>
        <trkpt lat="29.580089" lon="103.442199"><ele>487.53693</ele><time>2026-07-28T02:48:44.000Z</time></trkpt>
        <trkpt lat="29.580034" lon="103.442238"><ele>487.51575</ele><time>2026-07-28T02:48:45.000Z</time></trkpt>
        <trkpt lat="29.579978" lon="103.442268"><ele>488.2301</ele><time>2026-07-28T02:48:46.000Z</time></trkpt>
        <trkpt lat="29.579917" lon="103.442275"><ele>488.3229</ele><time>2026-07-28T02:48:47.000Z</time></trkpt>
        <trkpt lat="29.579827" lon="103.442203"><ele>490.19382</ele><time>2026-07-28T02:48:49.000Z</time></trkpt>
        <trkpt lat="29.579802" lon="103.442149"><ele>491.28314</ele><time>2026-07-28T02:48:50.000Z</time></trkpt>
        <trkpt lat="29.579781" lon="103.442069"><ele>491.6439</ele><time>2026-07-28T02:48:51.000Z</time></trkpt>
        <trkpt lat="29.579752" lon="103.441983"><ele>492.02414</ele><time>2026-07-28T02:48:52.000Z</time></trkpt>
        <trkpt lat="29.57972" lon="103.441886"><ele>492.2027</ele><time>2026-07-28T02:48:53.000Z</time></trkpt>
        <trkpt lat="29.579688" lon="103.441793"><ele>492.42035</ele><time>2026-07-28T02:48:54.000Z</time></trkpt>
        <trkpt lat="29.579654" lon="103.441702"><ele>492.5664</ele><time>2026-07-28T02:48:55.000Z</time></trkpt>
        <trkpt lat="29.579619" lon="103.441608"><ele>492.6877</ele><time>2026-07-28T02:48:56.000Z</time></trkpt>
        <trkpt lat="29.579579" lon="103.441514"><ele>492.64383</ele><time>2026-07-28T02:48:57.000Z</time></trkpt>
        <trkpt lat="29.579533" lon="103.44142"><ele>492.57733</ele><time>2026-07-28T02:48:58.000Z</time></trkpt>
        <trkpt lat="29.579484" lon="103.441325"><ele>492.60956</ele><time>2026-07-28T02:48:59.000Z</time></trkpt>
        <trkpt lat="29.579435" lon="103.441226"><ele>492.6525</ele><time>2026-07-28T02:49:00.000Z</time></trkpt>
        <trkpt lat="29.57939" lon="103.441122"><ele>492.69257</ele><time>2026-07-28T02:49:01.000Z</time></trkpt>
        <trkpt lat="29.579343" lon="103.441017"><ele>492.61896</ele><time>2026-07-28T02:49:02.000Z</time></trkpt>
        <trkpt lat="29.579297" lon="103.440911"><ele>492.75327</ele><time>2026-07-28T02:49:03.000Z</time></trkpt>
        <trkpt lat="29.579253" lon="103.440804"><ele>492.70374</ele><time>2026-07-28T02:49:04.000Z</time></trkpt>
        <trkpt lat="29.579212" lon="103.440697"><ele>492.62405</ele><time>2026-07-28T02:49:05.000Z</time></trkpt>
        <trkpt lat="29.579176" lon="103.44059"><ele>492.6172</ele><time>2026-07-28T02:49:06.000Z</time></trkpt>
        <trkpt lat="29.579163" lon="103.44048"><ele>492.89484</ele><time>2026-07-28T02:49:07.000Z</time></trkpt>
        <trkpt lat="29.579156" lon="103.440372"><ele>493.19104</ele><time>2026-07-28T02:49:08.000Z</time></trkpt>
        <trkpt lat="29.579163" lon="103.440262"><ele>492.97845</ele><time>2026-07-28T02:49:09.000Z</time></trkpt>
        <trkpt lat="29.579186" lon="103.440154"><ele>493.0218</ele><time>2026-07-28T02:49:10.000Z</time></trkpt>
        <trkpt lat="29.579215" lon="103.44005"><ele>493.55368</ele><time>2026-07-28T02:49:11.000Z</time></trkpt>
        <trkpt lat="29.579245" lon="103.439944"><ele>493.5639</ele><time>2026-07-28T02:49:12.000Z</time></trkpt>
        <trkpt lat="29.57928" lon="103.439842"><ele>493.38678</ele><time>2026-07-28T02:49:13.000Z</time></trkpt>
        <trkpt lat="29.579322" lon="103.439739"><ele>493.27176</ele><time>2026-07-28T02:49:14.000Z</time></trkpt>
        <trkpt lat="29.579365" lon="103.439637"><ele>493.34073</ele><time>2026-07-28T02:49:15.000Z</time></trkpt>
        <trkpt lat="29.579407" lon="103.439541"><ele>493.2917</ele><time>2026-07-28T02:49:16.000Z</time></trkpt>
        <trkpt lat="29.579452" lon="103.439452"><ele>493.29614</ele><time>2026-07-28T02:49:17.000Z</time></trkpt>
        <trkpt lat="29.579501" lon="103.439363"><ele>493.27994</ele><time>2026-07-28T02:49:18.000Z</time></trkpt>
        <trkpt lat="29.57955" lon="103.439274"><ele>493.40222</ele><time>2026-07-28T02:49:19.000Z</time></trkpt>
        <trkpt lat="29.579593" lon="103.439189"><ele>493.41876</ele><time>2026-07-28T02:49:20.000Z</time></trkpt>
        <trkpt lat="29.579629" lon="103.439108"><ele>493.39526</ele><time>2026-07-28T02:49:21.000Z</time></trkpt>
        <trkpt lat="29.57966" lon="103.439029"><ele>493.58344</ele><time>2026-07-28T02:49:22.000Z</time></trkpt>
        <trkpt lat="29.579676" lon="103.438951"><ele>493.3242</ele><time>2026-07-28T02:49:23.000Z</time></trkpt>
        <trkpt lat="29.57968" lon="103.438875"><ele>493.5627</ele><time>2026-07-28T02:49:24.000Z</time></trkpt>
        <trkpt lat="29.57967" lon="103.438806"><ele>493.65463</ele><time>2026-07-28T02:49:25.000Z</time></trkpt>
        <trkpt lat="29.579653" lon="103.438745"><ele>493.746</ele><time>2026-07-28T02:49:26.000Z</time></trkpt>
        <trkpt lat="29.579631" lon="103.438688"><ele>493.64468</ele><time>2026-07-28T02:49:27.000Z</time></trkpt>
        <trkpt lat="29.579602" lon="103.438633"><ele>493.46387</ele><time>2026-07-28T02:49:28.000Z</time></trkpt>
        <trkpt lat="29.579563" lon="103.438578"><ele>493.459</ele><time>2026-07-28T02:49:29.000Z</time></trkpt>
        <trkpt lat="29.579515" lon="103.43853"><ele>493.72638</ele><time>2026-07-28T02:49:30.000Z</time></trkpt>
        <trkpt lat="29.579457" lon="103.438488"><ele>493.79498</ele><time>2026-07-28T02:49:31.000Z</time></trkpt>
        <trkpt lat="29.5794" lon="103.438443"><ele>494.16443</ele><time>2026-07-28T02:49:32.000Z</time></trkpt>
        <trkpt lat="29.579349" lon="103.438402"><ele>495.1567</ele><time>2026-07-28T02:49:33.000Z</time></trkpt>
        <trkpt lat="29.579298" lon="103.438365"><ele>496.0486</ele><time>2026-07-28T02:49:34.000Z</time></trkpt>
        <trkpt lat="29.579238" lon="103.438327"><ele>496.3525</ele><time>2026-07-28T02:49:35.000Z</time></trkpt>
        <trkpt lat="29.579191" lon="103.438273"><ele>496.65683</ele><time>2026-07-28T02:49:36.000Z</time></trkpt>
        <trkpt lat="29.579131" lon="103.438252"><ele>497.34024</ele><time>2026-07-28T02:49:37.000Z</time></trkpt>
        <trkpt lat="29.57901" lon="103.438159"><ele>498.67737</ele><time>2026-07-28T02:49:39.000Z</time></trkpt>
        <trkpt lat="29.578942" lon="103.438129"><ele>498.56726</ele><time>2026-07-28T02:49:40.000Z</time></trkpt>
        <trkpt lat="29.57885" lon="103.438088"><ele>500.2377</ele><time>2026-07-28T02:49:41.000Z</time></trkpt>
        <trkpt lat="29.578761" lon="103.438065"><ele>500.87125</ele><time>2026-07-28T02:49:42.000Z</time></trkpt>
        <trkpt lat="29.57868" lon="103.438065"><ele>502.25793</ele><time>2026-07-28T02:49:43.000Z</time></trkpt>
        <trkpt lat="29.578584" lon="103.438038"><ele>501.81815</ele><time>2026-07-28T02:49:44.000Z</time></trkpt>
        <trkpt lat="29.578495" lon="103.438026"><ele>502.51434</ele><time>2026-07-28T02:49:45.000Z</time></trkpt>
        <trkpt lat="29.578403" lon="103.438022"><ele>502.77902</ele><time>2026-07-28T02:49:46.000Z</time></trkpt>
        <trkpt lat="29.578312" lon="103.438009"><ele>504.2672</ele><time>2026-07-28T02:49:47.000Z</time></trkpt>
        <trkpt lat="29.578233" lon="103.438042"><ele>504.3611</ele><time>2026-07-28T02:49:48.000Z</time></trkpt>
        <trkpt lat="29.578155" lon="103.438051"><ele>505.75012</ele><time>2026-07-28T02:49:49.000Z</time></trkpt>
        <trkpt lat="29.578078" lon="103.438068"><ele>506.1401</ele><time>2026-07-28T02:49:50.000Z</time></trkpt>
        <trkpt lat="29.577992" lon="103.438075"><ele>507.37717</ele><time>2026-07-28T02:49:51.000Z</time></trkpt>
        <trkpt lat="29.577897" lon="103.438075"><ele>508.24902</ele><time>2026-07-28T02:49:53.000Z</time></trkpt>
        <trkpt lat="29.577754" lon="103.438153"><ele>510.77545</ele><time>2026-07-28T02:49:55.000Z</time></trkpt>
        <trkpt lat="29.577675" lon="103.438194"><ele>511.73755</ele><time>2026-07-28T02:49:56.000Z</time></trkpt>
        <trkpt lat="29.577623" lon="103.438245"><ele>513.1404</ele><time>2026-07-28T02:49:57.000Z</time></trkpt>
        <trkpt lat="29.57757" lon="103.438291"><ele>514.2734</ele><time>2026-07-28T02:49:58.000Z</time></trkpt>
        <trkpt lat="29.577499" lon="103.438355"><ele>515.6131</ele><time>2026-07-28T02:49:59.000Z</time></trkpt>
        <trkpt lat="29.577439" lon="103.438409"><ele>515.95667</ele><time>2026-07-28T02:50:00.000Z</time></trkpt>
        <trkpt lat="29.577374" lon="103.438468"><ele>517.17487</ele><time>2026-07-28T02:50:01.000Z</time></trkpt>
        <trkpt lat="29.577321" lon="103.438524"><ele>518.3037</ele><time>2026-07-28T02:50:02.000Z</time></trkpt>
        <trkpt lat="29.577258" lon="103.438589"><ele>518.8454</ele><time>2026-07-28T02:50:03.000Z</time></trkpt>
        <trkpt lat="29.577189" lon="103.438633"><ele>519.3075</ele><time>2026-07-28T02:50:04.000Z</time></trkpt>
        <trkpt lat="29.57707" lon="103.43878"><ele>520.5663</ele><time>2026-07-28T02:50:06.000Z</time></trkpt>
        <trkpt lat="29.576899" lon="103.438936"><ele>521.0388</ele><time>2026-07-28T02:50:08.000Z</time></trkpt>
        <trkpt lat="29.576831" lon="103.439012"><ele>521.31976</ele><time>2026-07-28T02:50:09.000Z</time></trkpt>
        <trkpt lat="29.576766" lon="103.439079"><ele>521.6887</ele><time>2026-07-28T02:50:10.000Z</time></trkpt>
        <trkpt lat="29.576691" lon="103.439153"><ele>522.6946</ele><time>2026-07-28T02:50:11.000Z</time></trkpt>
        <trkpt lat="29.576618" lon="103.43923"><ele>523.672</ele><time>2026-07-28T02:50:12.000Z</time></trkpt>
        <trkpt lat="29.57653" lon="103.439329"><ele>523.7904</ele><time>2026-07-28T02:50:13.000Z</time></trkpt>
        <trkpt lat="29.576439" lon="103.439422"><ele>524.6745</ele><time>2026-07-28T02:50:14.000Z</time></trkpt>
        <trkpt lat="29.576353" lon="103.43951"><ele>523.57745</ele><time>2026-07-28T02:50:15.000Z</time></trkpt>
        <trkpt lat="29.57614" lon="103.439753"><ele>529.0717</ele><time>2026-07-28T02:50:18.000Z</time></trkpt>
        <trkpt lat="29.576065" lon="103.439838"><ele>529.6512</ele><time>2026-07-28T02:50:19.000Z</time></trkpt>
        <trkpt lat="29.575997" lon="103.439917"><ele>529.6771</ele><time>2026-07-28T02:50:20.000Z</time></trkpt>
        <trkpt lat="29.575925" lon="103.439988"><ele>529.297</ele><time>2026-07-28T02:50:21.000Z</time></trkpt>
        <trkpt lat="29.575854" lon="103.44008"><ele>527.7192</ele><time>2026-07-28T02:50:22.000Z</time></trkpt>
        <trkpt lat="29.575781" lon="103.440157"><ele>526.9687</ele><time>2026-07-28T02:50:23.000Z</time></trkpt>
        <trkpt lat="29.575706" lon="103.440239"><ele>526.7255</ele><time>2026-07-28T02:50:24.000Z</time></trkpt>
        <trkpt lat="29.575624" lon="103.440322"><ele>525.9911</ele><time>2026-07-28T02:50:25.000Z</time></trkpt>
        <trkpt lat="29.575546" lon="103.440408"><ele>525.81793</ele><time>2026-07-28T02:50:26.000Z</time></trkpt>
        <trkpt lat="29.57547" lon="103.440493"><ele>525.41034</ele><time>2026-07-28T02:50:27.000Z</time></trkpt>
        <trkpt lat="29.575395" lon="103.440573"><ele>525.08264</ele><time>2026-07-28T02:50:28.000Z</time></trkpt>
        <trkpt lat="29.575315" lon="103.440656"><ele>524.64124</ele><time>2026-07-28T02:50:29.000Z</time></trkpt>
        <trkpt lat="29.575234" lon="103.440738"><ele>524.1591</ele><time>2026-07-28T02:50:30.000Z</time></trkpt>
        <trkpt lat="29.57515" lon="103.440821"><ele>524.40894</ele><time>2026-07-28T02:50:31.000Z</time></trkpt>
        <trkpt lat="29.57507" lon="103.440903"><ele>523.48193</ele><time>2026-07-28T02:50:32.000Z</time></trkpt>
        <trkpt lat="29.57499" lon="103.440987"><ele>522.7328</ele><time>2026-07-28T02:50:33.000Z</time></trkpt>
        <trkpt lat="29.574913" lon="103.441066"><ele>522.7546</ele><time>2026-07-28T02:50:34.000Z</time></trkpt>
        <trkpt lat="29.574831" lon="103.441147"><ele>522.98785</ele><time>2026-07-28T02:50:35.000Z</time></trkpt>
        <trkpt lat="29.574754" lon="103.441233"><ele>522.22705</ele><time>2026-07-28T02:50:36.000Z</time></trkpt>
        <trkpt lat="29.574679" lon="103.441312"><ele>521.62885</ele><time>2026-07-28T02:50:37.000Z</time></trkpt>
        <trkpt lat="29.5746" lon="103.441397"><ele>521.26416</ele><time>2026-07-28T02:50:38.000Z</time></trkpt>
        <trkpt lat="29.574516" lon="103.441478"><ele>521.4875</ele><time>2026-07-28T02:50:39.000Z</time></trkpt>
        <trkpt lat="29.574433" lon="103.441561"><ele>521.6152</ele><time>2026-07-28T02:50:40.000Z</time></trkpt>
        <trkpt lat="29.574359" lon="103.441647"><ele>521.2085</ele><time>2026-07-28T02:50:41.000Z</time></trkpt>
        <trkpt lat="29.574284" lon="103.441727"><ele>521.0152</ele><time>2026-07-28T02:50:42.000Z</time></trkpt>
        <trkpt lat="29.574215" lon="103.441809"><ele>520.6615</ele><time>2026-07-28T02:50:43.000Z</time></trkpt>
        <trkpt lat="29.574144" lon="103.441897"><ele>519.69836</ele><time>2026-07-28T02:50:44.000Z</time></trkpt>
        <trkpt lat="29.574077" lon="103.441971"><ele>519.2239</ele><time>2026-07-28T02:50:45.000Z</time></trkpt>
        <trkpt lat="29.574009" lon="103.442032"><ele>518.6921</ele><time>2026-07-28T02:50:46.000Z</time></trkpt>
        <trkpt lat="29.573946" lon="103.442094"><ele>518.4233</ele><time>2026-07-28T02:50:47.000Z</time></trkpt>
        <trkpt lat="29.573869" lon="103.442131"><ele>518.77136</ele><time>2026-07-28T02:50:48.000Z</time></trkpt>
        <trkpt lat="29.573796" lon="103.44217"><ele>518.94885</ele><time>2026-07-28T02:50:49.000Z</time></trkpt>
        <trkpt lat="29.573732" lon="103.442205"><ele>519.5532</ele><time>2026-07-28T02:50:50.000Z</time></trkpt>
        <trkpt lat="29.573653" lon="103.442249"><ele>519.311</ele><time>2026-07-28T02:50:51.000Z</time></trkpt>
        <trkpt lat="29.57358" lon="103.442265"><ele>519.4113</ele><time>2026-07-28T02:50:51.000Z</time></trkpt>
        <trkpt lat="29.573527" lon="103.442263"><ele>519.32684</ele><time>2026-07-28T02:50:52.000Z</time></trkpt>
        <trkpt lat="29.573475" lon="103.442257"><ele>518.9434</ele><time>2026-07-28T02:50:53.000Z</time></trkpt>
        <trkpt lat="29.573338" lon="103.44225"><ele>519.20715</ele><time>2026-07-28T02:50:55.000Z</time></trkpt>
        <trkpt lat="29.573245" lon="103.442245"><ele>519.56586</ele><time>2026-07-28T02:50:56.000Z</time></trkpt>
        <trkpt lat="29.573053" lon="103.442383"><ele>520.3693</ele><time>2026-07-28T02:50:58.000Z</time></trkpt>
        <trkpt lat="29.572974" lon="103.442366"><ele>521.2715</ele><time>2026-07-28T02:50:59.000Z</time></trkpt>
        <trkpt lat="29.572892" lon="103.442369"><ele>522.12164</ele><time>2026-07-28T02:51:00.000Z</time></trkpt>
        <trkpt lat="29.572815" lon="103.44238"><ele>522.9473</ele><time>2026-07-28T02:51:01.000Z</time></trkpt>
        <trkpt lat="29.572738" lon="103.442392"><ele>522.6272</ele><time>2026-07-28T02:51:02.000Z</time></trkpt>
        <trkpt lat="29.57266" lon="103.442405"><ele>523.6011</ele><time>2026-07-28T02:51:03.000Z</time></trkpt>
        <trkpt lat="29.572584" lon="103.442446"><ele>524.1296</ele><time>2026-07-28T02:51:04.000Z</time></trkpt>
        <trkpt lat="29.572501" lon="103.442487"><ele>524.9641</ele><time>2026-07-28T02:51:05.000Z</time></trkpt>
        <trkpt lat="29.572437" lon="103.442539"><ele>525.6511</ele><time>2026-07-28T02:51:06.000Z</time></trkpt>
        <trkpt lat="29.572369" lon="103.442588"><ele>525.8776</ele><time>2026-07-28T02:51:07.000Z</time></trkpt>
        <trkpt lat="29.572298" lon="103.442644"><ele>526.8381</ele><time>2026-07-28T02:51:08.000Z</time></trkpt>
        <trkpt lat="29.572224" lon="103.442699"><ele>527.3195</ele><time>2026-07-28T02:51:09.000Z</time></trkpt>
        <trkpt lat="29.572148" lon="103.442763"><ele>527.7574</ele><time>2026-07-28T02:51:10.000Z</time></trkpt>
        <trkpt lat="29.572061" lon="103.442821"><ele>528.7549</ele><time>2026-07-28T02:51:11.000Z</time></trkpt>
        <trkpt lat="29.571853" lon="103.442898"><ele>530.20807</ele><time>2026-07-28T02:51:13.000Z</time></trkpt>
        <trkpt lat="29.571727" lon="103.443109"><ele>530.9303</ele><time>2026-07-28T02:51:15.000Z</time></trkpt>
        <trkpt lat="29.571638" lon="103.443181"><ele>531.5184</ele><time>2026-07-28T02:51:16.000Z</time></trkpt>
        <trkpt lat="29.571551" lon="103.443261"><ele>532.64453</ele><time>2026-07-28T02:51:17.000Z</time></trkpt>
        <trkpt lat="29.571461" lon="103.443345"><ele>533.5849</ele><time>2026-07-28T02:51:18.000Z</time></trkpt>
        <trkpt lat="29.571383" lon="103.443418"><ele>532.5424</ele><time>2026-07-28T02:51:19.000Z</time></trkpt>
        <trkpt lat="29.571301" lon="103.443483"><ele>532.03906</ele><time>2026-07-28T02:51:20.000Z</time></trkpt>
        <trkpt lat="29.571225" lon="103.443564"><ele>531.96027</ele><time>2026-07-28T02:51:21.000Z</time></trkpt>
        <trkpt lat="29.57114" lon="103.443625"><ele>531.6289</ele><time>2026-07-28T02:51:22.000Z</time></trkpt>
        <trkpt lat="29.571058" lon="103.443696"><ele>531.3294</ele><time>2026-07-28T02:51:23.000Z</time></trkpt>
        <trkpt lat="29.570964" lon="103.44376"><ele>531.05444</ele><time>2026-07-28T02:51:24.000Z</time></trkpt>
        <trkpt lat="29.570876" lon="103.443801"><ele>531.92694</ele><time>2026-07-28T02:51:25.000Z</time></trkpt>
        <trkpt lat="29.57079" lon="103.443834"><ele>531.68787</ele><time>2026-07-28T02:51:26.000Z</time></trkpt>
        <trkpt lat="29.5707" lon="103.443856"><ele>531.464</ele><time>2026-07-28T02:51:27.000Z</time></trkpt>
        <trkpt lat="29.570614" lon="103.443871"><ele>531.1593</ele><time>2026-07-28T02:51:28.000Z</time></trkpt>
        <trkpt lat="29.570478" lon="103.443917"><ele>531.2452</ele><time>2026-07-28T02:51:30.000Z</time></trkpt>
        <trkpt lat="29.570403" lon="103.443941"><ele>530.2163</ele><time>2026-07-28T02:51:31.000Z</time></trkpt>
        <trkpt lat="29.570315" lon="103.443969"><ele>529.95996</ele><time>2026-07-28T02:51:32.000Z</time></trkpt>
        <trkpt lat="29.570224" lon="103.444016"><ele>529.55365</ele><time>2026-07-28T02:51:33.000Z</time></trkpt>
        <trkpt lat="29.570143" lon="103.444026"><ele>529.4389</ele><time>2026-07-28T02:51:34.000Z</time></trkpt>
        <trkpt lat="29.570062" lon="103.444028"><ele>529.1101</ele><time>2026-07-28T02:51:35.000Z</time></trkpt>
        <trkpt lat="29.569974" lon="103.444028"><ele>528.6457</ele><time>2026-07-28T02:51:36.000Z</time></trkpt>
        <trkpt lat="29.569867" lon="103.444019"><ele>526.8745</ele><time>2026-07-28T02:51:37.000Z</time></trkpt>
        <trkpt lat="29.56977" lon="103.444016"><ele>524.2381</ele><time>2026-07-28T02:51:38.000Z</time></trkpt>
        <trkpt lat="29.569669" lon="103.443998"><ele>523.6316</ele><time>2026-07-28T02:51:39.000Z</time></trkpt>
        <trkpt lat="29.569588" lon="103.443992"><ele>521.6516</ele><time>2026-07-28T02:51:40.000Z</time></trkpt>
        <trkpt lat="29.569509" lon="103.443985"><ele>521.40625</ele><time>2026-07-28T02:51:41.000Z</time></trkpt>
        <trkpt lat="29.569411" lon="103.443981"><ele>521.2826</ele><time>2026-07-28T02:51:42.000Z</time></trkpt>
        <trkpt lat="29.569322" lon="103.443992"><ele>521.6698</ele><time>2026-07-28T02:51:43.000Z</time></trkpt>
        <trkpt lat="29.569245" lon="103.443999"><ele>520.4536</ele><time>2026-07-28T02:51:44.000Z</time></trkpt>
        <trkpt lat="29.569183" lon="103.444017"><ele>518.7511</ele><time>2026-07-28T02:51:45.000Z</time></trkpt>
        <trkpt lat="29.569114" lon="103.444034"><ele>518.458</ele><time>2026-07-28T02:51:46.000Z</time></trkpt>
        <trkpt lat="29.569037" lon="103.444073"><ele>516.92017</ele><time>2026-07-28T02:51:47.000Z</time></trkpt>
        <trkpt lat="29.568933" lon="103.444136"><ele>516.6619</ele><time>2026-07-28T02:51:48.000Z</time></trkpt>
        <trkpt lat="29.568858" lon="103.444185"><ele>515.3459</ele><time>2026-07-28T02:51:49.000Z</time></trkpt>
        <trkpt lat="29.568771" lon="103.444199"><ele>515.1359</ele><time>2026-07-28T02:51:50.000Z</time></trkpt>
        <trkpt lat="29.56872" lon="103.444277"><ele>514.627</ele><time>2026-07-28T02:51:51.000Z</time></trkpt>
        <trkpt lat="29.568672" lon="103.444334"><ele>513.9826</ele><time>2026-07-28T02:51:52.000Z</time></trkpt>
        <trkpt lat="29.568603" lon="103.444345"><ele>513.1065</ele><time>2026-07-28T02:51:53.000Z</time></trkpt>
        <trkpt lat="29.568562" lon="103.444382"><ele>512.87695</ele><time>2026-07-28T02:51:54.000Z</time></trkpt>
        <trkpt lat="29.568514" lon="103.444419"><ele>511.9518</ele><time>2026-07-28T02:51:55.000Z</time></trkpt>
        <trkpt lat="29.568491" lon="103.444478"><ele>511.52344</ele><time>2026-07-28T02:51:56.000Z</time></trkpt>
        <trkpt lat="29.568471" lon="103.444528"><ele>511.36346</ele><time>2026-07-28T02:51:57.000Z</time></trkpt>
        <trkpt lat="29.568475" lon="103.444599"><ele>511.3255</ele><time>2026-07-28T02:52:00.000Z</time></trkpt>
        <trkpt lat="29.568467" lon="103.444661"><ele>512.11536</ele><time>2026-07-28T02:52:03.000Z</time></trkpt>
        <trkpt lat="29.568495" lon="103.444777"><ele>512.4093</ele><time>2026-07-28T02:52:05.000Z</time></trkpt>
        <trkpt lat="29.568549" lon="103.444879"><ele>512.3862</ele><time>2026-07-28T02:52:07.000Z</time></trkpt>
        <trkpt lat="29.56857" lon="103.444951"><ele>512.1058</ele><time>2026-07-28T02:52:08.000Z</time></trkpt>
        <trkpt lat="29.5686" lon="103.445026"><ele>511.6286</ele><time>2026-07-28T02:52:09.000Z</time></trkpt>
        <trkpt lat="29.568619" lon="103.445112"><ele>510.7544</ele><time>2026-07-28T02:52:10.000Z</time></trkpt>
        <trkpt lat="29.568643" lon="103.445205"><ele>510.5158</ele><time>2026-07-28T02:52:11.000Z</time></trkpt>
        <trkpt lat="29.568669" lon="103.445304"><ele>510.15878</ele><time>2026-07-28T02:52:12.000Z</time></trkpt>
        <trkpt lat="29.568692" lon="103.445399"><ele>509.30933</ele><time>2026-07-28T02:52:13.000Z</time></trkpt>
        <trkpt lat="29.568718" lon="103.445493"><ele>509.02393</ele><time>2026-07-28T02:52:14.000Z</time></trkpt>
        <trkpt lat="29.568744" lon="103.445585"><ele>508.55872</ele><time>2026-07-28T02:52:15.000Z</time></trkpt>
        <trkpt lat="29.56876" lon="103.445674"><ele>507.9646</ele><time>2026-07-28T02:52:16.000Z</time></trkpt>
        <trkpt lat="29.568782" lon="103.445759"><ele>507.9729</ele><time>2026-07-28T02:52:17.000Z</time></trkpt>
        <trkpt lat="29.568816" lon="103.445837"><ele>507.99066</ele><time>2026-07-28T02:52:18.000Z</time></trkpt>
        <trkpt lat="29.56883" lon="103.445911"><ele>507.36206</ele><time>2026-07-28T02:52:19.000Z</time></trkpt>
        <trkpt lat="29.568843" lon="103.445974"><ele>506.9911</ele><time>2026-07-28T02:52:20.000Z</time></trkpt>
        <trkpt lat="29.568855" lon="103.446024"><ele>506.67117</ele><time>2026-07-28T02:52:21.000Z</time></trkpt>
        <trkpt lat="29.568857" lon="103.446083"><ele>506.3241</ele><time>2026-07-28T02:52:22.000Z</time></trkpt>
        <trkpt lat="29.568859" lon="103.446135"><ele>506.00662</ele><time>2026-07-28T02:52:23.000Z</time></trkpt>
        <trkpt lat="29.568908" lon="103.446252"><ele>505.2664</ele><time>2026-07-28T02:52:25.000Z</time></trkpt>
        <trkpt lat="29.568926" lon="103.44631"><ele>505.22128</ele><time>2026-07-28T02:52:26.000Z</time></trkpt>
        <trkpt lat="29.568946" lon="103.446364"><ele>505.27023</ele><time>2026-07-28T02:52:27.000Z</time></trkpt>
        <trkpt lat="29.569045" lon="103.446471"><ele>503.2583</ele><time>2026-07-28T02:52:29.000Z</time></trkpt>
        <trkpt lat="29.569066" lon="103.446548"><ele>503.17346</ele><time>2026-07-28T02:52:30.000Z</time></trkpt>
        <trkpt lat="29.569088" lon="103.446626"><ele>503.05786</ele><time>2026-07-28T02:52:31.000Z</time></trkpt>
        <trkpt lat="29.569106" lon="103.446713"><ele>503.3735</ele><time>2026-07-28T02:52:32.000Z</time></trkpt>
        <trkpt lat="29.569128" lon="103.446803"><ele>503.7221</ele><time>2026-07-28T02:52:33.000Z</time></trkpt>
        <trkpt lat="29.569148" lon="103.446886"><ele>503.74582</ele><time>2026-07-28T02:52:34.000Z</time></trkpt>
        <trkpt lat="29.569168" lon="103.446972"><ele>503.98004</ele><time>2026-07-28T02:52:35.000Z</time></trkpt>
        <trkpt lat="29.569185" lon="103.447044"><ele>503.7082</ele><time>2026-07-28T02:52:36.000Z</time></trkpt>
        <trkpt lat="29.569206" lon="103.44713"><ele>504.20908</ele><time>2026-07-28T02:52:37.000Z</time></trkpt>
        <trkpt lat="29.56923" lon="103.447202"><ele>504.14722</ele><time>2026-07-28T02:52:38.000Z</time></trkpt>
        <trkpt lat="29.569251" lon="103.447279"><ele>504.22653</ele><time>2026-07-28T02:52:39.000Z</time></trkpt>
        <trkpt lat="29.569272" lon="103.447354"><ele>503.55765</ele><time>2026-07-28T02:52:40.000Z</time></trkpt>
        <trkpt lat="29.569293" lon="103.44743"><ele>503.53976</ele><time>2026-07-28T02:52:41.000Z</time></trkpt>
        <trkpt lat="29.569314" lon="103.447509"><ele>503.13898</ele><time>2026-07-28T02:52:42.000Z</time></trkpt>
        <trkpt lat="29.569333" lon="103.447591"><ele>502.64713</ele><time>2026-07-28T02:52:43.000Z</time></trkpt>
        <trkpt lat="29.569355" lon="103.447676"><ele>502.5043</ele><time>2026-07-28T02:52:44.000Z</time></trkpt>
        <trkpt lat="29.569378" lon="103.447765"><ele>502.11642</ele><time>2026-07-28T02:52:45.000Z</time></trkpt>
        <trkpt lat="29.569399" lon="103.447849"><ele>501.68835</ele><time>2026-07-28T02:52:46.000Z</time></trkpt>
        <trkpt lat="29.569421" lon="103.447934"><ele>501.29745</ele><time>2026-07-28T02:52:47.000Z</time></trkpt>
        <trkpt lat="29.569443" lon="103.448019"><ele>500.62955</ele><time>2026-07-28T02:52:48.000Z</time></trkpt>
        <trkpt lat="29.569464" lon="103.448103"><ele>500.2729</ele><time>2026-07-28T02:52:49.000Z</time></trkpt>
        <trkpt lat="29.569485" lon="103.448186"><ele>499.91263</ele><time>2026-07-28T02:52:50.000Z</time></trkpt>
        <trkpt lat="29.569505" lon="103.448267"><ele>499.50543</ele><time>2026-07-28T02:52:51.000Z</time></trkpt>
        <trkpt lat="29.569526" lon="103.448351"><ele>499.32492</ele><time>2026-07-28T02:52:52.000Z</time></trkpt>
        <trkpt lat="29.569546" lon="103.448432"><ele>499.38696</ele><time>2026-07-28T02:52:53.000Z</time></trkpt>
        <trkpt lat="29.569566" lon="103.448516"><ele>499.66373</ele><time>2026-07-28T02:52:54.000Z</time></trkpt>
        <trkpt lat="29.569583" lon="103.448583"><ele>499.85254</ele><time>2026-07-28T02:52:55.000Z</time></trkpt>
        <trkpt lat="29.569601" lon="103.448656"><ele>499.37555</ele><time>2026-07-28T02:52:56.000Z</time></trkpt>
        <trkpt lat="29.569619" lon="103.448729"><ele>499.21002</ele><time>2026-07-28T02:52:57.000Z</time></trkpt>
        <trkpt lat="29.569637" lon="103.448801"><ele>499.30396</ele><time>2026-07-28T02:52:58.000Z</time></trkpt>
        <trkpt lat="29.569653" lon="103.448867"><ele>498.70322</ele><time>2026-07-28T02:52:59.000Z</time></trkpt>
        <trkpt lat="29.56967" lon="103.448936"><ele>498.48334</ele><time>2026-07-28T02:53:00.000Z</time></trkpt>
        <trkpt lat="29.569687" lon="103.449007"><ele>498.78226</ele><time>2026-07-28T02:53:00.000Z</time></trkpt>
        <trkpt lat="29.569703" lon="103.449071"><ele>498.78687</ele><time>2026-07-28T02:53:01.000Z</time></trkpt>
        <trkpt lat="29.569717" lon="103.449128"><ele>498.1942</ele><time>2026-07-28T02:53:02.000Z</time></trkpt>
        <trkpt lat="29.569736" lon="103.449202"><ele>498.18973</ele><time>2026-07-28T02:53:04.000Z</time></trkpt>
        <trkpt lat="29.569752" lon="103.449264"><ele>498.35672</ele><time>2026-07-28T02:53:06.000Z</time></trkpt>
        <trkpt lat="29.569766" lon="103.449321"><ele>499.04532</ele><time>2026-07-28T02:53:08.000Z</time></trkpt>
        <trkpt lat="29.569622" lon="103.449376"><ele>495.23648</ele><time>2026-07-28T02:53:44.000Z</time></trkpt>
        <trkpt lat="29.569645" lon="103.449427"><ele>495.49457</ele><time>2026-07-28T02:53:49.000Z</time></trkpt>
        <trkpt lat="29.569657" lon="103.449486"><ele>496.14426</ele><time>2026-07-28T02:53:54.000Z</time></trkpt>
      </trkseg>
  </trk>
</gpx>